<?xml version="1.0" encoding="UTF-8" standalone="no" ?>
<gpx xmlns="http://www.topografix.com/GPX/1/1" xmlns:xsi="http://www.w3.org/2001/XMLSchema-instance" xsi:schemaLocation="http://www.topografix.com/GPX/1/1 http://www.topografix.com/GPX/1/1/gpx.xsd" version="1.1" creator="VisuGPX - https://www.visugpx.com">
  <metadata>
    <name>Orange Thorens gliere</name>
    <desc><![CDATA[Orange Thorens gliere]]></desc>
  </metadata>
  <wpt lat="46.07329" lon="6.39249">
    <ele>458</ele>
  </wpt>
  <wpt lat="45.95082" lon="6.30022">
    <ele>1204</ele>
  </wpt>
  <trk>
    <name><![CDATA[Orange Thorens gliere_1]]></name>
    <trkseg>
      <trkpt lat="46.07329" lon="6.39249">
        <ele>458</ele>
        <time>2011-04-16T07:50:27Z</time>
      </trkpt>
      <trkpt lat="46.07329" lon="6.39235">
        <ele>471</ele>
        <time>2011-04-16T07:50:32Z</time>
      </trkpt>
      <trkpt lat="46.0732" lon="6.39231">
        <ele>471</ele>
        <time>2011-04-16T07:51:00Z</time>
      </trkpt>
      <trkpt lat="46.0731" lon="6.39221">
        <ele>471</ele>
        <time>2011-04-16T07:51:03Z</time>
      </trkpt>
      <trkpt lat="46.07303" lon="6.39212">
        <ele>471</ele>
        <time>2011-04-16T07:51:05Z</time>
      </trkpt>
      <trkpt lat="46.073" lon="6.39196">
        <ele>471</ele>
        <time>2011-04-16T07:51:07Z</time>
      </trkpt>
      <trkpt lat="46.07299" lon="6.39171">
        <ele>471</ele>
        <time>2011-04-16T07:51:09Z</time>
      </trkpt>
      <trkpt lat="46.07298" lon="6.39156">
        <ele>471</ele>
        <time>2011-04-16T07:51:10Z</time>
      </trkpt>
      <trkpt lat="46.07297" lon="6.39139">
        <ele>471</ele>
        <time>2011-04-16T07:51:11Z</time>
      </trkpt>
      <trkpt lat="46.07296" lon="6.3912">
        <ele>466</ele>
        <time>2011-04-16T07:51:12Z</time>
      </trkpt>
      <trkpt lat="46.07295" lon="6.39099">
        <ele>466</ele>
        <time>2011-04-16T07:51:13Z</time>
      </trkpt>
      <trkpt lat="46.07294" lon="6.39079">
        <ele>466</ele>
        <time>2011-04-16T07:51:14Z</time>
      </trkpt>
      <trkpt lat="46.07292" lon="6.39059">
        <ele>466</ele>
        <time>2011-04-16T07:51:15Z</time>
      </trkpt>
      <trkpt lat="46.07291" lon="6.39041">
        <ele>466</ele>
        <time>2011-04-16T07:51:16Z</time>
      </trkpt>
      <trkpt lat="46.07291" lon="6.39024">
        <ele>466</ele>
        <time>2011-04-16T07:51:17Z</time>
      </trkpt>
      <trkpt lat="46.0729" lon="6.39005">
        <ele>466</ele>
        <time>2011-04-16T07:51:18Z</time>
      </trkpt>
      <trkpt lat="46.07289" lon="6.38985">
        <ele>466</ele>
        <time>2011-04-16T07:51:19Z</time>
      </trkpt>
      <trkpt lat="46.07288" lon="6.38965">
        <ele>466</ele>
        <time>2011-04-16T07:51:20Z</time>
      </trkpt>
      <trkpt lat="46.07287" lon="6.38942">
        <ele>466</ele>
        <time>2011-04-16T07:51:21Z</time>
      </trkpt>
      <trkpt lat="46.07286" lon="6.3892">
        <ele>466</ele>
        <time>2011-04-16T07:51:22Z</time>
      </trkpt>
      <trkpt lat="46.07285" lon="6.38896">
        <ele>466</ele>
        <time>2011-04-16T07:51:23Z</time>
      </trkpt>
      <trkpt lat="46.07284" lon="6.38873">
        <ele>466</ele>
        <time>2011-04-16T07:51:24Z</time>
      </trkpt>
      <trkpt lat="46.07283" lon="6.3885">
        <ele>466</ele>
        <time>2011-04-16T07:51:25Z</time>
      </trkpt>
      <trkpt lat="46.07281" lon="6.38828">
        <ele>466</ele>
        <time>2011-04-16T07:51:26Z</time>
      </trkpt>
      <trkpt lat="46.0728" lon="6.38806">
        <ele>466</ele>
        <time>2011-04-16T07:51:27Z</time>
      </trkpt>
      <trkpt lat="46.07278" lon="6.38786">
        <ele>466</ele>
        <time>2011-04-16T07:51:28Z</time>
      </trkpt>
      <trkpt lat="46.07277" lon="6.38768">
        <ele>466</ele>
        <time>2011-04-16T07:51:29Z</time>
      </trkpt>
      <trkpt lat="46.07276" lon="6.38753">
        <ele>466</ele>
        <time>2011-04-16T07:51:30Z</time>
      </trkpt>
      <trkpt lat="46.07275" lon="6.3874">
        <ele>466</ele>
        <time>2011-04-16T07:51:31Z</time>
      </trkpt>
      <trkpt lat="46.07269" lon="6.3872">
        <ele>466</ele>
        <time>2011-04-16T07:51:33Z</time>
      </trkpt>
      <trkpt lat="46.07254" lon="6.38708">
        <ele>466</ele>
        <time>2011-04-16T07:51:35Z</time>
      </trkpt>
      <trkpt lat="46.07245" lon="6.38702">
        <ele>466</ele>
        <time>2011-04-16T07:51:36Z</time>
      </trkpt>
      <trkpt lat="46.07236" lon="6.38697">
        <ele>466</ele>
        <time>2011-04-16T07:51:37Z</time>
      </trkpt>
      <trkpt lat="46.07227" lon="6.38691">
        <ele>466</ele>
        <time>2011-04-16T07:51:38Z</time>
      </trkpt>
      <trkpt lat="46.07211" lon="6.38682">
        <ele>466</ele>
        <time>2011-04-16T07:51:40Z</time>
      </trkpt>
      <trkpt lat="46.07196" lon="6.38674">
        <ele>466</ele>
        <time>2011-04-16T07:51:42Z</time>
      </trkpt>
      <trkpt lat="46.07186" lon="6.38669">
        <ele>466</ele>
        <time>2011-04-16T07:51:44Z</time>
      </trkpt>
      <trkpt lat="46.07176" lon="6.38666">
        <ele>466</ele>
        <time>2011-04-16T07:52:01Z</time>
      </trkpt>
      <trkpt lat="46.07161" lon="6.38661">
        <ele>466</ele>
        <time>2011-04-16T07:52:03Z</time>
      </trkpt>
      <trkpt lat="46.07151" lon="6.38656">
        <ele>466</ele>
        <time>2011-04-16T07:52:04Z</time>
      </trkpt>
      <trkpt lat="46.0714" lon="6.3865">
        <ele>466</ele>
        <time>2011-04-16T07:52:05Z</time>
      </trkpt>
      <trkpt lat="46.07128" lon="6.38643">
        <ele>466</ele>
        <time>2011-04-16T07:52:06Z</time>
      </trkpt>
      <trkpt lat="46.07116" lon="6.38634">
        <ele>466</ele>
        <time>2011-04-16T07:52:07Z</time>
      </trkpt>
      <trkpt lat="46.07106" lon="6.38623">
        <ele>466</ele>
        <time>2011-04-16T07:52:08Z</time>
      </trkpt>
      <trkpt lat="46.07095" lon="6.38611">
        <ele>466</ele>
        <time>2011-04-16T07:52:09Z</time>
      </trkpt>
      <trkpt lat="46.07084" lon="6.38597">
        <ele>466</ele>
        <time>2011-04-16T07:52:10Z</time>
      </trkpt>
      <trkpt lat="46.07074" lon="6.38582">
        <ele>466</ele>
        <time>2011-04-16T07:52:11Z</time>
      </trkpt>
      <trkpt lat="46.07064" lon="6.38565">
        <ele>466</ele>
        <time>2011-04-16T07:52:12Z</time>
      </trkpt>
      <trkpt lat="46.07052" lon="6.38548">
        <ele>466</ele>
        <time>2011-04-16T07:52:13Z</time>
      </trkpt>
      <trkpt lat="46.07041" lon="6.38529">
        <ele>466</ele>
        <time>2011-04-16T07:52:14Z</time>
      </trkpt>
      <trkpt lat="46.0703" lon="6.3851">
        <ele>466</ele>
        <time>2011-04-16T07:52:15Z</time>
      </trkpt>
      <trkpt lat="46.0702" lon="6.3849">
        <ele>466</ele>
        <time>2011-04-16T07:52:16Z</time>
      </trkpt>
      <trkpt lat="46.0701" lon="6.38472">
        <ele>466</ele>
        <time>2011-04-16T07:52:17Z</time>
      </trkpt>
      <trkpt lat="46.07" lon="6.38456">
        <ele>466</ele>
        <time>2011-04-16T07:52:18Z</time>
      </trkpt>
      <trkpt lat="46.06989" lon="6.38443">
        <ele>466</ele>
        <time>2011-04-16T07:52:19Z</time>
      </trkpt>
      <trkpt lat="46.06977" lon="6.38431">
        <ele>466</ele>
        <time>2011-04-16T07:52:20Z</time>
      </trkpt>
      <trkpt lat="46.06963" lon="6.38421">
        <ele>466</ele>
        <time>2011-04-16T07:52:21Z</time>
      </trkpt>
      <trkpt lat="46.06946" lon="6.38415">
        <ele>466</ele>
        <time>2011-04-16T07:52:22Z</time>
      </trkpt>
      <trkpt lat="46.0693" lon="6.38408">
        <ele>466</ele>
        <time>2011-04-16T07:52:23Z</time>
      </trkpt>
      <trkpt lat="46.06915" lon="6.38403">
        <ele>466</ele>
        <time>2011-04-16T07:52:24Z</time>
      </trkpt>
      <trkpt lat="46.06901" lon="6.38398">
        <ele>466</ele>
        <time>2011-04-16T07:52:25Z</time>
      </trkpt>
      <trkpt lat="46.06888" lon="6.38393">
        <ele>466</ele>
        <time>2011-04-16T07:52:26Z</time>
      </trkpt>
      <trkpt lat="46.06876" lon="6.38389">
        <ele>466</ele>
        <time>2011-04-16T07:52:27Z</time>
      </trkpt>
      <trkpt lat="46.06864" lon="6.38385">
        <ele>466</ele>
        <time>2011-04-16T07:52:28Z</time>
      </trkpt>
      <trkpt lat="46.06854" lon="6.38382">
        <ele>466</ele>
        <time>2011-04-16T07:52:29Z</time>
      </trkpt>
      <trkpt lat="46.06844" lon="6.38378">
        <ele>466</ele>
        <time>2011-04-16T07:52:30Z</time>
      </trkpt>
      <trkpt lat="46.06833" lon="6.38371">
        <ele>471</ele>
        <time>2011-04-16T07:52:32Z</time>
      </trkpt>
      <trkpt lat="46.06827" lon="6.38353">
        <ele>471</ele>
        <time>2011-04-16T07:52:35Z</time>
      </trkpt>
      <trkpt lat="46.06828" lon="6.38331">
        <ele>471</ele>
        <time>2011-04-16T07:52:37Z</time>
      </trkpt>
      <trkpt lat="46.06829" lon="6.38317">
        <ele>471</ele>
        <time>2011-04-16T07:52:38Z</time>
      </trkpt>
      <trkpt lat="46.06829" lon="6.38302">
        <ele>471</ele>
        <time>2011-04-16T07:52:39Z</time>
      </trkpt>
      <trkpt lat="46.0683" lon="6.38285">
        <ele>471</ele>
        <time>2011-04-16T07:52:40Z</time>
      </trkpt>
      <trkpt lat="46.06831" lon="6.3827">
        <ele>471</ele>
        <time>2011-04-16T07:52:41Z</time>
      </trkpt>
      <trkpt lat="46.06831" lon="6.38257">
        <ele>471</ele>
        <time>2011-04-16T07:52:42Z</time>
      </trkpt>
      <trkpt lat="46.06831" lon="6.38233">
        <ele>471</ele>
        <time>2011-04-16T07:52:44Z</time>
      </trkpt>
      <trkpt lat="46.06824" lon="6.38217">
        <ele>471</ele>
        <time>2011-04-16T07:52:46Z</time>
      </trkpt>
      <trkpt lat="46.06809" lon="6.38205">
        <ele>471</ele>
        <time>2011-04-16T07:52:48Z</time>
      </trkpt>
      <trkpt lat="46.06799" lon="6.38201">
        <ele>471</ele>
        <time>2011-04-16T07:52:49Z</time>
      </trkpt>
      <trkpt lat="46.06788" lon="6.38197">
        <ele>471</ele>
        <time>2011-04-16T07:52:50Z</time>
      </trkpt>
      <trkpt lat="46.06778" lon="6.38193">
        <ele>471</ele>
        <time>2011-04-16T07:52:51Z</time>
      </trkpt>
      <trkpt lat="46.06768" lon="6.38189">
        <ele>471</ele>
        <time>2011-04-16T07:52:52Z</time>
      </trkpt>
      <trkpt lat="46.06756" lon="6.38185">
        <ele>471</ele>
        <time>2011-04-16T07:52:53Z</time>
      </trkpt>
      <trkpt lat="46.06746" lon="6.3818">
        <ele>471</ele>
        <time>2011-04-16T07:52:54Z</time>
      </trkpt>
      <trkpt lat="46.06734" lon="6.38177">
        <ele>471</ele>
        <time>2011-04-16T07:52:55Z</time>
      </trkpt>
      <trkpt lat="46.06723" lon="6.38172">
        <ele>471</ele>
        <time>2011-04-16T07:52:56Z</time>
      </trkpt>
      <trkpt lat="46.06711" lon="6.38167">
        <ele>471</ele>
        <time>2011-04-16T07:52:57Z</time>
      </trkpt>
      <trkpt lat="46.06701" lon="6.3816">
        <ele>471</ele>
        <time>2011-04-16T07:52:58Z</time>
      </trkpt>
      <trkpt lat="46.06691" lon="6.38151">
        <ele>471</ele>
        <time>2011-04-16T07:52:59Z</time>
      </trkpt>
      <trkpt lat="46.06681" lon="6.3814">
        <ele>471</ele>
        <time>2011-04-16T07:53:00Z</time>
      </trkpt>
      <trkpt lat="46.06673" lon="6.38126">
        <ele>471</ele>
        <time>2011-04-16T07:53:01Z</time>
      </trkpt>
      <trkpt lat="46.06666" lon="6.3811">
        <ele>471</ele>
        <time>2011-04-16T07:53:02Z</time>
      </trkpt>
      <trkpt lat="46.0666" lon="6.38094">
        <ele>471</ele>
        <time>2011-04-16T07:53:03Z</time>
      </trkpt>
      <trkpt lat="46.06653" lon="6.38078">
        <ele>471</ele>
        <time>2011-04-16T07:53:04Z</time>
      </trkpt>
      <trkpt lat="46.06646" lon="6.38063">
        <ele>471</ele>
        <time>2011-04-16T07:53:05Z</time>
      </trkpt>
      <trkpt lat="46.06636" lon="6.3805">
        <ele>471</ele>
        <time>2011-04-16T07:53:06Z</time>
      </trkpt>
      <trkpt lat="46.06626" lon="6.38038">
        <ele>471</ele>
        <time>2011-04-16T07:53:07Z</time>
      </trkpt>
      <trkpt lat="46.06614" lon="6.38028">
        <ele>471</ele>
        <time>2011-04-16T07:53:08Z</time>
      </trkpt>
      <trkpt lat="46.06602" lon="6.38019">
        <ele>471</ele>
        <time>2011-04-16T07:53:09Z</time>
      </trkpt>
      <trkpt lat="46.0659" lon="6.38011">
        <ele>471</ele>
        <time>2011-04-16T07:53:10Z</time>
      </trkpt>
      <trkpt lat="46.06578" lon="6.38003">
        <ele>471</ele>
        <time>2011-04-16T07:53:11Z</time>
      </trkpt>
      <trkpt lat="46.06568" lon="6.37996">
        <ele>471</ele>
        <time>2011-04-16T07:53:12Z</time>
      </trkpt>
      <trkpt lat="46.06559" lon="6.37988">
        <ele>471</ele>
        <time>2011-04-16T07:53:13Z</time>
      </trkpt>
      <trkpt lat="46.06551" lon="6.37977">
        <ele>476</ele>
        <time>2011-04-16T07:53:14Z</time>
      </trkpt>
      <trkpt lat="46.06546" lon="6.37964">
        <ele>476</ele>
        <time>2011-04-16T07:53:15Z</time>
      </trkpt>
      <trkpt lat="46.06544" lon="6.37949">
        <ele>476</ele>
        <time>2011-04-16T07:53:16Z</time>
      </trkpt>
      <trkpt lat="46.06545" lon="6.37931">
        <ele>476</ele>
        <time>2011-04-16T07:53:17Z</time>
      </trkpt>
      <trkpt lat="46.06549" lon="6.37912">
        <ele>476</ele>
        <time>2011-04-16T07:53:18Z</time>
      </trkpt>
      <trkpt lat="46.06552" lon="6.37892">
        <ele>476</ele>
        <time>2011-04-16T07:53:19Z</time>
      </trkpt>
      <trkpt lat="46.06554" lon="6.37871">
        <ele>476</ele>
        <time>2011-04-16T07:53:20Z</time>
      </trkpt>
      <trkpt lat="46.06557" lon="6.37852">
        <ele>476</ele>
        <time>2011-04-16T07:53:21Z</time>
      </trkpt>
      <trkpt lat="46.06561" lon="6.37833">
        <ele>476</ele>
        <time>2011-04-16T07:53:22Z</time>
      </trkpt>
      <trkpt lat="46.06562" lon="6.37814">
        <ele>476</ele>
        <time>2011-04-16T07:53:23Z</time>
      </trkpt>
      <trkpt lat="46.06562" lon="6.37796">
        <ele>476</ele>
        <time>2011-04-16T07:53:24Z</time>
      </trkpt>
      <trkpt lat="46.06561" lon="6.37778">
        <ele>476</ele>
        <time>2011-04-16T07:53:25Z</time>
      </trkpt>
      <trkpt lat="46.06557" lon="6.37759">
        <ele>476</ele>
        <time>2011-04-16T07:53:26Z</time>
      </trkpt>
      <trkpt lat="46.06554" lon="6.37741">
        <ele>476</ele>
        <time>2011-04-16T07:53:27Z</time>
      </trkpt>
      <trkpt lat="46.0655" lon="6.37723">
        <ele>476</ele>
        <time>2011-04-16T07:53:28Z</time>
      </trkpt>
      <trkpt lat="46.06545" lon="6.37705">
        <ele>476</ele>
        <time>2011-04-16T07:53:29Z</time>
      </trkpt>
      <trkpt lat="46.06539" lon="6.37689">
        <ele>476</ele>
        <time>2011-04-16T07:53:30Z</time>
      </trkpt>
      <trkpt lat="46.06532" lon="6.37674">
        <ele>476</ele>
        <time>2011-04-16T07:53:31Z</time>
      </trkpt>
      <trkpt lat="46.06523" lon="6.3766">
        <ele>476</ele>
        <time>2011-04-16T07:53:32Z</time>
      </trkpt>
      <trkpt lat="46.06513" lon="6.37648">
        <ele>476</ele>
        <time>2011-04-16T07:53:33Z</time>
      </trkpt>
      <trkpt lat="46.06503" lon="6.37637">
        <ele>476</ele>
        <time>2011-04-16T07:53:34Z</time>
      </trkpt>
      <trkpt lat="46.06492" lon="6.37627">
        <ele>476</ele>
        <time>2011-04-16T07:53:35Z</time>
      </trkpt>
      <trkpt lat="46.06482" lon="6.37616">
        <ele>476</ele>
        <time>2011-04-16T07:53:36Z</time>
      </trkpt>
      <trkpt lat="46.06473" lon="6.37606">
        <ele>476</ele>
        <time>2011-04-16T07:53:37Z</time>
      </trkpt>
      <trkpt lat="46.06464" lon="6.37594">
        <ele>476</ele>
        <time>2011-04-16T07:53:38Z</time>
      </trkpt>
      <trkpt lat="46.06456" lon="6.3758">
        <ele>476</ele>
        <time>2011-04-16T07:53:39Z</time>
      </trkpt>
      <trkpt lat="46.06449" lon="6.37565">
        <ele>476</ele>
        <time>2011-04-16T07:53:40Z</time>
      </trkpt>
      <trkpt lat="46.06444" lon="6.37549">
        <ele>476</ele>
        <time>2011-04-16T07:53:41Z</time>
      </trkpt>
      <trkpt lat="46.06438" lon="6.37532">
        <ele>476</ele>
        <time>2011-04-16T07:53:42Z</time>
      </trkpt>
      <trkpt lat="46.06432" lon="6.37515">
        <ele>476</ele>
        <time>2011-04-16T07:53:43Z</time>
      </trkpt>
      <trkpt lat="46.06426" lon="6.37497">
        <ele>482</ele>
        <time>2011-04-16T07:53:44Z</time>
      </trkpt>
      <trkpt lat="46.0642" lon="6.3748">
        <ele>482</ele>
        <time>2011-04-16T07:53:45Z</time>
      </trkpt>
      <trkpt lat="46.06414" lon="6.37463">
        <ele>482</ele>
        <time>2011-04-16T07:53:46Z</time>
      </trkpt>
      <trkpt lat="46.06409" lon="6.37447">
        <ele>482</ele>
        <time>2011-04-16T07:53:47Z</time>
      </trkpt>
      <trkpt lat="46.06404" lon="6.37433">
        <ele>482</ele>
        <time>2011-04-16T07:53:48Z</time>
      </trkpt>
      <trkpt lat="46.064" lon="6.37419">
        <ele>482</ele>
        <time>2011-04-16T07:53:49Z</time>
      </trkpt>
      <trkpt lat="46.06395" lon="6.37406">
        <ele>482</ele>
        <time>2011-04-16T07:53:50Z</time>
      </trkpt>
      <trkpt lat="46.06392" lon="6.37392">
        <ele>482</ele>
        <time>2011-04-16T07:53:51Z</time>
      </trkpt>
      <trkpt lat="46.06385" lon="6.37371">
        <ele>482</ele>
        <time>2011-04-16T07:53:53Z</time>
      </trkpt>
      <trkpt lat="46.06383" lon="6.37353">
        <ele>482</ele>
        <time>2011-04-16T07:53:55Z</time>
      </trkpt>
      <trkpt lat="46.06382" lon="6.37337">
        <ele>482</ele>
        <time>2011-04-16T07:53:58Z</time>
      </trkpt>
      <trkpt lat="46.06369" lon="6.37322">
        <ele>482</ele>
        <time>2011-04-16T07:54:01Z</time>
      </trkpt>
      <trkpt lat="46.06362" lon="6.37313">
        <ele>482</ele>
        <time>2011-04-16T07:54:02Z</time>
      </trkpt>
      <trkpt lat="46.06355" lon="6.37301">
        <ele>482</ele>
        <time>2011-04-16T07:54:03Z</time>
      </trkpt>
      <trkpt lat="46.06347" lon="6.37286">
        <ele>482</ele>
        <time>2011-04-16T07:54:04Z</time>
      </trkpt>
      <trkpt lat="46.06339" lon="6.3727">
        <ele>482</ele>
        <time>2011-04-16T07:54:05Z</time>
      </trkpt>
      <trkpt lat="46.0633" lon="6.37252">
        <ele>482</ele>
        <time>2011-04-16T07:54:06Z</time>
      </trkpt>
      <trkpt lat="46.06321" lon="6.37233">
        <ele>482</ele>
        <time>2011-04-16T07:54:07Z</time>
      </trkpt>
      <trkpt lat="46.06311" lon="6.37215">
        <ele>482</ele>
        <time>2011-04-16T07:54:08Z</time>
      </trkpt>
      <trkpt lat="46.063" lon="6.37195">
        <ele>482</ele>
        <time>2011-04-16T07:54:09Z</time>
      </trkpt>
      <trkpt lat="46.06289" lon="6.37175">
        <ele>482</ele>
        <time>2011-04-16T07:54:10Z</time>
      </trkpt>
      <trkpt lat="46.06275" lon="6.37156">
        <ele>482</ele>
        <time>2011-04-16T07:54:11Z</time>
      </trkpt>
      <trkpt lat="46.06262" lon="6.37136">
        <ele>487</ele>
        <time>2011-04-16T07:54:12Z</time>
      </trkpt>
      <trkpt lat="46.06249" lon="6.37116">
        <ele>487</ele>
        <time>2011-04-16T07:54:13Z</time>
      </trkpt>
      <trkpt lat="46.06235" lon="6.37095">
        <ele>487</ele>
        <time>2011-04-16T07:54:14Z</time>
      </trkpt>
      <trkpt lat="46.0622" lon="6.37075">
        <ele>487</ele>
        <time>2011-04-16T07:54:15Z</time>
      </trkpt>
      <trkpt lat="46.06206" lon="6.37055">
        <ele>487</ele>
        <time>2011-04-16T07:54:16Z</time>
      </trkpt>
      <trkpt lat="46.06192" lon="6.37034">
        <ele>487</ele>
        <time>2011-04-16T07:54:17Z</time>
      </trkpt>
      <trkpt lat="46.06178" lon="6.37013">
        <ele>487</ele>
        <time>2011-04-16T07:54:18Z</time>
      </trkpt>
      <trkpt lat="46.06165" lon="6.36992">
        <ele>487</ele>
        <time>2011-04-16T07:54:19Z</time>
      </trkpt>
      <trkpt lat="46.06151" lon="6.36972">
        <ele>487</ele>
        <time>2011-04-16T07:54:20Z</time>
      </trkpt>
      <trkpt lat="46.06138" lon="6.36952">
        <ele>487</ele>
        <time>2011-04-16T07:54:21Z</time>
      </trkpt>
      <trkpt lat="46.06125" lon="6.36934">
        <ele>487</ele>
        <time>2011-04-16T07:54:22Z</time>
      </trkpt>
      <trkpt lat="46.06114" lon="6.36918">
        <ele>487</ele>
        <time>2011-04-16T07:54:23Z</time>
      </trkpt>
      <trkpt lat="46.06105" lon="6.36901">
        <ele>487</ele>
        <time>2011-04-16T07:54:24Z</time>
      </trkpt>
      <trkpt lat="46.06098" lon="6.36886">
        <ele>487</ele>
        <time>2011-04-16T07:54:25Z</time>
      </trkpt>
      <trkpt lat="46.06091" lon="6.36871">
        <ele>487</ele>
        <time>2011-04-16T07:54:26Z</time>
      </trkpt>
      <trkpt lat="46.06083" lon="6.3686">
        <ele>487</ele>
        <time>2011-04-16T07:54:27Z</time>
      </trkpt>
      <trkpt lat="46.06073" lon="6.36852">
        <ele>487</ele>
        <time>2011-04-16T07:54:28Z</time>
      </trkpt>
      <trkpt lat="46.06063" lon="6.36847">
        <ele>487</ele>
        <time>2011-04-16T07:54:29Z</time>
      </trkpt>
      <trkpt lat="46.06049" lon="6.36846">
        <ele>487</ele>
        <time>2011-04-16T07:54:30Z</time>
      </trkpt>
      <trkpt lat="46.06034" lon="6.36848">
        <ele>487</ele>
        <time>2011-04-16T07:54:31Z</time>
      </trkpt>
      <trkpt lat="46.0602" lon="6.36849">
        <ele>487</ele>
        <time>2011-04-16T07:54:32Z</time>
      </trkpt>
      <trkpt lat="46.06007" lon="6.36849">
        <ele>487</ele>
        <time>2011-04-16T07:54:33Z</time>
      </trkpt>
      <trkpt lat="46.05994" lon="6.36849">
        <ele>487</ele>
        <time>2011-04-16T07:54:34Z</time>
      </trkpt>
      <trkpt lat="46.05985" lon="6.3685">
        <ele>487</ele>
        <time>2011-04-16T07:54:35Z</time>
      </trkpt>
      <trkpt lat="46.0597" lon="6.36851">
        <ele>487</ele>
        <time>2011-04-16T07:54:37Z</time>
      </trkpt>
      <trkpt lat="46.05961" lon="6.36842">
        <ele>487</ele>
        <time>2011-04-16T07:54:41Z</time>
      </trkpt>
      <trkpt lat="46.05964" lon="6.36825">
        <ele>487</ele>
        <time>2011-04-16T07:54:43Z</time>
      </trkpt>
      <trkpt lat="46.05966" lon="6.36799">
        <ele>487</ele>
        <time>2011-04-16T07:54:45Z</time>
      </trkpt>
      <trkpt lat="46.05966" lon="6.36784">
        <ele>487</ele>
        <time>2011-04-16T07:54:46Z</time>
      </trkpt>
      <trkpt lat="46.05968" lon="6.36768">
        <ele>487</ele>
        <time>2011-04-16T07:54:47Z</time>
      </trkpt>
      <trkpt lat="46.0597" lon="6.36752">
        <ele>487</ele>
        <time>2011-04-16T07:54:48Z</time>
      </trkpt>
      <trkpt lat="46.05971" lon="6.36734">
        <ele>487</ele>
        <time>2011-04-16T07:54:49Z</time>
      </trkpt>
      <trkpt lat="46.05972" lon="6.36716">
        <ele>487</ele>
        <time>2011-04-16T07:54:50Z</time>
      </trkpt>
      <trkpt lat="46.05974" lon="6.36698">
        <ele>487</ele>
        <time>2011-04-16T07:54:51Z</time>
      </trkpt>
      <trkpt lat="46.05975" lon="6.36678">
        <ele>487</ele>
        <time>2011-04-16T07:54:52Z</time>
      </trkpt>
      <trkpt lat="46.05977" lon="6.36659">
        <ele>487</ele>
        <time>2011-04-16T07:54:53Z</time>
      </trkpt>
      <trkpt lat="46.05978" lon="6.36639">
        <ele>487</ele>
        <time>2011-04-16T07:54:54Z</time>
      </trkpt>
      <trkpt lat="46.05979" lon="6.36618">
        <ele>487</ele>
        <time>2011-04-16T07:54:55Z</time>
      </trkpt>
      <trkpt lat="46.0598" lon="6.36597">
        <ele>487</ele>
        <time>2011-04-16T07:54:56Z</time>
      </trkpt>
      <trkpt lat="46.0598" lon="6.36576">
        <ele>487</ele>
        <time>2011-04-16T07:54:57Z</time>
      </trkpt>
      <trkpt lat="46.0598" lon="6.36554">
        <ele>487</ele>
        <time>2011-04-16T07:54:58Z</time>
      </trkpt>
      <trkpt lat="46.05978" lon="6.36533">
        <ele>487</ele>
        <time>2011-04-16T07:54:59Z</time>
      </trkpt>
      <trkpt lat="46.05978" lon="6.36511">
        <ele>487</ele>
        <time>2011-04-16T07:55:00Z</time>
      </trkpt>
      <trkpt lat="46.05977" lon="6.36491">
        <ele>487</ele>
        <time>2011-04-16T07:55:01Z</time>
      </trkpt>
      <trkpt lat="46.05975" lon="6.36471">
        <ele>487</ele>
        <time>2011-04-16T07:55:02Z</time>
      </trkpt>
      <trkpt lat="46.05972" lon="6.36453">
        <ele>487</ele>
        <time>2011-04-16T07:55:03Z</time>
      </trkpt>
      <trkpt lat="46.05969" lon="6.36436">
        <ele>487</ele>
        <time>2011-04-16T07:55:04Z</time>
      </trkpt>
      <trkpt lat="46.05966" lon="6.3642">
        <ele>487</ele>
        <time>2011-04-16T07:55:05Z</time>
      </trkpt>
      <trkpt lat="46.05964" lon="6.36405">
        <ele>487</ele>
        <time>2011-04-16T07:55:06Z</time>
      </trkpt>
      <trkpt lat="46.05966" lon="6.36381">
        <ele>487</ele>
        <time>2011-04-16T07:55:08Z</time>
      </trkpt>
      <trkpt lat="46.05972" lon="6.36364">
        <ele>487</ele>
        <time>2011-04-16T07:55:10Z</time>
      </trkpt>
      <trkpt lat="46.0597" lon="6.36346">
        <ele>487</ele>
        <time>2011-04-16T07:55:12Z</time>
      </trkpt>
      <trkpt lat="46.05965" lon="6.36321">
        <ele>487</ele>
        <time>2011-04-16T07:55:14Z</time>
      </trkpt>
      <trkpt lat="46.05965" lon="6.36306">
        <ele>487</ele>
        <time>2011-04-16T07:55:15Z</time>
      </trkpt>
      <trkpt lat="46.05965" lon="6.36292">
        <ele>487</ele>
        <time>2011-04-16T07:55:16Z</time>
      </trkpt>
      <trkpt lat="46.0596" lon="6.3627">
        <ele>481</ele>
        <time>2011-04-16T07:55:18Z</time>
      </trkpt>
      <trkpt lat="46.05953" lon="6.36261">
        <ele>481</ele>
        <time>2011-04-16T07:55:19Z</time>
      </trkpt>
      <trkpt lat="46.05943" lon="6.36253">
        <ele>481</ele>
        <time>2011-04-16T07:55:20Z</time>
      </trkpt>
      <trkpt lat="46.05931" lon="6.36244">
        <ele>481</ele>
        <time>2011-04-16T07:55:21Z</time>
      </trkpt>
      <trkpt lat="46.0592" lon="6.36236">
        <ele>481</ele>
        <time>2011-04-16T07:55:22Z</time>
      </trkpt>
      <trkpt lat="46.05911" lon="6.36228">
        <ele>481</ele>
        <time>2011-04-16T07:55:23Z</time>
      </trkpt>
      <trkpt lat="46.05903" lon="6.36222">
        <ele>481</ele>
        <time>2011-04-16T07:55:24Z</time>
      </trkpt>
      <trkpt lat="46.05892" lon="6.36203">
        <ele>481</ele>
        <time>2011-04-16T07:55:26Z</time>
      </trkpt>
      <trkpt lat="46.05895" lon="6.36187">
        <ele>481</ele>
        <time>2011-04-16T07:55:27Z</time>
      </trkpt>
      <trkpt lat="46.05901" lon="6.3617">
        <ele>481</ele>
        <time>2011-04-16T07:55:28Z</time>
      </trkpt>
      <trkpt lat="46.05905" lon="6.36153">
        <ele>481</ele>
        <time>2011-04-16T07:55:29Z</time>
      </trkpt>
      <trkpt lat="46.05908" lon="6.36135">
        <ele>481</ele>
        <time>2011-04-16T07:55:30Z</time>
      </trkpt>
      <trkpt lat="46.05911" lon="6.36117">
        <ele>481</ele>
        <time>2011-04-16T07:55:31Z</time>
      </trkpt>
      <trkpt lat="46.05915" lon="6.36098">
        <ele>481</ele>
        <time>2011-04-16T07:55:32Z</time>
      </trkpt>
      <trkpt lat="46.05918" lon="6.36079">
        <ele>481</ele>
        <time>2011-04-16T07:55:33Z</time>
      </trkpt>
      <trkpt lat="46.05922" lon="6.3606">
        <ele>481</ele>
        <time>2011-04-16T07:55:34Z</time>
      </trkpt>
      <trkpt lat="46.05926" lon="6.36042">
        <ele>481</ele>
        <time>2011-04-16T07:55:35Z</time>
      </trkpt>
      <trkpt lat="46.0593" lon="6.36025">
        <ele>481</ele>
        <time>2011-04-16T07:55:36Z</time>
      </trkpt>
      <trkpt lat="46.05933" lon="6.36009">
        <ele>481</ele>
        <time>2011-04-16T07:55:37Z</time>
      </trkpt>
      <trkpt lat="46.05935" lon="6.35994">
        <ele>481</ele>
        <time>2011-04-16T07:55:38Z</time>
      </trkpt>
      <trkpt lat="46.05938" lon="6.35979">
        <ele>481</ele>
        <time>2011-04-16T07:55:39Z</time>
      </trkpt>
      <trkpt lat="46.05941" lon="6.35964">
        <ele>481</ele>
        <time>2011-04-16T07:55:40Z</time>
      </trkpt>
      <trkpt lat="46.05943" lon="6.3595">
        <ele>481</ele>
        <time>2011-04-16T07:55:41Z</time>
      </trkpt>
      <trkpt lat="46.05945" lon="6.35936">
        <ele>481</ele>
        <time>2011-04-16T07:55:42Z</time>
      </trkpt>
      <trkpt lat="46.05948" lon="6.35922">
        <ele>481</ele>
        <time>2011-04-16T07:55:43Z</time>
      </trkpt>
      <trkpt lat="46.0595" lon="6.35908">
        <ele>481</ele>
        <time>2011-04-16T07:55:44Z</time>
      </trkpt>
      <trkpt lat="46.05952" lon="6.35893">
        <ele>481</ele>
        <time>2011-04-16T07:55:45Z</time>
      </trkpt>
      <trkpt lat="46.05955" lon="6.35878">
        <ele>481</ele>
        <time>2011-04-16T07:55:46Z</time>
      </trkpt>
      <trkpt lat="46.05958" lon="6.35864">
        <ele>481</ele>
        <time>2011-04-16T07:55:47Z</time>
      </trkpt>
      <trkpt lat="46.05961" lon="6.3585">
        <ele>481</ele>
        <time>2011-04-16T07:55:48Z</time>
      </trkpt>
      <trkpt lat="46.05965" lon="6.35828">
        <ele>481</ele>
        <time>2011-04-16T07:55:50Z</time>
      </trkpt>
      <trkpt lat="46.0597" lon="6.35803">
        <ele>481</ele>
        <time>2011-04-16T07:55:52Z</time>
      </trkpt>
      <trkpt lat="46.05974" lon="6.35791">
        <ele>481</ele>
        <time>2011-04-16T07:55:53Z</time>
      </trkpt>
      <trkpt lat="46.05977" lon="6.35777">
        <ele>481</ele>
        <time>2011-04-16T07:55:54Z</time>
      </trkpt>
      <trkpt lat="46.0598" lon="6.35764">
        <ele>481</ele>
        <time>2011-04-16T07:55:55Z</time>
      </trkpt>
      <trkpt lat="46.05982" lon="6.3575">
        <ele>481</ele>
        <time>2011-04-16T07:55:56Z</time>
      </trkpt>
      <trkpt lat="46.05985" lon="6.35737">
        <ele>481</ele>
        <time>2011-04-16T07:55:57Z</time>
      </trkpt>
      <trkpt lat="46.05986" lon="6.35723">
        <ele>481</ele>
        <time>2011-04-16T07:55:58Z</time>
      </trkpt>
      <trkpt lat="46.05987" lon="6.35709">
        <ele>481</ele>
        <time>2011-04-16T07:55:59Z</time>
      </trkpt>
      <trkpt lat="46.05988" lon="6.35695">
        <ele>481</ele>
        <time>2011-04-16T07:56:00Z</time>
      </trkpt>
      <trkpt lat="46.05989" lon="6.35669">
        <ele>481</ele>
        <time>2011-04-16T07:56:02Z</time>
      </trkpt>
      <trkpt lat="46.05989" lon="6.35655">
        <ele>481</ele>
        <time>2011-04-16T07:56:03Z</time>
      </trkpt>
      <trkpt lat="46.0599" lon="6.35642">
        <ele>481</ele>
        <time>2011-04-16T07:56:04Z</time>
      </trkpt>
      <trkpt lat="46.0599" lon="6.35627">
        <ele>481</ele>
        <time>2011-04-16T07:56:05Z</time>
      </trkpt>
      <trkpt lat="46.05992" lon="6.35613">
        <ele>481</ele>
        <time>2011-04-16T07:56:06Z</time>
      </trkpt>
      <trkpt lat="46.05992" lon="6.35599">
        <ele>481</ele>
        <time>2011-04-16T07:56:07Z</time>
      </trkpt>
      <trkpt lat="46.05993" lon="6.35575">
        <ele>481</ele>
        <time>2011-04-16T07:56:09Z</time>
      </trkpt>
      <trkpt lat="46.05995" lon="6.35552">
        <ele>481</ele>
        <time>2011-04-16T07:56:11Z</time>
      </trkpt>
      <trkpt lat="46.05997" lon="6.35533">
        <ele>481</ele>
        <time>2011-04-16T07:56:13Z</time>
      </trkpt>
      <trkpt lat="46.05998" lon="6.35514">
        <ele>487</ele>
        <time>2011-04-16T07:56:15Z</time>
      </trkpt>
      <trkpt lat="46.06" lon="6.35488">
        <ele>487</ele>
        <time>2011-04-16T07:56:17Z</time>
      </trkpt>
      <trkpt lat="46.06001" lon="6.35473">
        <ele>487</ele>
        <time>2011-04-16T07:56:18Z</time>
      </trkpt>
      <trkpt lat="46.06002" lon="6.35455">
        <ele>487</ele>
        <time>2011-04-16T07:56:19Z</time>
      </trkpt>
      <trkpt lat="46.06004" lon="6.35437">
        <ele>487</ele>
        <time>2011-04-16T07:56:20Z</time>
      </trkpt>
      <trkpt lat="46.06005" lon="6.35417">
        <ele>487</ele>
        <time>2011-04-16T07:56:21Z</time>
      </trkpt>
      <trkpt lat="46.06007" lon="6.35397">
        <ele>487</ele>
        <time>2011-04-16T07:56:22Z</time>
      </trkpt>
      <trkpt lat="46.06008" lon="6.35377">
        <ele>487</ele>
        <time>2011-04-16T07:56:23Z</time>
      </trkpt>
      <trkpt lat="46.0601" lon="6.35357">
        <ele>487</ele>
        <time>2011-04-16T07:56:24Z</time>
      </trkpt>
      <trkpt lat="46.06012" lon="6.35336">
        <ele>487</ele>
        <time>2011-04-16T07:56:25Z</time>
      </trkpt>
      <trkpt lat="46.06013" lon="6.35316">
        <ele>487</ele>
        <time>2011-04-16T07:56:26Z</time>
      </trkpt>
      <trkpt lat="46.06015" lon="6.35293">
        <ele>487</ele>
        <time>2011-04-16T07:56:27Z</time>
      </trkpt>
      <trkpt lat="46.06017" lon="6.35271">
        <ele>487</ele>
        <time>2011-04-16T07:56:28Z</time>
      </trkpt>
      <trkpt lat="46.06018" lon="6.35247">
        <ele>487</ele>
        <time>2011-04-16T07:56:29Z</time>
      </trkpt>
      <trkpt lat="46.0602" lon="6.35225">
        <ele>487</ele>
        <time>2011-04-16T07:56:30Z</time>
      </trkpt>
      <trkpt lat="46.06022" lon="6.35203">
        <ele>487</ele>
        <time>2011-04-16T07:56:31Z</time>
      </trkpt>
      <trkpt lat="46.06025" lon="6.35183">
        <ele>487</ele>
        <time>2011-04-16T07:56:32Z</time>
      </trkpt>
      <trkpt lat="46.06026" lon="6.35164">
        <ele>487</ele>
        <time>2011-04-16T07:56:33Z</time>
      </trkpt>
      <trkpt lat="46.06028" lon="6.35146">
        <ele>487</ele>
        <time>2011-04-16T07:56:34Z</time>
      </trkpt>
      <trkpt lat="46.0603" lon="6.35129">
        <ele>487</ele>
        <time>2011-04-16T07:56:35Z</time>
      </trkpt>
      <trkpt lat="46.0603" lon="6.35113">
        <ele>487</ele>
        <time>2011-04-16T07:56:36Z</time>
      </trkpt>
      <trkpt lat="46.06027" lon="6.35097">
        <ele>487</ele>
        <time>2011-04-16T07:56:37Z</time>
      </trkpt>
      <trkpt lat="46.06022" lon="6.35084">
        <ele>487</ele>
        <time>2011-04-16T07:56:38Z</time>
      </trkpt>
      <trkpt lat="46.06015" lon="6.35072">
        <ele>487</ele>
        <time>2011-04-16T07:56:39Z</time>
      </trkpt>
      <trkpt lat="46.0601" lon="6.3506">
        <ele>487</ele>
        <time>2011-04-16T07:56:40Z</time>
      </trkpt>
      <trkpt lat="46.06006" lon="6.35047">
        <ele>487</ele>
        <time>2011-04-16T07:56:41Z</time>
      </trkpt>
      <trkpt lat="46.06005" lon="6.35033">
        <ele>487</ele>
        <time>2011-04-16T07:56:42Z</time>
      </trkpt>
      <trkpt lat="46.06008" lon="6.35017">
        <ele>487</ele>
        <time>2011-04-16T07:56:43Z</time>
      </trkpt>
      <trkpt lat="46.06012" lon="6.35">
        <ele>487</ele>
        <time>2011-04-16T07:56:44Z</time>
      </trkpt>
      <trkpt lat="46.06016" lon="6.34982">
        <ele>487</ele>
        <time>2011-04-16T07:56:45Z</time>
      </trkpt>
      <trkpt lat="46.0602" lon="6.34966">
        <ele>487</ele>
        <time>2011-04-16T07:56:46Z</time>
      </trkpt>
      <trkpt lat="46.06023" lon="6.34952">
        <ele>487</ele>
        <time>2011-04-16T07:56:47Z</time>
      </trkpt>
      <trkpt lat="46.06023" lon="6.34936">
        <ele>487</ele>
        <time>2011-04-16T07:56:48Z</time>
      </trkpt>
      <trkpt lat="46.06022" lon="6.34922">
        <ele>492</ele>
        <time>2011-04-16T07:56:49Z</time>
      </trkpt>
      <trkpt lat="46.06018" lon="6.3491">
        <ele>492</ele>
        <time>2011-04-16T07:56:50Z</time>
      </trkpt>
      <trkpt lat="46.06012" lon="6.34898">
        <ele>492</ele>
        <time>2011-04-16T07:56:51Z</time>
      </trkpt>
      <trkpt lat="46.06003" lon="6.34888">
        <ele>492</ele>
        <time>2011-04-16T07:56:52Z</time>
      </trkpt>
      <trkpt lat="46.05995" lon="6.34879">
        <ele>492</ele>
        <time>2011-04-16T07:56:53Z</time>
      </trkpt>
      <trkpt lat="46.05982" lon="6.34865">
        <ele>492</ele>
        <time>2011-04-16T07:56:55Z</time>
      </trkpt>
      <trkpt lat="46.05975" lon="6.34852">
        <ele>492</ele>
        <time>2011-04-16T07:56:57Z</time>
      </trkpt>
      <trkpt lat="46.0598" lon="6.34832">
        <ele>497</ele>
        <time>2011-04-16T07:56:59Z</time>
      </trkpt>
      <trkpt lat="46.05985" lon="6.34821">
        <ele>497</ele>
        <time>2011-04-16T07:57:00Z</time>
      </trkpt>
      <trkpt lat="46.05991" lon="6.34805">
        <ele>497</ele>
        <time>2011-04-16T07:57:01Z</time>
      </trkpt>
      <trkpt lat="46.05998" lon="6.34787">
        <ele>497</ele>
        <time>2011-04-16T07:57:02Z</time>
      </trkpt>
      <trkpt lat="46.06005" lon="6.3477">
        <ele>497</ele>
        <time>2011-04-16T07:57:03Z</time>
      </trkpt>
      <trkpt lat="46.06012" lon="6.34757">
        <ele>497</ele>
        <time>2011-04-16T07:57:04Z</time>
      </trkpt>
      <trkpt lat="46.06018" lon="6.34745">
        <ele>497</ele>
        <time>2011-04-16T07:57:05Z</time>
      </trkpt>
      <trkpt lat="46.06031" lon="6.34729">
        <ele>497</ele>
        <time>2011-04-16T07:57:07Z</time>
      </trkpt>
      <trkpt lat="46.0604" lon="6.34721">
        <ele>497</ele>
        <time>2011-04-16T07:57:08Z</time>
      </trkpt>
      <trkpt lat="46.06048" lon="6.34713">
        <ele>497</ele>
        <time>2011-04-16T07:57:09Z</time>
      </trkpt>
      <trkpt lat="46.06057" lon="6.34704">
        <ele>497</ele>
        <time>2011-04-16T07:57:10Z</time>
      </trkpt>
      <trkpt lat="46.06065" lon="6.34693">
        <ele>497</ele>
        <time>2011-04-16T07:57:11Z</time>
      </trkpt>
      <trkpt lat="46.06073" lon="6.34683">
        <ele>497</ele>
        <time>2011-04-16T07:57:12Z</time>
      </trkpt>
      <trkpt lat="46.06083" lon="6.34675">
        <ele>497</ele>
        <time>2011-04-16T07:57:13Z</time>
      </trkpt>
      <trkpt lat="46.06092" lon="6.34668">
        <ele>497</ele>
        <time>2011-04-16T07:57:14Z</time>
      </trkpt>
      <trkpt lat="46.061" lon="6.34659">
        <ele>497</ele>
        <time>2011-04-16T07:57:15Z</time>
      </trkpt>
      <trkpt lat="46.06107" lon="6.34649">
        <ele>497</ele>
        <time>2011-04-16T07:57:16Z</time>
      </trkpt>
      <trkpt lat="46.06114" lon="6.34638">
        <ele>497</ele>
        <time>2011-04-16T07:57:17Z</time>
      </trkpt>
      <trkpt lat="46.06121" lon="6.34627">
        <ele>497</ele>
        <time>2011-04-16T07:57:18Z</time>
      </trkpt>
      <trkpt lat="46.06128" lon="6.34618">
        <ele>497</ele>
        <time>2011-04-16T07:57:19Z</time>
      </trkpt>
      <trkpt lat="46.0614" lon="6.34601">
        <ele>497</ele>
        <time>2011-04-16T07:57:21Z</time>
      </trkpt>
      <trkpt lat="46.06152" lon="6.34589">
        <ele>492</ele>
        <time>2011-04-16T07:57:23Z</time>
      </trkpt>
      <trkpt lat="46.0616" lon="6.3458">
        <ele>492</ele>
        <time>2011-04-16T07:57:24Z</time>
      </trkpt>
      <trkpt lat="46.06167" lon="6.34569">
        <ele>492</ele>
        <time>2011-04-16T07:57:25Z</time>
      </trkpt>
      <trkpt lat="46.06175" lon="6.34559">
        <ele>492</ele>
        <time>2011-04-16T07:57:26Z</time>
      </trkpt>
      <trkpt lat="46.06182" lon="6.34549">
        <ele>492</ele>
        <time>2011-04-16T07:57:27Z</time>
      </trkpt>
      <trkpt lat="46.0619" lon="6.34538">
        <ele>492</ele>
        <time>2011-04-16T07:57:28Z</time>
      </trkpt>
      <trkpt lat="46.06199" lon="6.34524">
        <ele>492</ele>
        <time>2011-04-16T07:57:29Z</time>
      </trkpt>
      <trkpt lat="46.06206" lon="6.3451">
        <ele>492</ele>
        <time>2011-04-16T07:57:30Z</time>
      </trkpt>
      <trkpt lat="46.06215" lon="6.34495">
        <ele>492</ele>
        <time>2011-04-16T07:57:31Z</time>
      </trkpt>
      <trkpt lat="46.06224" lon="6.34482">
        <ele>492</ele>
        <time>2011-04-16T07:57:32Z</time>
      </trkpt>
      <trkpt lat="46.06234" lon="6.34469">
        <ele>492</ele>
        <time>2011-04-16T07:57:33Z</time>
      </trkpt>
      <trkpt lat="46.06241" lon="6.34455">
        <ele>492</ele>
        <time>2011-04-16T07:57:34Z</time>
      </trkpt>
      <trkpt lat="46.06247" lon="6.34438">
        <ele>492</ele>
        <time>2011-04-16T07:57:35Z</time>
      </trkpt>
      <trkpt lat="46.06254" lon="6.34421">
        <ele>492</ele>
        <time>2011-04-16T07:57:36Z</time>
      </trkpt>
      <trkpt lat="46.06259" lon="6.34406">
        <ele>492</ele>
        <time>2011-04-16T07:57:37Z</time>
      </trkpt>
      <trkpt lat="46.06263" lon="6.34391">
        <ele>492</ele>
        <time>2011-04-16T07:57:38Z</time>
      </trkpt>
      <trkpt lat="46.06267" lon="6.34379">
        <ele>492</ele>
        <time>2011-04-16T07:57:39Z</time>
      </trkpt>
      <trkpt lat="46.06272" lon="6.34356">
        <ele>492</ele>
        <time>2011-04-16T07:57:41Z</time>
      </trkpt>
      <trkpt lat="46.06278" lon="6.34336">
        <ele>492</ele>
        <time>2011-04-16T07:57:43Z</time>
      </trkpt>
      <trkpt lat="46.06284" lon="6.34318">
        <ele>492</ele>
        <time>2011-04-16T07:57:45Z</time>
      </trkpt>
      <trkpt lat="46.06291" lon="6.343">
        <ele>492</ele>
        <time>2011-04-16T07:57:47Z</time>
      </trkpt>
      <trkpt lat="46.06299" lon="6.34275">
        <ele>492</ele>
        <time>2011-04-16T07:57:49Z</time>
      </trkpt>
      <trkpt lat="46.06304" lon="6.34263">
        <ele>492</ele>
        <time>2011-04-16T07:57:50Z</time>
      </trkpt>
      <trkpt lat="46.0631" lon="6.34251">
        <ele>492</ele>
        <time>2011-04-16T07:57:51Z</time>
      </trkpt>
      <trkpt lat="46.06317" lon="6.34241">
        <ele>492</ele>
        <time>2011-04-16T07:57:52Z</time>
      </trkpt>
      <trkpt lat="46.06325" lon="6.34233">
        <ele>492</ele>
        <time>2011-04-16T07:57:53Z</time>
      </trkpt>
      <trkpt lat="46.06335" lon="6.34228">
        <ele>492</ele>
        <time>2011-04-16T07:57:54Z</time>
      </trkpt>
      <trkpt lat="46.06344" lon="6.34222">
        <ele>492</ele>
        <time>2011-04-16T07:57:55Z</time>
      </trkpt>
      <trkpt lat="46.06353" lon="6.34216">
        <ele>492</ele>
        <time>2011-04-16T07:57:56Z</time>
      </trkpt>
      <trkpt lat="46.0636" lon="6.34207">
        <ele>492</ele>
        <time>2011-04-16T07:57:57Z</time>
      </trkpt>
      <trkpt lat="46.06365" lon="6.34194">
        <ele>492</ele>
        <time>2011-04-16T07:57:58Z</time>
      </trkpt>
      <trkpt lat="46.0637" lon="6.34178">
        <ele>492</ele>
        <time>2011-04-16T07:57:59Z</time>
      </trkpt>
      <trkpt lat="46.06374" lon="6.34159">
        <ele>492</ele>
        <time>2011-04-16T07:58:00Z</time>
      </trkpt>
      <trkpt lat="46.06377" lon="6.34139">
        <ele>492</ele>
        <time>2011-04-16T07:58:01Z</time>
      </trkpt>
      <trkpt lat="46.0638" lon="6.34122">
        <ele>492</ele>
        <time>2011-04-16T07:58:02Z</time>
      </trkpt>
      <trkpt lat="46.06382" lon="6.34104">
        <ele>497</ele>
        <time>2011-04-16T07:58:03Z</time>
      </trkpt>
      <trkpt lat="46.06384" lon="6.34088">
        <ele>497</ele>
        <time>2011-04-16T07:58:04Z</time>
      </trkpt>
      <trkpt lat="46.06387" lon="6.34062">
        <ele>497</ele>
        <time>2011-04-16T07:58:06Z</time>
      </trkpt>
      <trkpt lat="46.0639" lon="6.34048">
        <ele>497</ele>
        <time>2011-04-16T07:58:07Z</time>
      </trkpt>
      <trkpt lat="46.06391" lon="6.34034">
        <ele>497</ele>
        <time>2011-04-16T07:58:08Z</time>
      </trkpt>
      <trkpt lat="46.06392" lon="6.34009">
        <ele>497</ele>
        <time>2011-04-16T07:58:10Z</time>
      </trkpt>
      <trkpt lat="46.06394" lon="6.33983">
        <ele>497</ele>
        <time>2011-04-16T07:58:12Z</time>
      </trkpt>
      <trkpt lat="46.06395" lon="6.3397">
        <ele>497</ele>
        <time>2011-04-16T07:58:13Z</time>
      </trkpt>
      <trkpt lat="46.06398" lon="6.33956">
        <ele>497</ele>
        <time>2011-04-16T07:58:14Z</time>
      </trkpt>
      <trkpt lat="46.06401" lon="6.33943">
        <ele>497</ele>
        <time>2011-04-16T07:58:15Z</time>
      </trkpt>
      <trkpt lat="46.06405" lon="6.3393">
        <ele>497</ele>
        <time>2011-04-16T07:58:16Z</time>
      </trkpt>
      <trkpt lat="46.06416" lon="6.33911">
        <ele>497</ele>
        <time>2011-04-16T07:58:18Z</time>
      </trkpt>
      <trkpt lat="46.06423" lon="6.33902">
        <ele>497</ele>
        <time>2011-04-16T07:58:19Z</time>
      </trkpt>
      <trkpt lat="46.06436" lon="6.33887">
        <ele>497</ele>
        <time>2011-04-16T07:58:21Z</time>
      </trkpt>
      <trkpt lat="46.06446" lon="6.33872">
        <ele>497</ele>
        <time>2011-04-16T07:58:23Z</time>
      </trkpt>
      <trkpt lat="46.06456" lon="6.33857">
        <ele>497</ele>
        <time>2011-04-16T07:58:25Z</time>
      </trkpt>
      <trkpt lat="46.06464" lon="6.33844">
        <ele>497</ele>
        <time>2011-04-16T07:58:27Z</time>
      </trkpt>
      <trkpt lat="46.06466" lon="6.33831">
        <ele>490</ele>
        <time>2011-04-16T07:58:29Z</time>
      </trkpt>
      <trkpt lat="46.06459" lon="6.33811">
        <ele>490</ele>
        <time>2011-04-16T07:58:31Z</time>
      </trkpt>
      <trkpt lat="46.06453" lon="6.33796">
        <ele>490</ele>
        <time>2011-04-16T07:58:32Z</time>
      </trkpt>
      <trkpt lat="46.06448" lon="6.33778">
        <ele>490</ele>
        <time>2011-04-16T07:58:33Z</time>
      </trkpt>
      <trkpt lat="46.06444" lon="6.3376">
        <ele>490</ele>
        <time>2011-04-16T07:58:34Z</time>
      </trkpt>
      <trkpt lat="46.06441" lon="6.33741">
        <ele>490</ele>
        <time>2011-04-16T07:58:35Z</time>
      </trkpt>
      <trkpt lat="46.06434" lon="6.33721">
        <ele>495</ele>
        <time>2011-04-16T07:58:36Z</time>
      </trkpt>
      <trkpt lat="46.06427" lon="6.33701">
        <ele>495</ele>
        <time>2011-04-16T07:58:37Z</time>
      </trkpt>
      <trkpt lat="46.0642" lon="6.33683">
        <ele>495</ele>
        <time>2011-04-16T07:58:38Z</time>
      </trkpt>
      <trkpt lat="46.06414" lon="6.33669">
        <ele>495</ele>
        <time>2011-04-16T07:58:39Z</time>
      </trkpt>
      <trkpt lat="46.06409" lon="6.33657">
        <ele>500</ele>
        <time>2011-04-16T07:58:40Z</time>
      </trkpt>
      <trkpt lat="46.06399" lon="6.33639">
        <ele>500</ele>
        <time>2011-04-16T07:58:42Z</time>
      </trkpt>
      <trkpt lat="46.06399" lon="6.33617">
        <ele>500</ele>
        <time>2011-04-16T07:58:44Z</time>
      </trkpt>
      <trkpt lat="46.06402" lon="6.33602">
        <ele>500</ele>
        <time>2011-04-16T07:58:45Z</time>
      </trkpt>
      <trkpt lat="46.06405" lon="6.33586">
        <ele>500</ele>
        <time>2011-04-16T07:58:46Z</time>
      </trkpt>
      <trkpt lat="46.06408" lon="6.33567">
        <ele>500</ele>
        <time>2011-04-16T07:58:47Z</time>
      </trkpt>
      <trkpt lat="46.06409" lon="6.33548">
        <ele>500</ele>
        <time>2011-04-16T07:58:48Z</time>
      </trkpt>
      <trkpt lat="46.06407" lon="6.33525">
        <ele>500</ele>
        <time>2011-04-16T07:58:49Z</time>
      </trkpt>
      <trkpt lat="46.06404" lon="6.33502">
        <ele>500</ele>
        <time>2011-04-16T07:58:50Z</time>
      </trkpt>
      <trkpt lat="46.06399" lon="6.33478">
        <ele>500</ele>
        <time>2011-04-16T07:58:51Z</time>
      </trkpt>
      <trkpt lat="46.06395" lon="6.33452">
        <ele>506</ele>
        <time>2011-04-16T07:58:52Z</time>
      </trkpt>
      <trkpt lat="46.0639" lon="6.33426">
        <ele>506</ele>
        <time>2011-04-16T07:58:53Z</time>
      </trkpt>
      <trkpt lat="46.06386" lon="6.334">
        <ele>506</ele>
        <time>2011-04-16T07:58:54Z</time>
      </trkpt>
      <trkpt lat="46.06382" lon="6.33376">
        <ele>506</ele>
        <time>2011-04-16T07:58:55Z</time>
      </trkpt>
      <trkpt lat="46.06379" lon="6.33354">
        <ele>506</ele>
        <time>2011-04-16T07:58:56Z</time>
      </trkpt>
      <trkpt lat="46.06374" lon="6.33333">
        <ele>506</ele>
        <time>2011-04-16T07:58:57Z</time>
      </trkpt>
      <trkpt lat="46.06369" lon="6.33311">
        <ele>506</ele>
        <time>2011-04-16T07:58:58Z</time>
      </trkpt>
      <trkpt lat="46.06363" lon="6.33289">
        <ele>506</ele>
        <time>2011-04-16T07:58:59Z</time>
      </trkpt>
      <trkpt lat="46.06357" lon="6.33266">
        <ele>511</ele>
        <time>2011-04-16T07:59:00Z</time>
      </trkpt>
      <trkpt lat="46.06352" lon="6.33243">
        <ele>511</ele>
        <time>2011-04-16T07:59:01Z</time>
      </trkpt>
      <trkpt lat="46.06349" lon="6.33222">
        <ele>511</ele>
        <time>2011-04-16T07:59:02Z</time>
      </trkpt>
      <trkpt lat="46.06345" lon="6.33201">
        <ele>511</ele>
        <time>2011-04-16T07:59:03Z</time>
      </trkpt>
      <trkpt lat="46.0634" lon="6.33184">
        <ele>511</ele>
        <time>2011-04-16T07:59:04Z</time>
      </trkpt>
      <trkpt lat="46.06335" lon="6.33168">
        <ele>511</ele>
        <time>2011-04-16T07:59:05Z</time>
      </trkpt>
      <trkpt lat="46.0633" lon="6.33153">
        <ele>511</ele>
        <time>2011-04-16T07:59:06Z</time>
      </trkpt>
      <trkpt lat="46.06325" lon="6.33139">
        <ele>511</ele>
        <time>2011-04-16T07:59:07Z</time>
      </trkpt>
      <trkpt lat="46.06322" lon="6.33124">
        <ele>511</ele>
        <time>2011-04-16T07:59:08Z</time>
      </trkpt>
      <trkpt lat="46.0632" lon="6.33108">
        <ele>511</ele>
        <time>2011-04-16T07:59:09Z</time>
      </trkpt>
      <trkpt lat="46.06319" lon="6.3309">
        <ele>511</ele>
        <time>2011-04-16T07:59:10Z</time>
      </trkpt>
      <trkpt lat="46.06315" lon="6.33071">
        <ele>511</ele>
        <time>2011-04-16T07:59:11Z</time>
      </trkpt>
      <trkpt lat="46.06311" lon="6.33054">
        <ele>511</ele>
        <time>2011-04-16T07:59:12Z</time>
      </trkpt>
      <trkpt lat="46.06307" lon="6.3304">
        <ele>511</ele>
        <time>2011-04-16T07:59:13Z</time>
      </trkpt>
      <trkpt lat="46.06305" lon="6.33025">
        <ele>511</ele>
        <time>2011-04-16T07:59:14Z</time>
      </trkpt>
      <trkpt lat="46.06307" lon="6.33011">
        <ele>511</ele>
        <time>2011-04-16T07:59:15Z</time>
      </trkpt>
      <trkpt lat="46.06312" lon="6.32998">
        <ele>511</ele>
        <time>2011-04-16T07:59:16Z</time>
      </trkpt>
      <trkpt lat="46.06319" lon="6.32983">
        <ele>511</ele>
        <time>2011-04-16T07:59:17Z</time>
      </trkpt>
      <trkpt lat="46.06326" lon="6.32967">
        <ele>511</ele>
        <time>2011-04-16T07:59:18Z</time>
      </trkpt>
      <trkpt lat="46.06331" lon="6.3295">
        <ele>511</ele>
        <time>2011-04-16T07:59:19Z</time>
      </trkpt>
      <trkpt lat="46.06334" lon="6.32934">
        <ele>511</ele>
        <time>2011-04-16T07:59:20Z</time>
      </trkpt>
      <trkpt lat="46.06333" lon="6.32916">
        <ele>511</ele>
        <time>2011-04-16T07:59:21Z</time>
      </trkpt>
      <trkpt lat="46.06331" lon="6.32896">
        <ele>511</ele>
        <time>2011-04-16T07:59:22Z</time>
      </trkpt>
      <trkpt lat="46.06329" lon="6.32874">
        <ele>517</ele>
        <time>2011-04-16T07:59:23Z</time>
      </trkpt>
      <trkpt lat="46.06328" lon="6.32852">
        <ele>517</ele>
        <time>2011-04-16T07:59:24Z</time>
      </trkpt>
      <trkpt lat="46.06329" lon="6.32831">
        <ele>517</ele>
        <time>2011-04-16T07:59:25Z</time>
      </trkpt>
      <trkpt lat="46.0633" lon="6.32808">
        <ele>517</ele>
        <time>2011-04-16T07:59:26Z</time>
      </trkpt>
      <trkpt lat="46.0633" lon="6.32785">
        <ele>517</ele>
        <time>2011-04-16T07:59:27Z</time>
      </trkpt>
      <trkpt lat="46.06327" lon="6.32762">
        <ele>517</ele>
        <time>2011-04-16T07:59:28Z</time>
      </trkpt>
      <trkpt lat="46.06324" lon="6.32737">
        <ele>522</ele>
        <time>2011-04-16T07:59:29Z</time>
      </trkpt>
      <trkpt lat="46.0632" lon="6.3271">
        <ele>522</ele>
        <time>2011-04-16T07:59:30Z</time>
      </trkpt>
      <trkpt lat="46.06315" lon="6.32684">
        <ele>522</ele>
        <time>2011-04-16T07:59:31Z</time>
      </trkpt>
      <trkpt lat="46.06308" lon="6.32656">
        <ele>522</ele>
        <time>2011-04-16T07:59:32Z</time>
      </trkpt>
      <trkpt lat="46.063" lon="6.32628">
        <ele>528</ele>
        <time>2011-04-16T07:59:33Z</time>
      </trkpt>
      <trkpt lat="46.06292" lon="6.32599">
        <ele>528</ele>
        <time>2011-04-16T07:59:34Z</time>
      </trkpt>
      <trkpt lat="46.06285" lon="6.32571">
        <ele>528</ele>
        <time>2011-04-16T07:59:35Z</time>
      </trkpt>
      <trkpt lat="46.06278" lon="6.32544">
        <ele>533</ele>
        <time>2011-04-16T07:59:36Z</time>
      </trkpt>
      <trkpt lat="46.06272" lon="6.32518">
        <ele>533</ele>
        <time>2011-04-16T07:59:37Z</time>
      </trkpt>
      <trkpt lat="46.0627" lon="6.32496">
        <ele>533</ele>
        <time>2011-04-16T07:59:38Z</time>
      </trkpt>
      <trkpt lat="46.06268" lon="6.32473">
        <ele>539</ele>
        <time>2011-04-16T07:59:39Z</time>
      </trkpt>
      <trkpt lat="46.06267" lon="6.32452">
        <ele>539</ele>
        <time>2011-04-16T07:59:40Z</time>
      </trkpt>
      <trkpt lat="46.06265" lon="6.32431">
        <ele>539</ele>
        <time>2011-04-16T07:59:41Z</time>
      </trkpt>
      <trkpt lat="46.06264" lon="6.32412">
        <ele>539</ele>
        <time>2011-04-16T07:59:42Z</time>
      </trkpt>
      <trkpt lat="46.06263" lon="6.32395">
        <ele>544</ele>
        <time>2011-04-16T07:59:43Z</time>
      </trkpt>
      <trkpt lat="46.06262" lon="6.32379">
        <ele>544</ele>
        <time>2011-04-16T07:59:44Z</time>
      </trkpt>
      <trkpt lat="46.06262" lon="6.32363">
        <ele>544</ele>
        <time>2011-04-16T07:59:45Z</time>
      </trkpt>
      <trkpt lat="46.06262" lon="6.32347">
        <ele>544</ele>
        <time>2011-04-16T07:59:46Z</time>
      </trkpt>
      <trkpt lat="46.06262" lon="6.3233">
        <ele>544</ele>
        <time>2011-04-16T07:59:47Z</time>
      </trkpt>
      <trkpt lat="46.06263" lon="6.32313">
        <ele>544</ele>
        <time>2011-04-16T07:59:48Z</time>
      </trkpt>
      <trkpt lat="46.06265" lon="6.32296">
        <ele>544</ele>
        <time>2011-04-16T07:59:49Z</time>
      </trkpt>
      <trkpt lat="46.06267" lon="6.32278">
        <ele>544</ele>
        <time>2011-04-16T07:59:50Z</time>
      </trkpt>
      <trkpt lat="46.0627" lon="6.3226">
        <ele>544</ele>
        <time>2011-04-16T07:59:51Z</time>
      </trkpt>
      <trkpt lat="46.06271" lon="6.32242">
        <ele>544</ele>
        <time>2011-04-16T07:59:52Z</time>
      </trkpt>
      <trkpt lat="46.06272" lon="6.32224">
        <ele>544</ele>
        <time>2011-04-16T07:59:53Z</time>
      </trkpt>
      <trkpt lat="46.06272" lon="6.32206">
        <ele>544</ele>
        <time>2011-04-16T07:59:54Z</time>
      </trkpt>
      <trkpt lat="46.0627" lon="6.32187">
        <ele>544</ele>
        <time>2011-04-16T07:59:55Z</time>
      </trkpt>
      <trkpt lat="46.06269" lon="6.32169">
        <ele>544</ele>
        <time>2011-04-16T07:59:56Z</time>
      </trkpt>
      <trkpt lat="46.06267" lon="6.3215">
        <ele>544</ele>
        <time>2011-04-16T07:59:57Z</time>
      </trkpt>
      <trkpt lat="46.06264" lon="6.32131">
        <ele>544</ele>
        <time>2011-04-16T07:59:58Z</time>
      </trkpt>
      <trkpt lat="46.06261" lon="6.32112">
        <ele>544</ele>
        <time>2011-04-16T07:59:59Z</time>
      </trkpt>
      <trkpt lat="46.06257" lon="6.32094">
        <ele>544</ele>
        <time>2011-04-16T08:00:00Z</time>
      </trkpt>
      <trkpt lat="46.06253" lon="6.32076">
        <ele>544</ele>
        <time>2011-04-16T08:00:01Z</time>
      </trkpt>
      <trkpt lat="46.06247" lon="6.32059">
        <ele>544</ele>
        <time>2011-04-16T08:00:02Z</time>
      </trkpt>
      <trkpt lat="46.06241" lon="6.32041">
        <ele>544</ele>
        <time>2011-04-16T08:00:03Z</time>
      </trkpt>
      <trkpt lat="46.06234" lon="6.32023">
        <ele>544</ele>
        <time>2011-04-16T08:00:04Z</time>
      </trkpt>
      <trkpt lat="46.06225" lon="6.32003">
        <ele>549</ele>
        <time>2011-04-16T08:00:05Z</time>
      </trkpt>
      <trkpt lat="46.06216" lon="6.31981">
        <ele>549</ele>
        <time>2011-04-16T08:00:06Z</time>
      </trkpt>
      <trkpt lat="46.06207" lon="6.31959">
        <ele>549</ele>
        <time>2011-04-16T08:00:07Z</time>
      </trkpt>
      <trkpt lat="46.06197" lon="6.31937">
        <ele>549</ele>
        <time>2011-04-16T08:00:08Z</time>
      </trkpt>
      <trkpt lat="46.06187" lon="6.31915">
        <ele>549</ele>
        <time>2011-04-16T08:00:09Z</time>
      </trkpt>
      <trkpt lat="46.06177" lon="6.31893">
        <ele>554</ele>
        <time>2011-04-16T08:00:10Z</time>
      </trkpt>
      <trkpt lat="46.06167" lon="6.31872">
        <ele>554</ele>
        <time>2011-04-16T08:00:11Z</time>
      </trkpt>
      <trkpt lat="46.06157" lon="6.31854">
        <ele>554</ele>
        <time>2011-04-16T08:00:12Z</time>
      </trkpt>
      <trkpt lat="46.06148" lon="6.31837">
        <ele>554</ele>
        <time>2011-04-16T08:00:13Z</time>
      </trkpt>
      <trkpt lat="46.06138" lon="6.31823">
        <ele>561</ele>
        <time>2011-04-16T08:00:14Z</time>
      </trkpt>
      <trkpt lat="46.06129" lon="6.3181">
        <ele>561</ele>
        <time>2011-04-16T08:00:15Z</time>
      </trkpt>
      <trkpt lat="46.0612" lon="6.318">
        <ele>561</ele>
        <time>2011-04-16T08:00:16Z</time>
      </trkpt>
      <trkpt lat="46.06107" lon="6.31786">
        <ele>566</ele>
        <time>2011-04-16T08:00:18Z</time>
      </trkpt>
      <trkpt lat="46.06097" lon="6.31767">
        <ele>566</ele>
        <time>2011-04-16T08:00:20Z</time>
      </trkpt>
      <trkpt lat="46.06092" lon="6.31755">
        <ele>566</ele>
        <time>2011-04-16T08:00:21Z</time>
      </trkpt>
      <trkpt lat="46.06087" lon="6.31739">
        <ele>566</ele>
        <time>2011-04-16T08:00:22Z</time>
      </trkpt>
      <trkpt lat="46.06081" lon="6.31722">
        <ele>566</ele>
        <time>2011-04-16T08:00:23Z</time>
      </trkpt>
      <trkpt lat="46.06075" lon="6.31706">
        <ele>566</ele>
        <time>2011-04-16T08:00:24Z</time>
      </trkpt>
      <trkpt lat="46.06068" lon="6.31691">
        <ele>566</ele>
        <time>2011-04-16T08:00:25Z</time>
      </trkpt>
      <trkpt lat="46.06062" lon="6.31676">
        <ele>566</ele>
        <time>2011-04-16T08:00:26Z</time>
      </trkpt>
      <trkpt lat="46.06056" lon="6.31661">
        <ele>566</ele>
        <time>2011-04-16T08:00:27Z</time>
      </trkpt>
      <trkpt lat="46.06049" lon="6.31649">
        <ele>566</ele>
        <time>2011-04-16T08:00:28Z</time>
      </trkpt>
      <trkpt lat="46.06043" lon="6.31636">
        <ele>566</ele>
        <time>2011-04-16T08:00:29Z</time>
      </trkpt>
      <trkpt lat="46.06038" lon="6.31623">
        <ele>566</ele>
        <time>2011-04-16T08:00:30Z</time>
      </trkpt>
      <trkpt lat="46.06037" lon="6.31608">
        <ele>566</ele>
        <time>2011-04-16T08:00:31Z</time>
      </trkpt>
      <trkpt lat="46.06038" lon="6.31595">
        <ele>566</ele>
        <time>2011-04-16T08:00:32Z</time>
      </trkpt>
      <trkpt lat="46.06043" lon="6.31582">
        <ele>566</ele>
        <time>2011-04-16T08:00:33Z</time>
      </trkpt>
      <trkpt lat="46.06053" lon="6.31572">
        <ele>561</ele>
        <time>2011-04-16T08:00:34Z</time>
      </trkpt>
      <trkpt lat="46.06062" lon="6.31565">
        <ele>561</ele>
        <time>2011-04-16T08:00:35Z</time>
      </trkpt>
      <trkpt lat="46.06073" lon="6.31562">
        <ele>561</ele>
        <time>2011-04-16T08:00:36Z</time>
      </trkpt>
      <trkpt lat="46.06085" lon="6.31566">
        <ele>561</ele>
        <time>2011-04-16T08:00:37Z</time>
      </trkpt>
      <trkpt lat="46.06097" lon="6.31575">
        <ele>561</ele>
        <time>2011-04-16T08:00:38Z</time>
      </trkpt>
      <trkpt lat="46.0611" lon="6.31586">
        <ele>561</ele>
        <time>2011-04-16T08:00:39Z</time>
      </trkpt>
      <trkpt lat="46.06122" lon="6.31597">
        <ele>561</ele>
        <time>2011-04-16T08:00:40Z</time>
      </trkpt>
      <trkpt lat="46.06135" lon="6.31608">
        <ele>561</ele>
        <time>2011-04-16T08:00:41Z</time>
      </trkpt>
      <trkpt lat="46.06147" lon="6.31618">
        <ele>561</ele>
        <time>2011-04-16T08:00:42Z</time>
      </trkpt>
      <trkpt lat="46.06157" lon="6.31627">
        <ele>561</ele>
        <time>2011-04-16T08:00:43Z</time>
      </trkpt>
      <trkpt lat="46.06167" lon="6.31634">
        <ele>561</ele>
        <time>2011-04-16T08:00:44Z</time>
      </trkpt>
      <trkpt lat="46.06176" lon="6.31641">
        <ele>561</ele>
        <time>2011-04-16T08:00:45Z</time>
      </trkpt>
      <trkpt lat="46.06193" lon="6.31648">
        <ele>561</ele>
        <time>2011-04-16T08:00:47Z</time>
      </trkpt>
      <trkpt lat="46.0621" lon="6.31645">
        <ele>561</ele>
        <time>2011-04-16T08:00:49Z</time>
      </trkpt>
      <trkpt lat="46.06219" lon="6.31641">
        <ele>561</ele>
        <time>2011-04-16T08:00:50Z</time>
      </trkpt>
      <trkpt lat="46.06236" lon="6.31632">
        <ele>561</ele>
        <time>2011-04-16T08:00:52Z</time>
      </trkpt>
      <trkpt lat="46.06253" lon="6.31623">
        <ele>561</ele>
        <time>2011-04-16T08:00:54Z</time>
      </trkpt>
      <trkpt lat="46.06269" lon="6.31611">
        <ele>561</ele>
        <time>2011-04-16T08:00:56Z</time>
      </trkpt>
      <trkpt lat="46.06283" lon="6.31597">
        <ele>561</ele>
        <time>2011-04-16T08:00:58Z</time>
      </trkpt>
      <trkpt lat="46.06293" lon="6.3158">
        <ele>561</ele>
        <time>2011-04-16T08:01:00Z</time>
      </trkpt>
      <trkpt lat="46.063" lon="6.31568">
        <ele>561</ele>
        <time>2011-04-16T08:01:02Z</time>
      </trkpt>
      <trkpt lat="46.06307" lon="6.31558">
        <ele>561</ele>
        <time>2011-04-16T08:01:29Z</time>
      </trkpt>
      <trkpt lat="46.06297" lon="6.31562">
        <ele>561</ele>
        <time>2011-04-16T08:08:56Z</time>
      </trkpt>
      <trkpt lat="46.06286" lon="6.31577">
        <ele>561</ele>
        <time>2011-04-16T08:08:58Z</time>
      </trkpt>
      <trkpt lat="46.06274" lon="6.31595">
        <ele>561</ele>
        <time>2011-04-16T08:09:00Z</time>
      </trkpt>
      <trkpt lat="46.06267" lon="6.31605">
        <ele>561</ele>
        <time>2011-04-16T08:09:01Z</time>
      </trkpt>
      <trkpt lat="46.06258" lon="6.31612">
        <ele>561</ele>
        <time>2011-04-16T08:09:02Z</time>
      </trkpt>
      <trkpt lat="46.06248" lon="6.31619">
        <ele>561</ele>
        <time>2011-04-16T08:09:03Z</time>
      </trkpt>
      <trkpt lat="46.06237" lon="6.31624">
        <ele>561</ele>
        <time>2011-04-16T08:09:04Z</time>
      </trkpt>
      <trkpt lat="46.06227" lon="6.31631">
        <ele>561</ele>
        <time>2011-04-16T08:09:05Z</time>
      </trkpt>
      <trkpt lat="46.06216" lon="6.31635">
        <ele>561</ele>
        <time>2011-04-16T08:09:06Z</time>
      </trkpt>
      <trkpt lat="46.06205" lon="6.3164">
        <ele>561</ele>
        <time>2011-04-16T08:09:07Z</time>
      </trkpt>
      <trkpt lat="46.06194" lon="6.31643">
        <ele>561</ele>
        <time>2011-04-16T08:09:08Z</time>
      </trkpt>
      <trkpt lat="46.06183" lon="6.31645">
        <ele>561</ele>
        <time>2011-04-16T08:09:09Z</time>
      </trkpt>
      <trkpt lat="46.0617" lon="6.31639">
        <ele>561</ele>
        <time>2011-04-16T08:09:10Z</time>
      </trkpt>
      <trkpt lat="46.06158" lon="6.31629">
        <ele>561</ele>
        <time>2011-04-16T08:09:11Z</time>
      </trkpt>
      <trkpt lat="46.06146" lon="6.31618">
        <ele>561</ele>
        <time>2011-04-16T08:09:12Z</time>
      </trkpt>
      <trkpt lat="46.06133" lon="6.31609">
        <ele>561</ele>
        <time>2011-04-16T08:09:13Z</time>
      </trkpt>
      <trkpt lat="46.0612" lon="6.31599">
        <ele>561</ele>
        <time>2011-04-16T08:09:14Z</time>
      </trkpt>
      <trkpt lat="46.06108" lon="6.31589">
        <ele>561</ele>
        <time>2011-04-16T08:09:15Z</time>
      </trkpt>
      <trkpt lat="46.06097" lon="6.31579">
        <ele>561</ele>
        <time>2011-04-16T08:09:16Z</time>
      </trkpt>
      <trkpt lat="46.06089" lon="6.31571">
        <ele>561</ele>
        <time>2011-04-16T08:09:17Z</time>
      </trkpt>
      <trkpt lat="46.0608" lon="6.31564">
        <ele>561</ele>
        <time>2011-04-16T08:09:18Z</time>
      </trkpt>
      <trkpt lat="46.0607" lon="6.31559">
        <ele>561</ele>
        <time>2011-04-16T08:09:19Z</time>
      </trkpt>
      <trkpt lat="46.0606" lon="6.31561">
        <ele>561</ele>
        <time>2011-04-16T08:09:20Z</time>
      </trkpt>
      <trkpt lat="46.0605" lon="6.31564">
        <ele>561</ele>
        <time>2011-04-16T08:09:21Z</time>
      </trkpt>
      <trkpt lat="46.0604" lon="6.31575">
        <ele>561</ele>
        <time>2011-04-16T08:09:22Z</time>
      </trkpt>
      <trkpt lat="46.06032" lon="6.31588">
        <ele>561</ele>
        <time>2011-04-16T08:09:23Z</time>
      </trkpt>
      <trkpt lat="46.06029" lon="6.31602">
        <ele>566</ele>
        <time>2011-04-16T08:09:24Z</time>
      </trkpt>
      <trkpt lat="46.06032" lon="6.31623">
        <ele>566</ele>
        <time>2011-04-16T08:09:25Z</time>
      </trkpt>
      <trkpt lat="46.06035" lon="6.31643">
        <ele>560</ele>
        <time>2011-04-16T08:09:26Z</time>
      </trkpt>
      <trkpt lat="46.06042" lon="6.31662">
        <ele>560</ele>
        <time>2011-04-16T08:09:27Z</time>
      </trkpt>
      <trkpt lat="46.06051" lon="6.31681">
        <ele>560</ele>
        <time>2011-04-16T08:09:28Z</time>
      </trkpt>
      <trkpt lat="46.0606" lon="6.31699">
        <ele>560</ele>
        <time>2011-04-16T08:09:29Z</time>
      </trkpt>
      <trkpt lat="46.06069" lon="6.31716">
        <ele>560</ele>
        <time>2011-04-16T08:09:30Z</time>
      </trkpt>
      <trkpt lat="46.06077" lon="6.31732">
        <ele>560</ele>
        <time>2011-04-16T08:09:31Z</time>
      </trkpt>
      <trkpt lat="46.06084" lon="6.31747">
        <ele>560</ele>
        <time>2011-04-16T08:09:32Z</time>
      </trkpt>
      <trkpt lat="46.06088" lon="6.31763">
        <ele>560</ele>
        <time>2011-04-16T08:09:33Z</time>
      </trkpt>
      <trkpt lat="46.06088" lon="6.3178">
        <ele>560</ele>
        <time>2011-04-16T08:09:34Z</time>
      </trkpt>
      <trkpt lat="46.06084" lon="6.31792">
        <ele>560</ele>
        <time>2011-04-16T08:09:35Z</time>
      </trkpt>
      <trkpt lat="46.06075" lon="6.31802">
        <ele>560</ele>
        <time>2011-04-16T08:09:36Z</time>
      </trkpt>
      <trkpt lat="46.06063" lon="6.31809">
        <ele>560</ele>
        <time>2011-04-16T08:09:37Z</time>
      </trkpt>
      <trkpt lat="46.06048" lon="6.31813">
        <ele>566</ele>
        <time>2011-04-16T08:09:38Z</time>
      </trkpt>
      <trkpt lat="46.06034" lon="6.31818">
        <ele>566</ele>
        <time>2011-04-16T08:09:39Z</time>
      </trkpt>
      <trkpt lat="46.06019" lon="6.31824">
        <ele>566</ele>
        <time>2011-04-16T08:09:40Z</time>
      </trkpt>
      <trkpt lat="46.06005" lon="6.3183">
        <ele>566</ele>
        <time>2011-04-16T08:09:41Z</time>
      </trkpt>
      <trkpt lat="46.0599" lon="6.31835">
        <ele>572</ele>
        <time>2011-04-16T08:09:42Z</time>
      </trkpt>
      <trkpt lat="46.05974" lon="6.31838">
        <ele>572</ele>
        <time>2011-04-16T08:09:43Z</time>
      </trkpt>
      <trkpt lat="46.05958" lon="6.31842">
        <ele>572</ele>
        <time>2011-04-16T08:09:44Z</time>
      </trkpt>
      <trkpt lat="46.05945" lon="6.31845">
        <ele>572</ele>
        <time>2011-04-16T08:09:45Z</time>
      </trkpt>
      <trkpt lat="46.05932" lon="6.31852">
        <ele>572</ele>
        <time>2011-04-16T08:09:46Z</time>
      </trkpt>
      <trkpt lat="46.05921" lon="6.31859">
        <ele>572</ele>
        <time>2011-04-16T08:09:47Z</time>
      </trkpt>
      <trkpt lat="46.05911" lon="6.3187">
        <ele>578</ele>
        <time>2011-04-16T08:09:48Z</time>
      </trkpt>
      <trkpt lat="46.05902" lon="6.31884">
        <ele>578</ele>
        <time>2011-04-16T08:09:49Z</time>
      </trkpt>
      <trkpt lat="46.05895" lon="6.31904">
        <ele>578</ele>
        <time>2011-04-16T08:09:50Z</time>
      </trkpt>
      <trkpt lat="46.05888" lon="6.31923">
        <ele>578</ele>
        <time>2011-04-16T08:09:51Z</time>
      </trkpt>
      <trkpt lat="46.05882" lon="6.31942">
        <ele>583</ele>
        <time>2011-04-16T08:09:52Z</time>
      </trkpt>
      <trkpt lat="46.05876" lon="6.31961">
        <ele>583</ele>
        <time>2011-04-16T08:09:53Z</time>
      </trkpt>
      <trkpt lat="46.05871" lon="6.31979">
        <ele>583</ele>
        <time>2011-04-16T08:09:54Z</time>
      </trkpt>
      <trkpt lat="46.05867" lon="6.31996">
        <ele>583</ele>
        <time>2011-04-16T08:09:55Z</time>
      </trkpt>
      <trkpt lat="46.05861" lon="6.3201">
        <ele>583</ele>
        <time>2011-04-16T08:09:56Z</time>
      </trkpt>
      <trkpt lat="46.05853" lon="6.32022">
        <ele>588</ele>
        <time>2011-04-16T08:09:57Z</time>
      </trkpt>
      <trkpt lat="46.05844" lon="6.32032">
        <ele>588</ele>
        <time>2011-04-16T08:09:58Z</time>
      </trkpt>
      <trkpt lat="46.05832" lon="6.32037">
        <ele>588</ele>
        <time>2011-04-16T08:09:59Z</time>
      </trkpt>
      <trkpt lat="46.05818" lon="6.3204">
        <ele>588</ele>
        <time>2011-04-16T08:10:00Z</time>
      </trkpt>
      <trkpt lat="46.05805" lon="6.32045">
        <ele>588</ele>
        <time>2011-04-16T08:10:01Z</time>
      </trkpt>
      <trkpt lat="46.05792" lon="6.32052">
        <ele>588</ele>
        <time>2011-04-16T08:10:02Z</time>
      </trkpt>
      <trkpt lat="46.05779" lon="6.32059">
        <ele>588</ele>
        <time>2011-04-16T08:10:03Z</time>
      </trkpt>
      <trkpt lat="46.05766" lon="6.32067">
        <ele>594</ele>
        <time>2011-04-16T08:10:04Z</time>
      </trkpt>
      <trkpt lat="46.05752" lon="6.32077">
        <ele>594</ele>
        <time>2011-04-16T08:10:05Z</time>
      </trkpt>
      <trkpt lat="46.05738" lon="6.32087">
        <ele>594</ele>
        <time>2011-04-16T08:10:06Z</time>
      </trkpt>
      <trkpt lat="46.05724" lon="6.321">
        <ele>594</ele>
        <time>2011-04-16T08:10:07Z</time>
      </trkpt>
      <trkpt lat="46.05712" lon="6.32116">
        <ele>594</ele>
        <time>2011-04-16T08:10:08Z</time>
      </trkpt>
      <trkpt lat="46.05699" lon="6.32133">
        <ele>594</ele>
        <time>2011-04-16T08:10:09Z</time>
      </trkpt>
      <trkpt lat="46.05687" lon="6.32153">
        <ele>599</ele>
        <time>2011-04-16T08:10:10Z</time>
      </trkpt>
      <trkpt lat="46.05676" lon="6.32174">
        <ele>599</ele>
        <time>2011-04-16T08:10:11Z</time>
      </trkpt>
      <trkpt lat="46.05665" lon="6.32197">
        <ele>599</ele>
        <time>2011-04-16T08:10:12Z</time>
      </trkpt>
      <trkpt lat="46.05656" lon="6.32216">
        <ele>599</ele>
        <time>2011-04-16T08:10:13Z</time>
      </trkpt>
      <trkpt lat="46.05647" lon="6.32233">
        <ele>599</ele>
        <time>2011-04-16T08:10:14Z</time>
      </trkpt>
      <trkpt lat="46.05641" lon="6.32248">
        <ele>605</ele>
        <time>2011-04-16T08:10:15Z</time>
      </trkpt>
      <trkpt lat="46.05635" lon="6.32259">
        <ele>605</ele>
        <time>2011-04-16T08:10:16Z</time>
      </trkpt>
      <trkpt lat="46.05628" lon="6.32274">
        <ele>605</ele>
        <time>2011-04-16T08:10:18Z</time>
      </trkpt>
      <trkpt lat="46.05622" lon="6.32293">
        <ele>605</ele>
        <time>2011-04-16T08:12:13Z</time>
      </trkpt>
      <trkpt lat="46.05612" lon="6.32314">
        <ele>605</ele>
        <time>2011-04-16T08:12:15Z</time>
      </trkpt>
      <trkpt lat="46.05606" lon="6.32328">
        <ele>605</ele>
        <time>2011-04-16T08:12:16Z</time>
      </trkpt>
      <trkpt lat="46.05601" lon="6.32341">
        <ele>605</ele>
        <time>2011-04-16T08:12:17Z</time>
      </trkpt>
      <trkpt lat="46.05593" lon="6.32357">
        <ele>605</ele>
        <time>2011-04-16T08:12:18Z</time>
      </trkpt>
      <trkpt lat="46.05587" lon="6.32374">
        <ele>605</ele>
        <time>2011-04-16T08:12:19Z</time>
      </trkpt>
      <trkpt lat="46.05581" lon="6.32392">
        <ele>605</ele>
        <time>2011-04-16T08:12:20Z</time>
      </trkpt>
      <trkpt lat="46.05573" lon="6.32411">
        <ele>605</ele>
        <time>2011-04-16T08:12:21Z</time>
      </trkpt>
      <trkpt lat="46.05566" lon="6.3243">
        <ele>605</ele>
        <time>2011-04-16T08:12:22Z</time>
      </trkpt>
      <trkpt lat="46.05557" lon="6.32449">
        <ele>605</ele>
        <time>2011-04-16T08:12:23Z</time>
      </trkpt>
      <trkpt lat="46.05549" lon="6.32468">
        <ele>605</ele>
        <time>2011-04-16T08:12:24Z</time>
      </trkpt>
      <trkpt lat="46.05539" lon="6.32488">
        <ele>605</ele>
        <time>2011-04-16T08:12:25Z</time>
      </trkpt>
      <trkpt lat="46.05529" lon="6.32507">
        <ele>605</ele>
        <time>2011-04-16T08:12:26Z</time>
      </trkpt>
      <trkpt lat="46.05519" lon="6.32528">
        <ele>605</ele>
        <time>2011-04-16T08:12:27Z</time>
      </trkpt>
      <trkpt lat="46.05509" lon="6.3255">
        <ele>605</ele>
        <time>2011-04-16T08:12:28Z</time>
      </trkpt>
      <trkpt lat="46.05499" lon="6.32571">
        <ele>605</ele>
        <time>2011-04-16T08:12:29Z</time>
      </trkpt>
      <trkpt lat="46.05489" lon="6.32593">
        <ele>605</ele>
        <time>2011-04-16T08:12:30Z</time>
      </trkpt>
      <trkpt lat="46.05477" lon="6.32613">
        <ele>605</ele>
        <time>2011-04-16T08:12:31Z</time>
      </trkpt>
      <trkpt lat="46.05466" lon="6.32632">
        <ele>605</ele>
        <time>2011-04-16T08:12:32Z</time>
      </trkpt>
      <trkpt lat="46.05456" lon="6.32651">
        <ele>605</ele>
        <time>2011-04-16T08:12:33Z</time>
      </trkpt>
      <trkpt lat="46.05446" lon="6.32668">
        <ele>605</ele>
        <time>2011-04-16T08:12:34Z</time>
      </trkpt>
      <trkpt lat="46.05437" lon="6.32684">
        <ele>605</ele>
        <time>2011-04-16T08:12:35Z</time>
      </trkpt>
      <trkpt lat="46.05429" lon="6.32698">
        <ele>605</ele>
        <time>2011-04-16T08:12:36Z</time>
      </trkpt>
      <trkpt lat="46.05424" lon="6.32709">
        <ele>605</ele>
        <time>2011-04-16T08:12:37Z</time>
      </trkpt>
      <trkpt lat="46.05418" lon="6.32723">
        <ele>605</ele>
        <time>2011-04-16T08:12:39Z</time>
      </trkpt>
      <trkpt lat="46.05428" lon="6.32722">
        <ele>605</ele>
        <time>2011-04-16T08:12:43Z</time>
      </trkpt>
      <trkpt lat="46.05441" lon="6.32727">
        <ele>605</ele>
        <time>2011-04-16T08:12:46Z</time>
      </trkpt>
      <trkpt lat="46.0545" lon="6.32733">
        <ele>605</ele>
        <time>2011-04-16T08:12:47Z</time>
      </trkpt>
      <trkpt lat="46.05458" lon="6.32741">
        <ele>605</ele>
        <time>2011-04-16T08:12:48Z</time>
      </trkpt>
      <trkpt lat="46.05466" lon="6.3275">
        <ele>605</ele>
        <time>2011-04-16T08:12:49Z</time>
      </trkpt>
      <trkpt lat="46.05472" lon="6.32761">
        <ele>605</ele>
        <time>2011-04-16T08:12:50Z</time>
      </trkpt>
      <trkpt lat="46.05477" lon="6.32773">
        <ele>605</ele>
        <time>2011-04-16T08:12:51Z</time>
      </trkpt>
      <trkpt lat="46.05478" lon="6.32787">
        <ele>599</ele>
        <time>2011-04-16T08:12:52Z</time>
      </trkpt>
      <trkpt lat="46.05476" lon="6.32801">
        <ele>599</ele>
        <time>2011-04-16T08:12:53Z</time>
      </trkpt>
      <trkpt lat="46.05473" lon="6.32821">
        <ele>599</ele>
        <time>2011-04-16T08:12:55Z</time>
      </trkpt>
      <trkpt lat="46.05472" lon="6.32834">
        <ele>599</ele>
        <time>2011-04-16T08:12:57Z</time>
      </trkpt>
      <trkpt lat="46.05485" lon="6.32835">
        <ele>599</ele>
        <time>2011-04-16T08:13:00Z</time>
      </trkpt>
      <trkpt lat="46.05497" lon="6.32817">
        <ele>599</ele>
        <time>2011-04-16T08:13:02Z</time>
      </trkpt>
      <trkpt lat="46.05504" lon="6.32804">
        <ele>599</ele>
        <time>2011-04-16T08:13:03Z</time>
      </trkpt>
      <trkpt lat="46.05509" lon="6.32789">
        <ele>599</ele>
        <time>2011-04-16T08:13:04Z</time>
      </trkpt>
      <trkpt lat="46.05519" lon="6.32766">
        <ele>591</ele>
        <time>2011-04-16T08:13:06Z</time>
      </trkpt>
      <trkpt lat="46.05525" lon="6.32755">
        <ele>591</ele>
        <time>2011-04-16T08:13:07Z</time>
      </trkpt>
      <trkpt lat="46.05537" lon="6.32736">
        <ele>591</ele>
        <time>2011-04-16T08:13:09Z</time>
      </trkpt>
      <trkpt lat="46.05544" lon="6.32724">
        <ele>591</ele>
        <time>2011-04-16T08:13:10Z</time>
      </trkpt>
      <trkpt lat="46.0555" lon="6.32713">
        <ele>586</ele>
        <time>2011-04-16T08:13:11Z</time>
      </trkpt>
      <trkpt lat="46.05556" lon="6.32703">
        <ele>586</ele>
        <time>2011-04-16T08:13:12Z</time>
      </trkpt>
      <trkpt lat="46.05568" lon="6.32687">
        <ele>586</ele>
        <time>2011-04-16T08:13:14Z</time>
      </trkpt>
      <trkpt lat="46.05577" lon="6.32673">
        <ele>586</ele>
        <time>2011-04-16T08:13:16Z</time>
      </trkpt>
      <trkpt lat="46.05586" lon="6.32668">
        <ele>586</ele>
        <time>2011-04-16T08:13:18Z</time>
      </trkpt>
      <trkpt lat="46.05596" lon="6.32664">
        <ele>586</ele>
        <time>2011-04-16T08:13:20Z</time>
      </trkpt>
      <trkpt lat="46.05607" lon="6.32651">
        <ele>586</ele>
        <time>2011-04-16T08:13:22Z</time>
      </trkpt>
      <trkpt lat="46.05619" lon="6.32632">
        <ele>586</ele>
        <time>2011-04-16T08:13:24Z</time>
      </trkpt>
      <trkpt lat="46.05631" lon="6.32615">
        <ele>579</ele>
        <time>2011-04-16T08:13:26Z</time>
      </trkpt>
      <trkpt lat="46.05643" lon="6.32602">
        <ele>579</ele>
        <time>2011-04-16T08:13:28Z</time>
      </trkpt>
      <trkpt lat="46.05656" lon="6.32597">
        <ele>579</ele>
        <time>2011-04-16T08:13:30Z</time>
      </trkpt>
      <trkpt lat="46.05671" lon="6.32599">
        <ele>572</ele>
        <time>2011-04-16T08:13:32Z</time>
      </trkpt>
      <trkpt lat="46.05684" lon="6.32613">
        <ele>572</ele>
        <time>2011-04-16T08:13:34Z</time>
      </trkpt>
      <trkpt lat="46.05696" lon="6.32623">
        <ele>572</ele>
        <time>2011-04-16T08:13:36Z</time>
      </trkpt>
      <trkpt lat="46.05711" lon="6.32631">
        <ele>572</ele>
        <time>2011-04-16T08:13:38Z</time>
      </trkpt>
      <trkpt lat="46.0572" lon="6.32635">
        <ele>572</ele>
        <time>2011-04-16T08:13:39Z</time>
      </trkpt>
      <trkpt lat="46.05729" lon="6.32639">
        <ele>572</ele>
        <time>2011-04-16T08:13:40Z</time>
      </trkpt>
      <trkpt lat="46.05738" lon="6.32641">
        <ele>572</ele>
        <time>2011-04-16T08:13:41Z</time>
      </trkpt>
      <trkpt lat="46.05748" lon="6.32641">
        <ele>572</ele>
        <time>2011-04-16T08:13:42Z</time>
      </trkpt>
      <trkpt lat="46.05758" lon="6.3264">
        <ele>572</ele>
        <time>2011-04-16T08:13:43Z</time>
      </trkpt>
      <trkpt lat="46.05768" lon="6.32639">
        <ele>572</ele>
        <time>2011-04-16T08:13:44Z</time>
      </trkpt>
      <trkpt lat="46.05785" lon="6.32634">
        <ele>572</ele>
        <time>2011-04-16T08:13:46Z</time>
      </trkpt>
      <trkpt lat="46.05794" lon="6.3263">
        <ele>572</ele>
        <time>2011-04-16T08:13:47Z</time>
      </trkpt>
      <trkpt lat="46.05803" lon="6.32628">
        <ele>572</ele>
        <time>2011-04-16T08:13:48Z</time>
      </trkpt>
      <trkpt lat="46.05813" lon="6.32626">
        <ele>572</ele>
        <time>2011-04-16T08:13:49Z</time>
      </trkpt>
      <trkpt lat="46.05829" lon="6.32622">
        <ele>572</ele>
        <time>2011-04-16T08:13:51Z</time>
      </trkpt>
      <trkpt lat="46.05843" lon="6.32622">
        <ele>572</ele>
        <time>2011-04-16T08:13:53Z</time>
      </trkpt>
      <trkpt lat="46.05873" lon="6.32638">
        <ele>572</ele>
        <time>2011-04-16T08:13:57Z</time>
      </trkpt>
      <trkpt lat="46.0588" lon="6.32651">
        <ele>567</ele>
        <time>2011-04-16T08:13:58Z</time>
      </trkpt>
      <trkpt lat="46.05884" lon="6.32677">
        <ele>557</ele>
        <time>2011-04-16T08:14:00Z</time>
      </trkpt>
      <trkpt lat="46.05892" lon="6.32701">
        <ele>557</ele>
        <time>2011-04-16T08:14:02Z</time>
      </trkpt>
      <trkpt lat="46.05901" lon="6.32717">
        <ele>557</ele>
        <time>2011-04-16T08:14:04Z</time>
      </trkpt>
      <trkpt lat="46.05906" lon="6.32734">
        <ele>557</ele>
        <time>2011-04-16T08:14:06Z</time>
      </trkpt>
      <trkpt lat="46.05908" lon="6.32762">
        <ele>551</ele>
        <time>2011-04-16T08:14:08Z</time>
      </trkpt>
      <trkpt lat="46.05908" lon="6.32778">
        <ele>551</ele>
        <time>2011-04-16T08:14:09Z</time>
      </trkpt>
      <trkpt lat="46.05908" lon="6.32793">
        <ele>551</ele>
        <time>2011-04-16T08:14:10Z</time>
      </trkpt>
      <trkpt lat="46.05908" lon="6.32807">
        <ele>551</ele>
        <time>2011-04-16T08:14:11Z</time>
      </trkpt>
      <trkpt lat="46.05906" lon="6.32821">
        <ele>551</ele>
        <time>2011-04-16T08:14:12Z</time>
      </trkpt>
      <trkpt lat="46.05901" lon="6.32844">
        <ele>551</ele>
        <time>2011-04-16T08:14:14Z</time>
      </trkpt>
      <trkpt lat="46.0589" lon="6.32869">
        <ele>551</ele>
        <time>2011-04-16T08:14:16Z</time>
      </trkpt>
      <trkpt lat="46.05881" lon="6.32879">
        <ele>551</ele>
        <time>2011-04-16T08:14:17Z</time>
      </trkpt>
      <trkpt lat="46.05873" lon="6.32888">
        <ele>551</ele>
        <time>2011-04-16T08:14:18Z</time>
      </trkpt>
      <trkpt lat="46.05865" lon="6.32898">
        <ele>551</ele>
        <time>2011-04-16T08:14:19Z</time>
      </trkpt>
      <trkpt lat="46.05851" lon="6.32916">
        <ele>551</ele>
        <time>2011-04-16T08:14:21Z</time>
      </trkpt>
      <trkpt lat="46.05844" lon="6.32927">
        <ele>551</ele>
        <time>2011-04-16T08:14:22Z</time>
      </trkpt>
      <trkpt lat="46.05834" lon="6.32946">
        <ele>551</ele>
        <time>2011-04-16T08:14:24Z</time>
      </trkpt>
      <trkpt lat="46.05823" lon="6.32961">
        <ele>551</ele>
        <time>2011-04-16T08:14:26Z</time>
      </trkpt>
      <trkpt lat="46.0581" lon="6.32978">
        <ele>558</ele>
        <time>2011-04-16T08:14:28Z</time>
      </trkpt>
      <trkpt lat="46.05798" lon="6.32995">
        <ele>558</ele>
        <time>2011-04-16T08:14:30Z</time>
      </trkpt>
      <trkpt lat="46.05792" lon="6.33008">
        <ele>558</ele>
        <time>2011-04-16T08:14:34Z</time>
      </trkpt>
      <trkpt lat="46.05785" lon="6.33018">
        <ele>565</ele>
        <time>2011-04-16T08:14:36Z</time>
      </trkpt>
      <trkpt lat="46.05778" lon="6.33031">
        <ele>565</ele>
        <time>2011-04-16T08:14:38Z</time>
      </trkpt>
      <trkpt lat="46.05772" lon="6.3305">
        <ele>565</ele>
        <time>2011-04-16T08:14:40Z</time>
      </trkpt>
      <trkpt lat="46.05767" lon="6.33068">
        <ele>565</ele>
        <time>2011-04-16T08:14:42Z</time>
      </trkpt>
      <trkpt lat="46.05767" lon="6.33093">
        <ele>565</ele>
        <time>2011-04-16T08:14:44Z</time>
      </trkpt>
      <trkpt lat="46.05764" lon="6.33106">
        <ele>565</ele>
        <time>2011-04-16T08:14:45Z</time>
      </trkpt>
      <trkpt lat="46.05763" lon="6.3312">
        <ele>565</ele>
        <time>2011-04-16T08:14:46Z</time>
      </trkpt>
      <trkpt lat="46.05761" lon="6.33135">
        <ele>565</ele>
        <time>2011-04-16T08:14:47Z</time>
      </trkpt>
      <trkpt lat="46.05759" lon="6.33149">
        <ele>565</ele>
        <time>2011-04-16T08:14:48Z</time>
      </trkpt>
      <trkpt lat="46.05756" lon="6.33163">
        <ele>565</ele>
        <time>2011-04-16T08:14:49Z</time>
      </trkpt>
      <trkpt lat="46.05756" lon="6.33178">
        <ele>565</ele>
        <time>2011-04-16T08:14:50Z</time>
      </trkpt>
      <trkpt lat="46.05755" lon="6.33193">
        <ele>565</ele>
        <time>2011-04-16T08:14:51Z</time>
      </trkpt>
      <trkpt lat="46.05754" lon="6.33208">
        <ele>565</ele>
        <time>2011-04-16T08:14:52Z</time>
      </trkpt>
      <trkpt lat="46.05753" lon="6.33222">
        <ele>565</ele>
        <time>2011-04-16T08:14:53Z</time>
      </trkpt>
      <trkpt lat="46.05751" lon="6.33236">
        <ele>565</ele>
        <time>2011-04-16T08:14:54Z</time>
      </trkpt>
      <trkpt lat="46.05749" lon="6.33251">
        <ele>565</ele>
        <time>2011-04-16T08:14:55Z</time>
      </trkpt>
      <trkpt lat="46.05748" lon="6.33265">
        <ele>565</ele>
        <time>2011-04-16T08:14:56Z</time>
      </trkpt>
      <trkpt lat="46.05746" lon="6.33287">
        <ele>565</ele>
        <time>2011-04-16T08:14:58Z</time>
      </trkpt>
      <trkpt lat="46.05742" lon="6.33311">
        <ele>565</ele>
        <time>2011-04-16T08:15:00Z</time>
      </trkpt>
      <trkpt lat="46.05736" lon="6.33333">
        <ele>565</ele>
        <time>2011-04-16T08:15:02Z</time>
      </trkpt>
      <trkpt lat="46.05732" lon="6.33346">
        <ele>565</ele>
        <time>2011-04-16T08:15:04Z</time>
      </trkpt>
      <trkpt lat="46.05721" lon="6.3335">
        <ele>565</ele>
        <time>2011-04-16T08:15:07Z</time>
      </trkpt>
      <trkpt lat="46.05712" lon="6.33355">
        <ele>565</ele>
        <time>2011-04-16T08:15:09Z</time>
      </trkpt>
      <trkpt lat="46.05704" lon="6.33363">
        <ele>565</ele>
        <time>2011-04-16T08:15:11Z</time>
      </trkpt>
      <trkpt lat="46.05698" lon="6.33373">
        <ele>565</ele>
        <time>2011-04-16T08:15:13Z</time>
      </trkpt>
      <trkpt lat="46.0569" lon="6.33381">
        <ele>565</ele>
        <time>2011-04-16T08:15:15Z</time>
      </trkpt>
      <trkpt lat="46.05683" lon="6.33396">
        <ele>565</ele>
        <time>2011-04-16T08:15:18Z</time>
      </trkpt>
      <trkpt lat="46.05676" lon="6.33406">
        <ele>565</ele>
        <time>2011-04-16T08:15:20Z</time>
      </trkpt>
      <trkpt lat="46.05669" lon="6.33418">
        <ele>571</ele>
        <time>2011-04-16T08:15:22Z</time>
      </trkpt>
      <trkpt lat="46.05671" lon="6.33435">
        <ele>571</ele>
        <time>2011-04-16T08:15:24Z</time>
      </trkpt>
      <trkpt lat="46.05671" lon="6.33451">
        <ele>571</ele>
        <time>2011-04-16T08:15:26Z</time>
      </trkpt>
      <trkpt lat="46.05671" lon="6.33469">
        <ele>571</ele>
        <time>2011-04-16T08:15:29Z</time>
      </trkpt>
      <trkpt lat="46.05662" lon="6.33479">
        <ele>565</ele>
        <time>2011-04-16T08:15:34Z</time>
      </trkpt>
      <trkpt lat="46.05656" lon="6.33489">
        <ele>565</ele>
        <time>2011-04-16T08:15:36Z</time>
      </trkpt>
      <trkpt lat="46.0565" lon="6.33499">
        <ele>565</ele>
        <time>2011-04-16T08:15:38Z</time>
      </trkpt>
      <trkpt lat="46.05641" lon="6.33512">
        <ele>565</ele>
        <time>2011-04-16T08:15:41Z</time>
      </trkpt>
      <trkpt lat="46.05641" lon="6.33529">
        <ele>565</ele>
        <time>2011-04-16T08:15:43Z</time>
      </trkpt>
      <trkpt lat="46.05643" lon="6.33546">
        <ele>565</ele>
        <time>2011-04-16T08:15:45Z</time>
      </trkpt>
      <trkpt lat="46.05654" lon="6.33564">
        <ele>565</ele>
        <time>2011-04-16T08:15:47Z</time>
      </trkpt>
      <trkpt lat="46.05666" lon="6.33578">
        <ele>565</ele>
        <time>2011-04-16T08:15:49Z</time>
      </trkpt>
      <trkpt lat="46.05671" lon="6.3359">
        <ele>565</ele>
        <time>2011-04-16T08:15:51Z</time>
      </trkpt>
      <trkpt lat="46.05671" lon="6.33609">
        <ele>565</ele>
        <time>2011-04-16T08:15:54Z</time>
      </trkpt>
      <trkpt lat="46.05674" lon="6.33627">
        <ele>565</ele>
        <time>2011-04-16T08:15:57Z</time>
      </trkpt>
      <trkpt lat="46.05677" lon="6.3364">
        <ele>565</ele>
        <time>2011-04-16T08:15:59Z</time>
      </trkpt>
      <trkpt lat="46.05681" lon="6.33658">
        <ele>560</ele>
        <time>2011-04-16T08:16:01Z</time>
      </trkpt>
      <trkpt lat="46.05684" lon="6.33679">
        <ele>560</ele>
        <time>2011-04-16T08:16:03Z</time>
      </trkpt>
      <trkpt lat="46.05685" lon="6.33693">
        <ele>560</ele>
        <time>2011-04-16T08:16:05Z</time>
      </trkpt>
      <trkpt lat="46.05686" lon="6.33708">
        <ele>560</ele>
        <time>2011-04-16T08:16:07Z</time>
      </trkpt>
      <trkpt lat="46.05679" lon="6.33718">
        <ele>560</ele>
        <time>2011-04-16T08:16:13Z</time>
      </trkpt>
      <trkpt lat="46.05682" lon="6.33731">
        <ele>560</ele>
        <time>2011-04-16T08:16:17Z</time>
      </trkpt>
      <trkpt lat="46.05682" lon="6.33744">
        <ele>552</ele>
        <time>2011-04-16T08:16:20Z</time>
      </trkpt>
      <trkpt lat="46.05682" lon="6.33759">
        <ele>552</ele>
        <time>2011-04-16T08:16:22Z</time>
      </trkpt>
      <trkpt lat="46.05684" lon="6.33773">
        <ele>552</ele>
        <time>2011-04-16T08:16:24Z</time>
      </trkpt>
      <trkpt lat="46.05689" lon="6.33785">
        <ele>547</ele>
        <time>2011-04-16T08:16:26Z</time>
      </trkpt>
      <trkpt lat="46.05696" lon="6.338">
        <ele>547</ele>
        <time>2011-04-16T08:16:28Z</time>
      </trkpt>
      <trkpt lat="46.05701" lon="6.33818">
        <ele>547</ele>
        <time>2011-04-16T08:16:30Z</time>
      </trkpt>
      <trkpt lat="46.05704" lon="6.33837">
        <ele>547</ele>
        <time>2011-04-16T08:16:32Z</time>
      </trkpt>
      <trkpt lat="46.05708" lon="6.33855">
        <ele>547</ele>
        <time>2011-04-16T08:16:34Z</time>
      </trkpt>
      <trkpt lat="46.0571" lon="6.33872">
        <ele>547</ele>
        <time>2011-04-16T08:16:36Z</time>
      </trkpt>
      <trkpt lat="46.05714" lon="6.33889">
        <ele>547</ele>
        <time>2011-04-16T08:16:38Z</time>
      </trkpt>
      <trkpt lat="46.05725" lon="6.33901">
        <ele>547</ele>
        <time>2011-04-16T08:16:40Z</time>
      </trkpt>
      <trkpt lat="46.05739" lon="6.33904">
        <ele>547</ele>
        <time>2011-04-16T08:16:42Z</time>
      </trkpt>
      <trkpt lat="46.05755" lon="6.33903">
        <ele>547</ele>
        <time>2011-04-16T08:16:44Z</time>
      </trkpt>
      <trkpt lat="46.0577" lon="6.33902">
        <ele>541</ele>
        <time>2011-04-16T08:16:46Z</time>
      </trkpt>
      <trkpt lat="46.05782" lon="6.33901">
        <ele>541</ele>
        <time>2011-04-16T08:16:48Z</time>
      </trkpt>
      <trkpt lat="46.05795" lon="6.33901">
        <ele>541</ele>
        <time>2011-04-16T08:16:50Z</time>
      </trkpt>
      <trkpt lat="46.05806" lon="6.33904">
        <ele>536</ele>
        <time>2011-04-16T08:16:52Z</time>
      </trkpt>
      <trkpt lat="46.05814" lon="6.33913">
        <ele>536</ele>
        <time>2011-04-16T08:16:55Z</time>
      </trkpt>
      <trkpt lat="46.0581" lon="6.33926">
        <ele>536</ele>
        <time>2011-04-16T08:16:57Z</time>
      </trkpt>
      <trkpt lat="46.05801" lon="6.33948">
        <ele>531</ele>
        <time>2011-04-16T08:16:59Z</time>
      </trkpt>
      <trkpt lat="46.05795" lon="6.33961">
        <ele>531</ele>
        <time>2011-04-16T08:17:00Z</time>
      </trkpt>
      <trkpt lat="46.05789" lon="6.33974">
        <ele>531</ele>
        <time>2011-04-16T08:17:01Z</time>
      </trkpt>
      <trkpt lat="46.05782" lon="6.33987">
        <ele>531</ele>
        <time>2011-04-16T08:17:02Z</time>
      </trkpt>
      <trkpt lat="46.05775" lon="6.34">
        <ele>531</ele>
        <time>2011-04-16T08:17:03Z</time>
      </trkpt>
      <trkpt lat="46.05768" lon="6.34016">
        <ele>531</ele>
        <time>2011-04-16T08:17:04Z</time>
      </trkpt>
      <trkpt lat="46.05763" lon="6.34033">
        <ele>531</ele>
        <time>2011-04-16T08:17:05Z</time>
      </trkpt>
      <trkpt lat="46.05758" lon="6.34052">
        <ele>531</ele>
        <time>2011-04-16T08:17:06Z</time>
      </trkpt>
      <trkpt lat="46.05753" lon="6.3407">
        <ele>531</ele>
        <time>2011-04-16T08:17:07Z</time>
      </trkpt>
      <trkpt lat="46.05749" lon="6.34086">
        <ele>536</ele>
        <time>2011-04-16T08:17:08Z</time>
      </trkpt>
      <trkpt lat="46.05743" lon="6.34101">
        <ele>536</ele>
        <time>2011-04-16T08:17:09Z</time>
      </trkpt>
      <trkpt lat="46.05736" lon="6.34115">
        <ele>536</ele>
        <time>2011-04-16T08:17:10Z</time>
      </trkpt>
      <trkpt lat="46.05728" lon="6.34128">
        <ele>536</ele>
        <time>2011-04-16T08:17:11Z</time>
      </trkpt>
      <trkpt lat="46.05719" lon="6.34139">
        <ele>536</ele>
        <time>2011-04-16T08:17:12Z</time>
      </trkpt>
      <trkpt lat="46.05711" lon="6.34149">
        <ele>542</ele>
        <time>2011-04-16T08:17:13Z</time>
      </trkpt>
      <trkpt lat="46.05703" lon="6.34159">
        <ele>542</ele>
        <time>2011-04-16T08:17:14Z</time>
      </trkpt>
      <trkpt lat="46.05696" lon="6.34168">
        <ele>542</ele>
        <time>2011-04-16T08:17:15Z</time>
      </trkpt>
      <trkpt lat="46.05684" lon="6.34185">
        <ele>542</ele>
        <time>2011-04-16T08:17:17Z</time>
      </trkpt>
      <trkpt lat="46.05671" lon="6.34199">
        <ele>542</ele>
        <time>2011-04-16T08:17:19Z</time>
      </trkpt>
      <trkpt lat="46.05658" lon="6.34205">
        <ele>549</ele>
        <time>2011-04-16T08:17:21Z</time>
      </trkpt>
      <trkpt lat="46.05641" lon="6.34196">
        <ele>549</ele>
        <time>2011-04-16T08:17:23Z</time>
      </trkpt>
      <trkpt lat="46.05631" lon="6.34186">
        <ele>549</ele>
        <time>2011-04-16T08:17:24Z</time>
      </trkpt>
      <trkpt lat="46.05622" lon="6.34177">
        <ele>549</ele>
        <time>2011-04-16T08:17:25Z</time>
      </trkpt>
      <trkpt lat="46.05611" lon="6.34168">
        <ele>549</ele>
        <time>2011-04-16T08:17:26Z</time>
      </trkpt>
      <trkpt lat="46.05599" lon="6.3416">
        <ele>555</ele>
        <time>2011-04-16T08:17:27Z</time>
      </trkpt>
      <trkpt lat="46.05588" lon="6.34153">
        <ele>555</ele>
        <time>2011-04-16T08:17:28Z</time>
      </trkpt>
      <trkpt lat="46.05576" lon="6.34149">
        <ele>555</ele>
        <time>2011-04-16T08:17:29Z</time>
      </trkpt>
      <trkpt lat="46.05562" lon="6.34145">
        <ele>561</ele>
        <time>2011-04-16T08:17:30Z</time>
      </trkpt>
      <trkpt lat="46.0555" lon="6.34144">
        <ele>561</ele>
        <time>2011-04-16T08:17:31Z</time>
      </trkpt>
      <trkpt lat="46.05538" lon="6.34144">
        <ele>561</ele>
        <time>2011-04-16T08:17:32Z</time>
      </trkpt>
      <trkpt lat="46.05527" lon="6.34142">
        <ele>561</ele>
        <time>2011-04-16T08:17:33Z</time>
      </trkpt>
      <trkpt lat="46.05517" lon="6.34139">
        <ele>566</ele>
        <time>2011-04-16T08:17:34Z</time>
      </trkpt>
      <trkpt lat="46.05507" lon="6.34133">
        <ele>566</ele>
        <time>2011-04-16T08:17:35Z</time>
      </trkpt>
      <trkpt lat="46.05498" lon="6.34128">
        <ele>566</ele>
        <time>2011-04-16T08:17:36Z</time>
      </trkpt>
      <trkpt lat="46.05484" lon="6.34122">
        <ele>573</ele>
        <time>2011-04-16T08:17:38Z</time>
      </trkpt>
      <trkpt lat="46.05475" lon="6.3412">
        <ele>573</ele>
        <time>2011-04-16T08:17:40Z</time>
      </trkpt>
      <trkpt lat="46.05463" lon="6.34123">
        <ele>573</ele>
        <time>2011-04-16T08:17:43Z</time>
      </trkpt>
      <trkpt lat="46.05455" lon="6.34132">
        <ele>580</ele>
        <time>2011-04-16T08:17:45Z</time>
      </trkpt>
      <trkpt lat="46.05448" lon="6.34149">
        <ele>580</ele>
        <time>2011-04-16T08:17:47Z</time>
      </trkpt>
      <trkpt lat="46.05436" lon="6.34161">
        <ele>580</ele>
        <time>2011-04-16T08:17:49Z</time>
      </trkpt>
      <trkpt lat="46.05421" lon="6.34171">
        <ele>580</ele>
        <time>2011-04-16T08:17:51Z</time>
      </trkpt>
      <trkpt lat="46.0541" lon="6.34184">
        <ele>585</ele>
        <time>2011-04-16T08:17:53Z</time>
      </trkpt>
      <trkpt lat="46.05402" lon="6.34206">
        <ele>585</ele>
        <time>2011-04-16T08:17:55Z</time>
      </trkpt>
      <trkpt lat="46.05397" lon="6.34228">
        <ele>591</ele>
        <time>2011-04-16T08:17:57Z</time>
      </trkpt>
      <trkpt lat="46.05387" lon="6.34244">
        <ele>591</ele>
        <time>2011-04-16T08:17:59Z</time>
      </trkpt>
      <trkpt lat="46.05375" lon="6.34256">
        <ele>598</ele>
        <time>2011-04-16T08:18:01Z</time>
      </trkpt>
      <trkpt lat="46.0535" lon="6.34263">
        <ele>605</ele>
        <time>2011-04-16T08:18:05Z</time>
      </trkpt>
      <trkpt lat="46.05334" lon="6.34265">
        <ele>605</ele>
        <time>2011-04-16T08:18:07Z</time>
      </trkpt>
      <trkpt lat="46.05318" lon="6.34276">
        <ele>613</ele>
        <time>2011-04-16T08:18:09Z</time>
      </trkpt>
      <trkpt lat="46.05309" lon="6.34283">
        <ele>613</ele>
        <time>2011-04-16T08:18:10Z</time>
      </trkpt>
      <trkpt lat="46.053" lon="6.3429">
        <ele>613</ele>
        <time>2011-04-16T08:18:11Z</time>
      </trkpt>
      <trkpt lat="46.05286" lon="6.34302">
        <ele>613</ele>
        <time>2011-04-16T08:18:13Z</time>
      </trkpt>
      <trkpt lat="46.05277" lon="6.3431">
        <ele>620</ele>
        <time>2011-04-16T08:18:15Z</time>
      </trkpt>
      <trkpt lat="46.05268" lon="6.34312">
        <ele>620</ele>
        <time>2011-04-16T08:18:17Z</time>
      </trkpt>
      <trkpt lat="46.05252" lon="6.34308">
        <ele>620</ele>
        <time>2011-04-16T08:18:19Z</time>
      </trkpt>
      <trkpt lat="46.05241" lon="6.34298">
        <ele>625</ele>
        <time>2011-04-16T08:18:21Z</time>
      </trkpt>
      <trkpt lat="46.0524" lon="6.34278">
        <ele>625</ele>
        <time>2011-04-16T08:18:23Z</time>
      </trkpt>
      <trkpt lat="46.0524" lon="6.34247">
        <ele>625</ele>
        <time>2011-04-16T08:18:25Z</time>
      </trkpt>
      <trkpt lat="46.0524" lon="6.34227">
        <ele>625</ele>
        <time>2011-04-16T08:18:26Z</time>
      </trkpt>
      <trkpt lat="46.0524" lon="6.3421">
        <ele>625</ele>
        <time>2011-04-16T08:18:27Z</time>
      </trkpt>
      <trkpt lat="46.05239" lon="6.34192">
        <ele>625</ele>
        <time>2011-04-16T08:18:28Z</time>
      </trkpt>
      <trkpt lat="46.05237" lon="6.34177">
        <ele>625</ele>
        <time>2011-04-16T08:18:29Z</time>
      </trkpt>
      <trkpt lat="46.05235" lon="6.34162">
        <ele>625</ele>
        <time>2011-04-16T08:18:30Z</time>
      </trkpt>
      <trkpt lat="46.05231" lon="6.34138">
        <ele>625</ele>
        <time>2011-04-16T08:18:32Z</time>
      </trkpt>
      <trkpt lat="46.05222" lon="6.34119">
        <ele>625</ele>
        <time>2011-04-16T08:18:34Z</time>
      </trkpt>
      <trkpt lat="46.05203" lon="6.34113">
        <ele>625</ele>
        <time>2011-04-16T08:18:36Z</time>
      </trkpt>
      <trkpt lat="46.05191" lon="6.34113">
        <ele>631</ele>
        <time>2011-04-16T08:18:37Z</time>
      </trkpt>
      <trkpt lat="46.05178" lon="6.34113">
        <ele>631</ele>
        <time>2011-04-16T08:18:38Z</time>
      </trkpt>
      <trkpt lat="46.05164" lon="6.34112">
        <ele>631</ele>
        <time>2011-04-16T08:18:39Z</time>
      </trkpt>
      <trkpt lat="46.05149" lon="6.34111">
        <ele>631</ele>
        <time>2011-04-16T08:18:40Z</time>
      </trkpt>
      <trkpt lat="46.05133" lon="6.34108">
        <ele>631</ele>
        <time>2011-04-16T08:18:41Z</time>
      </trkpt>
      <trkpt lat="46.05118" lon="6.34106">
        <ele>631</ele>
        <time>2011-04-16T08:18:42Z</time>
      </trkpt>
      <trkpt lat="46.05102" lon="6.34104">
        <ele>631</ele>
        <time>2011-04-16T08:18:43Z</time>
      </trkpt>
      <trkpt lat="46.05085" lon="6.34101">
        <ele>631</ele>
        <time>2011-04-16T08:18:44Z</time>
      </trkpt>
      <trkpt lat="46.0507" lon="6.34098">
        <ele>636</ele>
        <time>2011-04-16T08:18:45Z</time>
      </trkpt>
      <trkpt lat="46.05055" lon="6.34096">
        <ele>636</ele>
        <time>2011-04-16T08:18:46Z</time>
      </trkpt>
      <trkpt lat="46.05041" lon="6.34093">
        <ele>636</ele>
        <time>2011-04-16T08:18:47Z</time>
      </trkpt>
      <trkpt lat="46.05028" lon="6.34089">
        <ele>636</ele>
        <time>2011-04-16T08:18:48Z</time>
      </trkpt>
      <trkpt lat="46.05014" lon="6.34088">
        <ele>636</ele>
        <time>2011-04-16T08:18:49Z</time>
      </trkpt>
      <trkpt lat="46.05001" lon="6.34086">
        <ele>641</ele>
        <time>2011-04-16T08:18:50Z</time>
      </trkpt>
      <trkpt lat="46.04987" lon="6.34084">
        <ele>641</ele>
        <time>2011-04-16T08:18:51Z</time>
      </trkpt>
      <trkpt lat="46.04975" lon="6.34083">
        <ele>641</ele>
        <time>2011-04-16T08:18:52Z</time>
      </trkpt>
      <trkpt lat="46.04963" lon="6.34082">
        <ele>641</ele>
        <time>2011-04-16T08:18:53Z</time>
      </trkpt>
      <trkpt lat="46.04951" lon="6.34081">
        <ele>641</ele>
        <time>2011-04-16T08:18:54Z</time>
      </trkpt>
      <trkpt lat="46.04941" lon="6.3408">
        <ele>641</ele>
        <time>2011-04-16T08:18:55Z</time>
      </trkpt>
      <trkpt lat="46.0493" lon="6.34079">
        <ele>647</ele>
        <time>2011-04-16T08:18:56Z</time>
      </trkpt>
      <trkpt lat="46.04921" lon="6.34079">
        <ele>647</ele>
        <time>2011-04-16T08:18:57Z</time>
      </trkpt>
      <trkpt lat="46.04908" lon="6.34078">
        <ele>647</ele>
        <time>2011-04-16T08:18:59Z</time>
      </trkpt>
      <trkpt lat="46.04898" lon="6.34073">
        <ele>647</ele>
        <time>2011-04-16T08:19:02Z</time>
      </trkpt>
      <trkpt lat="46.0489" lon="6.34089">
        <ele>647</ele>
        <time>2011-04-16T08:19:22Z</time>
      </trkpt>
      <trkpt lat="46.04887" lon="6.34103">
        <ele>647</ele>
        <time>2011-04-16T08:19:23Z</time>
      </trkpt>
      <trkpt lat="46.04883" lon="6.34117">
        <ele>647</ele>
        <time>2011-04-16T08:19:24Z</time>
      </trkpt>
      <trkpt lat="46.04881" lon="6.34132">
        <ele>652</ele>
        <time>2011-04-16T08:19:25Z</time>
      </trkpt>
      <trkpt lat="46.04878" lon="6.3415">
        <ele>652</ele>
        <time>2011-04-16T08:19:26Z</time>
      </trkpt>
      <trkpt lat="46.04876" lon="6.34168">
        <ele>652</ele>
        <time>2011-04-16T08:19:27Z</time>
      </trkpt>
      <trkpt lat="46.04874" lon="6.34187">
        <ele>652</ele>
        <time>2011-04-16T08:19:28Z</time>
      </trkpt>
      <trkpt lat="46.04873" lon="6.34208">
        <ele>652</ele>
        <time>2011-04-16T08:19:29Z</time>
      </trkpt>
      <trkpt lat="46.04871" lon="6.3423">
        <ele>652</ele>
        <time>2011-04-16T08:19:30Z</time>
      </trkpt>
      <trkpt lat="46.04869" lon="6.34251">
        <ele>652</ele>
        <time>2011-04-16T08:19:31Z</time>
      </trkpt>
      <trkpt lat="46.04866" lon="6.34272">
        <ele>652</ele>
        <time>2011-04-16T08:19:32Z</time>
      </trkpt>
      <trkpt lat="46.04864" lon="6.34291">
        <ele>652</ele>
        <time>2011-04-16T08:19:33Z</time>
      </trkpt>
      <trkpt lat="46.04863" lon="6.34309">
        <ele>652</ele>
        <time>2011-04-16T08:19:34Z</time>
      </trkpt>
      <trkpt lat="46.0486" lon="6.34324">
        <ele>657</ele>
        <time>2011-04-16T08:19:35Z</time>
      </trkpt>
      <trkpt lat="46.04856" lon="6.34337">
        <ele>657</ele>
        <time>2011-04-16T08:19:36Z</time>
      </trkpt>
      <trkpt lat="46.04851" lon="6.3435">
        <ele>657</ele>
        <time>2011-04-16T08:19:37Z</time>
      </trkpt>
      <trkpt lat="46.04843" lon="6.34356">
        <ele>657</ele>
        <time>2011-04-16T08:19:38Z</time>
      </trkpt>
      <trkpt lat="46.04823" lon="6.34361">
        <ele>657</ele>
        <time>2011-04-16T08:19:40Z</time>
      </trkpt>
      <trkpt lat="46.04811" lon="6.3436">
        <ele>657</ele>
        <time>2011-04-16T08:19:41Z</time>
      </trkpt>
      <trkpt lat="46.04799" lon="6.34362">
        <ele>663</ele>
        <time>2011-04-16T08:19:42Z</time>
      </trkpt>
      <trkpt lat="46.04785" lon="6.34362">
        <ele>663</ele>
        <time>2011-04-16T08:19:43Z</time>
      </trkpt>
      <trkpt lat="46.04772" lon="6.34362">
        <ele>663</ele>
        <time>2011-04-16T08:19:44Z</time>
      </trkpt>
      <trkpt lat="46.04759" lon="6.34361">
        <ele>663</ele>
        <time>2011-04-16T08:19:45Z</time>
      </trkpt>
      <trkpt lat="46.04748" lon="6.34357">
        <ele>670</ele>
        <time>2011-04-16T08:19:46Z</time>
      </trkpt>
      <trkpt lat="46.04736" lon="6.34353">
        <ele>670</ele>
        <time>2011-04-16T08:19:47Z</time>
      </trkpt>
      <trkpt lat="46.04724" lon="6.3435">
        <ele>670</ele>
        <time>2011-04-16T08:19:48Z</time>
      </trkpt>
      <trkpt lat="46.04712" lon="6.34348">
        <ele>670</ele>
        <time>2011-04-16T08:19:49Z</time>
      </trkpt>
      <trkpt lat="46.047" lon="6.34346">
        <ele>670</ele>
        <time>2011-04-16T08:19:50Z</time>
      </trkpt>
      <trkpt lat="46.04689" lon="6.34344">
        <ele>676</ele>
        <time>2011-04-16T08:19:51Z</time>
      </trkpt>
      <trkpt lat="46.04678" lon="6.34339">
        <ele>676</ele>
        <time>2011-04-16T08:19:52Z</time>
      </trkpt>
      <trkpt lat="46.04667" lon="6.34336">
        <ele>676</ele>
        <time>2011-04-16T08:19:53Z</time>
      </trkpt>
      <trkpt lat="46.04654" lon="6.34333">
        <ele>676</ele>
        <time>2011-04-16T08:19:54Z</time>
      </trkpt>
      <trkpt lat="46.0464" lon="6.34333">
        <ele>682</ele>
        <time>2011-04-16T08:19:55Z</time>
      </trkpt>
      <trkpt lat="46.04624" lon="6.34334">
        <ele>682</ele>
        <time>2011-04-16T08:19:56Z</time>
      </trkpt>
      <trkpt lat="46.0461" lon="6.34336">
        <ele>682</ele>
        <time>2011-04-16T08:19:57Z</time>
      </trkpt>
      <trkpt lat="46.04597" lon="6.34336">
        <ele>682</ele>
        <time>2011-04-16T08:19:58Z</time>
      </trkpt>
      <trkpt lat="46.04584" lon="6.34336">
        <ele>688</ele>
        <time>2011-04-16T08:19:59Z</time>
      </trkpt>
      <trkpt lat="46.04574" lon="6.34335">
        <ele>688</ele>
        <time>2011-04-16T08:20:00Z</time>
      </trkpt>
      <trkpt lat="46.04563" lon="6.3433">
        <ele>688</ele>
        <time>2011-04-16T08:20:01Z</time>
      </trkpt>
      <trkpt lat="46.04552" lon="6.34324">
        <ele>694</ele>
        <time>2011-04-16T08:20:02Z</time>
      </trkpt>
      <trkpt lat="46.04543" lon="6.34316">
        <ele>694</ele>
        <time>2011-04-16T08:20:03Z</time>
      </trkpt>
      <trkpt lat="46.04534" lon="6.34307">
        <ele>694</ele>
        <time>2011-04-16T08:20:04Z</time>
      </trkpt>
      <trkpt lat="46.04526" lon="6.34299">
        <ele>699</ele>
        <time>2011-04-16T08:20:05Z</time>
      </trkpt>
      <trkpt lat="46.04512" lon="6.34291">
        <ele>699</ele>
        <time>2011-04-16T08:20:07Z</time>
      </trkpt>
      <trkpt lat="46.04497" lon="6.34297">
        <ele>699</ele>
        <time>2011-04-16T08:20:09Z</time>
      </trkpt>
      <trkpt lat="46.04487" lon="6.34301">
        <ele>705</ele>
        <time>2011-04-16T08:20:10Z</time>
      </trkpt>
      <trkpt lat="46.04475" lon="6.34305">
        <ele>705</ele>
        <time>2011-04-16T08:20:11Z</time>
      </trkpt>
      <trkpt lat="46.04463" lon="6.34309">
        <ele>705</ele>
        <time>2011-04-16T08:20:12Z</time>
      </trkpt>
      <trkpt lat="46.0445" lon="6.3431">
        <ele>711</ele>
        <time>2011-04-16T08:20:13Z</time>
      </trkpt>
      <trkpt lat="46.04437" lon="6.3431">
        <ele>711</ele>
        <time>2011-04-16T08:20:14Z</time>
      </trkpt>
      <trkpt lat="46.04422" lon="6.34309">
        <ele>711</ele>
        <time>2011-04-16T08:20:15Z</time>
      </trkpt>
      <trkpt lat="46.04407" lon="6.34309">
        <ele>717</ele>
        <time>2011-04-16T08:20:16Z</time>
      </trkpt>
      <trkpt lat="46.04391" lon="6.34308">
        <ele>717</ele>
        <time>2011-04-16T08:20:17Z</time>
      </trkpt>
      <trkpt lat="46.04375" lon="6.34308">
        <ele>717</ele>
        <time>2011-04-16T08:20:18Z</time>
      </trkpt>
      <trkpt lat="46.04359" lon="6.34308">
        <ele>723</ele>
        <time>2011-04-16T08:20:19Z</time>
      </trkpt>
      <trkpt lat="46.04343" lon="6.34309">
        <ele>723</ele>
        <time>2011-04-16T08:20:20Z</time>
      </trkpt>
      <trkpt lat="46.04326" lon="6.34309">
        <ele>723</ele>
        <time>2011-04-16T08:20:21Z</time>
      </trkpt>
      <trkpt lat="46.0431" lon="6.34309">
        <ele>730</ele>
        <time>2011-04-16T08:20:22Z</time>
      </trkpt>
      <trkpt lat="46.04296" lon="6.34309">
        <ele>730</ele>
        <time>2011-04-16T08:20:23Z</time>
      </trkpt>
      <trkpt lat="46.04283" lon="6.34309">
        <ele>730</ele>
        <time>2011-04-16T08:20:24Z</time>
      </trkpt>
      <trkpt lat="46.04272" lon="6.34309">
        <ele>736</ele>
        <time>2011-04-16T08:20:25Z</time>
      </trkpt>
      <trkpt lat="46.04261" lon="6.34309">
        <ele>736</ele>
        <time>2011-04-16T08:20:26Z</time>
      </trkpt>
      <trkpt lat="46.04252" lon="6.34311">
        <ele>736</ele>
        <time>2011-04-16T08:20:27Z</time>
      </trkpt>
      <trkpt lat="46.04238" lon="6.34327">
        <ele>743</ele>
        <time>2011-04-16T08:20:29Z</time>
      </trkpt>
      <trkpt lat="46.04231" lon="6.34337">
        <ele>743</ele>
        <time>2011-04-16T08:20:30Z</time>
      </trkpt>
      <trkpt lat="46.04218" lon="6.34349">
        <ele>743</ele>
        <time>2011-04-16T08:20:32Z</time>
      </trkpt>
      <trkpt lat="46.042" lon="6.34344">
        <ele>752</ele>
        <time>2011-04-16T08:20:34Z</time>
      </trkpt>
      <trkpt lat="46.04191" lon="6.34338">
        <ele>752</ele>
        <time>2011-04-16T08:20:35Z</time>
      </trkpt>
      <trkpt lat="46.04178" lon="6.3433">
        <ele>752</ele>
        <time>2011-04-16T08:20:36Z</time>
      </trkpt>
      <trkpt lat="46.04166" lon="6.34323">
        <ele>757</ele>
        <time>2011-04-16T08:20:37Z</time>
      </trkpt>
      <trkpt lat="46.04153" lon="6.34317">
        <ele>757</ele>
        <time>2011-04-16T08:20:38Z</time>
      </trkpt>
      <trkpt lat="46.04138" lon="6.34313">
        <ele>762</ele>
        <time>2011-04-16T08:20:39Z</time>
      </trkpt>
      <trkpt lat="46.04121" lon="6.34309">
        <ele>762</ele>
        <time>2011-04-16T08:20:40Z</time>
      </trkpt>
      <trkpt lat="46.04102" lon="6.34306">
        <ele>762</ele>
        <time>2011-04-16T08:20:41Z</time>
      </trkpt>
      <trkpt lat="46.04084" lon="6.34306">
        <ele>762</ele>
        <time>2011-04-16T08:20:42Z</time>
      </trkpt>
      <trkpt lat="46.04066" lon="6.34305">
        <ele>769</ele>
        <time>2011-04-16T08:20:43Z</time>
      </trkpt>
      <trkpt lat="46.04049" lon="6.34302">
        <ele>769</ele>
        <time>2011-04-16T08:20:44Z</time>
      </trkpt>
      <trkpt lat="46.04032" lon="6.34297">
        <ele>774</ele>
        <time>2011-04-16T08:20:45Z</time>
      </trkpt>
      <trkpt lat="46.04016" lon="6.34291">
        <ele>774</ele>
        <time>2011-04-16T08:20:46Z</time>
      </trkpt>
      <trkpt lat="46.04" lon="6.34283">
        <ele>779</ele>
        <time>2011-04-16T08:20:47Z</time>
      </trkpt>
      <trkpt lat="46.03985" lon="6.34275">
        <ele>779</ele>
        <time>2011-04-16T08:20:48Z</time>
      </trkpt>
      <trkpt lat="46.03973" lon="6.34266">
        <ele>786</ele>
        <time>2011-04-16T08:20:49Z</time>
      </trkpt>
      <trkpt lat="46.03962" lon="6.3426">
        <ele>786</ele>
        <time>2011-04-16T08:20:50Z</time>
      </trkpt>
      <trkpt lat="46.03951" lon="6.34255">
        <ele>786</ele>
        <time>2011-04-16T08:20:51Z</time>
      </trkpt>
      <trkpt lat="46.0394" lon="6.34249">
        <ele>791</ele>
        <time>2011-04-16T08:20:52Z</time>
      </trkpt>
      <trkpt lat="46.03929" lon="6.34244">
        <ele>791</ele>
        <time>2011-04-16T08:20:53Z</time>
      </trkpt>
      <trkpt lat="46.0392" lon="6.34239">
        <ele>791</ele>
        <time>2011-04-16T08:20:54Z</time>
      </trkpt>
      <trkpt lat="46.03909" lon="6.34235">
        <ele>799</ele>
        <time>2011-04-16T08:20:55Z</time>
      </trkpt>
      <trkpt lat="46.03899" lon="6.3423">
        <ele>799</ele>
        <time>2011-04-16T08:20:56Z</time>
      </trkpt>
      <trkpt lat="46.03888" lon="6.34223">
        <ele>799</ele>
        <time>2011-04-16T08:20:57Z</time>
      </trkpt>
      <trkpt lat="46.03877" lon="6.34217">
        <ele>804</ele>
        <time>2011-04-16T08:20:58Z</time>
      </trkpt>
      <trkpt lat="46.03868" lon="6.34211">
        <ele>804</ele>
        <time>2011-04-16T08:20:59Z</time>
      </trkpt>
      <trkpt lat="46.03853" lon="6.34198">
        <ele>810</ele>
        <time>2011-04-16T08:21:01Z</time>
      </trkpt>
      <trkpt lat="46.03843" lon="6.34179">
        <ele>810</ele>
        <time>2011-04-16T08:21:03Z</time>
      </trkpt>
      <trkpt lat="46.03834" lon="6.34158">
        <ele>817</ele>
        <time>2011-04-16T08:21:05Z</time>
      </trkpt>
      <trkpt lat="46.03824" lon="6.34136">
        <ele>817</ele>
        <time>2011-04-16T08:21:07Z</time>
      </trkpt>
      <trkpt lat="46.03819" lon="6.34124">
        <ele>817</ele>
        <time>2011-04-16T08:21:08Z</time>
      </trkpt>
      <trkpt lat="46.03812" lon="6.34115">
        <ele>823</ele>
        <time>2011-04-16T08:21:09Z</time>
      </trkpt>
      <trkpt lat="46.03805" lon="6.34105">
        <ele>823</ele>
        <time>2011-04-16T08:21:10Z</time>
      </trkpt>
      <trkpt lat="46.03797" lon="6.34097">
        <ele>823</ele>
        <time>2011-04-16T08:21:11Z</time>
      </trkpt>
      <trkpt lat="46.03784" lon="6.34093">
        <ele>823</ele>
        <time>2011-04-16T08:21:13Z</time>
      </trkpt>
      <trkpt lat="46.03768" lon="6.3409">
        <ele>829</ele>
        <time>2011-04-16T08:21:15Z</time>
      </trkpt>
      <trkpt lat="46.03758" lon="6.34093">
        <ele>829</ele>
        <time>2011-04-16T08:21:17Z</time>
      </trkpt>
      <trkpt lat="46.03749" lon="6.34099">
        <ele>836</ele>
        <time>2011-04-16T08:21:19Z</time>
      </trkpt>
      <trkpt lat="46.03739" lon="6.34097">
        <ele>836</ele>
        <time>2011-04-16T08:21:21Z</time>
      </trkpt>
      <trkpt lat="46.0373" lon="6.34088">
        <ele>836</ele>
        <time>2011-04-16T08:21:23Z</time>
      </trkpt>
      <trkpt lat="46.0372" lon="6.34084">
        <ele>836</ele>
        <time>2011-04-16T08:21:25Z</time>
      </trkpt>
      <trkpt lat="46.0371" lon="6.34086">
        <ele>845</ele>
        <time>2011-04-16T08:21:28Z</time>
      </trkpt>
      <trkpt lat="46.03702" lon="6.34095">
        <ele>845</ele>
        <time>2011-04-16T08:21:31Z</time>
      </trkpt>
      <trkpt lat="46.0369" lon="6.34106">
        <ele>854</ele>
        <time>2011-04-16T08:21:34Z</time>
      </trkpt>
      <trkpt lat="46.03675" lon="6.34122">
        <ele>854</ele>
        <time>2011-04-16T08:21:36Z</time>
      </trkpt>
      <trkpt lat="46.03662" lon="6.34127">
        <ele>854</ele>
        <time>2011-04-16T08:21:38Z</time>
      </trkpt>
      <trkpt lat="46.03649" lon="6.34132">
        <ele>854</ele>
        <time>2011-04-16T08:21:40Z</time>
      </trkpt>
      <trkpt lat="46.03633" lon="6.34123">
        <ele>854</ele>
        <time>2011-04-16T08:21:42Z</time>
      </trkpt>
      <trkpt lat="46.03621" lon="6.34111">
        <ele>854</ele>
        <time>2011-04-16T08:21:44Z</time>
      </trkpt>
      <trkpt lat="46.03609" lon="6.34096">
        <ele>860</ele>
        <time>2011-04-16T08:21:46Z</time>
      </trkpt>
      <trkpt lat="46.03599" lon="6.34085">
        <ele>860</ele>
        <time>2011-04-16T08:21:48Z</time>
      </trkpt>
      <trkpt lat="46.03593" lon="6.34067">
        <ele>868</ele>
        <time>2011-04-16T08:21:51Z</time>
      </trkpt>
      <trkpt lat="46.03586" lon="6.34056">
        <ele>868</ele>
        <time>2011-04-16T08:21:53Z</time>
      </trkpt>
      <trkpt lat="46.03583" lon="6.34042">
        <ele>879</ele>
        <time>2011-04-16T08:22:09Z</time>
      </trkpt>
      <trkpt lat="46.03576" lon="6.34028">
        <ele>879</ele>
        <time>2011-04-16T08:22:15Z</time>
      </trkpt>
      <trkpt lat="46.03571" lon="6.34015">
        <ele>879</ele>
        <time>2011-04-16T08:22:17Z</time>
      </trkpt>
      <trkpt lat="46.03566" lon="6.34">
        <ele>879</ele>
        <time>2011-04-16T08:22:19Z</time>
      </trkpt>
      <trkpt lat="46.03561" lon="6.33985">
        <ele>879</ele>
        <time>2011-04-16T08:22:23Z</time>
      </trkpt>
      <trkpt lat="46.03567" lon="6.33973">
        <ele>879</ele>
        <time>2011-04-16T08:22:29Z</time>
      </trkpt>
      <trkpt lat="46.03578" lon="6.33973">
        <ele>879</ele>
        <time>2011-04-16T08:22:33Z</time>
      </trkpt>
      <trkpt lat="46.0359" lon="6.33966">
        <ele>868</ele>
        <time>2011-04-16T08:22:37Z</time>
      </trkpt>
      <trkpt lat="46.03601" lon="6.33962">
        <ele>868</ele>
        <time>2011-04-16T08:22:39Z</time>
      </trkpt>
      <trkpt lat="46.03626" lon="6.33956">
        <ele>868</ele>
        <time>2011-04-16T08:22:43Z</time>
      </trkpt>
      <trkpt lat="46.0364" lon="6.3396">
        <ele>868</ele>
        <time>2011-04-16T08:22:45Z</time>
      </trkpt>
      <trkpt lat="46.03653" lon="6.33966">
        <ele>868</ele>
        <time>2011-04-16T08:22:47Z</time>
      </trkpt>
      <trkpt lat="46.03665" lon="6.33972">
        <ele>868</ele>
        <time>2011-04-16T08:22:49Z</time>
      </trkpt>
      <trkpt lat="46.03676" lon="6.33971">
        <ele>868</ele>
        <time>2011-04-16T08:22:51Z</time>
      </trkpt>
      <trkpt lat="46.03688" lon="6.3397">
        <ele>874</ele>
        <time>2011-04-16T08:22:53Z</time>
      </trkpt>
      <trkpt lat="46.03701" lon="6.33969">
        <ele>874</ele>
        <time>2011-04-16T08:22:55Z</time>
      </trkpt>
      <trkpt lat="46.03707" lon="6.33952">
        <ele>874</ele>
        <time>2011-04-16T08:22:57Z</time>
      </trkpt>
      <trkpt lat="46.03718" lon="6.33936">
        <ele>879</ele>
        <time>2011-04-16T08:22:59Z</time>
      </trkpt>
      <trkpt lat="46.03729" lon="6.33923">
        <ele>879</ele>
        <time>2011-04-16T08:23:01Z</time>
      </trkpt>
      <trkpt lat="46.03739" lon="6.33909">
        <ele>887</ele>
        <time>2011-04-16T08:23:03Z</time>
      </trkpt>
      <trkpt lat="46.03747" lon="6.33897">
        <ele>895</ele>
        <time>2011-04-16T08:23:05Z</time>
      </trkpt>
      <trkpt lat="46.03752" lon="6.33884">
        <ele>900</ele>
        <time>2011-04-16T08:23:07Z</time>
      </trkpt>
      <trkpt lat="46.03756" lon="6.33869">
        <ele>900</ele>
        <time>2011-04-16T08:23:09Z</time>
      </trkpt>
      <trkpt lat="46.03757" lon="6.33856">
        <ele>908</ele>
        <time>2011-04-16T08:23:11Z</time>
      </trkpt>
      <trkpt lat="46.03757" lon="6.33842">
        <ele>908</ele>
        <time>2011-04-16T08:23:13Z</time>
      </trkpt>
      <trkpt lat="46.03757" lon="6.33826">
        <ele>908</ele>
        <time>2011-04-16T08:23:15Z</time>
      </trkpt>
      <trkpt lat="46.03753" lon="6.33803">
        <ele>913</ele>
        <time>2011-04-16T08:23:17Z</time>
      </trkpt>
      <trkpt lat="46.03747" lon="6.33786">
        <ele>913</ele>
        <time>2011-04-16T08:23:19Z</time>
      </trkpt>
      <trkpt lat="46.03738" lon="6.33778">
        <ele>913</ele>
        <time>2011-04-16T08:23:22Z</time>
      </trkpt>
      <trkpt lat="46.03735" lon="6.33794">
        <ele>919</ele>
        <time>2011-04-16T08:23:25Z</time>
      </trkpt>
      <trkpt lat="46.03731" lon="6.33809">
        <ele>919</ele>
        <time>2011-04-16T08:23:28Z</time>
      </trkpt>
      <trkpt lat="46.03718" lon="6.33814">
        <ele>919</ele>
        <time>2011-04-16T08:23:32Z</time>
      </trkpt>
      <trkpt lat="46.03707" lon="6.3381">
        <ele>919</ele>
        <time>2011-04-16T08:23:34Z</time>
      </trkpt>
      <trkpt lat="46.03697" lon="6.33805">
        <ele>919</ele>
        <time>2011-04-16T08:23:36Z</time>
      </trkpt>
      <trkpt lat="46.03686" lon="6.33793">
        <ele>919</ele>
        <time>2011-04-16T08:23:38Z</time>
      </trkpt>
      <trkpt lat="46.03678" lon="6.33776">
        <ele>919</ele>
        <time>2011-04-16T08:23:40Z</time>
      </trkpt>
      <trkpt lat="46.03673" lon="6.33759">
        <ele>924</ele>
        <time>2011-04-16T08:23:42Z</time>
      </trkpt>
      <trkpt lat="46.03668" lon="6.33744">
        <ele>924</ele>
        <time>2011-04-16T08:23:44Z</time>
      </trkpt>
      <trkpt lat="46.03659" lon="6.33726">
        <ele>933</ele>
        <time>2011-04-16T08:23:46Z</time>
      </trkpt>
      <trkpt lat="46.03648" lon="6.33719">
        <ele>939</ele>
        <time>2011-04-16T08:23:48Z</time>
      </trkpt>
      <trkpt lat="46.03638" lon="6.33716">
        <ele>939</ele>
        <time>2011-04-16T08:23:50Z</time>
      </trkpt>
      <trkpt lat="46.03628" lon="6.33707">
        <ele>946</ele>
        <time>2011-04-16T08:23:52Z</time>
      </trkpt>
      <trkpt lat="46.03618" lon="6.33691">
        <ele>946</ele>
        <time>2011-04-16T08:23:54Z</time>
      </trkpt>
      <trkpt lat="46.03609" lon="6.33676">
        <ele>946</ele>
        <time>2011-04-16T08:23:56Z</time>
      </trkpt>
      <trkpt lat="46.036" lon="6.33664">
        <ele>953</ele>
        <time>2011-04-16T08:23:58Z</time>
      </trkpt>
      <trkpt lat="46.03588" lon="6.33649">
        <ele>953</ele>
        <time>2011-04-16T08:24:00Z</time>
      </trkpt>
      <trkpt lat="46.03575" lon="6.33637">
        <ele>953</ele>
        <time>2011-04-16T08:24:02Z</time>
      </trkpt>
      <trkpt lat="46.03563" lon="6.33625">
        <ele>953</ele>
        <time>2011-04-16T08:24:04Z</time>
      </trkpt>
      <trkpt lat="46.03549" lon="6.33612">
        <ele>953</ele>
        <time>2011-04-16T08:24:06Z</time>
      </trkpt>
      <trkpt lat="46.03536" lon="6.33602">
        <ele>953</ele>
        <time>2011-04-16T08:24:08Z</time>
      </trkpt>
      <trkpt lat="46.03523" lon="6.33593">
        <ele>953</ele>
        <time>2011-04-16T08:24:10Z</time>
      </trkpt>
      <trkpt lat="46.03513" lon="6.33585">
        <ele>958</ele>
        <time>2011-04-16T08:24:12Z</time>
      </trkpt>
      <trkpt lat="46.03504" lon="6.33573">
        <ele>958</ele>
        <time>2011-04-16T08:24:15Z</time>
      </trkpt>
      <trkpt lat="46.03494" lon="6.33566">
        <ele>958</ele>
        <time>2011-04-16T08:24:17Z</time>
      </trkpt>
      <trkpt lat="46.03476" lon="6.33566">
        <ele>964</ele>
        <time>2011-04-16T08:24:19Z</time>
      </trkpt>
      <trkpt lat="46.03466" lon="6.33566">
        <ele>964</ele>
        <time>2011-04-16T08:24:20Z</time>
      </trkpt>
      <trkpt lat="46.03449" lon="6.33572">
        <ele>964</ele>
        <time>2011-04-16T08:24:21Z</time>
      </trkpt>
      <trkpt lat="46.03436" lon="6.33573">
        <ele>964</ele>
        <time>2011-04-16T08:24:22Z</time>
      </trkpt>
      <trkpt lat="46.03425" lon="6.33576">
        <ele>964</ele>
        <time>2011-04-16T08:24:23Z</time>
      </trkpt>
      <trkpt lat="46.03414" lon="6.33577">
        <ele>964</ele>
        <time>2011-04-16T08:24:24Z</time>
      </trkpt>
      <trkpt lat="46.03399" lon="6.33582">
        <ele>964</ele>
        <time>2011-04-16T08:24:26Z</time>
      </trkpt>
      <trkpt lat="46.03389" lon="6.3358">
        <ele>964</ele>
        <time>2011-04-16T08:24:28Z</time>
      </trkpt>
      <trkpt lat="46.03379" lon="6.33576">
        <ele>964</ele>
        <time>2011-04-16T08:24:31Z</time>
      </trkpt>
      <trkpt lat="46.03366" lon="6.33572">
        <ele>964</ele>
        <time>2011-04-16T08:24:34Z</time>
      </trkpt>
      <trkpt lat="46.03354" lon="6.33567">
        <ele>964</ele>
        <time>2011-04-16T08:24:36Z</time>
      </trkpt>
      <trkpt lat="46.03347" lon="6.33557">
        <ele>970</ele>
        <time>2011-04-16T08:24:38Z</time>
      </trkpt>
      <trkpt lat="46.03342" lon="6.33546">
        <ele>970</ele>
        <time>2011-04-16T08:24:40Z</time>
      </trkpt>
      <trkpt lat="46.0333" lon="6.33534">
        <ele>976</ele>
        <time>2011-04-16T08:24:43Z</time>
      </trkpt>
      <trkpt lat="46.0332" lon="6.33527">
        <ele>976</ele>
        <time>2011-04-16T08:24:45Z</time>
      </trkpt>
      <trkpt lat="46.03311" lon="6.3352">
        <ele>981</ele>
        <time>2011-04-16T08:24:47Z</time>
      </trkpt>
      <trkpt lat="46.03302" lon="6.33512">
        <ele>981</ele>
        <time>2011-04-16T08:24:49Z</time>
      </trkpt>
      <trkpt lat="46.03294" lon="6.33497">
        <ele>981</ele>
        <time>2011-04-16T08:24:51Z</time>
      </trkpt>
      <trkpt lat="46.0329" lon="6.33479">
        <ele>988</ele>
        <time>2011-04-16T08:24:53Z</time>
      </trkpt>
      <trkpt lat="46.03287" lon="6.33464">
        <ele>988</ele>
        <time>2011-04-16T08:24:55Z</time>
      </trkpt>
      <trkpt lat="46.03277" lon="6.33452">
        <ele>993</ele>
        <time>2011-04-16T08:24:58Z</time>
      </trkpt>
      <trkpt lat="46.03268" lon="6.33448">
        <ele>993</ele>
        <time>2011-04-16T08:25:00Z</time>
      </trkpt>
      <trkpt lat="46.03255" lon="6.33445">
        <ele>1003</ele>
        <time>2011-04-16T08:25:03Z</time>
      </trkpt>
      <trkpt lat="46.03244" lon="6.33439">
        <ele>1010</ele>
        <time>2011-04-16T08:25:06Z</time>
      </trkpt>
      <trkpt lat="46.03236" lon="6.33429">
        <ele>1010</ele>
        <time>2011-04-16T08:25:08Z</time>
      </trkpt>
      <trkpt lat="46.03231" lon="6.33417">
        <ele>1010</ele>
        <time>2011-04-16T08:25:10Z</time>
      </trkpt>
      <trkpt lat="46.03226" lon="6.33405">
        <ele>1017</ele>
        <time>2011-04-16T08:25:12Z</time>
      </trkpt>
      <trkpt lat="46.03219" lon="6.33396">
        <ele>1017</ele>
        <time>2011-04-16T08:25:14Z</time>
      </trkpt>
      <trkpt lat="46.03208" lon="6.33392">
        <ele>1017</ele>
        <time>2011-04-16T08:25:17Z</time>
      </trkpt>
      <trkpt lat="46.03197" lon="6.3339">
        <ele>1017</ele>
        <time>2011-04-16T08:25:20Z</time>
      </trkpt>
      <trkpt lat="46.03188" lon="6.33382">
        <ele>1017</ele>
        <time>2011-04-16T08:25:34Z</time>
      </trkpt>
      <trkpt lat="46.0319" lon="6.3337">
        <ele>1030</ele>
        <time>2011-04-16T08:25:58Z</time>
      </trkpt>
      <trkpt lat="46.03194" lon="6.33382">
        <ele>1020</ele>
        <time>2011-04-16T08:26:32Z</time>
      </trkpt>
      <trkpt lat="46.03184" lon="6.33381">
        <ele>1020</ele>
        <time>2011-04-16T08:27:32Z</time>
      </trkpt>
      <trkpt lat="46.03173" lon="6.33381">
        <ele>1020</ele>
        <time>2011-04-16T08:27:37Z</time>
      </trkpt>
      <trkpt lat="46.03161" lon="6.33384">
        <ele>1026</ele>
        <time>2011-04-16T08:27:40Z</time>
      </trkpt>
      <trkpt lat="46.0315" lon="6.33385">
        <ele>1026</ele>
        <time>2011-04-16T08:27:47Z</time>
      </trkpt>
      <trkpt lat="46.0314" lon="6.3339">
        <ele>1026</ele>
        <time>2011-04-16T08:27:50Z</time>
      </trkpt>
      <trkpt lat="46.03132" lon="6.33393">
        <ele>1026</ele>
        <time>2011-04-16T08:27:52Z</time>
      </trkpt>
      <trkpt lat="46.03121" lon="6.33398">
        <ele>1034</ele>
        <time>2011-04-16T08:27:54Z</time>
      </trkpt>
      <trkpt lat="46.0311" lon="6.33398">
        <ele>1034</ele>
        <time>2011-04-16T08:27:56Z</time>
      </trkpt>
      <trkpt lat="46.031" lon="6.3339">
        <ele>1040</ele>
        <time>2011-04-16T08:27:58Z</time>
      </trkpt>
      <trkpt lat="46.0309" lon="6.33379">
        <ele>1040</ele>
        <time>2011-04-16T08:28:00Z</time>
      </trkpt>
      <trkpt lat="46.03081" lon="6.33362">
        <ele>1045</ele>
        <time>2011-04-16T08:28:02Z</time>
      </trkpt>
      <trkpt lat="46.03072" lon="6.33343">
        <ele>1045</ele>
        <time>2011-04-16T08:28:04Z</time>
      </trkpt>
      <trkpt lat="46.03062" lon="6.33323">
        <ele>1054</ele>
        <time>2011-04-16T08:28:06Z</time>
      </trkpt>
      <trkpt lat="46.03052" lon="6.33306">
        <ele>1061</ele>
        <time>2011-04-16T08:28:08Z</time>
      </trkpt>
      <trkpt lat="46.0304" lon="6.33292">
        <ele>1070</ele>
        <time>2011-04-16T08:28:10Z</time>
      </trkpt>
      <trkpt lat="46.03028" lon="6.33276">
        <ele>1080</ele>
        <time>2011-04-16T08:28:12Z</time>
      </trkpt>
      <trkpt lat="46.03018" lon="6.3327">
        <ele>1090</ele>
        <time>2011-04-16T08:28:14Z</time>
      </trkpt>
      <trkpt lat="46.03006" lon="6.33271">
        <ele>1102</ele>
        <time>2011-04-16T08:28:17Z</time>
      </trkpt>
      <trkpt lat="46.02996" lon="6.33279">
        <ele>1110</ele>
        <time>2011-04-16T08:28:19Z</time>
      </trkpt>
      <trkpt lat="46.02986" lon="6.3328">
        <ele>1116</ele>
        <time>2011-04-16T08:28:21Z</time>
      </trkpt>
      <trkpt lat="46.02977" lon="6.33284">
        <ele>1116</ele>
        <time>2011-04-16T08:28:35Z</time>
      </trkpt>
      <trkpt lat="46.02968" lon="6.33286">
        <ele>1109</ele>
        <time>2011-04-16T08:28:55Z</time>
      </trkpt>
      <trkpt lat="46.02958" lon="6.33288">
        <ele>1095</ele>
        <time>2011-04-16T08:29:09Z</time>
      </trkpt>
      <trkpt lat="46.02967" lon="6.33293">
        <ele>1087</ele>
        <time>2011-04-16T08:30:05Z</time>
      </trkpt>
      <trkpt lat="46.02966" lon="6.33278">
        <ele>1099</ele>
        <time>2011-04-16T08:32:29Z</time>
      </trkpt>
      <trkpt lat="46.02957" lon="6.33268">
        <ele>1099</ele>
        <time>2011-04-16T08:32:31Z</time>
      </trkpt>
      <trkpt lat="46.02945" lon="6.33258">
        <ele>1099</ele>
        <time>2011-04-16T08:32:33Z</time>
      </trkpt>
      <trkpt lat="46.02931" lon="6.3325">
        <ele>1105</ele>
        <time>2011-04-16T08:32:35Z</time>
      </trkpt>
      <trkpt lat="46.02914" lon="6.33243">
        <ele>1105</ele>
        <time>2011-04-16T08:32:37Z</time>
      </trkpt>
      <trkpt lat="46.02896" lon="6.33237">
        <ele>1111</ele>
        <time>2011-04-16T08:32:39Z</time>
      </trkpt>
      <trkpt lat="46.02887" lon="6.33236">
        <ele>1111</ele>
        <time>2011-04-16T08:32:40Z</time>
      </trkpt>
      <trkpt lat="46.02871" lon="6.3323">
        <ele>1111</ele>
        <time>2011-04-16T08:32:42Z</time>
      </trkpt>
      <trkpt lat="46.02861" lon="6.33225">
        <ele>1111</ele>
        <time>2011-04-16T08:32:43Z</time>
      </trkpt>
      <trkpt lat="46.02851" lon="6.33214">
        <ele>1111</ele>
        <time>2011-04-16T08:32:45Z</time>
      </trkpt>
      <trkpt lat="46.02854" lon="6.33196">
        <ele>1106</ele>
        <time>2011-04-16T08:32:47Z</time>
      </trkpt>
      <trkpt lat="46.02858" lon="6.33183">
        <ele>1106</ele>
        <time>2011-04-16T08:32:48Z</time>
      </trkpt>
      <trkpt lat="46.02869" lon="6.33163">
        <ele>1106</ele>
        <time>2011-04-16T08:32:49Z</time>
      </trkpt>
      <trkpt lat="46.02876" lon="6.33148">
        <ele>1106</ele>
        <time>2011-04-16T08:32:50Z</time>
      </trkpt>
      <trkpt lat="46.02882" lon="6.33134">
        <ele>1106</ele>
        <time>2011-04-16T08:32:51Z</time>
      </trkpt>
      <trkpt lat="46.02886" lon="6.33121">
        <ele>1106</ele>
        <time>2011-04-16T08:32:52Z</time>
      </trkpt>
      <trkpt lat="46.02889" lon="6.33107">
        <ele>1106</ele>
        <time>2011-04-16T08:32:53Z</time>
      </trkpt>
      <trkpt lat="46.02891" lon="6.33094">
        <ele>1106</ele>
        <time>2011-04-16T08:32:54Z</time>
      </trkpt>
      <trkpt lat="46.02891" lon="6.33072">
        <ele>1106</ele>
        <time>2011-04-16T08:32:56Z</time>
      </trkpt>
      <trkpt lat="46.02889" lon="6.33055">
        <ele>1106</ele>
        <time>2011-04-16T08:32:58Z</time>
      </trkpt>
      <trkpt lat="46.02879" lon="6.33075">
        <ele>1106</ele>
        <time>2011-04-16T08:33:05Z</time>
      </trkpt>
      <trkpt lat="46.02872" lon="6.33099">
        <ele>1106</ele>
        <time>2011-04-16T08:33:07Z</time>
      </trkpt>
      <trkpt lat="46.02864" lon="6.33116">
        <ele>1106</ele>
        <time>2011-04-16T08:33:09Z</time>
      </trkpt>
      <trkpt lat="46.02851" lon="6.33142">
        <ele>1112</ele>
        <time>2011-04-16T08:33:12Z</time>
      </trkpt>
      <trkpt lat="46.02841" lon="6.33162">
        <ele>1112</ele>
        <time>2011-04-16T08:33:14Z</time>
      </trkpt>
      <trkpt lat="46.02832" lon="6.33175">
        <ele>1112</ele>
        <time>2011-04-16T08:33:15Z</time>
      </trkpt>
      <trkpt lat="46.02823" lon="6.33187">
        <ele>1112</ele>
        <time>2011-04-16T08:33:16Z</time>
      </trkpt>
      <trkpt lat="46.02816" lon="6.33197">
        <ele>1112</ele>
        <time>2011-04-16T08:33:17Z</time>
      </trkpt>
      <trkpt lat="46.02808" lon="6.33208">
        <ele>1112</ele>
        <time>2011-04-16T08:33:18Z</time>
      </trkpt>
      <trkpt lat="46.02802" lon="6.33219">
        <ele>1112</ele>
        <time>2011-04-16T08:33:19Z</time>
      </trkpt>
      <trkpt lat="46.02796" lon="6.3323">
        <ele>1112</ele>
        <time>2011-04-16T08:33:20Z</time>
      </trkpt>
      <trkpt lat="46.02795" lon="6.3325">
        <ele>1112</ele>
        <time>2011-04-16T08:33:22Z</time>
      </trkpt>
      <trkpt lat="46.02807" lon="6.33267">
        <ele>1112</ele>
        <time>2011-04-16T08:33:24Z</time>
      </trkpt>
      <trkpt lat="46.02812" lon="6.33288">
        <ele>1112</ele>
        <time>2011-04-16T08:33:26Z</time>
      </trkpt>
      <trkpt lat="46.02812" lon="6.33307">
        <ele>1119</ele>
        <time>2011-04-16T08:33:28Z</time>
      </trkpt>
      <trkpt lat="46.02809" lon="6.33323">
        <ele>1119</ele>
        <time>2011-04-16T08:33:30Z</time>
      </trkpt>
      <trkpt lat="46.028" lon="6.3333">
        <ele>1119</ele>
        <time>2011-04-16T08:33:32Z</time>
      </trkpt>
      <trkpt lat="46.02785" lon="6.33325">
        <ele>1119</ele>
        <time>2011-04-16T08:33:34Z</time>
      </trkpt>
      <trkpt lat="46.02769" lon="6.3332">
        <ele>1125</ele>
        <time>2011-04-16T08:33:36Z</time>
      </trkpt>
      <trkpt lat="46.02757" lon="6.33311">
        <ele>1125</ele>
        <time>2011-04-16T08:33:38Z</time>
      </trkpt>
      <trkpt lat="46.02746" lon="6.33308">
        <ele>1125</ele>
        <time>2011-04-16T08:33:40Z</time>
      </trkpt>
      <trkpt lat="46.02733" lon="6.33309">
        <ele>1130</ele>
        <time>2011-04-16T08:33:42Z</time>
      </trkpt>
      <trkpt lat="46.02723" lon="6.33308">
        <ele>1130</ele>
        <time>2011-04-16T08:33:44Z</time>
      </trkpt>
      <trkpt lat="46.02712" lon="6.33304">
        <ele>1130</ele>
        <time>2011-04-16T08:33:46Z</time>
      </trkpt>
      <trkpt lat="46.02702" lon="6.33306">
        <ele>1138</ele>
        <time>2011-04-16T08:33:48Z</time>
      </trkpt>
      <trkpt lat="46.0269" lon="6.3331">
        <ele>1138</ele>
        <time>2011-04-16T08:33:50Z</time>
      </trkpt>
      <trkpt lat="46.02677" lon="6.3331">
        <ele>1146</ele>
        <time>2011-04-16T08:33:52Z</time>
      </trkpt>
      <trkpt lat="46.02668" lon="6.33309">
        <ele>1146</ele>
        <time>2011-04-16T08:33:53Z</time>
      </trkpt>
      <trkpt lat="46.02651" lon="6.33307">
        <ele>1146</ele>
        <time>2011-04-16T08:33:55Z</time>
      </trkpt>
      <trkpt lat="46.02632" lon="6.33304">
        <ele>1153</ele>
        <time>2011-04-16T08:33:57Z</time>
      </trkpt>
      <trkpt lat="46.02614" lon="6.33302">
        <ele>1153</ele>
        <time>2011-04-16T08:33:59Z</time>
      </trkpt>
      <trkpt lat="46.026" lon="6.33302">
        <ele>1153</ele>
        <time>2011-04-16T08:34:01Z</time>
      </trkpt>
      <trkpt lat="46.02591" lon="6.33301">
        <ele>1158</ele>
        <time>2011-04-16T08:34:03Z</time>
      </trkpt>
      <trkpt lat="46.02585" lon="6.33287">
        <ele>1158</ele>
        <time>2011-04-16T08:34:09Z</time>
      </trkpt>
      <trkpt lat="46.02585" lon="6.33272">
        <ele>1167</ele>
        <time>2011-04-16T08:34:12Z</time>
      </trkpt>
      <trkpt lat="46.02578" lon="6.3326">
        <ele>1167</ele>
        <time>2011-04-16T08:34:16Z</time>
      </trkpt>
      <trkpt lat="46.02571" lon="6.3325">
        <ele>1167</ele>
        <time>2011-04-16T08:34:22Z</time>
      </trkpt>
      <trkpt lat="46.02568" lon="6.33233">
        <ele>1175</ele>
        <time>2011-04-16T08:34:25Z</time>
      </trkpt>
      <trkpt lat="46.02561" lon="6.33223">
        <ele>1195</ele>
        <time>2011-04-16T08:34:36Z</time>
      </trkpt>
      <trkpt lat="46.0255" lon="6.33222">
        <ele>1195</ele>
        <time>2011-04-16T08:34:49Z</time>
      </trkpt>
      <trkpt lat="46.0254" lon="6.3322">
        <ele>1188</ele>
        <time>2011-04-16T08:34:51Z</time>
      </trkpt>
      <trkpt lat="46.02531" lon="6.33214">
        <ele>1188</ele>
        <time>2011-04-16T08:34:53Z</time>
      </trkpt>
      <trkpt lat="46.02513" lon="6.332">
        <ele>1188</ele>
        <time>2011-04-16T08:34:56Z</time>
      </trkpt>
      <trkpt lat="46.02502" lon="6.33187">
        <ele>1188</ele>
        <time>2011-04-16T08:34:58Z</time>
      </trkpt>
      <trkpt lat="46.02493" lon="6.33175">
        <ele>1188</ele>
        <time>2011-04-16T08:35:00Z</time>
      </trkpt>
      <trkpt lat="46.02499" lon="6.33154">
        <ele>1194</ele>
        <time>2011-04-16T08:35:02Z</time>
      </trkpt>
      <trkpt lat="46.02493" lon="6.3314">
        <ele>1194</ele>
        <time>2011-04-16T08:35:04Z</time>
      </trkpt>
      <trkpt lat="46.02485" lon="6.33128">
        <ele>1194</ele>
        <time>2011-04-16T08:35:06Z</time>
      </trkpt>
      <trkpt lat="46.02476" lon="6.33118">
        <ele>1194</ele>
        <time>2011-04-16T08:35:08Z</time>
      </trkpt>
      <trkpt lat="46.02477" lon="6.33103">
        <ele>1194</ele>
        <time>2011-04-16T08:35:11Z</time>
      </trkpt>
      <trkpt lat="46.02482" lon="6.33086">
        <ele>1194</ele>
        <time>2011-04-16T08:35:14Z</time>
      </trkpt>
      <trkpt lat="46.02488" lon="6.33072">
        <ele>1194</ele>
        <time>2011-04-16T08:35:16Z</time>
      </trkpt>
      <trkpt lat="46.02497" lon="6.33055">
        <ele>1194</ele>
        <time>2011-04-16T08:35:18Z</time>
      </trkpt>
      <trkpt lat="46.02504" lon="6.33037">
        <ele>1194</ele>
        <time>2011-04-16T08:35:20Z</time>
      </trkpt>
      <trkpt lat="46.02515" lon="6.33019">
        <ele>1194</ele>
        <time>2011-04-16T08:35:22Z</time>
      </trkpt>
      <trkpt lat="46.02519" lon="6.33007">
        <ele>1199</ele>
        <time>2011-04-16T08:35:23Z</time>
      </trkpt>
      <trkpt lat="46.02527" lon="6.32984">
        <ele>1199</ele>
        <time>2011-04-16T08:35:25Z</time>
      </trkpt>
      <trkpt lat="46.02535" lon="6.32963">
        <ele>1199</ele>
        <time>2011-04-16T08:35:27Z</time>
      </trkpt>
      <trkpt lat="46.02539" lon="6.32942">
        <ele>1205</ele>
        <time>2011-04-16T08:35:29Z</time>
      </trkpt>
      <trkpt lat="46.0254" lon="6.32917">
        <ele>1205</ele>
        <time>2011-04-16T08:35:31Z</time>
      </trkpt>
      <trkpt lat="46.02537" lon="6.32895">
        <ele>1205</ele>
        <time>2011-04-16T08:35:33Z</time>
      </trkpt>
      <trkpt lat="46.02533" lon="6.32878">
        <ele>1198</ele>
        <time>2011-04-16T08:35:35Z</time>
      </trkpt>
      <trkpt lat="46.02526" lon="6.32869">
        <ele>1198</ele>
        <time>2011-04-16T08:35:37Z</time>
      </trkpt>
      <trkpt lat="46.02521" lon="6.32854">
        <ele>1198</ele>
        <time>2011-04-16T08:35:40Z</time>
      </trkpt>
      <trkpt lat="46.02515" lon="6.32843">
        <ele>1198</ele>
        <time>2011-04-16T08:35:42Z</time>
      </trkpt>
      <trkpt lat="46.0251" lon="6.32826">
        <ele>1198</ele>
        <time>2011-04-16T08:35:45Z</time>
      </trkpt>
      <trkpt lat="46.02505" lon="6.32812">
        <ele>1198</ele>
        <time>2011-04-16T08:35:49Z</time>
      </trkpt>
      <trkpt lat="46.02501" lon="6.32792">
        <ele>1198</ele>
        <time>2011-04-16T08:35:52Z</time>
      </trkpt>
      <trkpt lat="46.02496" lon="6.32777">
        <ele>1198</ele>
        <time>2011-04-16T08:35:54Z</time>
      </trkpt>
      <trkpt lat="46.02489" lon="6.32759">
        <ele>1198</ele>
        <time>2011-04-16T08:35:56Z</time>
      </trkpt>
      <trkpt lat="46.02485" lon="6.32745">
        <ele>1198</ele>
        <time>2011-04-16T08:35:58Z</time>
      </trkpt>
      <trkpt lat="46.0248" lon="6.32732">
        <ele>1198</ele>
        <time>2011-04-16T08:36:00Z</time>
      </trkpt>
      <trkpt lat="46.02475" lon="6.32719">
        <ele>1191</ele>
        <time>2011-04-16T08:36:04Z</time>
      </trkpt>
      <trkpt lat="46.02466" lon="6.32705">
        <ele>1184</ele>
        <time>2011-04-16T08:36:34Z</time>
      </trkpt>
      <trkpt lat="46.0246" lon="6.32688">
        <ele>1184</ele>
        <time>2011-04-16T08:36:36Z</time>
      </trkpt>
      <trkpt lat="46.02453" lon="6.32667">
        <ele>1184</ele>
        <time>2011-04-16T08:36:38Z</time>
      </trkpt>
      <trkpt lat="46.02448" lon="6.32656">
        <ele>1184</ele>
        <time>2011-04-16T08:36:39Z</time>
      </trkpt>
      <trkpt lat="46.02443" lon="6.32643">
        <ele>1184</ele>
        <time>2011-04-16T08:36:40Z</time>
      </trkpt>
      <trkpt lat="46.02438" lon="6.32631">
        <ele>1184</ele>
        <time>2011-04-16T08:36:41Z</time>
      </trkpt>
      <trkpt lat="46.02434" lon="6.32618">
        <ele>1184</ele>
        <time>2011-04-16T08:36:42Z</time>
      </trkpt>
      <trkpt lat="46.02429" lon="6.32604">
        <ele>1184</ele>
        <time>2011-04-16T08:36:43Z</time>
      </trkpt>
      <trkpt lat="46.02424" lon="6.32593">
        <ele>1184</ele>
        <time>2011-04-16T08:36:44Z</time>
      </trkpt>
      <trkpt lat="46.02419" lon="6.3257">
        <ele>1184</ele>
        <time>2011-04-16T08:36:46Z</time>
      </trkpt>
      <trkpt lat="46.0242" lon="6.32549">
        <ele>1184</ele>
        <time>2011-04-16T08:36:48Z</time>
      </trkpt>
      <trkpt lat="46.02419" lon="6.32527">
        <ele>1184</ele>
        <time>2011-04-16T08:36:50Z</time>
      </trkpt>
      <trkpt lat="46.02414" lon="6.32507">
        <ele>1184</ele>
        <time>2011-04-16T08:36:52Z</time>
      </trkpt>
      <trkpt lat="46.02412" lon="6.32494">
        <ele>1184</ele>
        <time>2011-04-16T08:36:53Z</time>
      </trkpt>
      <trkpt lat="46.0241" lon="6.3248">
        <ele>1184</ele>
        <time>2011-04-16T08:36:54Z</time>
      </trkpt>
      <trkpt lat="46.02406" lon="6.32467">
        <ele>1184</ele>
        <time>2011-04-16T08:36:55Z</time>
      </trkpt>
      <trkpt lat="46.02394" lon="6.32452">
        <ele>1184</ele>
        <time>2011-04-16T08:36:57Z</time>
      </trkpt>
      <trkpt lat="46.02381" lon="6.32441">
        <ele>1184</ele>
        <time>2011-04-16T08:36:59Z</time>
      </trkpt>
      <trkpt lat="46.02369" lon="6.32439">
        <ele>1184</ele>
        <time>2011-04-16T08:37:00Z</time>
      </trkpt>
      <trkpt lat="46.02357" lon="6.32436">
        <ele>1184</ele>
        <time>2011-04-16T08:37:01Z</time>
      </trkpt>
      <trkpt lat="46.02348" lon="6.32431">
        <ele>1184</ele>
        <time>2011-04-16T08:37:02Z</time>
      </trkpt>
      <trkpt lat="46.02338" lon="6.32425">
        <ele>1184</ele>
        <time>2011-04-16T08:37:03Z</time>
      </trkpt>
      <trkpt lat="46.02328" lon="6.32419">
        <ele>1184</ele>
        <time>2011-04-16T08:37:04Z</time>
      </trkpt>
      <trkpt lat="46.02318" lon="6.32412">
        <ele>1184</ele>
        <time>2011-04-16T08:37:05Z</time>
      </trkpt>
      <trkpt lat="46.02308" lon="6.32409">
        <ele>1184</ele>
        <time>2011-04-16T08:37:06Z</time>
      </trkpt>
      <trkpt lat="46.023" lon="6.32402">
        <ele>1184</ele>
        <time>2011-04-16T08:37:07Z</time>
      </trkpt>
      <trkpt lat="46.02291" lon="6.32398">
        <ele>1190</ele>
        <time>2011-04-16T08:37:08Z</time>
      </trkpt>
      <trkpt lat="46.02282" lon="6.32391">
        <ele>1190</ele>
        <time>2011-04-16T08:37:09Z</time>
      </trkpt>
      <trkpt lat="46.02266" lon="6.32379">
        <ele>1190</ele>
        <time>2011-04-16T08:37:11Z</time>
      </trkpt>
      <trkpt lat="46.02254" lon="6.3237">
        <ele>1190</ele>
        <time>2011-04-16T08:37:13Z</time>
      </trkpt>
      <trkpt lat="46.02244" lon="6.32366">
        <ele>1190</ele>
        <time>2011-04-16T08:37:15Z</time>
      </trkpt>
      <trkpt lat="46.02231" lon="6.32358">
        <ele>1190</ele>
        <time>2011-04-16T08:37:18Z</time>
      </trkpt>
      <trkpt lat="46.02222" lon="6.32354">
        <ele>1196</ele>
        <time>2011-04-16T08:37:19Z</time>
      </trkpt>
      <trkpt lat="46.02212" lon="6.32354">
        <ele>1196</ele>
        <time>2011-04-16T08:37:20Z</time>
      </trkpt>
      <trkpt lat="46.02203" lon="6.32351">
        <ele>1196</ele>
        <time>2011-04-16T08:37:21Z</time>
      </trkpt>
      <trkpt lat="46.02189" lon="6.3235">
        <ele>1196</ele>
        <time>2011-04-16T08:37:23Z</time>
      </trkpt>
      <trkpt lat="46.02176" lon="6.32347">
        <ele>1196</ele>
        <time>2011-04-16T08:37:25Z</time>
      </trkpt>
      <trkpt lat="46.02164" lon="6.32345">
        <ele>1189</ele>
        <time>2011-04-16T08:37:27Z</time>
      </trkpt>
      <trkpt lat="46.02152" lon="6.32348">
        <ele>1189</ele>
        <time>2011-04-16T08:37:29Z</time>
      </trkpt>
      <trkpt lat="46.0214" lon="6.32353">
        <ele>1189</ele>
        <time>2011-04-16T08:37:31Z</time>
      </trkpt>
      <trkpt lat="46.0213" lon="6.3236">
        <ele>1189</ele>
        <time>2011-04-16T08:37:34Z</time>
      </trkpt>
      <trkpt lat="46.02125" lon="6.32373">
        <ele>1183</ele>
        <time>2011-04-16T08:37:55Z</time>
      </trkpt>
      <trkpt lat="46.02115" lon="6.32378">
        <ele>1183</ele>
        <time>2011-04-16T08:37:59Z</time>
      </trkpt>
      <trkpt lat="46.02104" lon="6.32382">
        <ele>1183</ele>
        <time>2011-04-16T08:38:01Z</time>
      </trkpt>
      <trkpt lat="46.0209" lon="6.32392">
        <ele>1175</ele>
        <time>2011-04-16T08:38:03Z</time>
      </trkpt>
      <trkpt lat="46.02077" lon="6.32403">
        <ele>1175</ele>
        <time>2011-04-16T08:38:05Z</time>
      </trkpt>
      <trkpt lat="46.02062" lon="6.32413">
        <ele>1175</ele>
        <time>2011-04-16T08:38:07Z</time>
      </trkpt>
      <trkpt lat="46.02052" lon="6.32417">
        <ele>1175</ele>
        <time>2011-04-16T08:38:08Z</time>
      </trkpt>
      <trkpt lat="46.02041" lon="6.32416">
        <ele>1175</ele>
        <time>2011-04-16T08:38:09Z</time>
      </trkpt>
      <trkpt lat="46.0203" lon="6.32415">
        <ele>1175</ele>
        <time>2011-04-16T08:38:10Z</time>
      </trkpt>
      <trkpt lat="46.02018" lon="6.32416">
        <ele>1175</ele>
        <time>2011-04-16T08:38:11Z</time>
      </trkpt>
      <trkpt lat="46.02007" lon="6.32417">
        <ele>1175</ele>
        <time>2011-04-16T08:38:12Z</time>
      </trkpt>
      <trkpt lat="46.01996" lon="6.32418">
        <ele>1175</ele>
        <time>2011-04-16T08:38:13Z</time>
      </trkpt>
      <trkpt lat="46.01985" lon="6.32419">
        <ele>1175</ele>
        <time>2011-04-16T08:38:14Z</time>
      </trkpt>
      <trkpt lat="46.01975" lon="6.32419">
        <ele>1175</ele>
        <time>2011-04-16T08:38:15Z</time>
      </trkpt>
      <trkpt lat="46.01965" lon="6.32422">
        <ele>1175</ele>
        <time>2011-04-16T08:38:16Z</time>
      </trkpt>
      <trkpt lat="46.01955" lon="6.32427">
        <ele>1175</ele>
        <time>2011-04-16T08:38:17Z</time>
      </trkpt>
      <trkpt lat="46.01946" lon="6.32434">
        <ele>1175</ele>
        <time>2011-04-16T08:38:18Z</time>
      </trkpt>
      <trkpt lat="46.01937" lon="6.32439">
        <ele>1175</ele>
        <time>2011-04-16T08:38:19Z</time>
      </trkpt>
      <trkpt lat="46.01907" lon="6.32452">
        <ele>1175</ele>
        <time>2011-04-16T08:38:22Z</time>
      </trkpt>
      <trkpt lat="46.01898" lon="6.32456">
        <ele>1175</ele>
        <time>2011-04-16T08:38:23Z</time>
      </trkpt>
      <trkpt lat="46.01889" lon="6.32459">
        <ele>1175</ele>
        <time>2011-04-16T08:38:24Z</time>
      </trkpt>
      <trkpt lat="46.01876" lon="6.32466">
        <ele>1175</ele>
        <time>2011-04-16T08:38:26Z</time>
      </trkpt>
      <trkpt lat="46.01867" lon="6.32469">
        <ele>1175</ele>
        <time>2011-04-16T08:38:27Z</time>
      </trkpt>
      <trkpt lat="46.0185" lon="6.32474">
        <ele>1175</ele>
        <time>2011-04-16T08:38:29Z</time>
      </trkpt>
      <trkpt lat="46.01839" lon="6.3248">
        <ele>1175</ele>
        <time>2011-04-16T08:38:30Z</time>
      </trkpt>
      <trkpt lat="46.01826" lon="6.32488">
        <ele>1169</ele>
        <time>2011-04-16T08:38:32Z</time>
      </trkpt>
      <trkpt lat="46.01799" lon="6.3251">
        <ele>1169</ele>
        <time>2011-04-16T08:38:36Z</time>
      </trkpt>
      <trkpt lat="46.01785" lon="6.32519">
        <ele>1164</ele>
        <time>2011-04-16T08:38:38Z</time>
      </trkpt>
      <trkpt lat="46.01776" lon="6.32525">
        <ele>1164</ele>
        <time>2011-04-16T08:38:39Z</time>
      </trkpt>
      <trkpt lat="46.01763" lon="6.32533">
        <ele>1155</ele>
        <time>2011-04-16T08:38:41Z</time>
      </trkpt>
      <trkpt lat="46.0175" lon="6.3254">
        <ele>1155</ele>
        <time>2011-04-16T08:38:43Z</time>
      </trkpt>
      <trkpt lat="46.01736" lon="6.32549">
        <ele>1155</ele>
        <time>2011-04-16T08:38:45Z</time>
      </trkpt>
      <trkpt lat="46.01725" lon="6.32563">
        <ele>1155</ele>
        <time>2011-04-16T08:38:47Z</time>
      </trkpt>
      <trkpt lat="46.01714" lon="6.32572">
        <ele>1155</ele>
        <time>2011-04-16T08:38:49Z</time>
      </trkpt>
      <trkpt lat="46.01701" lon="6.32584">
        <ele>1155</ele>
        <time>2011-04-16T08:38:51Z</time>
      </trkpt>
      <trkpt lat="46.01688" lon="6.32598">
        <ele>1150</ele>
        <time>2011-04-16T08:38:53Z</time>
      </trkpt>
      <trkpt lat="46.01679" lon="6.32607">
        <ele>1150</ele>
        <time>2011-04-16T08:38:55Z</time>
      </trkpt>
      <trkpt lat="46.01666" lon="6.32617">
        <ele>1150</ele>
        <time>2011-04-16T08:38:57Z</time>
      </trkpt>
      <trkpt lat="46.01657" lon="6.3263">
        <ele>1150</ele>
        <time>2011-04-16T08:38:59Z</time>
      </trkpt>
      <trkpt lat="46.01645" lon="6.32639">
        <ele>1150</ele>
        <time>2011-04-16T08:39:01Z</time>
      </trkpt>
      <trkpt lat="46.01633" lon="6.32648">
        <ele>1156</ele>
        <time>2011-04-16T08:39:03Z</time>
      </trkpt>
      <trkpt lat="46.0162" lon="6.32657">
        <ele>1156</ele>
        <time>2011-04-16T08:39:05Z</time>
      </trkpt>
      <trkpt lat="46.01609" lon="6.32662">
        <ele>1156</ele>
        <time>2011-04-16T08:39:07Z</time>
      </trkpt>
      <trkpt lat="46.01595" lon="6.32665">
        <ele>1156</ele>
        <time>2011-04-16T08:39:09Z</time>
      </trkpt>
      <trkpt lat="46.01586" lon="6.3267">
        <ele>1162</ele>
        <time>2011-04-16T08:39:11Z</time>
      </trkpt>
      <trkpt lat="46.01578" lon="6.32679">
        <ele>1162</ele>
        <time>2011-04-16T08:39:13Z</time>
      </trkpt>
      <trkpt lat="46.01572" lon="6.32692">
        <ele>1162</ele>
        <time>2011-04-16T08:39:15Z</time>
      </trkpt>
      <trkpt lat="46.01563" lon="6.32695">
        <ele>1162</ele>
        <time>2011-04-16T08:39:18Z</time>
      </trkpt>
      <trkpt lat="46.01558" lon="6.32684">
        <ele>1162</ele>
        <time>2011-04-16T08:39:25Z</time>
      </trkpt>
      <trkpt lat="46.01548" lon="6.32674">
        <ele>1162</ele>
        <time>2011-04-16T08:39:29Z</time>
      </trkpt>
      <trkpt lat="46.01539" lon="6.32668">
        <ele>1168</ele>
        <time>2011-04-16T08:39:32Z</time>
      </trkpt>
      <trkpt lat="46.0153" lon="6.32663">
        <ele>1168</ele>
        <time>2011-04-16T08:39:34Z</time>
      </trkpt>
      <trkpt lat="46.01525" lon="6.32652">
        <ele>1168</ele>
        <time>2011-04-16T08:39:37Z</time>
      </trkpt>
      <trkpt lat="46.01533" lon="6.32642">
        <ele>1168</ele>
        <time>2011-04-16T08:39:39Z</time>
      </trkpt>
      <trkpt lat="46.01542" lon="6.32632">
        <ele>1173</ele>
        <time>2011-04-16T08:39:41Z</time>
      </trkpt>
      <trkpt lat="46.01551" lon="6.32624">
        <ele>1173</ele>
        <time>2011-04-16T08:39:43Z</time>
      </trkpt>
      <trkpt lat="46.01558" lon="6.3261">
        <ele>1173</ele>
        <time>2011-04-16T08:39:46Z</time>
      </trkpt>
      <trkpt lat="46.0156" lon="6.32595">
        <ele>1173</ele>
        <time>2011-04-16T08:39:48Z</time>
      </trkpt>
      <trkpt lat="46.01561" lon="6.32578">
        <ele>1173</ele>
        <time>2011-04-16T08:39:50Z</time>
      </trkpt>
      <trkpt lat="46.01566" lon="6.32559">
        <ele>1179</ele>
        <time>2011-04-16T08:39:52Z</time>
      </trkpt>
      <trkpt lat="46.01567" lon="6.32538">
        <ele>1179</ele>
        <time>2011-04-16T08:39:54Z</time>
      </trkpt>
      <trkpt lat="46.01566" lon="6.32516">
        <ele>1179</ele>
        <time>2011-04-16T08:39:56Z</time>
      </trkpt>
      <trkpt lat="46.0157" lon="6.32499">
        <ele>1179</ele>
        <time>2011-04-16T08:39:58Z</time>
      </trkpt>
      <trkpt lat="46.01573" lon="6.32479">
        <ele>1179</ele>
        <time>2011-04-16T08:40:00Z</time>
      </trkpt>
      <trkpt lat="46.01575" lon="6.32461">
        <ele>1179</ele>
        <time>2011-04-16T08:40:02Z</time>
      </trkpt>
      <trkpt lat="46.0158" lon="6.32443">
        <ele>1179</ele>
        <time>2011-04-16T08:40:04Z</time>
      </trkpt>
      <trkpt lat="46.01588" lon="6.32431">
        <ele>1179</ele>
        <time>2011-04-16T08:40:06Z</time>
      </trkpt>
      <trkpt lat="46.01597" lon="6.32421">
        <ele>1179</ele>
        <time>2011-04-16T08:40:08Z</time>
      </trkpt>
      <trkpt lat="46.01607" lon="6.32412">
        <ele>1179</ele>
        <time>2011-04-16T08:40:10Z</time>
      </trkpt>
      <trkpt lat="46.01618" lon="6.324">
        <ele>1173</ele>
        <time>2011-04-16T08:40:12Z</time>
      </trkpt>
      <trkpt lat="46.01632" lon="6.32387">
        <ele>1173</ele>
        <time>2011-04-16T08:40:14Z</time>
      </trkpt>
      <trkpt lat="46.01647" lon="6.32373">
        <ele>1173</ele>
        <time>2011-04-16T08:40:16Z</time>
      </trkpt>
      <trkpt lat="46.01654" lon="6.32362">
        <ele>1164</ele>
        <time>2011-04-16T08:40:18Z</time>
      </trkpt>
      <trkpt lat="46.01665" lon="6.32352">
        <ele>1164</ele>
        <time>2011-04-16T08:40:20Z</time>
      </trkpt>
      <trkpt lat="46.01674" lon="6.32342">
        <ele>1159</ele>
        <time>2011-04-16T08:40:22Z</time>
      </trkpt>
      <trkpt lat="46.0168" lon="6.32322">
        <ele>1159</ele>
        <time>2011-04-16T08:40:25Z</time>
      </trkpt>
      <trkpt lat="46.01679" lon="6.323">
        <ele>1159</ele>
        <time>2011-04-16T08:40:27Z</time>
      </trkpt>
      <trkpt lat="46.01679" lon="6.32277">
        <ele>1159</ele>
        <time>2011-04-16T08:40:29Z</time>
      </trkpt>
      <trkpt lat="46.01676" lon="6.32259">
        <ele>1159</ele>
        <time>2011-04-16T08:40:31Z</time>
      </trkpt>
      <trkpt lat="46.0167" lon="6.32246">
        <ele>1159</ele>
        <time>2011-04-16T08:40:33Z</time>
      </trkpt>
      <trkpt lat="46.01654" lon="6.32236">
        <ele>1159</ele>
        <time>2011-04-16T08:40:35Z</time>
      </trkpt>
      <trkpt lat="46.01647" lon="6.32222">
        <ele>1159</ele>
        <time>2011-04-16T08:40:37Z</time>
      </trkpt>
      <trkpt lat="46.01649" lon="6.32207">
        <ele>1159</ele>
        <time>2011-04-16T08:40:39Z</time>
      </trkpt>
      <trkpt lat="46.01658" lon="6.32191">
        <ele>1164</ele>
        <time>2011-04-16T08:40:41Z</time>
      </trkpt>
      <trkpt lat="46.01667" lon="6.32179">
        <ele>1164</ele>
        <time>2011-04-16T08:40:43Z</time>
      </trkpt>
      <trkpt lat="46.01674" lon="6.32162">
        <ele>1164</ele>
        <time>2011-04-16T08:40:45Z</time>
      </trkpt>
      <trkpt lat="46.01677" lon="6.32145">
        <ele>1164</ele>
        <time>2011-04-16T08:40:48Z</time>
      </trkpt>
      <trkpt lat="46.01677" lon="6.32129">
        <ele>1164</ele>
        <time>2011-04-16T08:40:51Z</time>
      </trkpt>
      <trkpt lat="46.01674" lon="6.32116">
        <ele>1164</ele>
        <time>2011-04-16T08:40:53Z</time>
      </trkpt>
      <trkpt lat="46.01676" lon="6.321">
        <ele>1164</ele>
        <time>2011-04-16T08:40:56Z</time>
      </trkpt>
      <trkpt lat="46.01685" lon="6.32092">
        <ele>1158</ele>
        <time>2011-04-16T08:40:59Z</time>
      </trkpt>
      <trkpt lat="46.01696" lon="6.3208">
        <ele>1158</ele>
        <time>2011-04-16T08:41:01Z</time>
      </trkpt>
      <trkpt lat="46.01705" lon="6.32069">
        <ele>1158</ele>
        <time>2011-04-16T08:41:04Z</time>
      </trkpt>
      <trkpt lat="46.01709" lon="6.32055">
        <ele>1158</ele>
        <time>2011-04-16T08:41:07Z</time>
      </trkpt>
      <trkpt lat="46.01712" lon="6.32042">
        <ele>1158</ele>
        <time>2011-04-16T08:41:11Z</time>
      </trkpt>
      <trkpt lat="46.01715" lon="6.32029">
        <ele>1151</ele>
        <time>2011-04-16T08:41:20Z</time>
      </trkpt>
      <trkpt lat="46.01722" lon="6.32017">
        <ele>1151</ele>
        <time>2011-04-16T08:41:24Z</time>
      </trkpt>
      <trkpt lat="46.01727" lon="6.32002">
        <ele>1151</ele>
        <time>2011-04-16T08:41:27Z</time>
      </trkpt>
      <trkpt lat="46.01735" lon="6.31993">
        <ele>1151</ele>
        <time>2011-04-16T08:41:30Z</time>
      </trkpt>
      <trkpt lat="46.0174" lon="6.31977">
        <ele>1160</ele>
        <time>2011-04-16T08:41:34Z</time>
      </trkpt>
      <trkpt lat="46.01745" lon="6.31963">
        <ele>1160</ele>
        <time>2011-04-16T08:41:37Z</time>
      </trkpt>
      <trkpt lat="46.01746" lon="6.31948">
        <ele>1160</ele>
        <time>2011-04-16T08:41:40Z</time>
      </trkpt>
      <trkpt lat="46.01749" lon="6.31932">
        <ele>1166</ele>
        <time>2011-04-16T08:41:42Z</time>
      </trkpt>
      <trkpt lat="46.01752" lon="6.31915">
        <ele>1166</ele>
        <time>2011-04-16T08:41:44Z</time>
      </trkpt>
      <trkpt lat="46.01758" lon="6.31897">
        <ele>1166</ele>
        <time>2011-04-16T08:41:46Z</time>
      </trkpt>
      <trkpt lat="46.01763" lon="6.31879">
        <ele>1166</ele>
        <time>2011-04-16T08:41:48Z</time>
      </trkpt>
      <trkpt lat="46.01766" lon="6.3186">
        <ele>1166</ele>
        <time>2011-04-16T08:41:50Z</time>
      </trkpt>
      <trkpt lat="46.0177" lon="6.31841">
        <ele>1166</ele>
        <time>2011-04-16T08:41:52Z</time>
      </trkpt>
      <trkpt lat="46.01771" lon="6.31818">
        <ele>1166</ele>
        <time>2011-04-16T08:41:54Z</time>
      </trkpt>
      <trkpt lat="46.01769" lon="6.31795">
        <ele>1166</ele>
        <time>2011-04-16T08:41:56Z</time>
      </trkpt>
      <trkpt lat="46.01769" lon="6.31774">
        <ele>1166</ele>
        <time>2011-04-16T08:41:58Z</time>
      </trkpt>
      <trkpt lat="46.0177" lon="6.31757">
        <ele>1166</ele>
        <time>2011-04-16T08:42:00Z</time>
      </trkpt>
      <trkpt lat="46.0177" lon="6.31739">
        <ele>1166</ele>
        <time>2011-04-16T08:42:03Z</time>
      </trkpt>
      <trkpt lat="46.01769" lon="6.31726">
        <ele>1166</ele>
        <time>2011-04-16T08:42:08Z</time>
      </trkpt>
      <trkpt lat="46.01766" lon="6.31712">
        <ele>1166</ele>
        <time>2011-04-16T08:42:11Z</time>
      </trkpt>
      <trkpt lat="46.01762" lon="6.31698">
        <ele>1166</ele>
        <time>2011-04-16T08:42:14Z</time>
      </trkpt>
      <trkpt lat="46.01757" lon="6.31683">
        <ele>1166</ele>
        <time>2011-04-16T08:42:17Z</time>
      </trkpt>
      <trkpt lat="46.0175" lon="6.31669">
        <ele>1166</ele>
        <time>2011-04-16T08:42:20Z</time>
      </trkpt>
      <trkpt lat="46.01744" lon="6.31659">
        <ele>1166</ele>
        <time>2011-04-16T08:42:22Z</time>
      </trkpt>
      <trkpt lat="46.01738" lon="6.31647">
        <ele>1166</ele>
        <time>2011-04-16T08:42:24Z</time>
      </trkpt>
      <trkpt lat="46.01732" lon="6.31633">
        <ele>1166</ele>
        <time>2011-04-16T08:42:27Z</time>
      </trkpt>
      <trkpt lat="46.01723" lon="6.31641">
        <ele>1158</ele>
        <time>2011-04-16T08:44:14Z</time>
      </trkpt>
      <trkpt lat="46.01715" lon="6.31652">
        <ele>1158</ele>
        <time>2011-04-16T08:44:17Z</time>
      </trkpt>
      <trkpt lat="46.01704" lon="6.31658">
        <ele>1158</ele>
        <time>2011-04-16T08:44:19Z</time>
      </trkpt>
      <trkpt lat="46.01692" lon="6.31665">
        <ele>1158</ele>
        <time>2011-04-16T08:44:21Z</time>
      </trkpt>
      <trkpt lat="46.0168" lon="6.31674">
        <ele>1158</ele>
        <time>2011-04-16T08:44:23Z</time>
      </trkpt>
      <trkpt lat="46.01667" lon="6.31681">
        <ele>1158</ele>
        <time>2011-04-16T08:44:25Z</time>
      </trkpt>
      <trkpt lat="46.01656" lon="6.31688">
        <ele>1164</ele>
        <time>2011-04-16T08:44:27Z</time>
      </trkpt>
      <trkpt lat="46.01646" lon="6.31693">
        <ele>1164</ele>
        <time>2011-04-16T08:44:29Z</time>
      </trkpt>
      <trkpt lat="46.01634" lon="6.31702">
        <ele>1174</ele>
        <time>2011-04-16T08:44:32Z</time>
      </trkpt>
      <trkpt lat="46.01626" lon="6.31712">
        <ele>1174</ele>
        <time>2011-04-16T08:44:34Z</time>
      </trkpt>
      <trkpt lat="46.01618" lon="6.31725">
        <ele>1181</ele>
        <time>2011-04-16T08:44:36Z</time>
      </trkpt>
      <trkpt lat="46.01608" lon="6.31745">
        <ele>1181</ele>
        <time>2011-04-16T08:44:38Z</time>
      </trkpt>
      <trkpt lat="46.01605" lon="6.31771">
        <ele>1181</ele>
        <time>2011-04-16T08:44:40Z</time>
      </trkpt>
      <trkpt lat="46.01602" lon="6.31794">
        <ele>1181</ele>
        <time>2011-04-16T08:44:42Z</time>
      </trkpt>
      <trkpt lat="46.01598" lon="6.31818">
        <ele>1187</ele>
        <time>2011-04-16T08:44:44Z</time>
      </trkpt>
      <trkpt lat="46.01593" lon="6.3184">
        <ele>1187</ele>
        <time>2011-04-16T08:44:46Z</time>
      </trkpt>
      <trkpt lat="46.01584" lon="6.31858">
        <ele>1187</ele>
        <time>2011-04-16T08:44:48Z</time>
      </trkpt>
      <trkpt lat="46.01574" lon="6.31868">
        <ele>1187</ele>
        <time>2011-04-16T08:44:50Z</time>
      </trkpt>
      <trkpt lat="46.01561" lon="6.31879">
        <ele>1195</ele>
        <time>2011-04-16T08:44:52Z</time>
      </trkpt>
      <trkpt lat="46.01552" lon="6.31893">
        <ele>1195</ele>
        <time>2011-04-16T08:44:54Z</time>
      </trkpt>
      <trkpt lat="46.01545" lon="6.31914">
        <ele>1195</ele>
        <time>2011-04-16T08:44:56Z</time>
      </trkpt>
      <trkpt lat="46.01545" lon="6.3194">
        <ele>1195</ele>
        <time>2011-04-16T08:44:58Z</time>
      </trkpt>
      <trkpt lat="46.01545" lon="6.31961">
        <ele>1202</ele>
        <time>2011-04-16T08:45:00Z</time>
      </trkpt>
      <trkpt lat="46.01544" lon="6.3198">
        <ele>1207</ele>
        <time>2011-04-16T08:45:02Z</time>
      </trkpt>
      <trkpt lat="46.01538" lon="6.31995">
        <ele>1207</ele>
        <time>2011-04-16T08:45:04Z</time>
      </trkpt>
      <trkpt lat="46.0153" lon="6.3201">
        <ele>1221</ele>
        <time>2011-04-16T08:45:23Z</time>
      </trkpt>
      <trkpt lat="46.01516" lon="6.32023">
        <ele>1221</ele>
        <time>2011-04-16T08:45:25Z</time>
      </trkpt>
      <trkpt lat="46.01503" lon="6.32033">
        <ele>1221</ele>
        <time>2011-04-16T08:45:27Z</time>
      </trkpt>
      <trkpt lat="46.01495" lon="6.32044">
        <ele>1221</ele>
        <time>2011-04-16T08:45:30Z</time>
      </trkpt>
      <trkpt lat="46.01493" lon="6.32057">
        <ele>1221</ele>
        <time>2011-04-16T08:45:36Z</time>
      </trkpt>
      <trkpt lat="46.01503" lon="6.32043">
        <ele>1221</ele>
        <time>2011-04-16T08:45:50Z</time>
      </trkpt>
      <trkpt lat="46.01513" lon="6.32035">
        <ele>1221</ele>
        <time>2011-04-16T08:45:52Z</time>
      </trkpt>
      <trkpt lat="46.01521" lon="6.32027">
        <ele>1221</ele>
        <time>2011-04-16T08:45:55Z</time>
      </trkpt>
      <trkpt lat="46.01511" lon="6.32029">
        <ele>1221</ele>
        <time>2011-04-16T08:46:04Z</time>
      </trkpt>
      <trkpt lat="46.01501" lon="6.32022">
        <ele>1221</ele>
        <time>2011-04-16T08:46:17Z</time>
      </trkpt>
      <trkpt lat="46.01487" lon="6.32027">
        <ele>1221</ele>
        <time>2011-04-16T08:46:20Z</time>
      </trkpt>
      <trkpt lat="46.01477" lon="6.32032">
        <ele>1221</ele>
        <time>2011-04-16T08:46:22Z</time>
      </trkpt>
      <trkpt lat="46.01468" lon="6.32039">
        <ele>1221</ele>
        <time>2011-04-16T08:46:24Z</time>
      </trkpt>
      <trkpt lat="46.01455" lon="6.32042">
        <ele>1229</ele>
        <time>2011-04-16T08:46:27Z</time>
      </trkpt>
      <trkpt lat="46.01441" lon="6.32044">
        <ele>1229</ele>
        <time>2011-04-16T08:46:30Z</time>
      </trkpt>
      <trkpt lat="46.01431" lon="6.32047">
        <ele>1238</ele>
        <time>2011-04-16T08:46:32Z</time>
      </trkpt>
      <trkpt lat="46.01417" lon="6.32052">
        <ele>1238</ele>
        <time>2011-04-16T08:46:35Z</time>
      </trkpt>
      <trkpt lat="46.01426" lon="6.32047">
        <ele>1238</ele>
        <time>2011-04-16T08:47:15Z</time>
      </trkpt>
      <trkpt lat="46.01436" lon="6.32043">
        <ele>1238</ele>
        <time>2011-04-16T08:47:18Z</time>
      </trkpt>
      <trkpt lat="46.01449" lon="6.32042">
        <ele>1238</ele>
        <time>2011-04-16T08:47:21Z</time>
      </trkpt>
      <trkpt lat="46.0146" lon="6.32045">
        <ele>1238</ele>
        <time>2011-04-16T08:47:23Z</time>
      </trkpt>
      <trkpt lat="46.01473" lon="6.3204">
        <ele>1238</ele>
        <time>2011-04-16T08:47:26Z</time>
      </trkpt>
      <trkpt lat="46.01483" lon="6.32034">
        <ele>1238</ele>
        <time>2011-04-16T08:47:29Z</time>
      </trkpt>
      <trkpt lat="46.01492" lon="6.32028">
        <ele>1229</ele>
        <time>2011-04-16T08:47:33Z</time>
      </trkpt>
      <trkpt lat="46.01502" lon="6.3203">
        <ele>1229</ele>
        <time>2011-04-16T08:47:36Z</time>
      </trkpt>
      <trkpt lat="46.01511" lon="6.3203">
        <ele>1229</ele>
        <time>2011-04-16T08:47:39Z</time>
      </trkpt>
      <trkpt lat="46.0152" lon="6.32036">
        <ele>1219</ele>
        <time>2011-04-16T08:47:58Z</time>
      </trkpt>
      <trkpt lat="46.01509" lon="6.32041">
        <ele>1227</ele>
        <time>2011-04-16T08:48:17Z</time>
      </trkpt>
      <trkpt lat="46.01497" lon="6.32051">
        <ele>1227</ele>
        <time>2011-04-16T08:48:19Z</time>
      </trkpt>
      <trkpt lat="46.01485" lon="6.32063">
        <ele>1227</ele>
        <time>2011-04-16T08:48:21Z</time>
      </trkpt>
      <trkpt lat="46.01471" lon="6.32074">
        <ele>1221</ele>
        <time>2011-04-16T08:48:23Z</time>
      </trkpt>
      <trkpt lat="46.01456" lon="6.32083">
        <ele>1221</ele>
        <time>2011-04-16T08:48:25Z</time>
      </trkpt>
      <trkpt lat="46.01444" lon="6.32092">
        <ele>1221</ele>
        <time>2011-04-16T08:48:27Z</time>
      </trkpt>
      <trkpt lat="46.01436" lon="6.32103">
        <ele>1221</ele>
        <time>2011-04-16T08:48:29Z</time>
      </trkpt>
      <trkpt lat="46.01426" lon="6.32107">
        <ele>1221</ele>
        <time>2011-04-16T08:48:31Z</time>
      </trkpt>
      <trkpt lat="46.01416" lon="6.32111">
        <ele>1230</ele>
        <time>2011-04-16T08:48:33Z</time>
      </trkpt>
      <trkpt lat="46.01406" lon="6.32112">
        <ele>1230</ele>
        <time>2011-04-16T08:48:35Z</time>
      </trkpt>
      <trkpt lat="46.01397" lon="6.32111">
        <ele>1239</ele>
        <time>2011-04-16T08:48:38Z</time>
      </trkpt>
      <trkpt lat="46.01389" lon="6.32104">
        <ele>1239</ele>
        <time>2011-04-16T08:48:42Z</time>
      </trkpt>
      <trkpt lat="46.01381" lon="6.32097">
        <ele>1239</ele>
        <time>2011-04-16T08:48:45Z</time>
      </trkpt>
      <trkpt lat="46.01378" lon="6.32083">
        <ele>1244</ele>
        <time>2011-04-16T08:48:48Z</time>
      </trkpt>
      <trkpt lat="46.01385" lon="6.32066">
        <ele>1244</ele>
        <time>2011-04-16T08:48:51Z</time>
      </trkpt>
      <trkpt lat="46.01389" lon="6.32055">
        <ele>1254</ele>
        <time>2011-04-16T08:49:06Z</time>
      </trkpt>
      <trkpt lat="46.01381" lon="6.32062">
        <ele>1246</ele>
        <time>2011-04-16T08:49:43Z</time>
      </trkpt>
      <trkpt lat="46.01372" lon="6.32056">
        <ele>1226</ele>
        <time>2011-04-16T08:51:30Z</time>
      </trkpt>
      <trkpt lat="46.01363" lon="6.32055">
        <ele>1212</ele>
        <time>2011-04-16T08:51:38Z</time>
      </trkpt>
      <trkpt lat="46.01372" lon="6.32054">
        <ele>1234</ele>
        <time>2011-04-16T08:52:03Z</time>
      </trkpt>
      <trkpt lat="46.01382" lon="6.32052">
        <ele>1240</ele>
        <time>2011-04-16T08:54:08Z</time>
      </trkpt>
      <trkpt lat="46.01391" lon="6.32049">
        <ele>1240</ele>
        <time>2011-04-16T08:54:25Z</time>
      </trkpt>
      <trkpt lat="46.01382" lon="6.32048">
        <ele>1225</ele>
        <time>2011-04-16T08:55:10Z</time>
      </trkpt>
      <trkpt lat="46.01374" lon="6.32055">
        <ele>1242</ele>
        <time>2011-04-16T08:56:01Z</time>
      </trkpt>
      <trkpt lat="46.01381" lon="6.32047">
        <ele>1242</ele>
        <time>2011-04-16T08:57:33Z</time>
      </trkpt>
      <trkpt lat="46.01371" lon="6.32048">
        <ele>1242</ele>
        <time>2011-04-16T08:58:48Z</time>
      </trkpt>
      <trkpt lat="46.01381" lon="6.32049">
        <ele>1242</ele>
        <time>2011-04-16T09:00:01Z</time>
      </trkpt>
      <trkpt lat="46.0139" lon="6.32047">
        <ele>1242</ele>
        <time>2011-04-16T09:00:36Z</time>
      </trkpt>
      <trkpt lat="46.014" lon="6.32052">
        <ele>1249</ele>
        <time>2011-04-16T09:00:42Z</time>
      </trkpt>
      <trkpt lat="46.01409" lon="6.32058">
        <ele>1289</ele>
        <time>2011-04-16T09:01:09Z</time>
      </trkpt>
      <trkpt lat="46.01399" lon="6.32051">
        <ele>1281</ele>
        <time>2011-04-16T09:01:29Z</time>
      </trkpt>
      <trkpt lat="46.01391" lon="6.32047">
        <ele>1267</ele>
        <time>2011-04-16T09:01:35Z</time>
      </trkpt>
      <trkpt lat="46.01381" lon="6.32047">
        <ele>1249</ele>
        <time>2011-04-16T09:01:51Z</time>
      </trkpt>
      <trkpt lat="46.01372" lon="6.32047">
        <ele>1238</ele>
        <time>2011-04-16T09:02:20Z</time>
      </trkpt>
      <trkpt lat="46.01379" lon="6.32056">
        <ele>1263</ele>
        <time>2011-04-16T09:03:09Z</time>
      </trkpt>
      <trkpt lat="46.01379" lon="6.32042">
        <ele>1240</ele>
        <time>2011-04-16T09:04:04Z</time>
      </trkpt>
      <trkpt lat="46.01381" lon="6.32027">
        <ele>1240</ele>
        <time>2011-04-16T09:04:07Z</time>
      </trkpt>
      <trkpt lat="46.01383" lon="6.32013">
        <ele>1240</ele>
        <time>2011-04-16T09:04:09Z</time>
      </trkpt>
      <trkpt lat="46.01386" lon="6.32">
        <ele>1245</ele>
        <time>2011-04-16T09:04:11Z</time>
      </trkpt>
      <trkpt lat="46.01392" lon="6.31987">
        <ele>1245</ele>
        <time>2011-04-16T09:04:13Z</time>
      </trkpt>
      <trkpt lat="46.01401" lon="6.3197">
        <ele>1245</ele>
        <time>2011-04-16T09:04:15Z</time>
      </trkpt>
      <trkpt lat="46.01406" lon="6.31952">
        <ele>1251</ele>
        <time>2011-04-16T09:04:17Z</time>
      </trkpt>
      <trkpt lat="46.01408" lon="6.31927">
        <ele>1251</ele>
        <time>2011-04-16T09:04:19Z</time>
      </trkpt>
      <trkpt lat="46.01409" lon="6.31914">
        <ele>1251</ele>
        <time>2011-04-16T09:04:20Z</time>
      </trkpt>
      <trkpt lat="46.0141" lon="6.31899">
        <ele>1251</ele>
        <time>2011-04-16T09:04:21Z</time>
      </trkpt>
      <trkpt lat="46.01411" lon="6.31874">
        <ele>1258</ele>
        <time>2011-04-16T09:04:23Z</time>
      </trkpt>
      <trkpt lat="46.0141" lon="6.31852">
        <ele>1258</ele>
        <time>2011-04-16T09:04:25Z</time>
      </trkpt>
      <trkpt lat="46.01409" lon="6.3183">
        <ele>1258</ele>
        <time>2011-04-16T09:04:27Z</time>
      </trkpt>
      <trkpt lat="46.01407" lon="6.31809">
        <ele>1265</ele>
        <time>2011-04-16T09:04:29Z</time>
      </trkpt>
      <trkpt lat="46.01404" lon="6.31786">
        <ele>1265</ele>
        <time>2011-04-16T09:04:31Z</time>
      </trkpt>
      <trkpt lat="46.01401" lon="6.31764">
        <ele>1265</ele>
        <time>2011-04-16T09:04:33Z</time>
      </trkpt>
      <trkpt lat="46.01398" lon="6.31743">
        <ele>1272</ele>
        <time>2011-04-16T09:04:35Z</time>
      </trkpt>
      <trkpt lat="46.01396" lon="6.31726">
        <ele>1272</ele>
        <time>2011-04-16T09:04:37Z</time>
      </trkpt>
      <trkpt lat="46.01399" lon="6.31709">
        <ele>1272</ele>
        <time>2011-04-16T09:04:39Z</time>
      </trkpt>
      <trkpt lat="46.01399" lon="6.3169">
        <ele>1278</ele>
        <time>2011-04-16T09:04:41Z</time>
      </trkpt>
      <trkpt lat="46.01397" lon="6.31674">
        <ele>1278</ele>
        <time>2011-04-16T09:04:43Z</time>
      </trkpt>
      <trkpt lat="46.01396" lon="6.31654">
        <ele>1283</ele>
        <time>2011-04-16T09:04:45Z</time>
      </trkpt>
      <trkpt lat="46.01394" lon="6.31634">
        <ele>1283</ele>
        <time>2011-04-16T09:04:47Z</time>
      </trkpt>
      <trkpt lat="46.01391" lon="6.31617">
        <ele>1283</ele>
        <time>2011-04-16T09:04:49Z</time>
      </trkpt>
      <trkpt lat="46.01389" lon="6.31601">
        <ele>1289</ele>
        <time>2011-04-16T09:04:51Z</time>
      </trkpt>
      <trkpt lat="46.01389" lon="6.31586">
        <ele>1289</ele>
        <time>2011-04-16T09:04:53Z</time>
      </trkpt>
      <trkpt lat="46.01384" lon="6.31571">
        <ele>1289</ele>
        <time>2011-04-16T09:04:55Z</time>
      </trkpt>
      <trkpt lat="46.01376" lon="6.31558">
        <ele>1296</ele>
        <time>2011-04-16T09:04:57Z</time>
      </trkpt>
      <trkpt lat="46.01368" lon="6.31544">
        <ele>1296</ele>
        <time>2011-04-16T09:04:59Z</time>
      </trkpt>
      <trkpt lat="46.01363" lon="6.31529">
        <ele>1296</ele>
        <time>2011-04-16T09:05:02Z</time>
      </trkpt>
      <trkpt lat="46.01364" lon="6.31513">
        <ele>1307</ele>
        <time>2011-04-16T09:05:12Z</time>
      </trkpt>
      <trkpt lat="46.01364" lon="6.31493">
        <ele>1307</ele>
        <time>2011-04-16T09:05:15Z</time>
      </trkpt>
      <trkpt lat="46.01362" lon="6.31477">
        <ele>1307</ele>
        <time>2011-04-16T09:05:18Z</time>
      </trkpt>
      <trkpt lat="46.01359" lon="6.31491">
        <ele>1307</ele>
        <time>2011-04-16T09:06:15Z</time>
      </trkpt>
      <trkpt lat="46.01362" lon="6.31503">
        <ele>1307</ele>
        <time>2011-04-16T09:06:19Z</time>
      </trkpt>
      <trkpt lat="46.01362" lon="6.31517">
        <ele>1307</ele>
        <time>2011-04-16T09:06:22Z</time>
      </trkpt>
      <trkpt lat="46.01364" lon="6.3153">
        <ele>1307</ele>
        <time>2011-04-16T09:06:25Z</time>
      </trkpt>
      <trkpt lat="46.01366" lon="6.31544">
        <ele>1307</ele>
        <time>2011-04-16T09:06:29Z</time>
      </trkpt>
      <trkpt lat="46.01372" lon="6.31559">
        <ele>1307</ele>
        <time>2011-04-16T09:06:33Z</time>
      </trkpt>
      <trkpt lat="46.0138" lon="6.31568">
        <ele>1307</ele>
        <time>2011-04-16T09:06:36Z</time>
      </trkpt>
      <trkpt lat="46.01386" lon="6.31584">
        <ele>1307</ele>
        <time>2011-04-16T09:06:48Z</time>
      </trkpt>
      <trkpt lat="46.01389" lon="6.31597">
        <ele>1301</ele>
        <time>2011-04-16T09:06:52Z</time>
      </trkpt>
      <trkpt lat="46.01392" lon="6.31612">
        <ele>1301</ele>
        <time>2011-04-16T09:06:56Z</time>
      </trkpt>
      <trkpt lat="46.01392" lon="6.31628">
        <ele>1296</ele>
        <time>2011-04-16T09:07:00Z</time>
      </trkpt>
      <trkpt lat="46.01393" lon="6.31641">
        <ele>1296</ele>
        <time>2011-04-16T09:07:03Z</time>
      </trkpt>
      <trkpt lat="46.01395" lon="6.31657">
        <ele>1296</ele>
        <time>2011-04-16T09:07:09Z</time>
      </trkpt>
      <trkpt lat="46.01398" lon="6.31669">
        <ele>1291</ele>
        <time>2011-04-16T09:07:23Z</time>
      </trkpt>
      <trkpt lat="46.01399" lon="6.31684">
        <ele>1291</ele>
        <time>2011-04-16T09:07:36Z</time>
      </trkpt>
      <trkpt lat="46.014" lon="6.31665">
        <ele>1291</ele>
        <time>2011-04-16T09:07:49Z</time>
      </trkpt>
      <trkpt lat="46.01398" lon="6.3165">
        <ele>1291</ele>
        <time>2011-04-16T09:07:51Z</time>
      </trkpt>
      <trkpt lat="46.01396" lon="6.31635">
        <ele>1291</ele>
        <time>2011-04-16T09:07:53Z</time>
      </trkpt>
      <trkpt lat="46.01394" lon="6.31618">
        <ele>1291</ele>
        <time>2011-04-16T09:07:55Z</time>
      </trkpt>
      <trkpt lat="46.01391" lon="6.31603">
        <ele>1291</ele>
        <time>2011-04-16T09:07:57Z</time>
      </trkpt>
      <trkpt lat="46.01387" lon="6.31587">
        <ele>1291</ele>
        <time>2011-04-16T09:07:59Z</time>
      </trkpt>
      <trkpt lat="46.01382" lon="6.31572">
        <ele>1291</ele>
        <time>2011-04-16T09:08:01Z</time>
      </trkpt>
      <trkpt lat="46.01374" lon="6.31557">
        <ele>1291</ele>
        <time>2011-04-16T09:08:03Z</time>
      </trkpt>
      <trkpt lat="46.01367" lon="6.31544">
        <ele>1291</ele>
        <time>2011-04-16T09:08:05Z</time>
      </trkpt>
      <trkpt lat="46.0136" lon="6.31532">
        <ele>1291</ele>
        <time>2011-04-16T09:08:08Z</time>
      </trkpt>
      <trkpt lat="46.01354" lon="6.31544">
        <ele>1299</ele>
        <time>2011-04-16T09:08:12Z</time>
      </trkpt>
      <trkpt lat="46.01352" lon="6.31564">
        <ele>1299</ele>
        <time>2011-04-16T09:08:15Z</time>
      </trkpt>
      <trkpt lat="46.01349" lon="6.31578">
        <ele>1307</ele>
        <time>2011-04-16T09:08:17Z</time>
      </trkpt>
      <trkpt lat="46.01345" lon="6.3159">
        <ele>1307</ele>
        <time>2011-04-16T09:08:19Z</time>
      </trkpt>
      <trkpt lat="46.01336" lon="6.31605">
        <ele>1307</ele>
        <time>2011-04-16T09:08:22Z</time>
      </trkpt>
      <trkpt lat="46.0133" lon="6.31615">
        <ele>1314</ele>
        <time>2011-04-16T09:08:24Z</time>
      </trkpt>
      <trkpt lat="46.01321" lon="6.3163">
        <ele>1314</ele>
        <time>2011-04-16T09:08:27Z</time>
      </trkpt>
      <trkpt lat="46.01314" lon="6.31644">
        <ele>1322</ele>
        <time>2011-04-16T09:08:30Z</time>
      </trkpt>
      <trkpt lat="46.01305" lon="6.31658">
        <ele>1322</ele>
        <time>2011-04-16T09:08:33Z</time>
      </trkpt>
      <trkpt lat="46.01301" lon="6.31674">
        <ele>1330</ele>
        <time>2011-04-16T09:08:36Z</time>
      </trkpt>
      <trkpt lat="46.01299" lon="6.31689">
        <ele>1336</ele>
        <time>2011-04-16T09:09:03Z</time>
      </trkpt>
      <trkpt lat="46.01295" lon="6.31703">
        <ele>1336</ele>
        <time>2011-04-16T09:09:06Z</time>
      </trkpt>
      <trkpt lat="46.01293" lon="6.31717">
        <ele>1336</ele>
        <time>2011-04-16T09:09:09Z</time>
      </trkpt>
      <trkpt lat="46.01288" lon="6.31731">
        <ele>1342</ele>
        <time>2011-04-16T09:09:12Z</time>
      </trkpt>
      <trkpt lat="46.01283" lon="6.31744">
        <ele>1342</ele>
        <time>2011-04-16T09:09:16Z</time>
      </trkpt>
      <trkpt lat="46.01275" lon="6.31728">
        <ele>1349</ele>
        <time>2011-04-16T09:09:37Z</time>
      </trkpt>
      <trkpt lat="46.01272" lon="6.31715">
        <ele>1349</ele>
        <time>2011-04-16T09:09:39Z</time>
      </trkpt>
      <trkpt lat="46.01267" lon="6.31703">
        <ele>1349</ele>
        <time>2011-04-16T09:09:41Z</time>
      </trkpt>
      <trkpt lat="46.01264" lon="6.3169">
        <ele>1349</ele>
        <time>2011-04-16T09:09:43Z</time>
      </trkpt>
      <trkpt lat="46.01262" lon="6.31676">
        <ele>1349</ele>
        <time>2011-04-16T09:09:45Z</time>
      </trkpt>
      <trkpt lat="46.01259" lon="6.31659">
        <ele>1355</ele>
        <time>2011-04-16T09:09:47Z</time>
      </trkpt>
      <trkpt lat="46.01257" lon="6.31643">
        <ele>1355</ele>
        <time>2011-04-16T09:09:49Z</time>
      </trkpt>
      <trkpt lat="46.01254" lon="6.31628">
        <ele>1355</ele>
        <time>2011-04-16T09:09:51Z</time>
      </trkpt>
      <trkpt lat="46.0125" lon="6.31613">
        <ele>1363</ele>
        <time>2011-04-16T09:09:53Z</time>
      </trkpt>
      <trkpt lat="46.01247" lon="6.31599">
        <ele>1363</ele>
        <time>2011-04-16T09:09:55Z</time>
      </trkpt>
      <trkpt lat="46.01244" lon="6.31584">
        <ele>1370</ele>
        <time>2011-04-16T09:09:59Z</time>
      </trkpt>
      <trkpt lat="46.0124" lon="6.3157">
        <ele>1370</ele>
        <time>2011-04-16T09:10:04Z</time>
      </trkpt>
      <trkpt lat="46.01237" lon="6.31556">
        <ele>1377</ele>
        <time>2011-04-16T09:10:07Z</time>
      </trkpt>
      <trkpt lat="46.01236" lon="6.31543">
        <ele>1377</ele>
        <time>2011-04-16T09:10:09Z</time>
      </trkpt>
      <trkpt lat="46.01235" lon="6.31524">
        <ele>1377</ele>
        <time>2011-04-16T09:10:12Z</time>
      </trkpt>
      <trkpt lat="46.01232" lon="6.31505">
        <ele>1383</ele>
        <time>2011-04-16T09:10:15Z</time>
      </trkpt>
      <trkpt lat="46.0123" lon="6.31491">
        <ele>1383</ele>
        <time>2011-04-16T09:10:18Z</time>
      </trkpt>
      <trkpt lat="46.01222" lon="6.31496">
        <ele>1383</ele>
        <time>2011-04-16T09:12:55Z</time>
      </trkpt>
      <trkpt lat="46.01224" lon="6.31509">
        <ele>1397</ele>
        <time>2011-04-16T09:13:20Z</time>
      </trkpt>
      <trkpt lat="46.01216" lon="6.31521">
        <ele>1397</ele>
        <time>2011-04-16T09:13:24Z</time>
      </trkpt>
      <trkpt lat="46.01206" lon="6.31518">
        <ele>1391</ele>
        <time>2011-04-16T09:13:55Z</time>
      </trkpt>
      <trkpt lat="46.01207" lon="6.31505">
        <ele>1391</ele>
        <time>2011-04-16T09:14:38Z</time>
      </trkpt>
      <trkpt lat="46.01204" lon="6.31492">
        <ele>1396</ele>
        <time>2011-04-16T09:14:43Z</time>
      </trkpt>
      <trkpt lat="46.01202" lon="6.31479">
        <ele>1407</ele>
        <time>2011-04-16T09:15:21Z</time>
      </trkpt>
      <trkpt lat="46.01205" lon="6.31491">
        <ele>1396</ele>
        <time>2011-04-16T09:16:40Z</time>
      </trkpt>
      <trkpt lat="46.01205" lon="6.31478">
        <ele>1415</ele>
        <time>2011-04-16T09:30:00Z</time>
      </trkpt>
      <trkpt lat="46.01203" lon="6.3146">
        <ele>1415</ele>
        <time>2011-04-16T09:30:03Z</time>
      </trkpt>
      <trkpt lat="46.01205" lon="6.31442">
        <ele>1415</ele>
        <time>2011-04-16T09:30:05Z</time>
      </trkpt>
      <trkpt lat="46.01207" lon="6.31423">
        <ele>1415</ele>
        <time>2011-04-16T09:30:07Z</time>
      </trkpt>
      <trkpt lat="46.01207" lon="6.31406">
        <ele>1408</ele>
        <time>2011-04-16T09:30:09Z</time>
      </trkpt>
      <trkpt lat="46.01207" lon="6.31392">
        <ele>1408</ele>
        <time>2011-04-16T09:30:11Z</time>
      </trkpt>
      <trkpt lat="46.01207" lon="6.31376">
        <ele>1400</ele>
        <time>2011-04-16T09:30:13Z</time>
      </trkpt>
      <trkpt lat="46.01207" lon="6.31355">
        <ele>1400</ele>
        <time>2011-04-16T09:30:15Z</time>
      </trkpt>
      <trkpt lat="46.01209" lon="6.31333">
        <ele>1400</ele>
        <time>2011-04-16T09:30:17Z</time>
      </trkpt>
      <trkpt lat="46.01208" lon="6.3131">
        <ele>1393</ele>
        <time>2011-04-16T09:30:19Z</time>
      </trkpt>
      <trkpt lat="46.01205" lon="6.31297">
        <ele>1393</ele>
        <time>2011-04-16T09:30:20Z</time>
      </trkpt>
      <trkpt lat="46.01202" lon="6.31285">
        <ele>1393</ele>
        <time>2011-04-16T09:30:21Z</time>
      </trkpt>
      <trkpt lat="46.012" lon="6.31271">
        <ele>1393</ele>
        <time>2011-04-16T09:30:22Z</time>
      </trkpt>
      <trkpt lat="46.01197" lon="6.31258">
        <ele>1393</ele>
        <time>2011-04-16T09:30:23Z</time>
      </trkpt>
      <trkpt lat="46.01196" lon="6.31244">
        <ele>1387</ele>
        <time>2011-04-16T09:30:24Z</time>
      </trkpt>
      <trkpt lat="46.01195" lon="6.3123">
        <ele>1387</ele>
        <time>2011-04-16T09:30:25Z</time>
      </trkpt>
      <trkpt lat="46.01194" lon="6.31217">
        <ele>1387</ele>
        <time>2011-04-16T09:30:26Z</time>
      </trkpt>
      <trkpt lat="46.01193" lon="6.31203">
        <ele>1387</ele>
        <time>2011-04-16T09:30:27Z</time>
      </trkpt>
      <trkpt lat="46.01192" lon="6.3119">
        <ele>1387</ele>
        <time>2011-04-16T09:30:28Z</time>
      </trkpt>
      <trkpt lat="46.01188" lon="6.31176">
        <ele>1381</ele>
        <time>2011-04-16T09:30:29Z</time>
      </trkpt>
      <trkpt lat="46.01187" lon="6.31163">
        <ele>1381</ele>
        <time>2011-04-16T09:30:30Z</time>
      </trkpt>
      <trkpt lat="46.0118" lon="6.3114">
        <ele>1381</ele>
        <time>2011-04-16T09:30:32Z</time>
      </trkpt>
      <trkpt lat="46.0117" lon="6.31121">
        <ele>1374</ele>
        <time>2011-04-16T09:30:34Z</time>
      </trkpt>
      <trkpt lat="46.01158" lon="6.31102">
        <ele>1374</ele>
        <time>2011-04-16T09:30:36Z</time>
      </trkpt>
      <trkpt lat="46.01148" lon="6.31081">
        <ele>1374</ele>
        <time>2011-04-16T09:30:38Z</time>
      </trkpt>
      <trkpt lat="46.01144" lon="6.31068">
        <ele>1374</ele>
        <time>2011-04-16T09:30:39Z</time>
      </trkpt>
      <trkpt lat="46.0114" lon="6.31057">
        <ele>1368</ele>
        <time>2011-04-16T09:30:40Z</time>
      </trkpt>
      <trkpt lat="46.01134" lon="6.31045">
        <ele>1368</ele>
        <time>2011-04-16T09:30:41Z</time>
      </trkpt>
      <trkpt lat="46.01128" lon="6.31034">
        <ele>1368</ele>
        <time>2011-04-16T09:30:42Z</time>
      </trkpt>
      <trkpt lat="46.01119" lon="6.31012">
        <ele>1368</ele>
        <time>2011-04-16T09:30:44Z</time>
      </trkpt>
      <trkpt lat="46.01117" lon="6.30987">
        <ele>1363</ele>
        <time>2011-04-16T09:30:46Z</time>
      </trkpt>
      <trkpt lat="46.01113" lon="6.30965">
        <ele>1363</ele>
        <time>2011-04-16T09:30:48Z</time>
      </trkpt>
      <trkpt lat="46.01105" lon="6.30943">
        <ele>1363</ele>
        <time>2011-04-16T09:30:50Z</time>
      </trkpt>
      <trkpt lat="46.011" lon="6.3093">
        <ele>1363</ele>
        <time>2011-04-16T09:30:51Z</time>
      </trkpt>
      <trkpt lat="46.01096" lon="6.30917">
        <ele>1363</ele>
        <time>2011-04-16T09:30:52Z</time>
      </trkpt>
      <trkpt lat="46.01093" lon="6.30905">
        <ele>1363</ele>
        <time>2011-04-16T09:30:53Z</time>
      </trkpt>
      <trkpt lat="46.0109" lon="6.30892">
        <ele>1363</ele>
        <time>2011-04-16T09:30:54Z</time>
      </trkpt>
      <trkpt lat="46.01087" lon="6.3088">
        <ele>1357</ele>
        <time>2011-04-16T09:30:55Z</time>
      </trkpt>
      <trkpt lat="46.01079" lon="6.30857">
        <ele>1357</ele>
        <time>2011-04-16T09:30:57Z</time>
      </trkpt>
      <trkpt lat="46.01073" lon="6.30846">
        <ele>1357</ele>
        <time>2011-04-16T09:30:58Z</time>
      </trkpt>
      <trkpt lat="46.01062" lon="6.30828">
        <ele>1357</ele>
        <time>2011-04-16T09:31:00Z</time>
      </trkpt>
      <trkpt lat="46.01054" lon="6.30813">
        <ele>1352</ele>
        <time>2011-04-16T09:31:02Z</time>
      </trkpt>
      <trkpt lat="46.01051" lon="6.30801">
        <ele>1352</ele>
        <time>2011-04-16T09:31:05Z</time>
      </trkpt>
      <trkpt lat="46.0106" lon="6.30806">
        <ele>1373</ele>
        <time>2011-04-16T09:31:50Z</time>
      </trkpt>
      <trkpt lat="46.01052" lon="6.30814">
        <ele>1353</ele>
        <time>2011-04-16T09:32:48Z</time>
      </trkpt>
      <trkpt lat="46.01043" lon="6.30816">
        <ele>1366</ele>
        <time>2011-04-16T09:33:17Z</time>
      </trkpt>
      <trkpt lat="46.01048" lon="6.30805">
        <ele>1344</ele>
        <time>2011-04-16T09:34:58Z</time>
      </trkpt>
      <trkpt lat="46.01058" lon="6.30808">
        <ele>1354</ele>
        <time>2011-04-16T09:35:27Z</time>
      </trkpt>
      <trkpt lat="46.01049" lon="6.308">
        <ele>1354</ele>
        <time>2011-04-16T09:35:43Z</time>
      </trkpt>
      <trkpt lat="46.01039" lon="6.30789">
        <ele>1354</ele>
        <time>2011-04-16T09:35:48Z</time>
      </trkpt>
      <trkpt lat="46.01034" lon="6.30775">
        <ele>1354</ele>
        <time>2011-04-16T09:35:50Z</time>
      </trkpt>
      <trkpt lat="46.01027" lon="6.30755">
        <ele>1354</ele>
        <time>2011-04-16T09:35:52Z</time>
      </trkpt>
      <trkpt lat="46.01021" lon="6.30731">
        <ele>1354</ele>
        <time>2011-04-16T09:35:54Z</time>
      </trkpt>
      <trkpt lat="46.01019" lon="6.30718">
        <ele>1354</ele>
        <time>2011-04-16T09:35:55Z</time>
      </trkpt>
      <trkpt lat="46.01016" lon="6.30705">
        <ele>1354</ele>
        <time>2011-04-16T09:35:56Z</time>
      </trkpt>
      <trkpt lat="46.01014" lon="6.3069">
        <ele>1354</ele>
        <time>2011-04-16T09:35:57Z</time>
      </trkpt>
      <trkpt lat="46.01009" lon="6.30677">
        <ele>1354</ele>
        <time>2011-04-16T09:35:58Z</time>
      </trkpt>
      <trkpt lat="46.01005" lon="6.30662">
        <ele>1349</ele>
        <time>2011-04-16T09:35:59Z</time>
      </trkpt>
      <trkpt lat="46.00999" lon="6.30648">
        <ele>1349</ele>
        <time>2011-04-16T09:36:00Z</time>
      </trkpt>
      <trkpt lat="46.00993" lon="6.30633">
        <ele>1349</ele>
        <time>2011-04-16T09:36:01Z</time>
      </trkpt>
      <trkpt lat="46.00988" lon="6.30618">
        <ele>1349</ele>
        <time>2011-04-16T09:36:02Z</time>
      </trkpt>
      <trkpt lat="46.00981" lon="6.30605">
        <ele>1349</ele>
        <time>2011-04-16T09:36:03Z</time>
      </trkpt>
      <trkpt lat="46.00976" lon="6.30592">
        <ele>1349</ele>
        <time>2011-04-16T09:36:04Z</time>
      </trkpt>
      <trkpt lat="46.00972" lon="6.30578">
        <ele>1349</ele>
        <time>2011-04-16T09:36:05Z</time>
      </trkpt>
      <trkpt lat="46.00969" lon="6.30563">
        <ele>1349</ele>
        <time>2011-04-16T09:36:06Z</time>
      </trkpt>
      <trkpt lat="46.00966" lon="6.30546">
        <ele>1349</ele>
        <time>2011-04-16T09:36:07Z</time>
      </trkpt>
      <trkpt lat="46.00962" lon="6.30531">
        <ele>1349</ele>
        <time>2011-04-16T09:36:08Z</time>
      </trkpt>
      <trkpt lat="46.00958" lon="6.30515">
        <ele>1343</ele>
        <time>2011-04-16T09:36:09Z</time>
      </trkpt>
      <trkpt lat="46.00954" lon="6.30499">
        <ele>1343</ele>
        <time>2011-04-16T09:36:10Z</time>
      </trkpt>
      <trkpt lat="46.00951" lon="6.30484">
        <ele>1343</ele>
        <time>2011-04-16T09:36:11Z</time>
      </trkpt>
      <trkpt lat="46.00947" lon="6.3047">
        <ele>1343</ele>
        <time>2011-04-16T09:36:12Z</time>
      </trkpt>
      <trkpt lat="46.00942" lon="6.30456">
        <ele>1343</ele>
        <time>2011-04-16T09:36:13Z</time>
      </trkpt>
      <trkpt lat="46.00937" lon="6.30442">
        <ele>1343</ele>
        <time>2011-04-16T09:36:14Z</time>
      </trkpt>
      <trkpt lat="46.00931" lon="6.30431">
        <ele>1343</ele>
        <time>2011-04-16T09:36:15Z</time>
      </trkpt>
      <trkpt lat="46.00924" lon="6.30421">
        <ele>1343</ele>
        <time>2011-04-16T09:36:16Z</time>
      </trkpt>
      <trkpt lat="46.00917" lon="6.30412">
        <ele>1343</ele>
        <time>2011-04-16T09:36:17Z</time>
      </trkpt>
      <trkpt lat="46.00901" lon="6.30397">
        <ele>1337</ele>
        <time>2011-04-16T09:36:19Z</time>
      </trkpt>
      <trkpt lat="46.00892" lon="6.30393">
        <ele>1337</ele>
        <time>2011-04-16T09:36:20Z</time>
      </trkpt>
      <trkpt lat="46.00882" lon="6.3039">
        <ele>1337</ele>
        <time>2011-04-16T09:36:21Z</time>
      </trkpt>
      <trkpt lat="46.00871" lon="6.3039">
        <ele>1337</ele>
        <time>2011-04-16T09:36:22Z</time>
      </trkpt>
      <trkpt lat="46.0086" lon="6.30389">
        <ele>1337</ele>
        <time>2011-04-16T09:36:23Z</time>
      </trkpt>
      <trkpt lat="46.0085" lon="6.30388">
        <ele>1337</ele>
        <time>2011-04-16T09:36:24Z</time>
      </trkpt>
      <trkpt lat="46.0084" lon="6.30389">
        <ele>1337</ele>
        <time>2011-04-16T09:36:25Z</time>
      </trkpt>
      <trkpt lat="46.0083" lon="6.3039">
        <ele>1337</ele>
        <time>2011-04-16T09:36:26Z</time>
      </trkpt>
      <trkpt lat="46.0082" lon="6.30392">
        <ele>1337</ele>
        <time>2011-04-16T09:36:27Z</time>
      </trkpt>
      <trkpt lat="46.00811" lon="6.30395">
        <ele>1337</ele>
        <time>2011-04-16T09:36:28Z</time>
      </trkpt>
      <trkpt lat="46.00802" lon="6.30395">
        <ele>1337</ele>
        <time>2011-04-16T09:36:29Z</time>
      </trkpt>
      <trkpt lat="46.00785" lon="6.30391">
        <ele>1337</ele>
        <time>2011-04-16T09:36:31Z</time>
      </trkpt>
      <trkpt lat="46.00775" lon="6.30379">
        <ele>1331</ele>
        <time>2011-04-16T09:36:33Z</time>
      </trkpt>
      <trkpt lat="46.00768" lon="6.30359">
        <ele>1331</ele>
        <time>2011-04-16T09:36:35Z</time>
      </trkpt>
      <trkpt lat="46.00757" lon="6.30338">
        <ele>1331</ele>
        <time>2011-04-16T09:36:37Z</time>
      </trkpt>
      <trkpt lat="46.0075" lon="6.30328">
        <ele>1331</ele>
        <time>2011-04-16T09:36:38Z</time>
      </trkpt>
      <trkpt lat="46.00743" lon="6.30318">
        <ele>1331</ele>
        <time>2011-04-16T09:36:39Z</time>
      </trkpt>
      <trkpt lat="46.00734" lon="6.30309">
        <ele>1331</ele>
        <time>2011-04-16T09:36:40Z</time>
      </trkpt>
      <trkpt lat="46.00725" lon="6.303">
        <ele>1331</ele>
        <time>2011-04-16T09:36:41Z</time>
      </trkpt>
      <trkpt lat="46.00716" lon="6.30294">
        <ele>1331</ele>
        <time>2011-04-16T09:36:42Z</time>
      </trkpt>
      <trkpt lat="46.00708" lon="6.30289">
        <ele>1331</ele>
        <time>2011-04-16T09:36:43Z</time>
      </trkpt>
      <trkpt lat="46.00691" lon="6.30286">
        <ele>1331</ele>
        <time>2011-04-16T09:36:45Z</time>
      </trkpt>
      <trkpt lat="46.0068" lon="6.30279">
        <ele>1331</ele>
        <time>2011-04-16T09:36:47Z</time>
      </trkpt>
      <trkpt lat="46.00675" lon="6.30261">
        <ele>1331</ele>
        <time>2011-04-16T09:36:49Z</time>
      </trkpt>
      <trkpt lat="46.00676" lon="6.30236">
        <ele>1331</ele>
        <time>2011-04-16T09:36:51Z</time>
      </trkpt>
      <trkpt lat="46.00676" lon="6.30215">
        <ele>1331</ele>
        <time>2011-04-16T09:36:53Z</time>
      </trkpt>
      <trkpt lat="46.0067" lon="6.30192">
        <ele>1331</ele>
        <time>2011-04-16T09:36:55Z</time>
      </trkpt>
      <trkpt lat="46.00665" lon="6.30178">
        <ele>1326</ele>
        <time>2011-04-16T09:36:56Z</time>
      </trkpt>
      <trkpt lat="46.00659" lon="6.30164">
        <ele>1326</ele>
        <time>2011-04-16T09:36:57Z</time>
      </trkpt>
      <trkpt lat="46.00653" lon="6.30148">
        <ele>1326</ele>
        <time>2011-04-16T09:36:58Z</time>
      </trkpt>
      <trkpt lat="46.00648" lon="6.30134">
        <ele>1326</ele>
        <time>2011-04-16T09:36:59Z</time>
      </trkpt>
      <trkpt lat="46.00642" lon="6.30121">
        <ele>1326</ele>
        <time>2011-04-16T09:37:00Z</time>
      </trkpt>
      <trkpt lat="46.00636" lon="6.30108">
        <ele>1326</ele>
        <time>2011-04-16T09:37:01Z</time>
      </trkpt>
      <trkpt lat="46.00625" lon="6.30086">
        <ele>1320</ele>
        <time>2011-04-16T09:37:03Z</time>
      </trkpt>
      <trkpt lat="46.00622" lon="6.30073">
        <ele>1320</ele>
        <time>2011-04-16T09:37:04Z</time>
      </trkpt>
      <trkpt lat="46.0062" lon="6.30051">
        <ele>1313</ele>
        <time>2011-04-16T09:37:06Z</time>
      </trkpt>
      <trkpt lat="46.00615" lon="6.30026">
        <ele>1313</ele>
        <time>2011-04-16T09:37:08Z</time>
      </trkpt>
      <trkpt lat="46.00608" lon="6.30003">
        <ele>1313</ele>
        <time>2011-04-16T09:37:10Z</time>
      </trkpt>
      <trkpt lat="46.00601" lon="6.29993">
        <ele>1313</ele>
        <time>2011-04-16T09:37:11Z</time>
      </trkpt>
      <trkpt lat="46.0059" lon="6.29974">
        <ele>1306</ele>
        <time>2011-04-16T09:37:13Z</time>
      </trkpt>
      <trkpt lat="46.00581" lon="6.29951">
        <ele>1306</ele>
        <time>2011-04-16T09:37:15Z</time>
      </trkpt>
      <trkpt lat="46.00578" lon="6.29938">
        <ele>1306</ele>
        <time>2011-04-16T09:37:16Z</time>
      </trkpt>
      <trkpt lat="46.00574" lon="6.29925">
        <ele>1306</ele>
        <time>2011-04-16T09:37:17Z</time>
      </trkpt>
      <trkpt lat="46.00564" lon="6.29905">
        <ele>1306</ele>
        <time>2011-04-16T09:37:19Z</time>
      </trkpt>
      <trkpt lat="46.00557" lon="6.29895">
        <ele>1300</ele>
        <time>2011-04-16T09:37:20Z</time>
      </trkpt>
      <trkpt lat="46.0055" lon="6.29885">
        <ele>1300</ele>
        <time>2011-04-16T09:37:21Z</time>
      </trkpt>
      <trkpt lat="46.00544" lon="6.29874">
        <ele>1300</ele>
        <time>2011-04-16T09:37:22Z</time>
      </trkpt>
      <trkpt lat="46.00537" lon="6.29864">
        <ele>1300</ele>
        <time>2011-04-16T09:37:23Z</time>
      </trkpt>
      <trkpt lat="46.0053" lon="6.29852">
        <ele>1300</ele>
        <time>2011-04-16T09:37:24Z</time>
      </trkpt>
      <trkpt lat="46.00524" lon="6.29841">
        <ele>1300</ele>
        <time>2011-04-16T09:37:25Z</time>
      </trkpt>
      <trkpt lat="46.00511" lon="6.29821">
        <ele>1295</ele>
        <time>2011-04-16T09:37:27Z</time>
      </trkpt>
      <trkpt lat="46.00502" lon="6.29812">
        <ele>1295</ele>
        <time>2011-04-16T09:37:28Z</time>
      </trkpt>
      <trkpt lat="46.00494" lon="6.29803">
        <ele>1295</ele>
        <time>2011-04-16T09:37:29Z</time>
      </trkpt>
      <trkpt lat="46.00485" lon="6.29794">
        <ele>1295</ele>
        <time>2011-04-16T09:37:30Z</time>
      </trkpt>
      <trkpt lat="46.00477" lon="6.29784">
        <ele>1295</ele>
        <time>2011-04-16T09:37:31Z</time>
      </trkpt>
      <trkpt lat="46.00469" lon="6.29773">
        <ele>1295</ele>
        <time>2011-04-16T09:37:32Z</time>
      </trkpt>
      <trkpt lat="46.00463" lon="6.29762">
        <ele>1295</ele>
        <time>2011-04-16T09:37:33Z</time>
      </trkpt>
      <trkpt lat="46.00456" lon="6.29752">
        <ele>1295</ele>
        <time>2011-04-16T09:37:34Z</time>
      </trkpt>
      <trkpt lat="46.00444" lon="6.29737">
        <ele>1290</ele>
        <time>2011-04-16T09:37:36Z</time>
      </trkpt>
      <trkpt lat="46.00433" lon="6.29724">
        <ele>1290</ele>
        <time>2011-04-16T09:37:38Z</time>
      </trkpt>
      <trkpt lat="46.00425" lon="6.29711">
        <ele>1290</ele>
        <time>2011-04-16T09:37:40Z</time>
      </trkpt>
      <trkpt lat="46.00434" lon="6.29707">
        <ele>1290</ele>
        <time>2011-04-16T09:37:47Z</time>
      </trkpt>
      <trkpt lat="46.00432" lon="6.29689">
        <ele>1290</ele>
        <time>2011-04-16T09:37:53Z</time>
      </trkpt>
      <trkpt lat="46.0042" lon="6.29671">
        <ele>1290</ele>
        <time>2011-04-16T09:37:55Z</time>
      </trkpt>
      <trkpt lat="46.00413" lon="6.2966">
        <ele>1290</ele>
        <time>2011-04-16T09:37:56Z</time>
      </trkpt>
      <trkpt lat="46.00406" lon="6.2965">
        <ele>1284</ele>
        <time>2011-04-16T09:37:57Z</time>
      </trkpt>
      <trkpt lat="46.00399" lon="6.29641">
        <ele>1284</ele>
        <time>2011-04-16T09:37:58Z</time>
      </trkpt>
      <trkpt lat="46.00392" lon="6.29632">
        <ele>1284</ele>
        <time>2011-04-16T09:37:59Z</time>
      </trkpt>
      <trkpt lat="46.00384" lon="6.29623">
        <ele>1284</ele>
        <time>2011-04-16T09:38:00Z</time>
      </trkpt>
      <trkpt lat="46.00377" lon="6.29613">
        <ele>1284</ele>
        <time>2011-04-16T09:38:01Z</time>
      </trkpt>
      <trkpt lat="46.00371" lon="6.29601">
        <ele>1278</ele>
        <time>2011-04-16T09:38:02Z</time>
      </trkpt>
      <trkpt lat="46.00365" lon="6.29591">
        <ele>1278</ele>
        <time>2011-04-16T09:38:03Z</time>
      </trkpt>
      <trkpt lat="46.00352" lon="6.29569">
        <ele>1278</ele>
        <time>2011-04-16T09:38:05Z</time>
      </trkpt>
      <trkpt lat="46.00345" lon="6.29557">
        <ele>1278</ele>
        <time>2011-04-16T09:38:06Z</time>
      </trkpt>
      <trkpt lat="46.00337" lon="6.29547">
        <ele>1278</ele>
        <time>2011-04-16T09:38:07Z</time>
      </trkpt>
      <trkpt lat="46.0033" lon="6.29532">
        <ele>1278</ele>
        <time>2011-04-16T09:38:08Z</time>
      </trkpt>
      <trkpt lat="46.00326" lon="6.29519">
        <ele>1278</ele>
        <time>2011-04-16T09:38:09Z</time>
      </trkpt>
      <trkpt lat="46.0032" lon="6.29507">
        <ele>1278</ele>
        <time>2011-04-16T09:38:10Z</time>
      </trkpt>
      <trkpt lat="46.00315" lon="6.29496">
        <ele>1278</ele>
        <time>2011-04-16T09:38:11Z</time>
      </trkpt>
      <trkpt lat="46.0031" lon="6.29485">
        <ele>1278</ele>
        <time>2011-04-16T09:38:12Z</time>
      </trkpt>
      <trkpt lat="46.00303" lon="6.29459">
        <ele>1278</ele>
        <time>2011-04-16T09:38:14Z</time>
      </trkpt>
      <trkpt lat="46.00301" lon="6.29443">
        <ele>1278</ele>
        <time>2011-04-16T09:38:15Z</time>
      </trkpt>
      <trkpt lat="46.00297" lon="6.29426">
        <ele>1278</ele>
        <time>2011-04-16T09:38:16Z</time>
      </trkpt>
      <trkpt lat="46.00295" lon="6.29411">
        <ele>1273</ele>
        <time>2011-04-16T09:38:17Z</time>
      </trkpt>
      <trkpt lat="46.00293" lon="6.29387">
        <ele>1267</ele>
        <time>2011-04-16T09:38:19Z</time>
      </trkpt>
      <trkpt lat="46.00291" lon="6.29367">
        <ele>1267</ele>
        <time>2011-04-16T09:38:21Z</time>
      </trkpt>
      <trkpt lat="46.00288" lon="6.29348">
        <ele>1267</ele>
        <time>2011-04-16T09:38:23Z</time>
      </trkpt>
      <trkpt lat="46.0028" lon="6.2933">
        <ele>1261</ele>
        <time>2011-04-16T09:38:25Z</time>
      </trkpt>
      <trkpt lat="46.00271" lon="6.29309">
        <ele>1261</ele>
        <time>2011-04-16T09:38:27Z</time>
      </trkpt>
      <trkpt lat="46.00269" lon="6.29296">
        <ele>1261</ele>
        <time>2011-04-16T09:38:28Z</time>
      </trkpt>
      <trkpt lat="46.00269" lon="6.29282">
        <ele>1261</ele>
        <time>2011-04-16T09:38:29Z</time>
      </trkpt>
      <trkpt lat="46.00268" lon="6.29267">
        <ele>1261</ele>
        <time>2011-04-16T09:38:30Z</time>
      </trkpt>
      <trkpt lat="46.0027" lon="6.29242">
        <ele>1256</ele>
        <time>2011-04-16T09:38:32Z</time>
      </trkpt>
      <trkpt lat="46.00275" lon="6.2922">
        <ele>1256</ele>
        <time>2011-04-16T09:38:34Z</time>
      </trkpt>
      <trkpt lat="46.00278" lon="6.29198">
        <ele>1250</ele>
        <time>2011-04-16T09:38:36Z</time>
      </trkpt>
      <trkpt lat="46.00278" lon="6.29179">
        <ele>1250</ele>
        <time>2011-04-16T09:38:38Z</time>
      </trkpt>
      <trkpt lat="46.00275" lon="6.29165">
        <ele>1250</ele>
        <time>2011-04-16T09:38:40Z</time>
      </trkpt>
      <trkpt lat="46.00275" lon="6.29151">
        <ele>1250</ele>
        <time>2011-04-16T09:38:43Z</time>
      </trkpt>
      <trkpt lat="46.00284" lon="6.29158">
        <ele>1244</ele>
        <time>2011-04-16T09:38:46Z</time>
      </trkpt>
      <trkpt lat="46.00291" lon="6.29173">
        <ele>1244</ele>
        <time>2011-04-16T09:38:48Z</time>
      </trkpt>
      <trkpt lat="46.00294" lon="6.29193">
        <ele>1239</ele>
        <time>2011-04-16T09:38:50Z</time>
      </trkpt>
      <trkpt lat="46.00293" lon="6.29216">
        <ele>1239</ele>
        <time>2011-04-16T09:38:52Z</time>
      </trkpt>
      <trkpt lat="46.00291" lon="6.29239">
        <ele>1239</ele>
        <time>2011-04-16T09:38:54Z</time>
      </trkpt>
      <trkpt lat="46.00294" lon="6.29264">
        <ele>1239</ele>
        <time>2011-04-16T09:38:56Z</time>
      </trkpt>
      <trkpt lat="46.00298" lon="6.29287">
        <ele>1239</ele>
        <time>2011-04-16T09:38:58Z</time>
      </trkpt>
      <trkpt lat="46.00304" lon="6.29308">
        <ele>1233</ele>
        <time>2011-04-16T09:39:00Z</time>
      </trkpt>
      <trkpt lat="46.00316" lon="6.29322">
        <ele>1233</ele>
        <time>2011-04-16T09:39:02Z</time>
      </trkpt>
      <trkpt lat="46.00331" lon="6.29338">
        <ele>1233</ele>
        <time>2011-04-16T09:39:04Z</time>
      </trkpt>
      <trkpt lat="46.00337" lon="6.29349">
        <ele>1233</ele>
        <time>2011-04-16T09:39:05Z</time>
      </trkpt>
      <trkpt lat="46.00343" lon="6.2936">
        <ele>1233</ele>
        <time>2011-04-16T09:39:06Z</time>
      </trkpt>
      <trkpt lat="46.00348" lon="6.29371">
        <ele>1227</ele>
        <time>2011-04-16T09:39:07Z</time>
      </trkpt>
      <trkpt lat="46.00351" lon="6.29384">
        <ele>1227</ele>
        <time>2011-04-16T09:39:08Z</time>
      </trkpt>
      <trkpt lat="46.00355" lon="6.29398">
        <ele>1227</ele>
        <time>2011-04-16T09:39:09Z</time>
      </trkpt>
      <trkpt lat="46.00361" lon="6.29422">
        <ele>1227</ele>
        <time>2011-04-16T09:39:11Z</time>
      </trkpt>
      <trkpt lat="46.00365" lon="6.29441">
        <ele>1222</ele>
        <time>2011-04-16T09:39:13Z</time>
      </trkpt>
      <trkpt lat="46.00372" lon="6.29457">
        <ele>1222</ele>
        <time>2011-04-16T09:39:15Z</time>
      </trkpt>
      <trkpt lat="46.00383" lon="6.29472">
        <ele>1222</ele>
        <time>2011-04-16T09:39:17Z</time>
      </trkpt>
      <trkpt lat="46.00397" lon="6.29488">
        <ele>1222</ele>
        <time>2011-04-16T09:39:19Z</time>
      </trkpt>
      <trkpt lat="46.00404" lon="6.29496">
        <ele>1222</ele>
        <time>2011-04-16T09:39:20Z</time>
      </trkpt>
      <trkpt lat="46.0042" lon="6.29505">
        <ele>1222</ele>
        <time>2011-04-16T09:39:22Z</time>
      </trkpt>
      <trkpt lat="46.00436" lon="6.29512">
        <ele>1222</ele>
        <time>2011-04-16T09:39:24Z</time>
      </trkpt>
      <trkpt lat="46.00446" lon="6.29523">
        <ele>1222</ele>
        <time>2011-04-16T09:39:26Z</time>
      </trkpt>
      <trkpt lat="46.00457" lon="6.29533">
        <ele>1222</ele>
        <time>2011-04-16T09:39:28Z</time>
      </trkpt>
      <trkpt lat="46.00468" lon="6.29533">
        <ele>1222</ele>
        <time>2011-04-16T09:39:30Z</time>
      </trkpt>
      <trkpt lat="46.00484" lon="6.29522">
        <ele>1222</ele>
        <time>2011-04-16T09:39:32Z</time>
      </trkpt>
      <trkpt lat="46.00492" lon="6.29514">
        <ele>1216</ele>
        <time>2011-04-16T09:39:33Z</time>
      </trkpt>
      <trkpt lat="46.00505" lon="6.29503">
        <ele>1216</ele>
        <time>2011-04-16T09:39:35Z</time>
      </trkpt>
      <trkpt lat="46.0052" lon="6.29503">
        <ele>1216</ele>
        <time>2011-04-16T09:39:37Z</time>
      </trkpt>
      <trkpt lat="46.00535" lon="6.29512">
        <ele>1210</ele>
        <time>2011-04-16T09:39:39Z</time>
      </trkpt>
      <trkpt lat="46.00541" lon="6.29526">
        <ele>1210</ele>
        <time>2011-04-16T09:39:41Z</time>
      </trkpt>
      <trkpt lat="46.00545" lon="6.29547">
        <ele>1203</ele>
        <time>2011-04-16T09:39:43Z</time>
      </trkpt>
      <trkpt lat="46.0055" lon="6.29559">
        <ele>1203</ele>
        <time>2011-04-16T09:39:45Z</time>
      </trkpt>
      <trkpt lat="46.00559" lon="6.29563">
        <ele>1203</ele>
        <time>2011-04-16T09:39:47Z</time>
      </trkpt>
      <trkpt lat="46.00573" lon="6.2956">
        <ele>1203</ele>
        <time>2011-04-16T09:39:49Z</time>
      </trkpt>
      <trkpt lat="46.00583" lon="6.29564">
        <ele>1203</ele>
        <time>2011-04-16T09:39:51Z</time>
      </trkpt>
      <trkpt lat="46.00588" lon="6.29577">
        <ele>1203</ele>
        <time>2011-04-16T09:39:53Z</time>
      </trkpt>
      <trkpt lat="46.0059" lon="6.29596">
        <ele>1203</ele>
        <time>2011-04-16T09:39:55Z</time>
      </trkpt>
      <trkpt lat="46.006" lon="6.29608">
        <ele>1203</ele>
        <time>2011-04-16T09:39:57Z</time>
      </trkpt>
      <trkpt lat="46.00613" lon="6.29619">
        <ele>1203</ele>
        <time>2011-04-16T09:39:59Z</time>
      </trkpt>
      <trkpt lat="46.0063" lon="6.29626">
        <ele>1203</ele>
        <time>2011-04-16T09:40:01Z</time>
      </trkpt>
      <trkpt lat="46.00646" lon="6.29623">
        <ele>1203</ele>
        <time>2011-04-16T09:40:03Z</time>
      </trkpt>
      <trkpt lat="46.00678" lon="6.29616">
        <ele>1198</ele>
        <time>2011-04-16T09:40:07Z</time>
      </trkpt>
      <trkpt lat="46.00688" lon="6.29616">
        <ele>1198</ele>
        <time>2011-04-16T09:40:08Z</time>
      </trkpt>
      <trkpt lat="46.00705" lon="6.29617">
        <ele>1192</ele>
        <time>2011-04-16T09:40:10Z</time>
      </trkpt>
      <trkpt lat="46.00715" lon="6.29621">
        <ele>1192</ele>
        <time>2011-04-16T09:40:11Z</time>
      </trkpt>
      <trkpt lat="46.0073" lon="6.2963">
        <ele>1192</ele>
        <time>2011-04-16T09:40:13Z</time>
      </trkpt>
      <trkpt lat="46.00753" lon="6.29642">
        <ele>1192</ele>
        <time>2011-04-16T09:40:16Z</time>
      </trkpt>
      <trkpt lat="46.00761" lon="6.29654">
        <ele>1186</ele>
        <time>2011-04-16T09:40:17Z</time>
      </trkpt>
      <trkpt lat="46.00768" lon="6.29663">
        <ele>1186</ele>
        <time>2011-04-16T09:40:18Z</time>
      </trkpt>
      <trkpt lat="46.00775" lon="6.29674">
        <ele>1186</ele>
        <time>2011-04-16T09:40:19Z</time>
      </trkpt>
      <trkpt lat="46.00783" lon="6.29683">
        <ele>1186</ele>
        <time>2011-04-16T09:40:20Z</time>
      </trkpt>
      <trkpt lat="46.00797" lon="6.29694">
        <ele>1186</ele>
        <time>2011-04-16T09:40:22Z</time>
      </trkpt>
      <trkpt lat="46.00815" lon="6.29697">
        <ele>1180</ele>
        <time>2011-04-16T09:40:24Z</time>
      </trkpt>
      <trkpt lat="46.00824" lon="6.29697">
        <ele>1180</ele>
        <time>2011-04-16T09:40:25Z</time>
      </trkpt>
      <trkpt lat="46.00842" lon="6.29697">
        <ele>1180</ele>
        <time>2011-04-16T09:40:27Z</time>
      </trkpt>
      <trkpt lat="46.00852" lon="6.29699">
        <ele>1180</ele>
        <time>2011-04-16T09:40:28Z</time>
      </trkpt>
      <trkpt lat="46.00862" lon="6.29704">
        <ele>1174</ele>
        <time>2011-04-16T09:40:29Z</time>
      </trkpt>
      <trkpt lat="46.0087" lon="6.29711">
        <ele>1174</ele>
        <time>2011-04-16T09:40:30Z</time>
      </trkpt>
      <trkpt lat="46.00879" lon="6.29719">
        <ele>1174</ele>
        <time>2011-04-16T09:40:31Z</time>
      </trkpt>
      <trkpt lat="46.00887" lon="6.29731">
        <ele>1169</ele>
        <time>2011-04-16T09:40:32Z</time>
      </trkpt>
      <trkpt lat="46.00894" lon="6.29745">
        <ele>1169</ele>
        <time>2011-04-16T09:40:33Z</time>
      </trkpt>
      <trkpt lat="46.00901" lon="6.29759">
        <ele>1169</ele>
        <time>2011-04-16T09:40:34Z</time>
      </trkpt>
      <trkpt lat="46.00907" lon="6.29772">
        <ele>1169</ele>
        <time>2011-04-16T09:40:35Z</time>
      </trkpt>
      <trkpt lat="46.00914" lon="6.29783">
        <ele>1169</ele>
        <time>2011-04-16T09:40:36Z</time>
      </trkpt>
      <trkpt lat="46.00922" lon="6.29803">
        <ele>1169</ele>
        <time>2011-04-16T09:40:38Z</time>
      </trkpt>
      <trkpt lat="46.00922" lon="6.29828">
        <ele>1161</ele>
        <time>2011-04-16T09:40:40Z</time>
      </trkpt>
      <trkpt lat="46.00921" lon="6.29844">
        <ele>1161</ele>
        <time>2011-04-16T09:40:41Z</time>
      </trkpt>
      <trkpt lat="46.00922" lon="6.29861">
        <ele>1161</ele>
        <time>2011-04-16T09:40:42Z</time>
      </trkpt>
      <trkpt lat="46.00921" lon="6.29875">
        <ele>1161</ele>
        <time>2011-04-16T09:40:43Z</time>
      </trkpt>
      <trkpt lat="46.00921" lon="6.29891">
        <ele>1161</ele>
        <time>2011-04-16T09:40:44Z</time>
      </trkpt>
      <trkpt lat="46.00921" lon="6.29905">
        <ele>1161</ele>
        <time>2011-04-16T09:40:45Z</time>
      </trkpt>
      <trkpt lat="46.00921" lon="6.29929">
        <ele>1161</ele>
        <time>2011-04-16T09:40:47Z</time>
      </trkpt>
      <trkpt lat="46.00926" lon="6.29945">
        <ele>1155</ele>
        <time>2011-04-16T09:40:49Z</time>
      </trkpt>
      <trkpt lat="46.00942" lon="6.29946">
        <ele>1155</ele>
        <time>2011-04-16T09:40:52Z</time>
      </trkpt>
      <trkpt lat="46.00959" lon="6.29933">
        <ele>1155</ele>
        <time>2011-04-16T09:40:54Z</time>
      </trkpt>
      <trkpt lat="46.00971" lon="6.29927">
        <ele>1155</ele>
        <time>2011-04-16T09:40:55Z</time>
      </trkpt>
      <trkpt lat="46.00983" lon="6.2992">
        <ele>1155</ele>
        <time>2011-04-16T09:40:56Z</time>
      </trkpt>
      <trkpt lat="46.00995" lon="6.29916">
        <ele>1155</ele>
        <time>2011-04-16T09:40:57Z</time>
      </trkpt>
      <trkpt lat="46.01005" lon="6.29909">
        <ele>1155</ele>
        <time>2011-04-16T09:40:58Z</time>
      </trkpt>
      <trkpt lat="46.01018" lon="6.29905">
        <ele>1155</ele>
        <time>2011-04-16T09:40:59Z</time>
      </trkpt>
      <trkpt lat="46.0103" lon="6.29903">
        <ele>1155</ele>
        <time>2011-04-16T09:41:00Z</time>
      </trkpt>
      <trkpt lat="46.0104" lon="6.299">
        <ele>1155</ele>
        <time>2011-04-16T09:41:01Z</time>
      </trkpt>
      <trkpt lat="46.01049" lon="6.29897">
        <ele>1155</ele>
        <time>2011-04-16T09:41:02Z</time>
      </trkpt>
      <trkpt lat="46.01059" lon="6.29892">
        <ele>1155</ele>
        <time>2011-04-16T09:41:03Z</time>
      </trkpt>
      <trkpt lat="46.01069" lon="6.29888">
        <ele>1155</ele>
        <time>2011-04-16T09:41:04Z</time>
      </trkpt>
      <trkpt lat="46.01081" lon="6.29889">
        <ele>1155</ele>
        <time>2011-04-16T09:41:05Z</time>
      </trkpt>
      <trkpt lat="46.01096" lon="6.29891">
        <ele>1149</ele>
        <time>2011-04-16T09:41:07Z</time>
      </trkpt>
      <trkpt lat="46.01106" lon="6.29891">
        <ele>1149</ele>
        <time>2011-04-16T09:41:09Z</time>
      </trkpt>
      <trkpt lat="46.01118" lon="6.29893">
        <ele>1149</ele>
        <time>2011-04-16T09:41:11Z</time>
      </trkpt>
      <trkpt lat="46.01128" lon="6.29899">
        <ele>1149</ele>
        <time>2011-04-16T09:41:13Z</time>
      </trkpt>
      <trkpt lat="46.01142" lon="6.29909">
        <ele>1149</ele>
        <time>2011-04-16T09:41:15Z</time>
      </trkpt>
      <trkpt lat="46.01155" lon="6.29921">
        <ele>1142</ele>
        <time>2011-04-16T09:41:17Z</time>
      </trkpt>
      <trkpt lat="46.01169" lon="6.29935">
        <ele>1142</ele>
        <time>2011-04-16T09:41:19Z</time>
      </trkpt>
      <trkpt lat="46.01183" lon="6.29948">
        <ele>1142</ele>
        <time>2011-04-16T09:41:21Z</time>
      </trkpt>
      <trkpt lat="46.01197" lon="6.29963">
        <ele>1135</ele>
        <time>2011-04-16T09:41:23Z</time>
      </trkpt>
      <trkpt lat="46.01211" lon="6.2998">
        <ele>1135</ele>
        <time>2011-04-16T09:41:25Z</time>
      </trkpt>
      <trkpt lat="46.01222" lon="6.29998">
        <ele>1135</ele>
        <time>2011-04-16T09:41:27Z</time>
      </trkpt>
      <trkpt lat="46.01236" lon="6.30014">
        <ele>1135</ele>
        <time>2011-04-16T09:41:29Z</time>
      </trkpt>
      <trkpt lat="46.0125" lon="6.30027">
        <ele>1128</ele>
        <time>2011-04-16T09:41:31Z</time>
      </trkpt>
      <trkpt lat="46.01264" lon="6.3004">
        <ele>1128</ele>
        <time>2011-04-16T09:41:33Z</time>
      </trkpt>
      <trkpt lat="46.01275" lon="6.30059">
        <ele>1128</ele>
        <time>2011-04-16T09:41:35Z</time>
      </trkpt>
      <trkpt lat="46.01285" lon="6.30076">
        <ele>1122</ele>
        <time>2011-04-16T09:41:37Z</time>
      </trkpt>
      <trkpt lat="46.01299" lon="6.30084">
        <ele>1122</ele>
        <time>2011-04-16T09:41:39Z</time>
      </trkpt>
      <trkpt lat="46.01316" lon="6.30087">
        <ele>1116</ele>
        <time>2011-04-16T09:41:41Z</time>
      </trkpt>
      <trkpt lat="46.01326" lon="6.30088">
        <ele>1116</ele>
        <time>2011-04-16T09:41:42Z</time>
      </trkpt>
      <trkpt lat="46.01344" lon="6.30092">
        <ele>1116</ele>
        <time>2011-04-16T09:41:44Z</time>
      </trkpt>
      <trkpt lat="46.01356" lon="6.30098">
        <ele>1110</ele>
        <time>2011-04-16T09:41:46Z</time>
      </trkpt>
      <trkpt lat="46.01365" lon="6.30109">
        <ele>1110</ele>
        <time>2011-04-16T09:41:48Z</time>
      </trkpt>
      <trkpt lat="46.01371" lon="6.30122">
        <ele>1105</ele>
        <time>2011-04-16T09:41:50Z</time>
      </trkpt>
      <trkpt lat="46.01377" lon="6.30133">
        <ele>1105</ele>
        <time>2011-04-16T09:41:52Z</time>
      </trkpt>
      <trkpt lat="46.0139" lon="6.30143">
        <ele>1105</ele>
        <time>2011-04-16T09:41:55Z</time>
      </trkpt>
      <trkpt lat="46.014" lon="6.30144">
        <ele>1099</ele>
        <time>2011-04-16T09:41:57Z</time>
      </trkpt>
      <trkpt lat="46.01408" lon="6.30131">
        <ele>1099</ele>
        <time>2011-04-16T09:42:00Z</time>
      </trkpt>
      <trkpt lat="46.01409" lon="6.30118">
        <ele>1099</ele>
        <time>2011-04-16T09:42:03Z</time>
      </trkpt>
      <trkpt lat="46.01398" lon="6.30113">
        <ele>1099</ele>
        <time>2011-04-16T09:43:55Z</time>
      </trkpt>
      <trkpt lat="46.01393" lon="6.30091">
        <ele>1099</ele>
        <time>2011-04-16T09:43:57Z</time>
      </trkpt>
      <trkpt lat="46.01392" lon="6.30077">
        <ele>1099</ele>
        <time>2011-04-16T09:43:58Z</time>
      </trkpt>
      <trkpt lat="46.01389" lon="6.30065">
        <ele>1099</ele>
        <time>2011-04-16T09:43:59Z</time>
      </trkpt>
      <trkpt lat="46.01383" lon="6.30042">
        <ele>1099</ele>
        <time>2011-04-16T09:44:01Z</time>
      </trkpt>
      <trkpt lat="46.01374" lon="6.30026">
        <ele>1099</ele>
        <time>2011-04-16T09:44:03Z</time>
      </trkpt>
      <trkpt lat="46.01355" lon="6.30018">
        <ele>1099</ele>
        <time>2011-04-16T09:44:05Z</time>
      </trkpt>
      <trkpt lat="46.01346" lon="6.30013">
        <ele>1099</ele>
        <time>2011-04-16T09:44:06Z</time>
      </trkpt>
      <trkpt lat="46.01337" lon="6.30007">
        <ele>1099</ele>
        <time>2011-04-16T09:44:07Z</time>
      </trkpt>
      <trkpt lat="46.01328" lon="6.29994">
        <ele>1099</ele>
        <time>2011-04-16T09:44:09Z</time>
      </trkpt>
      <trkpt lat="46.01329" lon="6.29977">
        <ele>1099</ele>
        <time>2011-04-16T09:44:11Z</time>
      </trkpt>
      <trkpt lat="46.01332" lon="6.29957">
        <ele>1099</ele>
        <time>2011-04-16T09:44:13Z</time>
      </trkpt>
      <trkpt lat="46.01329" lon="6.29933">
        <ele>1099</ele>
        <time>2011-04-16T09:44:15Z</time>
      </trkpt>
      <trkpt lat="46.01326" lon="6.2992">
        <ele>1099</ele>
        <time>2011-04-16T09:44:16Z</time>
      </trkpt>
      <trkpt lat="46.01319" lon="6.29906">
        <ele>1099</ele>
        <time>2011-04-16T09:44:17Z</time>
      </trkpt>
      <trkpt lat="46.01313" lon="6.29894">
        <ele>1091</ele>
        <time>2011-04-16T09:44:18Z</time>
      </trkpt>
      <trkpt lat="46.01304" lon="6.29875">
        <ele>1091</ele>
        <time>2011-04-16T09:44:20Z</time>
      </trkpt>
      <trkpt lat="46.01295" lon="6.29853">
        <ele>1084</ele>
        <time>2011-04-16T09:44:22Z</time>
      </trkpt>
      <trkpt lat="46.01292" lon="6.2984">
        <ele>1084</ele>
        <time>2011-04-16T09:44:23Z</time>
      </trkpt>
      <trkpt lat="46.01285" lon="6.29817">
        <ele>1084</ele>
        <time>2011-04-16T09:44:25Z</time>
      </trkpt>
      <trkpt lat="46.01282" lon="6.29804">
        <ele>1084</ele>
        <time>2011-04-16T09:44:26Z</time>
      </trkpt>
      <trkpt lat="46.01274" lon="6.29781">
        <ele>1078</ele>
        <time>2011-04-16T09:44:28Z</time>
      </trkpt>
      <trkpt lat="46.01269" lon="6.29769">
        <ele>1078</ele>
        <time>2011-04-16T09:44:29Z</time>
      </trkpt>
      <trkpt lat="46.01261" lon="6.29748">
        <ele>1078</ele>
        <time>2011-04-16T09:44:31Z</time>
      </trkpt>
      <trkpt lat="46.01257" lon="6.29736">
        <ele>1078</ele>
        <time>2011-04-16T09:44:32Z</time>
      </trkpt>
      <trkpt lat="46.01249" lon="6.29716">
        <ele>1071</ele>
        <time>2011-04-16T09:44:34Z</time>
      </trkpt>
      <trkpt lat="46.01238" lon="6.29699">
        <ele>1071</ele>
        <time>2011-04-16T09:44:36Z</time>
      </trkpt>
      <trkpt lat="46.01231" lon="6.2969">
        <ele>1071</ele>
        <time>2011-04-16T09:44:37Z</time>
      </trkpt>
      <trkpt lat="46.01218" lon="6.29674">
        <ele>1064</ele>
        <time>2011-04-16T09:44:39Z</time>
      </trkpt>
      <trkpt lat="46.01205" lon="6.29658">
        <ele>1064</ele>
        <time>2011-04-16T09:44:41Z</time>
      </trkpt>
      <trkpt lat="46.01192" lon="6.29644">
        <ele>1064</ele>
        <time>2011-04-16T09:44:43Z</time>
      </trkpt>
      <trkpt lat="46.0118" lon="6.29629">
        <ele>1057</ele>
        <time>2011-04-16T09:44:45Z</time>
      </trkpt>
      <trkpt lat="46.01163" lon="6.29618">
        <ele>1057</ele>
        <time>2011-04-16T09:44:47Z</time>
      </trkpt>
      <trkpt lat="46.01148" lon="6.29608">
        <ele>1057</ele>
        <time>2011-04-16T09:44:49Z</time>
      </trkpt>
      <trkpt lat="46.01146" lon="6.2959">
        <ele>1049</ele>
        <time>2011-04-16T09:44:52Z</time>
      </trkpt>
      <trkpt lat="46.01153" lon="6.29574">
        <ele>1049</ele>
        <time>2011-04-16T09:44:54Z</time>
      </trkpt>
      <trkpt lat="46.01155" lon="6.29561">
        <ele>1042</ele>
        <time>2011-04-16T09:44:57Z</time>
      </trkpt>
      <trkpt lat="46.01158" lon="6.29548">
        <ele>1042</ele>
        <time>2011-04-16T09:44:59Z</time>
      </trkpt>
      <trkpt lat="46.0116" lon="6.29533">
        <ele>1042</ele>
        <time>2011-04-16T09:45:01Z</time>
      </trkpt>
      <trkpt lat="46.01158" lon="6.29519">
        <ele>1042</ele>
        <time>2011-04-16T09:45:04Z</time>
      </trkpt>
      <trkpt lat="46.01152" lon="6.29501">
        <ele>1037</ele>
        <time>2011-04-16T09:45:07Z</time>
      </trkpt>
      <trkpt lat="46.0115" lon="6.29486">
        <ele>1037</ele>
        <time>2011-04-16T09:45:10Z</time>
      </trkpt>
      <trkpt lat="46.01148" lon="6.29469">
        <ele>1042</ele>
        <time>2011-04-16T09:45:18Z</time>
      </trkpt>
      <trkpt lat="46.01145" lon="6.2945">
        <ele>1042</ele>
        <time>2011-04-16T09:45:21Z</time>
      </trkpt>
      <trkpt lat="46.01143" lon="6.29437">
        <ele>1042</ele>
        <time>2011-04-16T09:45:24Z</time>
      </trkpt>
      <trkpt lat="46.01134" lon="6.29432">
        <ele>1042</ele>
        <time>2011-04-16T09:45:32Z</time>
      </trkpt>
      <trkpt lat="46.01125" lon="6.29429">
        <ele>1042</ele>
        <time>2011-04-16T09:45:38Z</time>
      </trkpt>
      <trkpt lat="46.01113" lon="6.29423">
        <ele>1042</ele>
        <time>2011-04-16T09:45:47Z</time>
      </trkpt>
      <trkpt lat="46.01101" lon="6.29415">
        <ele>1042</ele>
        <time>2011-04-16T09:45:49Z</time>
      </trkpt>
      <trkpt lat="46.0109" lon="6.29403">
        <ele>1042</ele>
        <time>2011-04-16T09:45:51Z</time>
      </trkpt>
      <trkpt lat="46.01076" lon="6.29389">
        <ele>1042</ele>
        <time>2011-04-16T09:45:53Z</time>
      </trkpt>
      <trkpt lat="46.01068" lon="6.29382">
        <ele>1042</ele>
        <time>2011-04-16T09:45:54Z</time>
      </trkpt>
      <trkpt lat="46.01052" lon="6.2937">
        <ele>1042</ele>
        <time>2011-04-16T09:45:56Z</time>
      </trkpt>
      <trkpt lat="46.01044" lon="6.29362">
        <ele>1042</ele>
        <time>2011-04-16T09:45:57Z</time>
      </trkpt>
      <trkpt lat="46.01029" lon="6.29348">
        <ele>1042</ele>
        <time>2011-04-16T09:45:59Z</time>
      </trkpt>
      <trkpt lat="46.01014" lon="6.29335">
        <ele>1042</ele>
        <time>2011-04-16T09:46:01Z</time>
      </trkpt>
      <trkpt lat="46.00999" lon="6.29326">
        <ele>1042</ele>
        <time>2011-04-16T09:46:03Z</time>
      </trkpt>
      <trkpt lat="46.00982" lon="6.29321">
        <ele>1042</ele>
        <time>2011-04-16T09:46:05Z</time>
      </trkpt>
      <trkpt lat="46.00964" lon="6.2932">
        <ele>1042</ele>
        <time>2011-04-16T09:46:07Z</time>
      </trkpt>
      <trkpt lat="46.00948" lon="6.29318">
        <ele>1042</ele>
        <time>2011-04-16T09:46:09Z</time>
      </trkpt>
      <trkpt lat="46.00935" lon="6.29313">
        <ele>1042</ele>
        <time>2011-04-16T09:46:11Z</time>
      </trkpt>
      <trkpt lat="46.00925" lon="6.29313">
        <ele>1048</ele>
        <time>2011-04-16T09:46:15Z</time>
      </trkpt>
      <trkpt lat="46.00918" lon="6.29322">
        <ele>1048</ele>
        <time>2011-04-16T09:46:21Z</time>
      </trkpt>
      <trkpt lat="46.00909" lon="6.29327">
        <ele>1054</ele>
        <time>2011-04-16T09:46:49Z</time>
      </trkpt>
      <trkpt lat="46.00922" lon="6.29327">
        <ele>1054</ele>
        <time>2011-04-16T09:47:03Z</time>
      </trkpt>
      <trkpt lat="46.00929" lon="6.29318">
        <ele>1054</ele>
        <time>2011-04-16T09:47:08Z</time>
      </trkpt>
      <trkpt lat="46.00939" lon="6.29315">
        <ele>1054</ele>
        <time>2011-04-16T09:47:14Z</time>
      </trkpt>
      <trkpt lat="46.00953" lon="6.29318">
        <ele>1054</ele>
        <time>2011-04-16T09:47:17Z</time>
      </trkpt>
      <trkpt lat="46.00968" lon="6.29323">
        <ele>1054</ele>
        <time>2011-04-16T09:47:19Z</time>
      </trkpt>
      <trkpt lat="46.00986" lon="6.29327">
        <ele>1054</ele>
        <time>2011-04-16T09:47:21Z</time>
      </trkpt>
      <trkpt lat="46.01001" lon="6.29333">
        <ele>1054</ele>
        <time>2011-04-16T09:47:23Z</time>
      </trkpt>
      <trkpt lat="46.01016" lon="6.29344">
        <ele>1048</ele>
        <time>2011-04-16T09:47:25Z</time>
      </trkpt>
      <trkpt lat="46.01029" lon="6.29355">
        <ele>1048</ele>
        <time>2011-04-16T09:47:27Z</time>
      </trkpt>
      <trkpt lat="46.01042" lon="6.29365">
        <ele>1048</ele>
        <time>2011-04-16T09:47:29Z</time>
      </trkpt>
      <trkpt lat="46.01053" lon="6.29374">
        <ele>1048</ele>
        <time>2011-04-16T09:47:31Z</time>
      </trkpt>
      <trkpt lat="46.01061" lon="6.29382">
        <ele>1042</ele>
        <time>2011-04-16T09:47:32Z</time>
      </trkpt>
      <trkpt lat="46.01077" lon="6.29395">
        <ele>1042</ele>
        <time>2011-04-16T09:47:34Z</time>
      </trkpt>
      <trkpt lat="46.01085" lon="6.29404">
        <ele>1036</ele>
        <time>2011-04-16T09:47:35Z</time>
      </trkpt>
      <trkpt lat="46.01093" lon="6.29413">
        <ele>1036</ele>
        <time>2011-04-16T09:47:36Z</time>
      </trkpt>
      <trkpt lat="46.01104" lon="6.29423">
        <ele>1036</ele>
        <time>2011-04-16T09:47:38Z</time>
      </trkpt>
      <trkpt lat="46.01115" lon="6.29428">
        <ele>1036</ele>
        <time>2011-04-16T09:47:40Z</time>
      </trkpt>
      <trkpt lat="46.01125" lon="6.29434">
        <ele>1036</ele>
        <time>2011-04-16T09:47:42Z</time>
      </trkpt>
      <trkpt lat="46.01135" lon="6.29441">
        <ele>1036</ele>
        <time>2011-04-16T09:47:45Z</time>
      </trkpt>
      <trkpt lat="46.01131" lon="6.29423">
        <ele>1036</ele>
        <time>2011-04-16T09:47:52Z</time>
      </trkpt>
      <trkpt lat="46.01128" lon="6.29408">
        <ele>1036</ele>
        <time>2011-04-16T09:47:54Z</time>
      </trkpt>
      <trkpt lat="46.01124" lon="6.29395">
        <ele>1036</ele>
        <time>2011-04-16T09:47:56Z</time>
      </trkpt>
      <trkpt lat="46.01122" lon="6.29381">
        <ele>1036</ele>
        <time>2011-04-16T09:47:58Z</time>
      </trkpt>
      <trkpt lat="46.01118" lon="6.29363">
        <ele>1036</ele>
        <time>2011-04-16T09:48:00Z</time>
      </trkpt>
      <trkpt lat="46.01115" lon="6.29346">
        <ele>1036</ele>
        <time>2011-04-16T09:48:02Z</time>
      </trkpt>
      <trkpt lat="46.0111" lon="6.2933">
        <ele>1036</ele>
        <time>2011-04-16T09:48:04Z</time>
      </trkpt>
      <trkpt lat="46.01105" lon="6.29316">
        <ele>1029</ele>
        <time>2011-04-16T09:48:06Z</time>
      </trkpt>
      <trkpt lat="46.01098" lon="6.29303">
        <ele>1029</ele>
        <time>2011-04-16T09:48:08Z</time>
      </trkpt>
      <trkpt lat="46.01093" lon="6.29284">
        <ele>1023</ele>
        <time>2011-04-16T09:48:11Z</time>
      </trkpt>
      <trkpt lat="46.01097" lon="6.29271">
        <ele>1017</ele>
        <time>2011-04-16T09:48:13Z</time>
      </trkpt>
      <trkpt lat="46.01101" lon="6.29255">
        <ele>1017</ele>
        <time>2011-04-16T09:48:15Z</time>
      </trkpt>
      <trkpt lat="46.01108" lon="6.29245">
        <ele>1007</ele>
        <time>2011-04-16T09:48:31Z</time>
      </trkpt>
      <trkpt lat="46.01103" lon="6.29258">
        <ele>1007</ele>
        <time>2011-04-16T09:48:42Z</time>
      </trkpt>
      <trkpt lat="46.011" lon="6.29271">
        <ele>1013</ele>
        <time>2011-04-16T09:48:44Z</time>
      </trkpt>
      <trkpt lat="46.01098" lon="6.29284">
        <ele>1013</ele>
        <time>2011-04-16T09:48:46Z</time>
      </trkpt>
      <trkpt lat="46.01098" lon="6.29298">
        <ele>1013</ele>
        <time>2011-04-16T09:48:48Z</time>
      </trkpt>
      <trkpt lat="46.011" lon="6.29312">
        <ele>1013</ele>
        <time>2011-04-16T09:48:50Z</time>
      </trkpt>
      <trkpt lat="46.01105" lon="6.29329">
        <ele>1013</ele>
        <time>2011-04-16T09:48:52Z</time>
      </trkpt>
      <trkpt lat="46.01113" lon="6.29344">
        <ele>1019</ele>
        <time>2011-04-16T09:48:54Z</time>
      </trkpt>
      <trkpt lat="46.01116" lon="6.29361">
        <ele>1019</ele>
        <time>2011-04-16T09:48:56Z</time>
      </trkpt>
      <trkpt lat="46.0112" lon="6.29386">
        <ele>1019</ele>
        <time>2011-04-16T09:48:58Z</time>
      </trkpt>
      <trkpt lat="46.01126" lon="6.29407">
        <ele>1019</ele>
        <time>2011-04-16T09:49:00Z</time>
      </trkpt>
      <trkpt lat="46.01131" lon="6.29425">
        <ele>1024</ele>
        <time>2011-04-16T09:49:02Z</time>
      </trkpt>
      <trkpt lat="46.01136" lon="6.29439">
        <ele>1024</ele>
        <time>2011-04-16T09:49:04Z</time>
      </trkpt>
      <trkpt lat="46.01124" lon="6.29439">
        <ele>1035</ele>
        <time>2011-04-16T09:49:09Z</time>
      </trkpt>
      <trkpt lat="46.0111" lon="6.29424">
        <ele>1035</ele>
        <time>2011-04-16T09:49:11Z</time>
      </trkpt>
      <trkpt lat="46.01101" lon="6.29416">
        <ele>1035</ele>
        <time>2011-04-16T09:49:12Z</time>
      </trkpt>
      <trkpt lat="46.01093" lon="6.29409">
        <ele>1035</ele>
        <time>2011-04-16T09:49:13Z</time>
      </trkpt>
      <trkpt lat="46.01085" lon="6.294">
        <ele>1035</ele>
        <time>2011-04-16T09:49:14Z</time>
      </trkpt>
      <trkpt lat="46.01075" lon="6.2939">
        <ele>1041</ele>
        <time>2011-04-16T09:49:15Z</time>
      </trkpt>
      <trkpt lat="46.01066" lon="6.29383">
        <ele>1041</ele>
        <time>2011-04-16T09:49:16Z</time>
      </trkpt>
      <trkpt lat="46.01059" lon="6.29375">
        <ele>1041</ele>
        <time>2011-04-16T09:49:17Z</time>
      </trkpt>
      <trkpt lat="46.01049" lon="6.29367">
        <ele>1041</ele>
        <time>2011-04-16T09:49:18Z</time>
      </trkpt>
      <trkpt lat="46.0104" lon="6.29361">
        <ele>1041</ele>
        <time>2011-04-16T09:49:19Z</time>
      </trkpt>
      <trkpt lat="46.01032" lon="6.29353">
        <ele>1046</ele>
        <time>2011-04-16T09:49:20Z</time>
      </trkpt>
      <trkpt lat="46.01024" lon="6.29345">
        <ele>1046</ele>
        <time>2011-04-16T09:49:21Z</time>
      </trkpt>
      <trkpt lat="46.01016" lon="6.29339">
        <ele>1046</ele>
        <time>2011-04-16T09:49:22Z</time>
      </trkpt>
      <trkpt lat="46.01007" lon="6.29333">
        <ele>1046</ele>
        <time>2011-04-16T09:49:23Z</time>
      </trkpt>
      <trkpt lat="46.00991" lon="6.29325">
        <ele>1046</ele>
        <time>2011-04-16T09:49:25Z</time>
      </trkpt>
      <trkpt lat="46.00976" lon="6.29321">
        <ele>1046</ele>
        <time>2011-04-16T09:49:27Z</time>
      </trkpt>
      <trkpt lat="46.00958" lon="6.2932">
        <ele>1046</ele>
        <time>2011-04-16T09:49:29Z</time>
      </trkpt>
      <trkpt lat="46.00942" lon="6.29317">
        <ele>1053</ele>
        <time>2011-04-16T09:49:31Z</time>
      </trkpt>
      <trkpt lat="46.0093" lon="6.29316">
        <ele>1053</ele>
        <time>2011-04-16T09:49:33Z</time>
      </trkpt>
      <trkpt lat="46.0092" lon="6.29321">
        <ele>1053</ele>
        <time>2011-04-16T09:49:36Z</time>
      </trkpt>
      <trkpt lat="46.00909" lon="6.29328">
        <ele>1053</ele>
        <time>2011-04-16T09:49:39Z</time>
      </trkpt>
      <trkpt lat="46.00899" lon="6.29326">
        <ele>1053</ele>
        <time>2011-04-16T09:49:41Z</time>
      </trkpt>
      <trkpt lat="46.00888" lon="6.29318">
        <ele>1053</ele>
        <time>2011-04-16T09:49:43Z</time>
      </trkpt>
      <trkpt lat="46.00879" lon="6.29311">
        <ele>1053</ele>
        <time>2011-04-16T09:49:45Z</time>
      </trkpt>
      <trkpt lat="46.0087" lon="6.293">
        <ele>1053</ele>
        <time>2011-04-16T09:49:48Z</time>
      </trkpt>
      <trkpt lat="46.00863" lon="6.29288">
        <ele>1053</ele>
        <time>2011-04-16T09:49:50Z</time>
      </trkpt>
      <trkpt lat="46.00856" lon="6.29272">
        <ele>1047</ele>
        <time>2011-04-16T09:49:53Z</time>
      </trkpt>
      <trkpt lat="46.00855" lon="6.29257">
        <ele>1047</ele>
        <time>2011-04-16T09:49:55Z</time>
      </trkpt>
      <trkpt lat="46.00852" lon="6.29245">
        <ele>1047</ele>
        <time>2011-04-16T09:49:57Z</time>
      </trkpt>
      <trkpt lat="46.0084" lon="6.29235">
        <ele>1047</ele>
        <time>2011-04-16T09:50:00Z</time>
      </trkpt>
      <trkpt lat="46.00831" lon="6.29234">
        <ele>1047</ele>
        <time>2011-04-16T09:50:02Z</time>
      </trkpt>
      <trkpt lat="46.00822" lon="6.29235">
        <ele>1047</ele>
        <time>2011-04-16T09:50:04Z</time>
      </trkpt>
      <trkpt lat="46.00812" lon="6.29236">
        <ele>1047</ele>
        <time>2011-04-16T09:50:06Z</time>
      </trkpt>
      <trkpt lat="46.00803" lon="6.29238">
        <ele>1041</ele>
        <time>2011-04-16T09:50:08Z</time>
      </trkpt>
      <trkpt lat="46.00794" lon="6.29229">
        <ele>1041</ele>
        <time>2011-04-16T09:50:12Z</time>
      </trkpt>
      <trkpt lat="46.00793" lon="6.29214">
        <ele>1036</ele>
        <time>2011-04-16T09:50:14Z</time>
      </trkpt>
      <trkpt lat="46.00799" lon="6.292">
        <ele>1028</ele>
        <time>2011-04-16T09:50:17Z</time>
      </trkpt>
      <trkpt lat="46.00802" lon="6.29186">
        <ele>1028</ele>
        <time>2011-04-16T09:50:19Z</time>
      </trkpt>
      <trkpt lat="46.00802" lon="6.2917">
        <ele>1021</ele>
        <time>2011-04-16T09:50:21Z</time>
      </trkpt>
      <trkpt lat="46.00805" lon="6.29154">
        <ele>1021</ele>
        <time>2011-04-16T09:50:23Z</time>
      </trkpt>
      <trkpt lat="46.00804" lon="6.29133">
        <ele>1021</ele>
        <time>2011-04-16T09:50:26Z</time>
      </trkpt>
      <trkpt lat="46.00801" lon="6.29114">
        <ele>1021</ele>
        <time>2011-04-16T09:50:28Z</time>
      </trkpt>
      <trkpt lat="46.00793" lon="6.29095">
        <ele>1021</ele>
        <time>2011-04-16T09:50:30Z</time>
      </trkpt>
      <trkpt lat="46.0079" lon="6.29079">
        <ele>1021</ele>
        <time>2011-04-16T09:50:32Z</time>
      </trkpt>
      <trkpt lat="46.0079" lon="6.29065">
        <ele>1021</ele>
        <time>2011-04-16T09:50:34Z</time>
      </trkpt>
      <trkpt lat="46.00795" lon="6.2905">
        <ele>1021</ele>
        <time>2011-04-16T09:50:36Z</time>
      </trkpt>
      <trkpt lat="46.00804" lon="6.29036">
        <ele>1021</ele>
        <time>2011-04-16T09:50:38Z</time>
      </trkpt>
      <trkpt lat="46.00822" lon="6.29027">
        <ele>1015</ele>
        <time>2011-04-16T09:50:40Z</time>
      </trkpt>
      <trkpt lat="46.00832" lon="6.29022">
        <ele>1015</ele>
        <time>2011-04-16T09:50:41Z</time>
      </trkpt>
      <trkpt lat="46.00845" lon="6.29007">
        <ele>1015</ele>
        <time>2011-04-16T09:50:43Z</time>
      </trkpt>
      <trkpt lat="46.00854" lon="6.28992">
        <ele>1015</ele>
        <time>2011-04-16T09:50:45Z</time>
      </trkpt>
      <trkpt lat="46.00855" lon="6.28973">
        <ele>1015</ele>
        <time>2011-04-16T09:50:47Z</time>
      </trkpt>
      <trkpt lat="46.00849" lon="6.28955">
        <ele>1007</ele>
        <time>2011-04-16T09:50:49Z</time>
      </trkpt>
      <trkpt lat="46.00842" lon="6.28945">
        <ele>1007</ele>
        <time>2011-04-16T09:50:50Z</time>
      </trkpt>
      <trkpt lat="46.00834" lon="6.28936">
        <ele>1007</ele>
        <time>2011-04-16T09:50:51Z</time>
      </trkpt>
      <trkpt lat="46.00825" lon="6.28927">
        <ele>1001</ele>
        <time>2011-04-16T09:50:52Z</time>
      </trkpt>
      <trkpt lat="46.00817" lon="6.28918">
        <ele>1001</ele>
        <time>2011-04-16T09:50:53Z</time>
      </trkpt>
      <trkpt lat="46.00804" lon="6.28902">
        <ele>1001</ele>
        <time>2011-04-16T09:50:55Z</time>
      </trkpt>
      <trkpt lat="46.00791" lon="6.28893">
        <ele>1001</ele>
        <time>2011-04-16T09:50:57Z</time>
      </trkpt>
      <trkpt lat="46.00782" lon="6.28889">
        <ele>995</ele>
        <time>2011-04-16T09:50:59Z</time>
      </trkpt>
      <trkpt lat="46.00773" lon="6.28881">
        <ele>995</ele>
        <time>2011-04-16T09:51:03Z</time>
      </trkpt>
      <trkpt lat="46.00764" lon="6.28877">
        <ele>1000</ele>
        <time>2011-04-16T09:51:30Z</time>
      </trkpt>
      <trkpt lat="46.00754" lon="6.28884">
        <ele>1005</ele>
        <time>2011-04-16T09:51:41Z</time>
      </trkpt>
      <trkpt lat="46.00742" lon="6.28892">
        <ele>1005</ele>
        <time>2011-04-16T09:51:43Z</time>
      </trkpt>
      <trkpt lat="46.00727" lon="6.28899">
        <ele>1005</ele>
        <time>2011-04-16T09:51:45Z</time>
      </trkpt>
      <trkpt lat="46.00717" lon="6.28902">
        <ele>1005</ele>
        <time>2011-04-16T09:51:47Z</time>
      </trkpt>
      <trkpt lat="46.00707" lon="6.28898">
        <ele>1011</ele>
        <time>2011-04-16T09:51:50Z</time>
      </trkpt>
      <trkpt lat="46.00695" lon="6.28888">
        <ele>1011</ele>
        <time>2011-04-16T09:51:52Z</time>
      </trkpt>
      <trkpt lat="46.00683" lon="6.28874">
        <ele>1018</ele>
        <time>2011-04-16T09:51:54Z</time>
      </trkpt>
      <trkpt lat="46.00675" lon="6.28859">
        <ele>1018</ele>
        <time>2011-04-16T09:51:55Z</time>
      </trkpt>
      <trkpt lat="46.00667" lon="6.28845">
        <ele>1018</ele>
        <time>2011-04-16T09:51:56Z</time>
      </trkpt>
      <trkpt lat="46.0066" lon="6.2883">
        <ele>1018</ele>
        <time>2011-04-16T09:51:57Z</time>
      </trkpt>
      <trkpt lat="46.00654" lon="6.28815">
        <ele>1018</ele>
        <time>2011-04-16T09:51:58Z</time>
      </trkpt>
      <trkpt lat="46.00649" lon="6.28802">
        <ele>1023</ele>
        <time>2011-04-16T09:51:59Z</time>
      </trkpt>
      <trkpt lat="46.00643" lon="6.28786">
        <ele>1023</ele>
        <time>2011-04-16T09:52:01Z</time>
      </trkpt>
      <trkpt lat="46.00636" lon="6.28774">
        <ele>1030</ele>
        <time>2011-04-16T09:52:03Z</time>
      </trkpt>
      <trkpt lat="46.00623" lon="6.28762">
        <ele>1030</ele>
        <time>2011-04-16T09:52:05Z</time>
      </trkpt>
      <trkpt lat="46.00611" lon="6.28746">
        <ele>1036</ele>
        <time>2011-04-16T09:52:07Z</time>
      </trkpt>
      <trkpt lat="46.006" lon="6.28735">
        <ele>1036</ele>
        <time>2011-04-16T09:52:09Z</time>
      </trkpt>
      <trkpt lat="46.00591" lon="6.2872">
        <ele>1041</ele>
        <time>2011-04-16T09:52:11Z</time>
      </trkpt>
      <trkpt lat="46.00578" lon="6.28707">
        <ele>1041</ele>
        <time>2011-04-16T09:52:13Z</time>
      </trkpt>
      <trkpt lat="46.00561" lon="6.28699">
        <ele>1041</ele>
        <time>2011-04-16T09:52:15Z</time>
      </trkpt>
      <trkpt lat="46.00552" lon="6.28693">
        <ele>1041</ele>
        <time>2011-04-16T09:52:16Z</time>
      </trkpt>
      <trkpt lat="46.00542" lon="6.28687">
        <ele>1047</ele>
        <time>2011-04-16T09:52:17Z</time>
      </trkpt>
      <trkpt lat="46.00532" lon="6.28681">
        <ele>1047</ele>
        <time>2011-04-16T09:52:18Z</time>
      </trkpt>
      <trkpt lat="46.00523" lon="6.28673">
        <ele>1047</ele>
        <time>2011-04-16T09:52:19Z</time>
      </trkpt>
      <trkpt lat="46.00514" lon="6.28664">
        <ele>1052</ele>
        <time>2011-04-16T09:52:20Z</time>
      </trkpt>
      <trkpt lat="46.00507" lon="6.28655">
        <ele>1052</ele>
        <time>2011-04-16T09:52:21Z</time>
      </trkpt>
      <trkpt lat="46.00499" lon="6.28647">
        <ele>1052</ele>
        <time>2011-04-16T09:52:22Z</time>
      </trkpt>
      <trkpt lat="46.00487" lon="6.28636">
        <ele>1052</ele>
        <time>2011-04-16T09:52:24Z</time>
      </trkpt>
      <trkpt lat="46.00475" lon="6.28629">
        <ele>1059</ele>
        <time>2011-04-16T09:52:26Z</time>
      </trkpt>
      <trkpt lat="46.00465" lon="6.28634">
        <ele>1059</ele>
        <time>2011-04-16T09:52:55Z</time>
      </trkpt>
      <trkpt lat="46.00451" lon="6.28637">
        <ele>1059</ele>
        <time>2011-04-16T09:52:58Z</time>
      </trkpt>
      <trkpt lat="46.0044" lon="6.28635">
        <ele>1065</ele>
        <time>2011-04-16T09:53:01Z</time>
      </trkpt>
      <trkpt lat="46.00432" lon="6.28627">
        <ele>1065</ele>
        <time>2011-04-16T09:53:03Z</time>
      </trkpt>
      <trkpt lat="46.00423" lon="6.28614">
        <ele>1065</ele>
        <time>2011-04-16T09:53:05Z</time>
      </trkpt>
      <trkpt lat="46.00412" lon="6.28604">
        <ele>1065</ele>
        <time>2011-04-16T09:53:07Z</time>
      </trkpt>
      <trkpt lat="46.004" lon="6.28593">
        <ele>1073</ele>
        <time>2011-04-16T09:53:09Z</time>
      </trkpt>
      <trkpt lat="46.00388" lon="6.28588">
        <ele>1073</ele>
        <time>2011-04-16T09:53:11Z</time>
      </trkpt>
      <trkpt lat="46.00373" lon="6.2859">
        <ele>1078</ele>
        <time>2011-04-16T09:53:13Z</time>
      </trkpt>
      <trkpt lat="46.0036" lon="6.28597">
        <ele>1078</ele>
        <time>2011-04-16T09:53:15Z</time>
      </trkpt>
      <trkpt lat="46.00347" lon="6.28598">
        <ele>1086</ele>
        <time>2011-04-16T09:53:17Z</time>
      </trkpt>
      <trkpt lat="46.00333" lon="6.28595">
        <ele>1092</ele>
        <time>2011-04-16T09:53:19Z</time>
      </trkpt>
      <trkpt lat="46.00319" lon="6.28597">
        <ele>1092</ele>
        <time>2011-04-16T09:53:21Z</time>
      </trkpt>
      <trkpt lat="46.00303" lon="6.28602">
        <ele>1100</ele>
        <time>2011-04-16T09:53:23Z</time>
      </trkpt>
      <trkpt lat="46.00291" lon="6.28611">
        <ele>1100</ele>
        <time>2011-04-16T09:53:25Z</time>
      </trkpt>
      <trkpt lat="46.00283" lon="6.2862">
        <ele>1109</ele>
        <time>2011-04-16T09:53:27Z</time>
      </trkpt>
      <trkpt lat="46.00271" lon="6.28611">
        <ele>1109</ele>
        <time>2011-04-16T09:53:31Z</time>
      </trkpt>
      <trkpt lat="46.00261" lon="6.28606">
        <ele>1115</ele>
        <time>2011-04-16T09:53:33Z</time>
      </trkpt>
      <trkpt lat="46.00251" lon="6.28602">
        <ele>1122</ele>
        <time>2011-04-16T09:53:36Z</time>
      </trkpt>
      <trkpt lat="46.00246" lon="6.28614">
        <ele>1122</ele>
        <time>2011-04-16T09:53:46Z</time>
      </trkpt>
      <trkpt lat="46.00241" lon="6.286">
        <ele>1122</ele>
        <time>2011-04-16T09:53:52Z</time>
      </trkpt>
      <trkpt lat="46.00234" lon="6.28586">
        <ele>1122</ele>
        <time>2011-04-16T09:53:55Z</time>
      </trkpt>
      <trkpt lat="46.00228" lon="6.28573">
        <ele>1122</ele>
        <time>2011-04-16T09:53:57Z</time>
      </trkpt>
      <trkpt lat="46.00219" lon="6.28558">
        <ele>1122</ele>
        <time>2011-04-16T09:53:59Z</time>
      </trkpt>
      <trkpt lat="46.00208" lon="6.28542">
        <ele>1122</ele>
        <time>2011-04-16T09:54:01Z</time>
      </trkpt>
      <trkpt lat="46.00201" lon="6.28531">
        <ele>1122</ele>
        <time>2011-04-16T09:54:02Z</time>
      </trkpt>
      <trkpt lat="46.00194" lon="6.28521">
        <ele>1122</ele>
        <time>2011-04-16T09:54:03Z</time>
      </trkpt>
      <trkpt lat="46.00186" lon="6.2851">
        <ele>1122</ele>
        <time>2011-04-16T09:54:04Z</time>
      </trkpt>
      <trkpt lat="46.00179" lon="6.285">
        <ele>1122</ele>
        <time>2011-04-16T09:54:05Z</time>
      </trkpt>
      <trkpt lat="46.00168" lon="6.28478">
        <ele>1122</ele>
        <time>2011-04-16T09:54:07Z</time>
      </trkpt>
      <trkpt lat="46.00159" lon="6.28457">
        <ele>1122</ele>
        <time>2011-04-16T09:54:09Z</time>
      </trkpt>
      <trkpt lat="46.00152" lon="6.28438">
        <ele>1122</ele>
        <time>2011-04-16T09:54:11Z</time>
      </trkpt>
      <trkpt lat="46.00146" lon="6.28423">
        <ele>1122</ele>
        <time>2011-04-16T09:54:13Z</time>
      </trkpt>
      <trkpt lat="46.00139" lon="6.28413">
        <ele>1115</ele>
        <time>2011-04-16T09:54:15Z</time>
      </trkpt>
      <trkpt lat="46.00126" lon="6.28413">
        <ele>1115</ele>
        <time>2011-04-16T09:54:18Z</time>
      </trkpt>
      <trkpt lat="46.00116" lon="6.2842">
        <ele>1107</ele>
        <time>2011-04-16T09:54:20Z</time>
      </trkpt>
      <trkpt lat="46.00103" lon="6.28422">
        <ele>1107</ele>
        <time>2011-04-16T09:54:22Z</time>
      </trkpt>
      <trkpt lat="46.00094" lon="6.28423">
        <ele>1098</ele>
        <time>2011-04-16T09:54:24Z</time>
      </trkpt>
      <trkpt lat="46.00085" lon="6.28415">
        <ele>1098</ele>
        <time>2011-04-16T09:54:26Z</time>
      </trkpt>
      <trkpt lat="46.00077" lon="6.28402">
        <ele>1098</ele>
        <time>2011-04-16T09:54:28Z</time>
      </trkpt>
      <trkpt lat="46.00072" lon="6.28388">
        <ele>1091</ele>
        <time>2011-04-16T09:54:30Z</time>
      </trkpt>
      <trkpt lat="46.00065" lon="6.28371">
        <ele>1091</ele>
        <time>2011-04-16T09:54:32Z</time>
      </trkpt>
      <trkpt lat="46.00058" lon="6.28357">
        <ele>1091</ele>
        <time>2011-04-16T09:54:34Z</time>
      </trkpt>
      <trkpt lat="46.00052" lon="6.28343">
        <ele>1091</ele>
        <time>2011-04-16T09:54:36Z</time>
      </trkpt>
      <trkpt lat="46.00048" lon="6.28328">
        <ele>1084</ele>
        <time>2011-04-16T09:54:38Z</time>
      </trkpt>
      <trkpt lat="46.00043" lon="6.28314">
        <ele>1077</ele>
        <time>2011-04-16T09:54:41Z</time>
      </trkpt>
      <trkpt lat="46.00037" lon="6.28303">
        <ele>1077</ele>
        <time>2011-04-16T09:54:43Z</time>
      </trkpt>
      <trkpt lat="46.0003" lon="6.2829">
        <ele>1077</ele>
        <time>2011-04-16T09:54:45Z</time>
      </trkpt>
      <trkpt lat="46.00025" lon="6.28274">
        <ele>1069</ele>
        <time>2011-04-16T09:54:47Z</time>
      </trkpt>
      <trkpt lat="46.00018" lon="6.28255">
        <ele>1064</ele>
        <time>2011-04-16T09:54:49Z</time>
      </trkpt>
      <trkpt lat="46.00014" lon="6.28232">
        <ele>1064</ele>
        <time>2011-04-16T09:54:51Z</time>
      </trkpt>
      <trkpt lat="46.00012" lon="6.28214">
        <ele>1064</ele>
        <time>2011-04-16T09:54:53Z</time>
      </trkpt>
      <trkpt lat="46.00008" lon="6.28197">
        <ele>1057</ele>
        <time>2011-04-16T09:54:55Z</time>
      </trkpt>
      <trkpt lat="46.00005" lon="6.28181">
        <ele>1057</ele>
        <time>2011-04-16T09:54:57Z</time>
      </trkpt>
      <trkpt lat="46.00002" lon="6.28163">
        <ele>1057</ele>
        <time>2011-04-16T09:54:59Z</time>
      </trkpt>
      <trkpt lat="46.00001" lon="6.28144">
        <ele>1057</ele>
        <time>2011-04-16T09:55:01Z</time>
      </trkpt>
      <trkpt lat="46.00001" lon="6.28131">
        <ele>1049</ele>
        <time>2011-04-16T09:55:03Z</time>
      </trkpt>
      <trkpt lat="46.00005" lon="6.28118">
        <ele>1049</ele>
        <time>2011-04-16T09:55:05Z</time>
      </trkpt>
      <trkpt lat="46.00009" lon="6.28105">
        <ele>1049</ele>
        <time>2011-04-16T09:55:07Z</time>
      </trkpt>
      <trkpt lat="46.00012" lon="6.28091">
        <ele>1049</ele>
        <time>2011-04-16T09:55:09Z</time>
      </trkpt>
      <trkpt lat="46.00017" lon="6.28077">
        <ele>1049</ele>
        <time>2011-04-16T09:55:11Z</time>
      </trkpt>
      <trkpt lat="46.00016" lon="6.2806">
        <ele>1044</ele>
        <time>2011-04-16T09:55:14Z</time>
      </trkpt>
      <trkpt lat="46.00004" lon="6.28061">
        <ele>1044</ele>
        <time>2011-04-16T09:55:37Z</time>
      </trkpt>
      <trkpt lat="45.99993" lon="6.28058">
        <ele>1044</ele>
        <time>2011-04-16T09:55:40Z</time>
      </trkpt>
      <trkpt lat="45.99986" lon="6.28045">
        <ele>1038</ele>
        <time>2011-04-16T09:55:44Z</time>
      </trkpt>
      <trkpt lat="45.9998" lon="6.28033">
        <ele>1038</ele>
        <time>2011-04-16T09:55:48Z</time>
      </trkpt>
      <trkpt lat="45.9997" lon="6.28028">
        <ele>1031</ele>
        <time>2011-04-16T09:55:51Z</time>
      </trkpt>
      <trkpt lat="45.99961" lon="6.2802">
        <ele>1022</ele>
        <time>2011-04-16T09:55:55Z</time>
      </trkpt>
      <trkpt lat="45.99957" lon="6.28003">
        <ele>1022</ele>
        <time>2011-04-16T09:55:58Z</time>
      </trkpt>
      <trkpt lat="45.99952" lon="6.27989">
        <ele>1016</ele>
        <time>2011-04-16T09:56:01Z</time>
      </trkpt>
      <trkpt lat="45.99947" lon="6.27975">
        <ele>1016</ele>
        <time>2011-04-16T09:56:04Z</time>
      </trkpt>
      <trkpt lat="45.99942" lon="6.27959">
        <ele>1016</ele>
        <time>2011-04-16T09:56:07Z</time>
      </trkpt>
      <trkpt lat="45.99938" lon="6.27945">
        <ele>1009</ele>
        <time>2011-04-16T09:56:09Z</time>
      </trkpt>
      <trkpt lat="45.99934" lon="6.27929">
        <ele>1009</ele>
        <time>2011-04-16T09:56:11Z</time>
      </trkpt>
      <trkpt lat="45.9993" lon="6.27908">
        <ele>1009</ele>
        <time>2011-04-16T09:56:13Z</time>
      </trkpt>
      <trkpt lat="45.99926" lon="6.2789">
        <ele>1003</ele>
        <time>2011-04-16T09:56:15Z</time>
      </trkpt>
      <trkpt lat="45.99924" lon="6.27877">
        <ele>997</ele>
        <time>2011-04-16T09:56:17Z</time>
      </trkpt>
      <trkpt lat="45.99928" lon="6.27865">
        <ele>997</ele>
        <time>2011-04-16T09:56:19Z</time>
      </trkpt>
      <trkpt lat="45.99928" lon="6.27849">
        <ele>990</ele>
        <time>2011-04-16T09:56:22Z</time>
      </trkpt>
      <trkpt lat="45.99925" lon="6.27829">
        <ele>990</ele>
        <time>2011-04-16T09:56:25Z</time>
      </trkpt>
      <trkpt lat="45.99921" lon="6.27808">
        <ele>990</ele>
        <time>2011-04-16T09:56:27Z</time>
      </trkpt>
      <trkpt lat="45.99918" lon="6.27792">
        <ele>990</ele>
        <time>2011-04-16T09:56:29Z</time>
      </trkpt>
      <trkpt lat="45.99911" lon="6.2778">
        <ele>985</ele>
        <time>2011-04-16T09:56:31Z</time>
      </trkpt>
      <trkpt lat="45.99905" lon="6.27765">
        <ele>985</ele>
        <time>2011-04-16T09:56:33Z</time>
      </trkpt>
      <trkpt lat="45.99905" lon="6.27747">
        <ele>985</ele>
        <time>2011-04-16T09:56:35Z</time>
      </trkpt>
      <trkpt lat="45.999" lon="6.2773">
        <ele>979</ele>
        <time>2011-04-16T09:56:37Z</time>
      </trkpt>
      <trkpt lat="45.99891" lon="6.27718">
        <ele>979</ele>
        <time>2011-04-16T09:56:39Z</time>
      </trkpt>
      <trkpt lat="45.99883" lon="6.27707">
        <ele>979</ele>
        <time>2011-04-16T09:56:41Z</time>
      </trkpt>
      <trkpt lat="45.99874" lon="6.27701">
        <ele>979</ele>
        <time>2011-04-16T09:56:43Z</time>
      </trkpt>
      <trkpt lat="45.99865" lon="6.27695">
        <ele>973</ele>
        <time>2011-04-16T09:56:45Z</time>
      </trkpt>
      <trkpt lat="45.99858" lon="6.27683">
        <ele>973</ele>
        <time>2011-04-16T09:56:47Z</time>
      </trkpt>
      <trkpt lat="45.9985" lon="6.27664">
        <ele>973</ele>
        <time>2011-04-16T09:56:49Z</time>
      </trkpt>
      <trkpt lat="45.99846" lon="6.27644">
        <ele>973</ele>
        <time>2011-04-16T09:56:51Z</time>
      </trkpt>
      <trkpt lat="45.99847" lon="6.27629">
        <ele>973</ele>
        <time>2011-04-16T09:56:53Z</time>
      </trkpt>
      <trkpt lat="45.99853" lon="6.27612">
        <ele>966</ele>
        <time>2011-04-16T09:56:56Z</time>
      </trkpt>
      <trkpt lat="45.99858" lon="6.27594">
        <ele>966</ele>
        <time>2011-04-16T09:56:59Z</time>
      </trkpt>
      <trkpt lat="45.99863" lon="6.27577">
        <ele>966</ele>
        <time>2011-04-16T09:57:01Z</time>
      </trkpt>
      <trkpt lat="45.99864" lon="6.27561">
        <ele>959</ele>
        <time>2011-04-16T09:57:03Z</time>
      </trkpt>
      <trkpt lat="45.99863" lon="6.27548">
        <ele>950</ele>
        <time>2011-04-16T09:57:14Z</time>
      </trkpt>
      <trkpt lat="45.99854" lon="6.2754">
        <ele>950</ele>
        <time>2011-04-16T09:57:16Z</time>
      </trkpt>
      <trkpt lat="45.99843" lon="6.27533">
        <ele>950</ele>
        <time>2011-04-16T09:57:18Z</time>
      </trkpt>
      <trkpt lat="45.99832" lon="6.27521">
        <ele>950</ele>
        <time>2011-04-16T09:57:21Z</time>
      </trkpt>
      <trkpt lat="45.99824" lon="6.27508">
        <ele>950</ele>
        <time>2011-04-16T09:57:23Z</time>
      </trkpt>
      <trkpt lat="45.99816" lon="6.27498">
        <ele>950</ele>
        <time>2011-04-16T09:57:25Z</time>
      </trkpt>
      <trkpt lat="45.99802" lon="6.27482">
        <ele>950</ele>
        <time>2011-04-16T09:57:27Z</time>
      </trkpt>
      <trkpt lat="45.99788" lon="6.27466">
        <ele>950</ele>
        <time>2011-04-16T09:57:29Z</time>
      </trkpt>
      <trkpt lat="45.99777" lon="6.27451">
        <ele>956</ele>
        <time>2011-04-16T09:57:31Z</time>
      </trkpt>
      <trkpt lat="45.9977" lon="6.27434">
        <ele>956</ele>
        <time>2011-04-16T09:57:33Z</time>
      </trkpt>
      <trkpt lat="45.99769" lon="6.27414">
        <ele>963</ele>
        <time>2011-04-16T09:57:35Z</time>
      </trkpt>
      <trkpt lat="45.99765" lon="6.27391">
        <ele>969</ele>
        <time>2011-04-16T09:57:37Z</time>
      </trkpt>
      <trkpt lat="45.99759" lon="6.27372">
        <ele>975</ele>
        <time>2011-04-16T09:57:39Z</time>
      </trkpt>
      <trkpt lat="45.99749" lon="6.27356">
        <ele>975</ele>
        <time>2011-04-16T09:57:41Z</time>
      </trkpt>
      <trkpt lat="45.99736" lon="6.27341">
        <ele>975</ele>
        <time>2011-04-16T09:57:43Z</time>
      </trkpt>
      <trkpt lat="45.99724" lon="6.27323">
        <ele>982</ele>
        <time>2011-04-16T09:57:45Z</time>
      </trkpt>
      <trkpt lat="45.9972" lon="6.27298">
        <ele>982</ele>
        <time>2011-04-16T09:57:47Z</time>
      </trkpt>
      <trkpt lat="45.99715" lon="6.27286">
        <ele>982</ele>
        <time>2011-04-16T09:57:48Z</time>
      </trkpt>
      <trkpt lat="45.99706" lon="6.27263">
        <ele>982</ele>
        <time>2011-04-16T09:57:50Z</time>
      </trkpt>
      <trkpt lat="45.997" lon="6.27249">
        <ele>982</ele>
        <time>2011-04-16T09:57:52Z</time>
      </trkpt>
      <trkpt lat="45.99695" lon="6.27237">
        <ele>982</ele>
        <time>2011-04-16T09:57:54Z</time>
      </trkpt>
      <trkpt lat="45.99684" lon="6.27232">
        <ele>982</ele>
        <time>2011-04-16T09:57:56Z</time>
      </trkpt>
      <trkpt lat="45.99674" lon="6.27227">
        <ele>987</ele>
        <time>2011-04-16T09:57:58Z</time>
      </trkpt>
      <trkpt lat="45.99667" lon="6.2721">
        <ele>981</ele>
        <time>2011-04-16T09:58:30Z</time>
      </trkpt>
      <trkpt lat="45.9966" lon="6.27197">
        <ele>981</ele>
        <time>2011-04-16T09:58:32Z</time>
      </trkpt>
      <trkpt lat="45.99653" lon="6.27184">
        <ele>981</ele>
        <time>2011-04-16T09:58:34Z</time>
      </trkpt>
      <trkpt lat="45.99647" lon="6.2717">
        <ele>981</ele>
        <time>2011-04-16T09:58:37Z</time>
      </trkpt>
      <trkpt lat="45.99642" lon="6.27153">
        <ele>981</ele>
        <time>2011-04-16T09:58:40Z</time>
      </trkpt>
      <trkpt lat="45.99643" lon="6.27136">
        <ele>981</ele>
        <time>2011-04-16T09:58:42Z</time>
      </trkpt>
      <trkpt lat="45.99648" lon="6.2712">
        <ele>972</ele>
        <time>2011-04-16T09:58:44Z</time>
      </trkpt>
      <trkpt lat="45.99657" lon="6.27107">
        <ele>972</ele>
        <time>2011-04-16T09:58:46Z</time>
      </trkpt>
      <trkpt lat="45.99666" lon="6.27092">
        <ele>972</ele>
        <time>2011-04-16T09:58:48Z</time>
      </trkpt>
      <trkpt lat="45.99672" lon="6.27078">
        <ele>964</ele>
        <time>2011-04-16T09:58:50Z</time>
      </trkpt>
      <trkpt lat="45.99676" lon="6.27065">
        <ele>964</ele>
        <time>2011-04-16T09:58:52Z</time>
      </trkpt>
      <trkpt lat="45.99679" lon="6.27051">
        <ele>964</ele>
        <time>2011-04-16T09:58:55Z</time>
      </trkpt>
      <trkpt lat="45.99682" lon="6.27038">
        <ele>964</ele>
        <time>2011-04-16T09:59:02Z</time>
      </trkpt>
      <trkpt lat="45.99677" lon="6.2702">
        <ele>964</ele>
        <time>2011-04-16T09:59:05Z</time>
      </trkpt>
      <trkpt lat="45.9967" lon="6.27007">
        <ele>958</ele>
        <time>2011-04-16T09:59:07Z</time>
      </trkpt>
      <trkpt lat="45.9966" lon="6.26995">
        <ele>958</ele>
        <time>2011-04-16T09:59:09Z</time>
      </trkpt>
      <trkpt lat="45.99652" lon="6.26987">
        <ele>958</ele>
        <time>2011-04-16T09:59:11Z</time>
      </trkpt>
      <trkpt lat="45.99647" lon="6.26976">
        <ele>958</ele>
        <time>2011-04-16T09:59:13Z</time>
      </trkpt>
      <trkpt lat="45.99644" lon="6.26963">
        <ele>953</ele>
        <time>2011-04-16T09:59:15Z</time>
      </trkpt>
      <trkpt lat="45.99641" lon="6.26948">
        <ele>953</ele>
        <time>2011-04-16T09:59:17Z</time>
      </trkpt>
      <trkpt lat="45.99637" lon="6.26932">
        <ele>953</ele>
        <time>2011-04-16T09:59:20Z</time>
      </trkpt>
      <trkpt lat="45.99633" lon="6.26915">
        <ele>945</ele>
        <time>2011-04-16T09:59:23Z</time>
      </trkpt>
      <trkpt lat="45.9963" lon="6.26902">
        <ele>945</ele>
        <time>2011-04-16T09:59:25Z</time>
      </trkpt>
      <trkpt lat="45.99628" lon="6.26889">
        <ele>940</ele>
        <time>2011-04-16T09:59:29Z</time>
      </trkpt>
      <trkpt lat="45.99621" lon="6.26879">
        <ele>940</ele>
        <time>2011-04-16T09:59:32Z</time>
      </trkpt>
      <trkpt lat="45.99608" lon="6.26879">
        <ele>928</ele>
        <time>2011-04-16T09:59:37Z</time>
      </trkpt>
      <trkpt lat="45.99598" lon="6.26882">
        <ele>928</ele>
        <time>2011-04-16T09:59:40Z</time>
      </trkpt>
      <trkpt lat="45.99586" lon="6.26879">
        <ele>928</ele>
        <time>2011-04-16T09:59:43Z</time>
      </trkpt>
      <trkpt lat="45.99583" lon="6.26867">
        <ele>928</ele>
        <time>2011-04-16T09:59:46Z</time>
      </trkpt>
      <trkpt lat="45.99593" lon="6.26858">
        <ele>921</ele>
        <time>2011-04-16T09:59:50Z</time>
      </trkpt>
      <trkpt lat="45.99604" lon="6.26855">
        <ele>921</ele>
        <time>2011-04-16T09:59:54Z</time>
      </trkpt>
      <trkpt lat="45.99608" lon="6.26843">
        <ele>921</ele>
        <time>2011-04-16T10:00:08Z</time>
      </trkpt>
      <trkpt lat="45.99617" lon="6.26839">
        <ele>927</ele>
        <time>2011-04-16T10:00:20Z</time>
      </trkpt>
      <trkpt lat="45.99627" lon="6.26831">
        <ele>927</ele>
        <time>2011-04-16T10:00:29Z</time>
      </trkpt>
      <trkpt lat="45.99636" lon="6.26826">
        <ele>927</ele>
        <time>2011-04-16T10:00:31Z</time>
      </trkpt>
      <trkpt lat="45.99645" lon="6.26821">
        <ele>927</ele>
        <time>2011-04-16T10:00:33Z</time>
      </trkpt>
      <trkpt lat="45.99654" lon="6.26826">
        <ele>921</ele>
        <time>2011-04-16T10:00:58Z</time>
      </trkpt>
      <trkpt lat="45.99668" lon="6.26821">
        <ele>921</ele>
        <time>2011-04-16T10:01:04Z</time>
      </trkpt>
      <trkpt lat="45.9968" lon="6.26818">
        <ele>921</ele>
        <time>2011-04-16T10:01:06Z</time>
      </trkpt>
      <trkpt lat="45.99694" lon="6.26818">
        <ele>921</ele>
        <time>2011-04-16T10:01:08Z</time>
      </trkpt>
      <trkpt lat="45.99707" lon="6.26822">
        <ele>916</ele>
        <time>2011-04-16T10:01:10Z</time>
      </trkpt>
      <trkpt lat="45.99719" lon="6.26826">
        <ele>916</ele>
        <time>2011-04-16T10:01:12Z</time>
      </trkpt>
      <trkpt lat="45.99729" lon="6.26827">
        <ele>916</ele>
        <time>2011-04-16T10:01:14Z</time>
      </trkpt>
      <trkpt lat="45.99738" lon="6.26831">
        <ele>910</ele>
        <time>2011-04-16T10:01:27Z</time>
      </trkpt>
      <trkpt lat="45.99732" lon="6.2682">
        <ele>916</ele>
        <time>2011-04-16T10:02:00Z</time>
      </trkpt>
      <trkpt lat="45.9972" lon="6.26822">
        <ele>911</ele>
        <time>2011-04-16T10:02:20Z</time>
      </trkpt>
      <trkpt lat="45.99705" lon="6.26818">
        <ele>911</ele>
        <time>2011-04-16T10:02:23Z</time>
      </trkpt>
      <trkpt lat="45.9969" lon="6.26813">
        <ele>911</ele>
        <time>2011-04-16T10:02:25Z</time>
      </trkpt>
      <trkpt lat="45.99676" lon="6.26811">
        <ele>911</ele>
        <time>2011-04-16T10:02:27Z</time>
      </trkpt>
      <trkpt lat="45.99662" lon="6.26813">
        <ele>911</ele>
        <time>2011-04-16T10:02:29Z</time>
      </trkpt>
      <trkpt lat="45.9965" lon="6.26817">
        <ele>911</ele>
        <time>2011-04-16T10:02:31Z</time>
      </trkpt>
      <trkpt lat="45.9964" lon="6.26821">
        <ele>918</ele>
        <time>2011-04-16T10:02:33Z</time>
      </trkpt>
      <trkpt lat="45.99631" lon="6.26826">
        <ele>918</ele>
        <time>2011-04-16T10:02:36Z</time>
      </trkpt>
      <trkpt lat="45.99621" lon="6.2683">
        <ele>918</ele>
        <time>2011-04-16T10:02:39Z</time>
      </trkpt>
      <trkpt lat="45.99611" lon="6.26838">
        <ele>918</ele>
        <time>2011-04-16T10:02:46Z</time>
      </trkpt>
      <trkpt lat="45.99603" lon="6.26847">
        <ele>926</ele>
        <time>2011-04-16T10:02:59Z</time>
      </trkpt>
      <trkpt lat="45.99596" lon="6.26858">
        <ele>926</ele>
        <time>2011-04-16T10:03:33Z</time>
      </trkpt>
      <trkpt lat="45.99605" lon="6.26854">
        <ele>934</ele>
        <time>2011-04-16T10:04:21Z</time>
      </trkpt>
      <trkpt lat="45.99598" lon="6.26845">
        <ele>934</ele>
        <time>2011-04-16T10:04:32Z</time>
      </trkpt>
      <trkpt lat="45.99592" lon="6.26856">
        <ele>940</ele>
        <time>2011-04-16T10:05:30Z</time>
      </trkpt>
      <trkpt lat="45.99597" lon="6.26844">
        <ele>923</ele>
        <time>2011-04-16T10:07:36Z</time>
      </trkpt>
      <trkpt lat="45.99592" lon="6.26833">
        <ele>923</ele>
        <time>2011-04-16T10:12:03Z</time>
      </trkpt>
      <trkpt lat="45.99592" lon="6.26818">
        <ele>923</ele>
        <time>2011-04-16T10:12:07Z</time>
      </trkpt>
      <trkpt lat="45.99593" lon="6.26804">
        <ele>923</ele>
        <time>2011-04-16T10:12:17Z</time>
      </trkpt>
      <trkpt lat="45.99598" lon="6.26791">
        <ele>916</ele>
        <time>2011-04-16T10:12:21Z</time>
      </trkpt>
      <trkpt lat="45.99603" lon="6.2678">
        <ele>916</ele>
        <time>2011-04-16T10:12:25Z</time>
      </trkpt>
      <trkpt lat="45.9961" lon="6.26771">
        <ele>907</ele>
        <time>2011-04-16T10:12:29Z</time>
      </trkpt>
      <trkpt lat="45.99618" lon="6.26761">
        <ele>907</ele>
        <time>2011-04-16T10:12:32Z</time>
      </trkpt>
      <trkpt lat="45.99627" lon="6.2675">
        <ele>899</ele>
        <time>2011-04-16T10:12:36Z</time>
      </trkpt>
      <trkpt lat="45.99633" lon="6.2674">
        <ele>899</ele>
        <time>2011-04-16T10:12:39Z</time>
      </trkpt>
      <trkpt lat="45.99641" lon="6.26727">
        <ele>889</ele>
        <time>2011-04-16T10:12:43Z</time>
      </trkpt>
      <trkpt lat="45.99646" lon="6.26712">
        <ele>889</ele>
        <time>2011-04-16T10:12:48Z</time>
      </trkpt>
      <trkpt lat="45.99648" lon="6.26694">
        <ele>889</ele>
        <time>2011-04-16T10:13:03Z</time>
      </trkpt>
      <trkpt lat="45.99647" lon="6.26681">
        <ele>889</ele>
        <time>2011-04-16T10:13:05Z</time>
      </trkpt>
      <trkpt lat="45.99643" lon="6.26665">
        <ele>889</ele>
        <time>2011-04-16T10:13:07Z</time>
      </trkpt>
      <trkpt lat="45.99637" lon="6.2665">
        <ele>889</ele>
        <time>2011-04-16T10:13:09Z</time>
      </trkpt>
      <trkpt lat="45.9963" lon="6.26635">
        <ele>889</ele>
        <time>2011-04-16T10:13:11Z</time>
      </trkpt>
      <trkpt lat="45.99621" lon="6.26623">
        <ele>883</ele>
        <time>2011-04-16T10:13:13Z</time>
      </trkpt>
      <trkpt lat="45.9961" lon="6.26617">
        <ele>883</ele>
        <time>2011-04-16T10:13:15Z</time>
      </trkpt>
      <trkpt lat="45.99598" lon="6.26616">
        <ele>883</ele>
        <time>2011-04-16T10:13:17Z</time>
      </trkpt>
      <trkpt lat="45.99588" lon="6.26619">
        <ele>878</ele>
        <time>2011-04-16T10:13:19Z</time>
      </trkpt>
      <trkpt lat="45.99576" lon="6.26624">
        <ele>873</ele>
        <time>2011-04-16T10:13:21Z</time>
      </trkpt>
      <trkpt lat="45.99565" lon="6.26631">
        <ele>873</ele>
        <time>2011-04-16T10:13:23Z</time>
      </trkpt>
      <trkpt lat="45.99556" lon="6.26639">
        <ele>867</ele>
        <time>2011-04-16T10:13:25Z</time>
      </trkpt>
      <trkpt lat="45.99548" lon="6.26648">
        <ele>867</ele>
        <time>2011-04-16T10:13:27Z</time>
      </trkpt>
      <trkpt lat="45.99538" lon="6.26658">
        <ele>861</ele>
        <time>2011-04-16T10:13:29Z</time>
      </trkpt>
      <trkpt lat="45.99526" lon="6.26664">
        <ele>861</ele>
        <time>2011-04-16T10:13:31Z</time>
      </trkpt>
      <trkpt lat="45.99515" lon="6.26667">
        <ele>861</ele>
        <time>2011-04-16T10:13:33Z</time>
      </trkpt>
      <trkpt lat="45.99504" lon="6.26672">
        <ele>856</ele>
        <time>2011-04-16T10:13:35Z</time>
      </trkpt>
      <trkpt lat="45.99492" lon="6.2668">
        <ele>856</ele>
        <time>2011-04-16T10:13:37Z</time>
      </trkpt>
      <trkpt lat="45.99481" lon="6.26694">
        <ele>856</ele>
        <time>2011-04-16T10:13:39Z</time>
      </trkpt>
      <trkpt lat="45.99471" lon="6.26709">
        <ele>849</ele>
        <time>2011-04-16T10:13:41Z</time>
      </trkpt>
      <trkpt lat="45.99461" lon="6.26722">
        <ele>849</ele>
        <time>2011-04-16T10:13:43Z</time>
      </trkpt>
      <trkpt lat="45.99454" lon="6.26739">
        <ele>849</ele>
        <time>2011-04-16T10:13:45Z</time>
      </trkpt>
      <trkpt lat="45.99448" lon="6.26755">
        <ele>843</ele>
        <time>2011-04-16T10:13:47Z</time>
      </trkpt>
      <trkpt lat="45.99441" lon="6.26769">
        <ele>843</ele>
        <time>2011-04-16T10:13:49Z</time>
      </trkpt>
      <trkpt lat="45.99431" lon="6.26775">
        <ele>838</ele>
        <time>2011-04-16T10:13:51Z</time>
      </trkpt>
      <trkpt lat="45.99422" lon="6.26769">
        <ele>838</ele>
        <time>2011-04-16T10:13:53Z</time>
      </trkpt>
      <trkpt lat="45.99413" lon="6.26765">
        <ele>838</ele>
        <time>2011-04-16T10:13:55Z</time>
      </trkpt>
      <trkpt lat="45.99404" lon="6.26752">
        <ele>830</ele>
        <time>2011-04-16T10:13:58Z</time>
      </trkpt>
      <trkpt lat="45.99396" lon="6.26743">
        <ele>830</ele>
        <time>2011-04-16T10:14:00Z</time>
      </trkpt>
      <trkpt lat="45.99389" lon="6.26733">
        <ele>830</ele>
        <time>2011-04-16T10:14:02Z</time>
      </trkpt>
      <trkpt lat="45.99381" lon="6.26723">
        <ele>823</ele>
        <time>2011-04-16T10:14:04Z</time>
      </trkpt>
      <trkpt lat="45.9937" lon="6.26713">
        <ele>823</ele>
        <time>2011-04-16T10:14:06Z</time>
      </trkpt>
      <trkpt lat="45.99363" lon="6.267">
        <ele>817</ele>
        <time>2011-04-16T10:14:08Z</time>
      </trkpt>
      <trkpt lat="45.99355" lon="6.26685">
        <ele>817</ele>
        <time>2011-04-16T10:14:10Z</time>
      </trkpt>
      <trkpt lat="45.99351" lon="6.26668">
        <ele>817</ele>
        <time>2011-04-16T10:14:12Z</time>
      </trkpt>
      <trkpt lat="45.99345" lon="6.26652">
        <ele>811</ele>
        <time>2011-04-16T10:14:14Z</time>
      </trkpt>
      <trkpt lat="45.99338" lon="6.2664">
        <ele>811</ele>
        <time>2011-04-16T10:14:16Z</time>
      </trkpt>
      <trkpt lat="45.9933" lon="6.26625">
        <ele>805</ele>
        <time>2011-04-16T10:14:18Z</time>
      </trkpt>
      <trkpt lat="45.99322" lon="6.26609">
        <ele>799</ele>
        <time>2011-04-16T10:14:20Z</time>
      </trkpt>
      <trkpt lat="45.99316" lon="6.26592">
        <ele>799</ele>
        <time>2011-04-16T10:14:22Z</time>
      </trkpt>
      <trkpt lat="45.99308" lon="6.2658">
        <ele>791</ele>
        <time>2011-04-16T10:14:24Z</time>
      </trkpt>
      <trkpt lat="45.99297" lon="6.2657">
        <ele>791</ele>
        <time>2011-04-16T10:14:26Z</time>
      </trkpt>
      <trkpt lat="45.99283" lon="6.26566">
        <ele>785</ele>
        <time>2011-04-16T10:14:28Z</time>
      </trkpt>
      <trkpt lat="45.99269" lon="6.26563">
        <ele>785</ele>
        <time>2011-04-16T10:14:30Z</time>
      </trkpt>
      <trkpt lat="45.99253" lon="6.2656">
        <ele>785</ele>
        <time>2011-04-16T10:14:32Z</time>
      </trkpt>
      <trkpt lat="45.99238" lon="6.2656">
        <ele>777</ele>
        <time>2011-04-16T10:14:34Z</time>
      </trkpt>
      <trkpt lat="45.99223" lon="6.2656">
        <ele>777</ele>
        <time>2011-04-16T10:14:36Z</time>
      </trkpt>
      <trkpt lat="45.99209" lon="6.26559">
        <ele>770</ele>
        <time>2011-04-16T10:14:38Z</time>
      </trkpt>
      <trkpt lat="45.99195" lon="6.26554">
        <ele>770</ele>
        <time>2011-04-16T10:14:40Z</time>
      </trkpt>
      <trkpt lat="45.99181" lon="6.26551">
        <ele>763</ele>
        <time>2011-04-16T10:14:42Z</time>
      </trkpt>
      <trkpt lat="45.99166" lon="6.26544">
        <ele>763</ele>
        <time>2011-04-16T10:14:44Z</time>
      </trkpt>
      <trkpt lat="45.99154" lon="6.2654">
        <ele>755</ele>
        <time>2011-04-16T10:14:46Z</time>
      </trkpt>
      <trkpt lat="45.9914" lon="6.2654">
        <ele>750</ele>
        <time>2011-04-16T10:14:48Z</time>
      </trkpt>
      <trkpt lat="45.99125" lon="6.26544">
        <ele>745</ele>
        <time>2011-04-16T10:14:50Z</time>
      </trkpt>
      <trkpt lat="45.99111" lon="6.26547">
        <ele>745</ele>
        <time>2011-04-16T10:14:52Z</time>
      </trkpt>
      <trkpt lat="45.991" lon="6.26547">
        <ele>739</ele>
        <time>2011-04-16T10:14:54Z</time>
      </trkpt>
      <trkpt lat="45.99089" lon="6.26556">
        <ele>739</ele>
        <time>2011-04-16T10:14:57Z</time>
      </trkpt>
      <trkpt lat="45.99078" lon="6.26567">
        <ele>732</ele>
        <time>2011-04-16T10:15:00Z</time>
      </trkpt>
      <trkpt lat="45.99067" lon="6.26563">
        <ele>732</ele>
        <time>2011-04-16T10:15:03Z</time>
      </trkpt>
      <trkpt lat="45.99071" lon="6.2655">
        <ele>725</ele>
        <time>2011-04-16T10:15:07Z</time>
      </trkpt>
      <trkpt lat="45.99069" lon="6.26535">
        <ele>725</ele>
        <time>2011-04-16T10:15:11Z</time>
      </trkpt>
      <trkpt lat="45.99058" lon="6.26531">
        <ele>725</ele>
        <time>2011-04-16T10:15:13Z</time>
      </trkpt>
      <trkpt lat="45.99047" lon="6.26526">
        <ele>725</ele>
        <time>2011-04-16T10:15:15Z</time>
      </trkpt>
      <trkpt lat="45.99039" lon="6.26518">
        <ele>725</ele>
        <time>2011-04-16T10:15:17Z</time>
      </trkpt>
      <trkpt lat="45.99046" lon="6.26507">
        <ele>725</ele>
        <time>2011-04-16T10:18:21Z</time>
      </trkpt>
      <trkpt lat="45.99059" lon="6.26501">
        <ele>725</ele>
        <time>2011-04-16T10:18:23Z</time>
      </trkpt>
      <trkpt lat="45.99067" lon="6.26495">
        <ele>725</ele>
        <time>2011-04-16T10:18:24Z</time>
      </trkpt>
      <trkpt lat="45.99076" lon="6.26488">
        <ele>725</ele>
        <time>2011-04-16T10:18:25Z</time>
      </trkpt>
      <trkpt lat="45.99084" lon="6.26481">
        <ele>725</ele>
        <time>2011-04-16T10:18:26Z</time>
      </trkpt>
      <trkpt lat="45.99093" lon="6.26473">
        <ele>719</ele>
        <time>2011-04-16T10:18:27Z</time>
      </trkpt>
      <trkpt lat="45.99102" lon="6.26463">
        <ele>719</ele>
        <time>2011-04-16T10:18:28Z</time>
      </trkpt>
      <trkpt lat="45.99111" lon="6.26452">
        <ele>719</ele>
        <time>2011-04-16T10:18:29Z</time>
      </trkpt>
      <trkpt lat="45.99119" lon="6.26441">
        <ele>719</ele>
        <time>2011-04-16T10:18:30Z</time>
      </trkpt>
      <trkpt lat="45.99126" lon="6.26429">
        <ele>719</ele>
        <time>2011-04-16T10:18:31Z</time>
      </trkpt>
      <trkpt lat="45.99134" lon="6.26417">
        <ele>719</ele>
        <time>2011-04-16T10:18:32Z</time>
      </trkpt>
      <trkpt lat="45.99141" lon="6.26403">
        <ele>713</ele>
        <time>2011-04-16T10:18:33Z</time>
      </trkpt>
      <trkpt lat="45.99147" lon="6.26389">
        <ele>713</ele>
        <time>2011-04-16T10:18:34Z</time>
      </trkpt>
      <trkpt lat="45.99153" lon="6.26373">
        <ele>713</ele>
        <time>2011-04-16T10:18:35Z</time>
      </trkpt>
      <trkpt lat="45.99158" lon="6.26358">
        <ele>713</ele>
        <time>2011-04-16T10:18:36Z</time>
      </trkpt>
      <trkpt lat="45.99163" lon="6.26341">
        <ele>713</ele>
        <time>2011-04-16T10:18:37Z</time>
      </trkpt>
      <trkpt lat="45.99168" lon="6.26325">
        <ele>713</ele>
        <time>2011-04-16T10:18:38Z</time>
      </trkpt>
      <trkpt lat="45.99173" lon="6.26311">
        <ele>713</ele>
        <time>2011-04-16T10:18:39Z</time>
      </trkpt>
      <trkpt lat="45.99178" lon="6.26297">
        <ele>713</ele>
        <time>2011-04-16T10:18:40Z</time>
      </trkpt>
      <trkpt lat="45.99184" lon="6.26284">
        <ele>713</ele>
        <time>2011-04-16T10:18:41Z</time>
      </trkpt>
      <trkpt lat="45.9919" lon="6.26272">
        <ele>708</ele>
        <time>2011-04-16T10:18:42Z</time>
      </trkpt>
      <trkpt lat="45.99196" lon="6.26261">
        <ele>708</ele>
        <time>2011-04-16T10:18:43Z</time>
      </trkpt>
      <trkpt lat="45.99205" lon="6.2625">
        <ele>708</ele>
        <time>2011-04-16T10:18:44Z</time>
      </trkpt>
      <trkpt lat="45.99213" lon="6.26239">
        <ele>708</ele>
        <time>2011-04-16T10:18:45Z</time>
      </trkpt>
      <trkpt lat="45.99222" lon="6.26229">
        <ele>708</ele>
        <time>2011-04-16T10:18:46Z</time>
      </trkpt>
      <trkpt lat="45.99231" lon="6.26219">
        <ele>708</ele>
        <time>2011-04-16T10:18:47Z</time>
      </trkpt>
      <trkpt lat="45.99245" lon="6.26203">
        <ele>708</ele>
        <time>2011-04-16T10:18:49Z</time>
      </trkpt>
      <trkpt lat="45.99255" lon="6.26191">
        <ele>703</ele>
        <time>2011-04-16T10:18:51Z</time>
      </trkpt>
      <trkpt lat="45.99263" lon="6.26181">
        <ele>703</ele>
        <time>2011-04-16T10:18:54Z</time>
      </trkpt>
      <trkpt lat="45.99255" lon="6.26184">
        <ele>703</ele>
        <time>2011-04-16T10:23:58Z</time>
      </trkpt>
      <trkpt lat="45.99259" lon="6.26173">
        <ele>695</ele>
        <time>2011-04-16T10:24:52Z</time>
      </trkpt>
      <trkpt lat="45.99257" lon="6.26185">
        <ele>713</ele>
        <time>2011-04-16T10:25:53Z</time>
      </trkpt>
      <trkpt lat="45.99247" lon="6.26186">
        <ele>702</ele>
        <time>2011-04-16T10:26:16Z</time>
      </trkpt>
      <trkpt lat="45.99256" lon="6.26181">
        <ele>702</ele>
        <time>2011-04-16T10:26:26Z</time>
      </trkpt>
      <trkpt lat="45.99252" lon="6.26194">
        <ele>702</ele>
        <time>2011-04-16T10:26:32Z</time>
      </trkpt>
      <trkpt lat="45.99241" lon="6.26205">
        <ele>702</ele>
        <time>2011-04-16T10:26:34Z</time>
      </trkpt>
      <trkpt lat="45.99226" lon="6.2622">
        <ele>702</ele>
        <time>2011-04-16T10:26:36Z</time>
      </trkpt>
      <trkpt lat="45.99218" lon="6.2623">
        <ele>702</ele>
        <time>2011-04-16T10:26:37Z</time>
      </trkpt>
      <trkpt lat="45.9921" lon="6.2624">
        <ele>702</ele>
        <time>2011-04-16T10:26:38Z</time>
      </trkpt>
      <trkpt lat="45.99201" lon="6.26251">
        <ele>702</ele>
        <time>2011-04-16T10:26:39Z</time>
      </trkpt>
      <trkpt lat="45.99193" lon="6.26262">
        <ele>702</ele>
        <time>2011-04-16T10:26:40Z</time>
      </trkpt>
      <trkpt lat="45.99186" lon="6.26276">
        <ele>702</ele>
        <time>2011-04-16T10:26:41Z</time>
      </trkpt>
      <trkpt lat="45.99178" lon="6.26291">
        <ele>702</ele>
        <time>2011-04-16T10:26:42Z</time>
      </trkpt>
      <trkpt lat="45.99171" lon="6.26308">
        <ele>708</ele>
        <time>2011-04-16T10:26:43Z</time>
      </trkpt>
      <trkpt lat="45.99165" lon="6.26326">
        <ele>708</ele>
        <time>2011-04-16T10:26:44Z</time>
      </trkpt>
      <trkpt lat="45.99159" lon="6.26345">
        <ele>708</ele>
        <time>2011-04-16T10:26:45Z</time>
      </trkpt>
      <trkpt lat="45.99153" lon="6.26365">
        <ele>708</ele>
        <time>2011-04-16T10:26:46Z</time>
      </trkpt>
      <trkpt lat="45.99146" lon="6.26384">
        <ele>708</ele>
        <time>2011-04-16T10:26:47Z</time>
      </trkpt>
      <trkpt lat="45.99138" lon="6.26402">
        <ele>708</ele>
        <time>2011-04-16T10:26:48Z</time>
      </trkpt>
      <trkpt lat="45.99129" lon="6.2642">
        <ele>713</ele>
        <time>2011-04-16T10:26:49Z</time>
      </trkpt>
      <trkpt lat="45.99119" lon="6.26439">
        <ele>713</ele>
        <time>2011-04-16T10:26:50Z</time>
      </trkpt>
      <trkpt lat="45.99108" lon="6.26455">
        <ele>713</ele>
        <time>2011-04-16T10:26:51Z</time>
      </trkpt>
      <trkpt lat="45.99096" lon="6.26471">
        <ele>713</ele>
        <time>2011-04-16T10:26:52Z</time>
      </trkpt>
      <trkpt lat="45.99084" lon="6.26483">
        <ele>713</ele>
        <time>2011-04-16T10:26:53Z</time>
      </trkpt>
      <trkpt lat="45.99072" lon="6.26494">
        <ele>713</ele>
        <time>2011-04-16T10:26:54Z</time>
      </trkpt>
      <trkpt lat="45.99059" lon="6.26504">
        <ele>713</ele>
        <time>2011-04-16T10:26:55Z</time>
      </trkpt>
      <trkpt lat="45.99043" lon="6.2651">
        <ele>720</ele>
        <time>2011-04-16T10:26:56Z</time>
      </trkpt>
      <trkpt lat="45.99027" lon="6.26517">
        <ele>720</ele>
        <time>2011-04-16T10:26:57Z</time>
      </trkpt>
      <trkpt lat="45.99011" lon="6.26522">
        <ele>720</ele>
        <time>2011-04-16T10:26:58Z</time>
      </trkpt>
      <trkpt lat="45.98996" lon="6.26527">
        <ele>720</ele>
        <time>2011-04-16T10:26:59Z</time>
      </trkpt>
      <trkpt lat="45.98982" lon="6.26533">
        <ele>720</ele>
        <time>2011-04-16T10:27:00Z</time>
      </trkpt>
      <trkpt lat="45.98969" lon="6.26541">
        <ele>720</ele>
        <time>2011-04-16T10:27:01Z</time>
      </trkpt>
      <trkpt lat="45.98957" lon="6.26551">
        <ele>720</ele>
        <time>2011-04-16T10:27:02Z</time>
      </trkpt>
      <trkpt lat="45.98947" lon="6.26563">
        <ele>725</ele>
        <time>2011-04-16T10:27:03Z</time>
      </trkpt>
      <trkpt lat="45.98939" lon="6.2658">
        <ele>725</ele>
        <time>2011-04-16T10:27:04Z</time>
      </trkpt>
      <trkpt lat="45.98932" lon="6.26599">
        <ele>725</ele>
        <time>2011-04-16T10:27:05Z</time>
      </trkpt>
      <trkpt lat="45.98926" lon="6.2662">
        <ele>725</ele>
        <time>2011-04-16T10:27:06Z</time>
      </trkpt>
      <trkpt lat="45.98921" lon="6.26641">
        <ele>725</ele>
        <time>2011-04-16T10:27:07Z</time>
      </trkpt>
      <trkpt lat="45.98915" lon="6.26659">
        <ele>731</ele>
        <time>2011-04-16T10:27:08Z</time>
      </trkpt>
      <trkpt lat="45.9891" lon="6.26674">
        <ele>731</ele>
        <time>2011-04-16T10:27:09Z</time>
      </trkpt>
      <trkpt lat="45.98903" lon="6.26687">
        <ele>731</ele>
        <time>2011-04-16T10:27:10Z</time>
      </trkpt>
      <trkpt lat="45.98897" lon="6.26702">
        <ele>731</ele>
        <time>2011-04-16T10:27:11Z</time>
      </trkpt>
      <trkpt lat="45.98891" lon="6.26717">
        <ele>731</ele>
        <time>2011-04-16T10:27:12Z</time>
      </trkpt>
      <trkpt lat="45.98888" lon="6.26735">
        <ele>731</ele>
        <time>2011-04-16T10:27:13Z</time>
      </trkpt>
      <trkpt lat="45.98886" lon="6.26755">
        <ele>731</ele>
        <time>2011-04-16T10:27:14Z</time>
      </trkpt>
      <trkpt lat="45.98886" lon="6.26775">
        <ele>731</ele>
        <time>2011-04-16T10:27:15Z</time>
      </trkpt>
      <trkpt lat="45.98884" lon="6.26797">
        <ele>731</ele>
        <time>2011-04-16T10:27:16Z</time>
      </trkpt>
      <trkpt lat="45.98881" lon="6.26818">
        <ele>731</ele>
        <time>2011-04-16T10:27:17Z</time>
      </trkpt>
      <trkpt lat="45.98877" lon="6.26841">
        <ele>731</ele>
        <time>2011-04-16T10:27:18Z</time>
      </trkpt>
      <trkpt lat="45.98873" lon="6.26863">
        <ele>731</ele>
        <time>2011-04-16T10:27:19Z</time>
      </trkpt>
      <trkpt lat="45.98867" lon="6.26888">
        <ele>737</ele>
        <time>2011-04-16T10:27:20Z</time>
      </trkpt>
      <trkpt lat="45.9886" lon="6.26911">
        <ele>737</ele>
        <time>2011-04-16T10:27:21Z</time>
      </trkpt>
      <trkpt lat="45.9885" lon="6.26934">
        <ele>737</ele>
        <time>2011-04-16T10:27:22Z</time>
      </trkpt>
      <trkpt lat="45.9884" lon="6.26959">
        <ele>737</ele>
        <time>2011-04-16T10:27:23Z</time>
      </trkpt>
      <trkpt lat="45.9883" lon="6.26986">
        <ele>737</ele>
        <time>2011-04-16T10:27:24Z</time>
      </trkpt>
      <trkpt lat="45.98821" lon="6.27015">
        <ele>737</ele>
        <time>2011-04-16T10:27:25Z</time>
      </trkpt>
      <trkpt lat="45.98813" lon="6.27045">
        <ele>737</ele>
        <time>2011-04-16T10:27:26Z</time>
      </trkpt>
      <trkpt lat="45.98805" lon="6.27074">
        <ele>737</ele>
        <time>2011-04-16T10:27:27Z</time>
      </trkpt>
      <trkpt lat="45.98798" lon="6.27105">
        <ele>737</ele>
        <time>2011-04-16T10:27:28Z</time>
      </trkpt>
      <trkpt lat="45.98791" lon="6.27134">
        <ele>737</ele>
        <time>2011-04-16T10:27:29Z</time>
      </trkpt>
      <trkpt lat="45.98782" lon="6.27161">
        <ele>737</ele>
        <time>2011-04-16T10:27:30Z</time>
      </trkpt>
      <trkpt lat="45.98773" lon="6.27187">
        <ele>737</ele>
        <time>2011-04-16T10:27:31Z</time>
      </trkpt>
      <trkpt lat="45.98762" lon="6.27213">
        <ele>737</ele>
        <time>2011-04-16T10:27:32Z</time>
      </trkpt>
      <trkpt lat="45.98753" lon="6.27237">
        <ele>737</ele>
        <time>2011-04-16T10:27:33Z</time>
      </trkpt>
      <trkpt lat="45.98743" lon="6.27261">
        <ele>737</ele>
        <time>2011-04-16T10:27:34Z</time>
      </trkpt>
      <trkpt lat="45.98733" lon="6.27286">
        <ele>737</ele>
        <time>2011-04-16T10:27:35Z</time>
      </trkpt>
      <trkpt lat="45.98722" lon="6.2731">
        <ele>737</ele>
        <time>2011-04-16T10:27:36Z</time>
      </trkpt>
      <trkpt lat="45.98711" lon="6.27333">
        <ele>737</ele>
        <time>2011-04-16T10:27:37Z</time>
      </trkpt>
      <trkpt lat="45.98698" lon="6.27356">
        <ele>737</ele>
        <time>2011-04-16T10:27:38Z</time>
      </trkpt>
      <trkpt lat="45.98684" lon="6.27377">
        <ele>737</ele>
        <time>2011-04-16T10:27:39Z</time>
      </trkpt>
      <trkpt lat="45.9867" lon="6.27396">
        <ele>737</ele>
        <time>2011-04-16T10:27:40Z</time>
      </trkpt>
      <trkpt lat="45.98658" lon="6.27414">
        <ele>737</ele>
        <time>2011-04-16T10:27:41Z</time>
      </trkpt>
      <trkpt lat="45.98646" lon="6.27433">
        <ele>737</ele>
        <time>2011-04-16T10:27:42Z</time>
      </trkpt>
      <trkpt lat="45.98635" lon="6.27453">
        <ele>737</ele>
        <time>2011-04-16T10:27:43Z</time>
      </trkpt>
      <trkpt lat="45.98625" lon="6.27472">
        <ele>742</ele>
        <time>2011-04-16T10:27:44Z</time>
      </trkpt>
      <trkpt lat="45.98617" lon="6.27493">
        <ele>742</ele>
        <time>2011-04-16T10:27:45Z</time>
      </trkpt>
      <trkpt lat="45.9861" lon="6.27515">
        <ele>742</ele>
        <time>2011-04-16T10:27:46Z</time>
      </trkpt>
      <trkpt lat="45.98604" lon="6.27541">
        <ele>742</ele>
        <time>2011-04-16T10:27:47Z</time>
      </trkpt>
      <trkpt lat="45.98598" lon="6.27566">
        <ele>742</ele>
        <time>2011-04-16T10:27:48Z</time>
      </trkpt>
      <trkpt lat="45.98593" lon="6.27591">
        <ele>742</ele>
        <time>2011-04-16T10:27:49Z</time>
      </trkpt>
      <trkpt lat="45.98588" lon="6.27616">
        <ele>747</ele>
        <time>2011-04-16T10:27:50Z</time>
      </trkpt>
      <trkpt lat="45.98584" lon="6.2764">
        <ele>747</ele>
        <time>2011-04-16T10:27:51Z</time>
      </trkpt>
      <trkpt lat="45.98582" lon="6.27667">
        <ele>747</ele>
        <time>2011-04-16T10:27:52Z</time>
      </trkpt>
      <trkpt lat="45.98581" lon="6.27694">
        <ele>747</ele>
        <time>2011-04-16T10:27:53Z</time>
      </trkpt>
      <trkpt lat="45.98582" lon="6.27722">
        <ele>747</ele>
        <time>2011-04-16T10:27:54Z</time>
      </trkpt>
      <trkpt lat="45.98583" lon="6.27748">
        <ele>753</ele>
        <time>2011-04-16T10:27:55Z</time>
      </trkpt>
      <trkpt lat="45.98585" lon="6.27771">
        <ele>753</ele>
        <time>2011-04-16T10:27:56Z</time>
      </trkpt>
      <trkpt lat="45.98585" lon="6.2779">
        <ele>753</ele>
        <time>2011-04-16T10:27:57Z</time>
      </trkpt>
      <trkpt lat="45.98583" lon="6.27808">
        <ele>753</ele>
        <time>2011-04-16T10:27:58Z</time>
      </trkpt>
      <trkpt lat="45.9858" lon="6.27825">
        <ele>753</ele>
        <time>2011-04-16T10:27:59Z</time>
      </trkpt>
      <trkpt lat="45.98572" lon="6.2784">
        <ele>758</ele>
        <time>2011-04-16T10:28:00Z</time>
      </trkpt>
      <trkpt lat="45.98563" lon="6.27851">
        <ele>758</ele>
        <time>2011-04-16T10:28:01Z</time>
      </trkpt>
      <trkpt lat="45.98552" lon="6.2786">
        <ele>758</ele>
        <time>2011-04-16T10:28:02Z</time>
      </trkpt>
      <trkpt lat="45.9854" lon="6.27868">
        <ele>758</ele>
        <time>2011-04-16T10:28:03Z</time>
      </trkpt>
      <trkpt lat="45.98527" lon="6.27872">
        <ele>758</ele>
        <time>2011-04-16T10:28:04Z</time>
      </trkpt>
      <trkpt lat="45.98515" lon="6.27878">
        <ele>758</ele>
        <time>2011-04-16T10:28:05Z</time>
      </trkpt>
      <trkpt lat="45.98502" lon="6.27884">
        <ele>758</ele>
        <time>2011-04-16T10:28:06Z</time>
      </trkpt>
      <trkpt lat="45.98491" lon="6.27892">
        <ele>758</ele>
        <time>2011-04-16T10:28:07Z</time>
      </trkpt>
      <trkpt lat="45.98481" lon="6.27902">
        <ele>758</ele>
        <time>2011-04-16T10:28:08Z</time>
      </trkpt>
      <trkpt lat="45.98471" lon="6.27913">
        <ele>764</ele>
        <time>2011-04-16T10:28:09Z</time>
      </trkpt>
      <trkpt lat="45.98463" lon="6.27928">
        <ele>764</ele>
        <time>2011-04-16T10:28:10Z</time>
      </trkpt>
      <trkpt lat="45.98454" lon="6.27943">
        <ele>764</ele>
        <time>2011-04-16T10:28:11Z</time>
      </trkpt>
      <trkpt lat="45.98444" lon="6.27959">
        <ele>764</ele>
        <time>2011-04-16T10:28:12Z</time>
      </trkpt>
      <trkpt lat="45.98435" lon="6.27975">
        <ele>764</ele>
        <time>2011-04-16T10:28:13Z</time>
      </trkpt>
      <trkpt lat="45.98426" lon="6.2799">
        <ele>764</ele>
        <time>2011-04-16T10:28:14Z</time>
      </trkpt>
      <trkpt lat="45.98417" lon="6.28005">
        <ele>764</ele>
        <time>2011-04-16T10:28:15Z</time>
      </trkpt>
      <trkpt lat="45.9841" lon="6.2802">
        <ele>764</ele>
        <time>2011-04-16T10:28:16Z</time>
      </trkpt>
      <trkpt lat="45.98405" lon="6.28037">
        <ele>764</ele>
        <time>2011-04-16T10:28:17Z</time>
      </trkpt>
      <trkpt lat="45.98402" lon="6.28055">
        <ele>764</ele>
        <time>2011-04-16T10:28:18Z</time>
      </trkpt>
      <trkpt lat="45.98401" lon="6.28074">
        <ele>764</ele>
        <time>2011-04-16T10:28:19Z</time>
      </trkpt>
      <trkpt lat="45.98401" lon="6.28094">
        <ele>764</ele>
        <time>2011-04-16T10:28:20Z</time>
      </trkpt>
      <trkpt lat="45.984" lon="6.28112">
        <ele>764</ele>
        <time>2011-04-16T10:28:21Z</time>
      </trkpt>
      <trkpt lat="45.98398" lon="6.28128">
        <ele>764</ele>
        <time>2011-04-16T10:28:22Z</time>
      </trkpt>
      <trkpt lat="45.98394" lon="6.28144">
        <ele>764</ele>
        <time>2011-04-16T10:28:23Z</time>
      </trkpt>
      <trkpt lat="45.98387" lon="6.28159">
        <ele>764</ele>
        <time>2011-04-16T10:28:24Z</time>
      </trkpt>
      <trkpt lat="45.98379" lon="6.28174">
        <ele>764</ele>
        <time>2011-04-16T10:28:25Z</time>
      </trkpt>
      <trkpt lat="45.98369" lon="6.28187">
        <ele>764</ele>
        <time>2011-04-16T10:28:26Z</time>
      </trkpt>
      <trkpt lat="45.98357" lon="6.28199">
        <ele>764</ele>
        <time>2011-04-16T10:28:27Z</time>
      </trkpt>
      <trkpt lat="45.98343" lon="6.2821">
        <ele>764</ele>
        <time>2011-04-16T10:28:28Z</time>
      </trkpt>
      <trkpt lat="45.98329" lon="6.28222">
        <ele>764</ele>
        <time>2011-04-16T10:28:29Z</time>
      </trkpt>
      <trkpt lat="45.98313" lon="6.28233">
        <ele>769</ele>
        <time>2011-04-16T10:28:30Z</time>
      </trkpt>
      <trkpt lat="45.98298" lon="6.28244">
        <ele>769</ele>
        <time>2011-04-16T10:28:31Z</time>
      </trkpt>
      <trkpt lat="45.98282" lon="6.28253">
        <ele>769</ele>
        <time>2011-04-16T10:28:32Z</time>
      </trkpt>
      <trkpt lat="45.98267" lon="6.28259">
        <ele>769</ele>
        <time>2011-04-16T10:28:33Z</time>
      </trkpt>
      <trkpt lat="45.98253" lon="6.28264">
        <ele>769</ele>
        <time>2011-04-16T10:28:34Z</time>
      </trkpt>
      <trkpt lat="45.98238" lon="6.2827">
        <ele>769</ele>
        <time>2011-04-16T10:28:35Z</time>
      </trkpt>
      <trkpt lat="45.98225" lon="6.28279">
        <ele>769</ele>
        <time>2011-04-16T10:28:36Z</time>
      </trkpt>
      <trkpt lat="45.98211" lon="6.28289">
        <ele>769</ele>
        <time>2011-04-16T10:28:37Z</time>
      </trkpt>
      <trkpt lat="45.982" lon="6.28299">
        <ele>769</ele>
        <time>2011-04-16T10:28:38Z</time>
      </trkpt>
      <trkpt lat="45.98188" lon="6.28307">
        <ele>769</ele>
        <time>2011-04-16T10:28:39Z</time>
      </trkpt>
      <trkpt lat="45.98179" lon="6.28313">
        <ele>769</ele>
        <time>2011-04-16T10:28:40Z</time>
      </trkpt>
      <trkpt lat="45.98164" lon="6.28319">
        <ele>769</ele>
        <time>2011-04-16T10:28:42Z</time>
      </trkpt>
      <trkpt lat="45.98154" lon="6.28322">
        <ele>769</ele>
        <time>2011-04-16T10:28:45Z</time>
      </trkpt>
      <trkpt lat="45.98143" lon="6.2832">
        <ele>769</ele>
        <time>2011-04-16T10:28:50Z</time>
      </trkpt>
      <trkpt lat="45.98132" lon="6.2832">
        <ele>769</ele>
        <time>2011-04-16T10:28:52Z</time>
      </trkpt>
      <trkpt lat="45.98119" lon="6.28318">
        <ele>769</ele>
        <time>2011-04-16T10:28:54Z</time>
      </trkpt>
      <trkpt lat="45.98102" lon="6.28313">
        <ele>774</ele>
        <time>2011-04-16T10:28:56Z</time>
      </trkpt>
      <trkpt lat="45.98091" lon="6.28311">
        <ele>774</ele>
        <time>2011-04-16T10:28:57Z</time>
      </trkpt>
      <trkpt lat="45.98081" lon="6.28308">
        <ele>774</ele>
        <time>2011-04-16T10:28:58Z</time>
      </trkpt>
      <trkpt lat="45.98069" lon="6.28307">
        <ele>774</ele>
        <time>2011-04-16T10:28:59Z</time>
      </trkpt>
      <trkpt lat="45.98057" lon="6.28308">
        <ele>774</ele>
        <time>2011-04-16T10:29:00Z</time>
      </trkpt>
      <trkpt lat="45.98045" lon="6.28311">
        <ele>774</ele>
        <time>2011-04-16T10:29:01Z</time>
      </trkpt>
      <trkpt lat="45.98033" lon="6.28317">
        <ele>774</ele>
        <time>2011-04-16T10:29:02Z</time>
      </trkpt>
      <trkpt lat="45.9802" lon="6.28325">
        <ele>774</ele>
        <time>2011-04-16T10:29:03Z</time>
      </trkpt>
      <trkpt lat="45.98007" lon="6.28335">
        <ele>774</ele>
        <time>2011-04-16T10:29:04Z</time>
      </trkpt>
      <trkpt lat="45.97994" lon="6.28346">
        <ele>774</ele>
        <time>2011-04-16T10:29:05Z</time>
      </trkpt>
      <trkpt lat="45.9798" lon="6.28357">
        <ele>774</ele>
        <time>2011-04-16T10:29:06Z</time>
      </trkpt>
      <trkpt lat="45.97967" lon="6.28368">
        <ele>774</ele>
        <time>2011-04-16T10:29:07Z</time>
      </trkpt>
      <trkpt lat="45.97952" lon="6.28379">
        <ele>774</ele>
        <time>2011-04-16T10:29:08Z</time>
      </trkpt>
      <trkpt lat="45.97937" lon="6.2839">
        <ele>774</ele>
        <time>2011-04-16T10:29:09Z</time>
      </trkpt>
      <trkpt lat="45.97922" lon="6.28399">
        <ele>774</ele>
        <time>2011-04-16T10:29:10Z</time>
      </trkpt>
      <trkpt lat="45.97908" lon="6.28408">
        <ele>774</ele>
        <time>2011-04-16T10:29:11Z</time>
      </trkpt>
      <trkpt lat="45.97894" lon="6.28417">
        <ele>774</ele>
        <time>2011-04-16T10:29:12Z</time>
      </trkpt>
      <trkpt lat="45.9788" lon="6.28425">
        <ele>774</ele>
        <time>2011-04-16T10:29:13Z</time>
      </trkpt>
      <trkpt lat="45.97867" lon="6.28434">
        <ele>774</ele>
        <time>2011-04-16T10:29:14Z</time>
      </trkpt>
      <trkpt lat="45.97854" lon="6.28442">
        <ele>774</ele>
        <time>2011-04-16T10:29:15Z</time>
      </trkpt>
      <trkpt lat="45.97842" lon="6.28451">
        <ele>774</ele>
        <time>2011-04-16T10:29:16Z</time>
      </trkpt>
      <trkpt lat="45.9783" lon="6.2846">
        <ele>774</ele>
        <time>2011-04-16T10:29:17Z</time>
      </trkpt>
      <trkpt lat="45.97818" lon="6.2847">
        <ele>774</ele>
        <time>2011-04-16T10:29:18Z</time>
      </trkpt>
      <trkpt lat="45.97807" lon="6.28482">
        <ele>774</ele>
        <time>2011-04-16T10:29:19Z</time>
      </trkpt>
      <trkpt lat="45.97797" lon="6.28496">
        <ele>774</ele>
        <time>2011-04-16T10:29:20Z</time>
      </trkpt>
      <trkpt lat="45.97787" lon="6.28512">
        <ele>774</ele>
        <time>2011-04-16T10:29:21Z</time>
      </trkpt>
      <trkpt lat="45.97777" lon="6.28529">
        <ele>774</ele>
        <time>2011-04-16T10:29:22Z</time>
      </trkpt>
      <trkpt lat="45.97767" lon="6.28548">
        <ele>774</ele>
        <time>2011-04-16T10:29:23Z</time>
      </trkpt>
      <trkpt lat="45.97757" lon="6.28567">
        <ele>774</ele>
        <time>2011-04-16T10:29:24Z</time>
      </trkpt>
      <trkpt lat="45.97746" lon="6.28587">
        <ele>774</ele>
        <time>2011-04-16T10:29:25Z</time>
      </trkpt>
      <trkpt lat="45.97737" lon="6.28607">
        <ele>774</ele>
        <time>2011-04-16T10:29:26Z</time>
      </trkpt>
      <trkpt lat="45.97726" lon="6.28624">
        <ele>774</ele>
        <time>2011-04-16T10:29:27Z</time>
      </trkpt>
      <trkpt lat="45.97715" lon="6.28639">
        <ele>774</ele>
        <time>2011-04-16T10:29:28Z</time>
      </trkpt>
      <trkpt lat="45.97703" lon="6.28652">
        <ele>774</ele>
        <time>2011-04-16T10:29:29Z</time>
      </trkpt>
      <trkpt lat="45.9769" lon="6.28663">
        <ele>774</ele>
        <time>2011-04-16T10:29:30Z</time>
      </trkpt>
      <trkpt lat="45.97675" lon="6.28673">
        <ele>774</ele>
        <time>2011-04-16T10:29:31Z</time>
      </trkpt>
      <trkpt lat="45.9766" lon="6.28682">
        <ele>774</ele>
        <time>2011-04-16T10:29:32Z</time>
      </trkpt>
      <trkpt lat="45.97644" lon="6.2869">
        <ele>774</ele>
        <time>2011-04-16T10:29:33Z</time>
      </trkpt>
      <trkpt lat="45.97628" lon="6.28698">
        <ele>774</ele>
        <time>2011-04-16T10:29:34Z</time>
      </trkpt>
      <trkpt lat="45.97611" lon="6.28704">
        <ele>774</ele>
        <time>2011-04-16T10:29:35Z</time>
      </trkpt>
      <trkpt lat="45.97595" lon="6.28708">
        <ele>774</ele>
        <time>2011-04-16T10:29:36Z</time>
      </trkpt>
      <trkpt lat="45.97578" lon="6.28713">
        <ele>774</ele>
        <time>2011-04-16T10:29:37Z</time>
      </trkpt>
      <trkpt lat="45.97561" lon="6.28718">
        <ele>774</ele>
        <time>2011-04-16T10:29:38Z</time>
      </trkpt>
      <trkpt lat="45.97544" lon="6.28725">
        <ele>779</ele>
        <time>2011-04-16T10:29:39Z</time>
      </trkpt>
      <trkpt lat="45.97528" lon="6.28732">
        <ele>779</ele>
        <time>2011-04-16T10:29:40Z</time>
      </trkpt>
      <trkpt lat="45.97513" lon="6.28741">
        <ele>779</ele>
        <time>2011-04-16T10:29:41Z</time>
      </trkpt>
      <trkpt lat="45.97499" lon="6.2875">
        <ele>779</ele>
        <time>2011-04-16T10:29:42Z</time>
      </trkpt>
      <trkpt lat="45.97485" lon="6.28758">
        <ele>779</ele>
        <time>2011-04-16T10:29:43Z</time>
      </trkpt>
      <trkpt lat="45.97473" lon="6.28767">
        <ele>779</ele>
        <time>2011-04-16T10:29:44Z</time>
      </trkpt>
      <trkpt lat="45.97462" lon="6.28774">
        <ele>779</ele>
        <time>2011-04-16T10:29:45Z</time>
      </trkpt>
      <trkpt lat="45.97452" lon="6.28782">
        <ele>779</ele>
        <time>2011-04-16T10:29:46Z</time>
      </trkpt>
      <trkpt lat="45.97444" lon="6.28788">
        <ele>779</ele>
        <time>2011-04-16T10:29:47Z</time>
      </trkpt>
      <trkpt lat="45.97435" lon="6.28798">
        <ele>779</ele>
        <time>2011-04-16T10:29:49Z</time>
      </trkpt>
      <trkpt lat="45.9743" lon="6.28783">
        <ele>785</ele>
        <time>2011-04-16T10:30:15Z</time>
      </trkpt>
      <trkpt lat="45.9742" lon="6.28783">
        <ele>785</ele>
        <time>2011-04-16T10:30:17Z</time>
      </trkpt>
      <trkpt lat="45.97411" lon="6.28788">
        <ele>785</ele>
        <time>2011-04-16T10:30:18Z</time>
      </trkpt>
      <trkpt lat="45.97402" lon="6.28793">
        <ele>785</ele>
        <time>2011-04-16T10:30:19Z</time>
      </trkpt>
      <trkpt lat="45.97393" lon="6.288">
        <ele>785</ele>
        <time>2011-04-16T10:30:20Z</time>
      </trkpt>
      <trkpt lat="45.97385" lon="6.28808">
        <ele>785</ele>
        <time>2011-04-16T10:30:21Z</time>
      </trkpt>
      <trkpt lat="45.97376" lon="6.28816">
        <ele>785</ele>
        <time>2011-04-16T10:30:22Z</time>
      </trkpt>
      <trkpt lat="45.97367" lon="6.28822">
        <ele>785</ele>
        <time>2011-04-16T10:30:23Z</time>
      </trkpt>
      <trkpt lat="45.97357" lon="6.28826">
        <ele>785</ele>
        <time>2011-04-16T10:30:24Z</time>
      </trkpt>
      <trkpt lat="45.97347" lon="6.28831">
        <ele>785</ele>
        <time>2011-04-16T10:30:25Z</time>
      </trkpt>
      <trkpt lat="45.97337" lon="6.28835">
        <ele>779</ele>
        <time>2011-04-16T10:30:26Z</time>
      </trkpt>
      <trkpt lat="45.97326" lon="6.2884">
        <ele>779</ele>
        <time>2011-04-16T10:30:27Z</time>
      </trkpt>
      <trkpt lat="45.97316" lon="6.28845">
        <ele>779</ele>
        <time>2011-04-16T10:30:28Z</time>
      </trkpt>
      <trkpt lat="45.97306" lon="6.28849">
        <ele>779</ele>
        <time>2011-04-16T10:30:29Z</time>
      </trkpt>
      <trkpt lat="45.97294" lon="6.28854">
        <ele>779</ele>
        <time>2011-04-16T10:30:30Z</time>
      </trkpt>
      <trkpt lat="45.97283" lon="6.28859">
        <ele>779</ele>
        <time>2011-04-16T10:30:31Z</time>
      </trkpt>
      <trkpt lat="45.97272" lon="6.28866">
        <ele>779</ele>
        <time>2011-04-16T10:30:32Z</time>
      </trkpt>
      <trkpt lat="45.9726" lon="6.28872">
        <ele>779</ele>
        <time>2011-04-16T10:30:33Z</time>
      </trkpt>
      <trkpt lat="45.97248" lon="6.28879">
        <ele>779</ele>
        <time>2011-04-16T10:30:34Z</time>
      </trkpt>
      <trkpt lat="45.97236" lon="6.28887">
        <ele>779</ele>
        <time>2011-04-16T10:30:35Z</time>
      </trkpt>
      <trkpt lat="45.97223" lon="6.28895">
        <ele>779</ele>
        <time>2011-04-16T10:30:36Z</time>
      </trkpt>
      <trkpt lat="45.97211" lon="6.28902">
        <ele>779</ele>
        <time>2011-04-16T10:30:37Z</time>
      </trkpt>
      <trkpt lat="45.97199" lon="6.2891">
        <ele>779</ele>
        <time>2011-04-16T10:30:38Z</time>
      </trkpt>
      <trkpt lat="45.97187" lon="6.28915">
        <ele>774</ele>
        <time>2011-04-16T10:30:39Z</time>
      </trkpt>
      <trkpt lat="45.97175" lon="6.2892">
        <ele>774</ele>
        <time>2011-04-16T10:30:40Z</time>
      </trkpt>
      <trkpt lat="45.97163" lon="6.28926">
        <ele>774</ele>
        <time>2011-04-16T10:30:41Z</time>
      </trkpt>
      <trkpt lat="45.97151" lon="6.2893">
        <ele>774</ele>
        <time>2011-04-16T10:30:42Z</time>
      </trkpt>
      <trkpt lat="45.97139" lon="6.28935">
        <ele>774</ele>
        <time>2011-04-16T10:30:43Z</time>
      </trkpt>
      <trkpt lat="45.97128" lon="6.28938">
        <ele>774</ele>
        <time>2011-04-16T10:30:44Z</time>
      </trkpt>
      <trkpt lat="45.97117" lon="6.2894">
        <ele>774</ele>
        <time>2011-04-16T10:30:45Z</time>
      </trkpt>
      <trkpt lat="45.97107" lon="6.28943">
        <ele>774</ele>
        <time>2011-04-16T10:30:46Z</time>
      </trkpt>
      <trkpt lat="45.97098" lon="6.28945">
        <ele>774</ele>
        <time>2011-04-16T10:30:47Z</time>
      </trkpt>
      <trkpt lat="45.97082" lon="6.28948">
        <ele>774</ele>
        <time>2011-04-16T10:30:49Z</time>
      </trkpt>
      <trkpt lat="45.97065" lon="6.28949">
        <ele>774</ele>
        <time>2011-04-16T10:30:51Z</time>
      </trkpt>
      <trkpt lat="45.97049" lon="6.2895">
        <ele>774</ele>
        <time>2011-04-16T10:30:53Z</time>
      </trkpt>
      <trkpt lat="45.97034" lon="6.28949">
        <ele>774</ele>
        <time>2011-04-16T10:30:55Z</time>
      </trkpt>
      <trkpt lat="45.9702" lon="6.2895">
        <ele>774</ele>
        <time>2011-04-16T10:30:57Z</time>
      </trkpt>
      <trkpt lat="45.97006" lon="6.28951">
        <ele>774</ele>
        <time>2011-04-16T10:30:59Z</time>
      </trkpt>
      <trkpt lat="45.9699" lon="6.28956">
        <ele>774</ele>
        <time>2011-04-16T10:31:01Z</time>
      </trkpt>
      <trkpt lat="45.96978" lon="6.28966">
        <ele>774</ele>
        <time>2011-04-16T10:31:03Z</time>
      </trkpt>
      <trkpt lat="45.96968" lon="6.28977">
        <ele>774</ele>
        <time>2011-04-16T10:31:05Z</time>
      </trkpt>
      <trkpt lat="45.96958" lon="6.28979">
        <ele>766</ele>
        <time>2011-04-16T10:31:07Z</time>
      </trkpt>
      <trkpt lat="45.96949" lon="6.28967">
        <ele>766</ele>
        <time>2011-04-16T10:31:09Z</time>
      </trkpt>
      <trkpt lat="45.96945" lon="6.2895">
        <ele>761</ele>
        <time>2011-04-16T10:31:11Z</time>
      </trkpt>
      <trkpt lat="45.96941" lon="6.28937">
        <ele>761</ele>
        <time>2011-04-16T10:31:13Z</time>
      </trkpt>
      <trkpt lat="45.96933" lon="6.28926">
        <ele>761</ele>
        <time>2011-04-16T10:31:15Z</time>
      </trkpt>
      <trkpt lat="45.96921" lon="6.2892">
        <ele>761</ele>
        <time>2011-04-16T10:31:17Z</time>
      </trkpt>
      <trkpt lat="45.96912" lon="6.28917">
        <ele>761</ele>
        <time>2011-04-16T10:31:18Z</time>
      </trkpt>
      <trkpt lat="45.96902" lon="6.28913">
        <ele>761</ele>
        <time>2011-04-16T10:31:19Z</time>
      </trkpt>
      <trkpt lat="45.96892" lon="6.2891">
        <ele>761</ele>
        <time>2011-04-16T10:31:20Z</time>
      </trkpt>
      <trkpt lat="45.96881" lon="6.28906">
        <ele>761</ele>
        <time>2011-04-16T10:31:21Z</time>
      </trkpt>
      <trkpt lat="45.96872" lon="6.28904">
        <ele>761</ele>
        <time>2011-04-16T10:31:22Z</time>
      </trkpt>
      <trkpt lat="45.96861" lon="6.28904">
        <ele>761</ele>
        <time>2011-04-16T10:31:23Z</time>
      </trkpt>
      <trkpt lat="45.96851" lon="6.28905">
        <ele>761</ele>
        <time>2011-04-16T10:31:24Z</time>
      </trkpt>
      <trkpt lat="45.9684" lon="6.28909">
        <ele>761</ele>
        <time>2011-04-16T10:31:25Z</time>
      </trkpt>
      <trkpt lat="45.96829" lon="6.28912">
        <ele>761</ele>
        <time>2011-04-16T10:31:26Z</time>
      </trkpt>
      <trkpt lat="45.96819" lon="6.28916">
        <ele>761</ele>
        <time>2011-04-16T10:31:27Z</time>
      </trkpt>
      <trkpt lat="45.9681" lon="6.28919">
        <ele>761</ele>
        <time>2011-04-16T10:31:28Z</time>
      </trkpt>
      <trkpt lat="45.968" lon="6.2892">
        <ele>761</ele>
        <time>2011-04-16T10:31:29Z</time>
      </trkpt>
      <trkpt lat="45.9679" lon="6.2892">
        <ele>761</ele>
        <time>2011-04-16T10:31:30Z</time>
      </trkpt>
      <trkpt lat="45.96779" lon="6.28914">
        <ele>761</ele>
        <time>2011-04-16T10:31:31Z</time>
      </trkpt>
      <trkpt lat="45.96768" lon="6.28906">
        <ele>761</ele>
        <time>2011-04-16T10:31:32Z</time>
      </trkpt>
      <trkpt lat="45.96758" lon="6.28898">
        <ele>761</ele>
        <time>2011-04-16T10:31:33Z</time>
      </trkpt>
      <trkpt lat="45.9675" lon="6.28889">
        <ele>761</ele>
        <time>2011-04-16T10:31:34Z</time>
      </trkpt>
      <trkpt lat="45.9674" lon="6.28868">
        <ele>761</ele>
        <time>2011-04-16T10:31:36Z</time>
      </trkpt>
      <trkpt lat="45.96733" lon="6.28852">
        <ele>761</ele>
        <time>2011-04-16T10:31:38Z</time>
      </trkpt>
      <trkpt lat="45.96726" lon="6.28841">
        <ele>761</ele>
        <time>2011-04-16T10:31:40Z</time>
      </trkpt>
      <trkpt lat="45.96716" lon="6.28834">
        <ele>761</ele>
        <time>2011-04-16T10:31:42Z</time>
      </trkpt>
      <trkpt lat="45.96701" lon="6.28829">
        <ele>766</ele>
        <time>2011-04-16T10:31:44Z</time>
      </trkpt>
      <trkpt lat="45.9669" lon="6.28827">
        <ele>766</ele>
        <time>2011-04-16T10:31:45Z</time>
      </trkpt>
      <trkpt lat="45.96679" lon="6.28827">
        <ele>766</ele>
        <time>2011-04-16T10:31:46Z</time>
      </trkpt>
      <trkpt lat="45.96667" lon="6.28829">
        <ele>766</ele>
        <time>2011-04-16T10:31:47Z</time>
      </trkpt>
      <trkpt lat="45.96656" lon="6.28833">
        <ele>766</ele>
        <time>2011-04-16T10:31:48Z</time>
      </trkpt>
      <trkpt lat="45.96644" lon="6.28839">
        <ele>766</ele>
        <time>2011-04-16T10:31:49Z</time>
      </trkpt>
      <trkpt lat="45.96632" lon="6.28844">
        <ele>766</ele>
        <time>2011-04-16T10:31:50Z</time>
      </trkpt>
      <trkpt lat="45.96621" lon="6.28849">
        <ele>772</ele>
        <time>2011-04-16T10:31:51Z</time>
      </trkpt>
      <trkpt lat="45.96609" lon="6.28855">
        <ele>772</ele>
        <time>2011-04-16T10:31:52Z</time>
      </trkpt>
      <trkpt lat="45.96597" lon="6.28859">
        <ele>772</ele>
        <time>2011-04-16T10:31:53Z</time>
      </trkpt>
      <trkpt lat="45.96584" lon="6.28864">
        <ele>772</ele>
        <time>2011-04-16T10:31:54Z</time>
      </trkpt>
      <trkpt lat="45.96574" lon="6.28867">
        <ele>777</ele>
        <time>2011-04-16T10:31:55Z</time>
      </trkpt>
      <trkpt lat="45.96557" lon="6.28874">
        <ele>777</ele>
        <time>2011-04-16T10:31:57Z</time>
      </trkpt>
      <trkpt lat="45.96542" lon="6.28881">
        <ele>783</ele>
        <time>2011-04-16T10:31:59Z</time>
      </trkpt>
      <trkpt lat="45.9653" lon="6.28884">
        <ele>783</ele>
        <time>2011-04-16T10:32:01Z</time>
      </trkpt>
      <trkpt lat="45.96516" lon="6.28875">
        <ele>783</ele>
        <time>2011-04-16T10:32:03Z</time>
      </trkpt>
      <trkpt lat="45.96507" lon="6.28867">
        <ele>783</ele>
        <time>2011-04-16T10:32:04Z</time>
      </trkpt>
      <trkpt lat="45.96499" lon="6.2886">
        <ele>789</ele>
        <time>2011-04-16T10:32:05Z</time>
      </trkpt>
      <trkpt lat="45.96483" lon="6.28852">
        <ele>789</ele>
        <time>2011-04-16T10:32:07Z</time>
      </trkpt>
      <trkpt lat="45.96474" lon="6.28853">
        <ele>789</ele>
        <time>2011-04-16T10:32:08Z</time>
      </trkpt>
      <trkpt lat="45.96465" lon="6.28859">
        <ele>789</ele>
        <time>2011-04-16T10:32:09Z</time>
      </trkpt>
      <trkpt lat="45.96456" lon="6.28868">
        <ele>789</ele>
        <time>2011-04-16T10:32:10Z</time>
      </trkpt>
      <trkpt lat="45.96442" lon="6.28878">
        <ele>794</ele>
        <time>2011-04-16T10:32:12Z</time>
      </trkpt>
      <trkpt lat="45.96426" lon="6.28879">
        <ele>794</ele>
        <time>2011-04-16T10:32:14Z</time>
      </trkpt>
      <trkpt lat="45.96411" lon="6.28874">
        <ele>794</ele>
        <time>2011-04-16T10:32:16Z</time>
      </trkpt>
      <trkpt lat="45.96398" lon="6.28867">
        <ele>794</ele>
        <time>2011-04-16T10:32:18Z</time>
      </trkpt>
      <trkpt lat="45.96389" lon="6.28859">
        <ele>794</ele>
        <time>2011-04-16T10:32:20Z</time>
      </trkpt>
      <trkpt lat="45.96378" lon="6.28855">
        <ele>794</ele>
        <time>2011-04-16T10:32:22Z</time>
      </trkpt>
      <trkpt lat="45.96362" lon="6.28853">
        <ele>801</ele>
        <time>2011-04-16T10:32:24Z</time>
      </trkpt>
      <trkpt lat="45.96352" lon="6.28851">
        <ele>801</ele>
        <time>2011-04-16T10:32:25Z</time>
      </trkpt>
      <trkpt lat="45.96343" lon="6.2885">
        <ele>801</ele>
        <time>2011-04-16T10:32:26Z</time>
      </trkpt>
      <trkpt lat="45.96326" lon="6.28849">
        <ele>801</ele>
        <time>2011-04-16T10:32:28Z</time>
      </trkpt>
      <trkpt lat="45.9631" lon="6.28856">
        <ele>801</ele>
        <time>2011-04-16T10:32:30Z</time>
      </trkpt>
      <trkpt lat="45.96296" lon="6.28867">
        <ele>801</ele>
        <time>2011-04-16T10:32:32Z</time>
      </trkpt>
      <trkpt lat="45.96281" lon="6.28881">
        <ele>801</ele>
        <time>2011-04-16T10:32:34Z</time>
      </trkpt>
      <trkpt lat="45.9627" lon="6.28893">
        <ele>801</ele>
        <time>2011-04-16T10:32:36Z</time>
      </trkpt>
      <trkpt lat="45.96262" lon="6.28902">
        <ele>801</ele>
        <time>2011-04-16T10:32:38Z</time>
      </trkpt>
      <trkpt lat="45.96254" lon="6.28911">
        <ele>809</ele>
        <time>2011-04-16T10:32:41Z</time>
      </trkpt>
      <trkpt lat="45.96245" lon="6.28919">
        <ele>824</ele>
        <time>2011-04-16T10:32:47Z</time>
      </trkpt>
      <trkpt lat="45.96234" lon="6.2892">
        <ele>824</ele>
        <time>2011-04-16T10:32:55Z</time>
      </trkpt>
      <trkpt lat="45.96223" lon="6.28923">
        <ele>824</ele>
        <time>2011-04-16T10:32:56Z</time>
      </trkpt>
      <trkpt lat="45.9621" lon="6.28927">
        <ele>824</ele>
        <time>2011-04-16T10:32:57Z</time>
      </trkpt>
      <trkpt lat="45.96195" lon="6.28933">
        <ele>824</ele>
        <time>2011-04-16T10:32:58Z</time>
      </trkpt>
      <trkpt lat="45.96182" lon="6.28937">
        <ele>824</ele>
        <time>2011-04-16T10:32:59Z</time>
      </trkpt>
      <trkpt lat="45.96169" lon="6.28939">
        <ele>824</ele>
        <time>2011-04-16T10:33:00Z</time>
      </trkpt>
      <trkpt lat="45.96157" lon="6.28941">
        <ele>824</ele>
        <time>2011-04-16T10:33:01Z</time>
      </trkpt>
      <trkpt lat="45.96148" lon="6.28944">
        <ele>824</ele>
        <time>2011-04-16T10:33:02Z</time>
      </trkpt>
      <trkpt lat="45.96133" lon="6.28952">
        <ele>824</ele>
        <time>2011-04-16T10:33:04Z</time>
      </trkpt>
      <trkpt lat="45.96123" lon="6.28962">
        <ele>824</ele>
        <time>2011-04-16T10:33:06Z</time>
      </trkpt>
      <trkpt lat="45.96116" lon="6.28971">
        <ele>824</ele>
        <time>2011-04-16T10:33:08Z</time>
      </trkpt>
      <trkpt lat="45.96108" lon="6.28979">
        <ele>829</ele>
        <time>2011-04-16T10:33:32Z</time>
      </trkpt>
      <trkpt lat="45.96099" lon="6.28976">
        <ele>829</ele>
        <time>2011-04-16T10:34:32Z</time>
      </trkpt>
      <trkpt lat="45.96108" lon="6.28973">
        <ele>823</ele>
        <time>2011-04-16T10:34:49Z</time>
      </trkpt>
      <trkpt lat="45.96105" lon="6.28989">
        <ele>823</ele>
        <time>2011-04-16T10:35:51Z</time>
      </trkpt>
      <trkpt lat="45.96098" lon="6.29004">
        <ele>823</ele>
        <time>2011-04-16T10:35:53Z</time>
      </trkpt>
      <trkpt lat="45.96093" lon="6.29023">
        <ele>823</ele>
        <time>2011-04-16T10:35:55Z</time>
      </trkpt>
      <trkpt lat="45.96091" lon="6.29041">
        <ele>823</ele>
        <time>2011-04-16T10:35:57Z</time>
      </trkpt>
      <trkpt lat="45.96096" lon="6.29054">
        <ele>830</ele>
        <time>2011-04-16T10:35:59Z</time>
      </trkpt>
      <trkpt lat="45.96106" lon="6.29062">
        <ele>830</ele>
        <time>2011-04-16T10:36:01Z</time>
      </trkpt>
      <trkpt lat="45.96117" lon="6.29065">
        <ele>830</ele>
        <time>2011-04-16T10:36:03Z</time>
      </trkpt>
      <trkpt lat="45.96136" lon="6.29058">
        <ele>830</ele>
        <time>2011-04-16T10:36:05Z</time>
      </trkpt>
      <trkpt lat="45.96146" lon="6.29056">
        <ele>830</ele>
        <time>2011-04-16T10:36:06Z</time>
      </trkpt>
      <trkpt lat="45.96159" lon="6.29052">
        <ele>830</ele>
        <time>2011-04-16T10:36:07Z</time>
      </trkpt>
      <trkpt lat="45.9617" lon="6.29048">
        <ele>830</ele>
        <time>2011-04-16T10:36:08Z</time>
      </trkpt>
      <trkpt lat="45.96179" lon="6.29044">
        <ele>830</ele>
        <time>2011-04-16T10:36:09Z</time>
      </trkpt>
      <trkpt lat="45.96193" lon="6.29039">
        <ele>830</ele>
        <time>2011-04-16T10:36:11Z</time>
      </trkpt>
      <trkpt lat="45.96197" lon="6.29051">
        <ele>830</ele>
        <time>2011-04-16T10:36:14Z</time>
      </trkpt>
      <trkpt lat="45.9619" lon="6.29061">
        <ele>830</ele>
        <time>2011-04-16T10:36:16Z</time>
      </trkpt>
      <trkpt lat="45.96177" lon="6.29072">
        <ele>837</ele>
        <time>2011-04-16T10:36:18Z</time>
      </trkpt>
      <trkpt lat="45.96163" lon="6.29085">
        <ele>837</ele>
        <time>2011-04-16T10:36:20Z</time>
      </trkpt>
      <trkpt lat="45.96149" lon="6.29097">
        <ele>837</ele>
        <time>2011-04-16T10:36:22Z</time>
      </trkpt>
      <trkpt lat="45.96141" lon="6.29103">
        <ele>837</ele>
        <time>2011-04-16T10:36:23Z</time>
      </trkpt>
      <trkpt lat="45.96125" lon="6.29114">
        <ele>837</ele>
        <time>2011-04-16T10:36:25Z</time>
      </trkpt>
      <trkpt lat="45.96116" lon="6.29117">
        <ele>837</ele>
        <time>2011-04-16T10:36:26Z</time>
      </trkpt>
      <trkpt lat="45.96105" lon="6.29124">
        <ele>842</ele>
        <time>2011-04-16T10:36:28Z</time>
      </trkpt>
      <trkpt lat="45.96102" lon="6.29141">
        <ele>842</ele>
        <time>2011-04-16T10:36:31Z</time>
      </trkpt>
      <trkpt lat="45.96111" lon="6.29149">
        <ele>842</ele>
        <time>2011-04-16T10:36:33Z</time>
      </trkpt>
      <trkpt lat="45.96122" lon="6.29154">
        <ele>842</ele>
        <time>2011-04-16T10:36:35Z</time>
      </trkpt>
      <trkpt lat="45.96135" lon="6.29155">
        <ele>842</ele>
        <time>2011-04-16T10:36:37Z</time>
      </trkpt>
      <trkpt lat="45.96144" lon="6.29151">
        <ele>836</ele>
        <time>2011-04-16T10:36:38Z</time>
      </trkpt>
      <trkpt lat="45.9616" lon="6.29141">
        <ele>836</ele>
        <time>2011-04-16T10:36:40Z</time>
      </trkpt>
      <trkpt lat="45.96169" lon="6.29136">
        <ele>836</ele>
        <time>2011-04-16T10:36:41Z</time>
      </trkpt>
      <trkpt lat="45.96183" lon="6.2913">
        <ele>836</ele>
        <time>2011-04-16T10:36:42Z</time>
      </trkpt>
      <trkpt lat="45.96193" lon="6.29125">
        <ele>836</ele>
        <time>2011-04-16T10:36:43Z</time>
      </trkpt>
      <trkpt lat="45.9621" lon="6.29117">
        <ele>836</ele>
        <time>2011-04-16T10:36:45Z</time>
      </trkpt>
      <trkpt lat="45.96226" lon="6.29111">
        <ele>836</ele>
        <time>2011-04-16T10:36:47Z</time>
      </trkpt>
      <trkpt lat="45.96235" lon="6.29107">
        <ele>836</ele>
        <time>2011-04-16T10:36:48Z</time>
      </trkpt>
      <trkpt lat="45.96245" lon="6.29106">
        <ele>836</ele>
        <time>2011-04-16T10:36:49Z</time>
      </trkpt>
      <trkpt lat="45.96262" lon="6.29097">
        <ele>836</ele>
        <time>2011-04-16T10:36:51Z</time>
      </trkpt>
      <trkpt lat="45.96272" lon="6.29095">
        <ele>836</ele>
        <time>2011-04-16T10:36:52Z</time>
      </trkpt>
      <trkpt lat="45.96288" lon="6.2909">
        <ele>846</ele>
        <time>2011-04-16T10:36:54Z</time>
      </trkpt>
      <trkpt lat="45.96304" lon="6.29087">
        <ele>852</ele>
        <time>2011-04-16T10:36:56Z</time>
      </trkpt>
      <trkpt lat="45.96317" lon="6.29087">
        <ele>858</ele>
        <time>2011-04-16T10:36:58Z</time>
      </trkpt>
      <trkpt lat="45.96311" lon="6.29077">
        <ele>918</ele>
        <time>2011-04-16T10:37:19Z</time>
      </trkpt>
      <trkpt lat="45.96298" lon="6.29071">
        <ele>918</ele>
        <time>2011-04-16T10:37:21Z</time>
      </trkpt>
      <trkpt lat="45.96288" lon="6.2907">
        <ele>925</ele>
        <time>2011-04-16T10:37:22Z</time>
      </trkpt>
      <trkpt lat="45.96279" lon="6.29068">
        <ele>925</ele>
        <time>2011-04-16T10:37:23Z</time>
      </trkpt>
      <trkpt lat="45.96269" lon="6.29068">
        <ele>925</ele>
        <time>2011-04-16T10:37:24Z</time>
      </trkpt>
      <trkpt lat="45.9626" lon="6.2907">
        <ele>925</ele>
        <time>2011-04-16T10:37:25Z</time>
      </trkpt>
      <trkpt lat="45.9625" lon="6.29072">
        <ele>925</ele>
        <time>2011-04-16T10:37:26Z</time>
      </trkpt>
      <trkpt lat="45.9624" lon="6.29074">
        <ele>925</ele>
        <time>2011-04-16T10:37:27Z</time>
      </trkpt>
      <trkpt lat="45.96223" lon="6.29081">
        <ele>925</ele>
        <time>2011-04-16T10:37:29Z</time>
      </trkpt>
      <trkpt lat="45.96209" lon="6.29097">
        <ele>925</ele>
        <time>2011-04-16T10:37:31Z</time>
      </trkpt>
      <trkpt lat="45.96203" lon="6.29109">
        <ele>925</ele>
        <time>2011-04-16T10:37:32Z</time>
      </trkpt>
      <trkpt lat="45.96194" lon="6.29118">
        <ele>925</ele>
        <time>2011-04-16T10:37:33Z</time>
      </trkpt>
      <trkpt lat="45.96185" lon="6.29128">
        <ele>925</ele>
        <time>2011-04-16T10:37:34Z</time>
      </trkpt>
      <trkpt lat="45.96176" lon="6.29138">
        <ele>925</ele>
        <time>2011-04-16T10:37:35Z</time>
      </trkpt>
      <trkpt lat="45.96168" lon="6.29147">
        <ele>925</ele>
        <time>2011-04-16T10:37:36Z</time>
      </trkpt>
      <trkpt lat="45.96159" lon="6.29163">
        <ele>912</ele>
        <time>2011-04-16T10:37:37Z</time>
      </trkpt>
      <trkpt lat="45.96151" lon="6.29176">
        <ele>912</ele>
        <time>2011-04-16T10:37:38Z</time>
      </trkpt>
      <trkpt lat="45.96144" lon="6.29188">
        <ele>901</ele>
        <time>2011-04-16T10:37:39Z</time>
      </trkpt>
      <trkpt lat="45.96137" lon="6.29199">
        <ele>901</ele>
        <time>2011-04-16T10:37:40Z</time>
      </trkpt>
      <trkpt lat="45.96131" lon="6.2921">
        <ele>896</ele>
        <time>2011-04-16T10:37:41Z</time>
      </trkpt>
      <trkpt lat="45.96123" lon="6.2922">
        <ele>896</ele>
        <time>2011-04-16T10:37:42Z</time>
      </trkpt>
      <trkpt lat="45.96116" lon="6.29229">
        <ele>896</ele>
        <time>2011-04-16T10:37:43Z</time>
      </trkpt>
      <trkpt lat="45.96107" lon="6.29238">
        <ele>896</ele>
        <time>2011-04-16T10:37:44Z</time>
      </trkpt>
      <trkpt lat="45.96099" lon="6.29246">
        <ele>896</ele>
        <time>2011-04-16T10:37:45Z</time>
      </trkpt>
      <trkpt lat="45.96091" lon="6.29253">
        <ele>891</ele>
        <time>2011-04-16T10:37:46Z</time>
      </trkpt>
      <trkpt lat="45.96083" lon="6.29263">
        <ele>891</ele>
        <time>2011-04-16T10:37:47Z</time>
      </trkpt>
      <trkpt lat="45.96076" lon="6.29273">
        <ele>891</ele>
        <time>2011-04-16T10:37:48Z</time>
      </trkpt>
      <trkpt lat="45.96069" lon="6.29283">
        <ele>891</ele>
        <time>2011-04-16T10:37:49Z</time>
      </trkpt>
      <trkpt lat="45.96063" lon="6.29293">
        <ele>891</ele>
        <time>2011-04-16T10:37:50Z</time>
      </trkpt>
      <trkpt lat="45.96056" lon="6.29304">
        <ele>891</ele>
        <time>2011-04-16T10:37:51Z</time>
      </trkpt>
      <trkpt lat="45.96049" lon="6.29315">
        <ele>891</ele>
        <time>2011-04-16T10:37:52Z</time>
      </trkpt>
      <trkpt lat="45.96044" lon="6.29326">
        <ele>891</ele>
        <time>2011-04-16T10:37:53Z</time>
      </trkpt>
      <trkpt lat="45.96037" lon="6.29337">
        <ele>891</ele>
        <time>2011-04-16T10:37:54Z</time>
      </trkpt>
      <trkpt lat="45.96032" lon="6.29349">
        <ele>891</ele>
        <time>2011-04-16T10:37:55Z</time>
      </trkpt>
      <trkpt lat="45.96026" lon="6.2936">
        <ele>891</ele>
        <time>2011-04-16T10:37:56Z</time>
      </trkpt>
      <trkpt lat="45.96014" lon="6.29377">
        <ele>891</ele>
        <time>2011-04-16T10:37:58Z</time>
      </trkpt>
      <trkpt lat="45.96006" lon="6.29388">
        <ele>891</ele>
        <time>2011-04-16T10:38:00Z</time>
      </trkpt>
      <trkpt lat="45.96" lon="6.29397">
        <ele>897</ele>
        <time>2011-04-16T10:38:28Z</time>
      </trkpt>
      <trkpt lat="45.95997" lon="6.29412">
        <ele>897</ele>
        <time>2011-04-16T10:39:10Z</time>
      </trkpt>
      <trkpt lat="45.95988" lon="6.29424">
        <ele>897</ele>
        <time>2011-04-16T10:39:13Z</time>
      </trkpt>
      <trkpt lat="45.95979" lon="6.29431">
        <ele>897</ele>
        <time>2011-04-16T10:39:15Z</time>
      </trkpt>
      <trkpt lat="45.95966" lon="6.29441">
        <ele>897</ele>
        <time>2011-04-16T10:39:17Z</time>
      </trkpt>
      <trkpt lat="45.95953" lon="6.2945">
        <ele>897</ele>
        <time>2011-04-16T10:39:19Z</time>
      </trkpt>
      <trkpt lat="45.95938" lon="6.29462">
        <ele>897</ele>
        <time>2011-04-16T10:39:21Z</time>
      </trkpt>
      <trkpt lat="45.95923" lon="6.29474">
        <ele>897</ele>
        <time>2011-04-16T10:39:23Z</time>
      </trkpt>
      <trkpt lat="45.95914" lon="6.29477">
        <ele>897</ele>
        <time>2011-04-16T10:39:24Z</time>
      </trkpt>
      <trkpt lat="45.95898" lon="6.29482">
        <ele>902</ele>
        <time>2011-04-16T10:39:26Z</time>
      </trkpt>
      <trkpt lat="45.95882" lon="6.29487">
        <ele>902</ele>
        <time>2011-04-16T10:39:28Z</time>
      </trkpt>
      <trkpt lat="45.95866" lon="6.29497">
        <ele>902</ele>
        <time>2011-04-16T10:39:30Z</time>
      </trkpt>
      <trkpt lat="45.95849" lon="6.29509">
        <ele>909</ele>
        <time>2011-04-16T10:39:32Z</time>
      </trkpt>
      <trkpt lat="45.95841" lon="6.29516">
        <ele>909</ele>
        <time>2011-04-16T10:39:33Z</time>
      </trkpt>
      <trkpt lat="45.95832" lon="6.29523">
        <ele>909</ele>
        <time>2011-04-16T10:39:34Z</time>
      </trkpt>
      <trkpt lat="45.95823" lon="6.2953">
        <ele>909</ele>
        <time>2011-04-16T10:39:35Z</time>
      </trkpt>
      <trkpt lat="45.95814" lon="6.29539">
        <ele>909</ele>
        <time>2011-04-16T10:39:36Z</time>
      </trkpt>
      <trkpt lat="45.95805" lon="6.29547">
        <ele>914</ele>
        <time>2011-04-16T10:39:37Z</time>
      </trkpt>
      <trkpt lat="45.9579" lon="6.29561">
        <ele>914</ele>
        <time>2011-04-16T10:39:39Z</time>
      </trkpt>
      <trkpt lat="45.9578" lon="6.29566">
        <ele>914</ele>
        <time>2011-04-16T10:39:40Z</time>
      </trkpt>
      <trkpt lat="45.95771" lon="6.29572">
        <ele>914</ele>
        <time>2011-04-16T10:39:41Z</time>
      </trkpt>
      <trkpt lat="45.95761" lon="6.29575">
        <ele>914</ele>
        <time>2011-04-16T10:39:42Z</time>
      </trkpt>
      <trkpt lat="45.95751" lon="6.29579">
        <ele>920</ele>
        <time>2011-04-16T10:39:43Z</time>
      </trkpt>
      <trkpt lat="45.9574" lon="6.29583">
        <ele>920</ele>
        <time>2011-04-16T10:39:44Z</time>
      </trkpt>
      <trkpt lat="45.9573" lon="6.29588">
        <ele>920</ele>
        <time>2011-04-16T10:39:45Z</time>
      </trkpt>
      <trkpt lat="45.95721" lon="6.29593">
        <ele>920</ele>
        <time>2011-04-16T10:39:46Z</time>
      </trkpt>
      <trkpt lat="45.95712" lon="6.296">
        <ele>920</ele>
        <time>2011-04-16T10:39:47Z</time>
      </trkpt>
      <trkpt lat="45.95698" lon="6.29614">
        <ele>927</ele>
        <time>2011-04-16T10:39:49Z</time>
      </trkpt>
      <trkpt lat="45.95682" lon="6.29621">
        <ele>927</ele>
        <time>2011-04-16T10:39:51Z</time>
      </trkpt>
      <trkpt lat="45.95666" lon="6.29625">
        <ele>927</ele>
        <time>2011-04-16T10:39:53Z</time>
      </trkpt>
      <trkpt lat="45.95651" lon="6.29636">
        <ele>932</ele>
        <time>2011-04-16T10:39:55Z</time>
      </trkpt>
      <trkpt lat="45.95639" lon="6.29648">
        <ele>932</ele>
        <time>2011-04-16T10:39:57Z</time>
      </trkpt>
      <trkpt lat="45.95625" lon="6.29657">
        <ele>932</ele>
        <time>2011-04-16T10:39:59Z</time>
      </trkpt>
      <trkpt lat="45.95612" lon="6.29671">
        <ele>932</ele>
        <time>2011-04-16T10:40:01Z</time>
      </trkpt>
      <trkpt lat="45.95601" lon="6.2969">
        <ele>932</ele>
        <time>2011-04-16T10:40:03Z</time>
      </trkpt>
      <trkpt lat="45.95589" lon="6.29707">
        <ele>937</ele>
        <time>2011-04-16T10:40:05Z</time>
      </trkpt>
      <trkpt lat="45.95579" lon="6.29724">
        <ele>937</ele>
        <time>2011-04-16T10:40:07Z</time>
      </trkpt>
      <trkpt lat="45.95568" lon="6.29742">
        <ele>937</ele>
        <time>2011-04-16T10:40:09Z</time>
      </trkpt>
      <trkpt lat="45.95557" lon="6.29758">
        <ele>937</ele>
        <time>2011-04-16T10:40:11Z</time>
      </trkpt>
      <trkpt lat="45.95546" lon="6.29768">
        <ele>937</ele>
        <time>2011-04-16T10:40:13Z</time>
      </trkpt>
      <trkpt lat="45.95537" lon="6.29774">
        <ele>937</ele>
        <time>2011-04-16T10:40:15Z</time>
      </trkpt>
      <trkpt lat="45.95532" lon="6.2976">
        <ele>944</ele>
        <time>2011-04-16T10:40:39Z</time>
      </trkpt>
      <trkpt lat="45.9553" lon="6.29741">
        <ele>944</ele>
        <time>2011-04-16T10:40:42Z</time>
      </trkpt>
      <trkpt lat="45.95534" lon="6.29727">
        <ele>944</ele>
        <time>2011-04-16T10:40:44Z</time>
      </trkpt>
      <trkpt lat="45.95542" lon="6.29716">
        <ele>944</ele>
        <time>2011-04-16T10:40:46Z</time>
      </trkpt>
      <trkpt lat="45.9555" lon="6.29706">
        <ele>938</ele>
        <time>2011-04-16T10:40:48Z</time>
      </trkpt>
      <trkpt lat="45.9556" lon="6.29697">
        <ele>938</ele>
        <time>2011-04-16T10:40:50Z</time>
      </trkpt>
      <trkpt lat="45.95568" lon="6.29688">
        <ele>938</ele>
        <time>2011-04-16T10:40:52Z</time>
      </trkpt>
      <trkpt lat="45.95571" lon="6.29675">
        <ele>938</ele>
        <time>2011-04-16T10:40:54Z</time>
      </trkpt>
      <trkpt lat="45.95565" lon="6.29661">
        <ele>938</ele>
        <time>2011-04-16T10:40:57Z</time>
      </trkpt>
      <trkpt lat="45.95552" lon="6.29662">
        <ele>943</ele>
        <time>2011-04-16T10:41:00Z</time>
      </trkpt>
      <trkpt lat="45.95542" lon="6.29668">
        <ele>943</ele>
        <time>2011-04-16T10:41:02Z</time>
      </trkpt>
      <trkpt lat="45.95532" lon="6.29671">
        <ele>943</ele>
        <time>2011-04-16T10:41:04Z</time>
      </trkpt>
      <trkpt lat="45.95523" lon="6.29667">
        <ele>949</ele>
        <time>2011-04-16T10:41:07Z</time>
      </trkpt>
      <trkpt lat="45.95517" lon="6.29682">
        <ele>949</ele>
        <time>2011-04-16T10:41:29Z</time>
      </trkpt>
      <trkpt lat="45.9551" lon="6.29698">
        <ele>949</ele>
        <time>2011-04-16T10:41:32Z</time>
      </trkpt>
      <trkpt lat="45.95501" lon="6.29711">
        <ele>955</ele>
        <time>2011-04-16T10:41:35Z</time>
      </trkpt>
      <trkpt lat="45.95495" lon="6.29724">
        <ele>955</ele>
        <time>2011-04-16T10:41:38Z</time>
      </trkpt>
      <trkpt lat="45.95486" lon="6.29729">
        <ele>965</ele>
        <time>2011-04-16T10:41:52Z</time>
      </trkpt>
      <trkpt lat="45.95482" lon="6.29745">
        <ele>965</ele>
        <time>2011-04-16T10:41:56Z</time>
      </trkpt>
      <trkpt lat="45.95477" lon="6.29761">
        <ele>965</ele>
        <time>2011-04-16T10:41:58Z</time>
      </trkpt>
      <trkpt lat="45.9547" lon="6.29772">
        <ele>965</ele>
        <time>2011-04-16T10:42:00Z</time>
      </trkpt>
      <trkpt lat="45.95458" lon="6.29779">
        <ele>965</ele>
        <time>2011-04-16T10:42:02Z</time>
      </trkpt>
      <trkpt lat="45.95446" lon="6.29785">
        <ele>965</ele>
        <time>2011-04-16T10:42:04Z</time>
      </trkpt>
      <trkpt lat="45.95434" lon="6.29791">
        <ele>965</ele>
        <time>2011-04-16T10:42:06Z</time>
      </trkpt>
      <trkpt lat="45.95423" lon="6.29796">
        <ele>965</ele>
        <time>2011-04-16T10:42:08Z</time>
      </trkpt>
      <trkpt lat="45.95414" lon="6.29804">
        <ele>965</ele>
        <time>2011-04-16T10:42:10Z</time>
      </trkpt>
      <trkpt lat="45.95404" lon="6.2981">
        <ele>971</ele>
        <time>2011-04-16T10:42:12Z</time>
      </trkpt>
      <trkpt lat="45.95394" lon="6.29816">
        <ele>971</ele>
        <time>2011-04-16T10:42:14Z</time>
      </trkpt>
      <trkpt lat="45.95384" lon="6.29824">
        <ele>976</ele>
        <time>2011-04-16T10:42:16Z</time>
      </trkpt>
      <trkpt lat="45.95374" lon="6.29833">
        <ele>976</ele>
        <time>2011-04-16T10:42:18Z</time>
      </trkpt>
      <trkpt lat="45.95364" lon="6.29843">
        <ele>983</ele>
        <time>2011-04-16T10:42:20Z</time>
      </trkpt>
      <trkpt lat="45.95354" lon="6.29853">
        <ele>983</ele>
        <time>2011-04-16T10:42:22Z</time>
      </trkpt>
      <trkpt lat="45.95344" lon="6.29863">
        <ele>983</ele>
        <time>2011-04-16T10:42:24Z</time>
      </trkpt>
      <trkpt lat="45.95336" lon="6.29876">
        <ele>990</ele>
        <time>2011-04-16T10:42:26Z</time>
      </trkpt>
      <trkpt lat="45.95328" lon="6.29888">
        <ele>990</ele>
        <time>2011-04-16T10:42:28Z</time>
      </trkpt>
      <trkpt lat="45.95319" lon="6.29883">
        <ele>999</ele>
        <time>2011-04-16T10:42:41Z</time>
      </trkpt>
      <trkpt lat="45.95308" lon="6.29879">
        <ele>999</ele>
        <time>2011-04-16T10:42:44Z</time>
      </trkpt>
      <trkpt lat="45.95311" lon="6.2986">
        <ele>999</ele>
        <time>2011-04-16T10:42:48Z</time>
      </trkpt>
      <trkpt lat="45.95317" lon="6.29848">
        <ele>999</ele>
        <time>2011-04-16T10:42:50Z</time>
      </trkpt>
      <trkpt lat="45.95324" lon="6.29836">
        <ele>999</ele>
        <time>2011-04-16T10:42:52Z</time>
      </trkpt>
      <trkpt lat="45.95332" lon="6.29824">
        <ele>999</ele>
        <time>2011-04-16T10:42:54Z</time>
      </trkpt>
      <trkpt lat="45.95339" lon="6.29811">
        <ele>1005</ele>
        <time>2011-04-16T10:42:56Z</time>
      </trkpt>
      <trkpt lat="45.95346" lon="6.29801">
        <ele>1005</ele>
        <time>2011-04-16T10:42:58Z</time>
      </trkpt>
      <trkpt lat="45.95354" lon="6.29789">
        <ele>1005</ele>
        <time>2011-04-16T10:43:01Z</time>
      </trkpt>
      <trkpt lat="45.9536" lon="6.29773">
        <ele>1010</ele>
        <time>2011-04-16T10:43:04Z</time>
      </trkpt>
      <trkpt lat="45.95364" lon="6.29759">
        <ele>1010</ele>
        <time>2011-04-16T10:43:06Z</time>
      </trkpt>
      <trkpt lat="45.95372" lon="6.29748">
        <ele>1010</ele>
        <time>2011-04-16T10:43:08Z</time>
      </trkpt>
      <trkpt lat="45.95381" lon="6.29737">
        <ele>1010</ele>
        <time>2011-04-16T10:43:10Z</time>
      </trkpt>
      <trkpt lat="45.95391" lon="6.29726">
        <ele>1010</ele>
        <time>2011-04-16T10:43:12Z</time>
      </trkpt>
      <trkpt lat="45.95398" lon="6.29716">
        <ele>1010</ele>
        <time>2011-04-16T10:43:14Z</time>
      </trkpt>
      <trkpt lat="45.95406" lon="6.29701">
        <ele>1010</ele>
        <time>2011-04-16T10:43:17Z</time>
      </trkpt>
      <trkpt lat="45.95414" lon="6.2969">
        <ele>1010</ele>
        <time>2011-04-16T10:43:19Z</time>
      </trkpt>
      <trkpt lat="45.9542" lon="6.2968">
        <ele>1010</ele>
        <time>2011-04-16T10:43:21Z</time>
      </trkpt>
      <trkpt lat="45.95425" lon="6.29665">
        <ele>1010</ele>
        <time>2011-04-16T10:43:24Z</time>
      </trkpt>
      <trkpt lat="45.95416" lon="6.29658">
        <ele>1010</ele>
        <time>2011-04-16T10:43:42Z</time>
      </trkpt>
      <trkpt lat="45.95408" lon="6.29668">
        <ele>1010</ele>
        <time>2011-04-16T10:43:46Z</time>
      </trkpt>
      <trkpt lat="45.95399" lon="6.29679">
        <ele>1015</ele>
        <time>2011-04-16T10:43:49Z</time>
      </trkpt>
      <trkpt lat="45.95387" lon="6.29689">
        <ele>1015</ele>
        <time>2011-04-16T10:43:52Z</time>
      </trkpt>
      <trkpt lat="45.95374" lon="6.29698">
        <ele>1022</ele>
        <time>2011-04-16T10:43:55Z</time>
      </trkpt>
      <trkpt lat="45.95364" lon="6.29705">
        <ele>1022</ele>
        <time>2011-04-16T10:43:57Z</time>
      </trkpt>
      <trkpt lat="45.95355" lon="6.29713">
        <ele>1028</ele>
        <time>2011-04-16T10:43:59Z</time>
      </trkpt>
      <trkpt lat="45.95345" lon="6.2972">
        <ele>1028</ele>
        <time>2011-04-16T10:44:01Z</time>
      </trkpt>
      <trkpt lat="45.95336" lon="6.29724">
        <ele>1028</ele>
        <time>2011-04-16T10:44:03Z</time>
      </trkpt>
      <trkpt lat="45.95326" lon="6.29732">
        <ele>1034</ele>
        <time>2011-04-16T10:44:05Z</time>
      </trkpt>
      <trkpt lat="45.95318" lon="6.29738">
        <ele>1034</ele>
        <time>2011-04-16T10:44:07Z</time>
      </trkpt>
      <trkpt lat="45.95307" lon="6.29747">
        <ele>1040</ele>
        <time>2011-04-16T10:44:10Z</time>
      </trkpt>
      <trkpt lat="45.9531" lon="6.29733">
        <ele>1040</ele>
        <time>2011-04-16T10:44:18Z</time>
      </trkpt>
      <trkpt lat="45.95319" lon="6.29723">
        <ele>1040</ele>
        <time>2011-04-16T10:44:21Z</time>
      </trkpt>
      <trkpt lat="45.95324" lon="6.29712">
        <ele>1045</ele>
        <time>2011-04-16T10:44:23Z</time>
      </trkpt>
      <trkpt lat="45.95329" lon="6.29699">
        <ele>1045</ele>
        <time>2011-04-16T10:44:25Z</time>
      </trkpt>
      <trkpt lat="45.95336" lon="6.29683">
        <ele>1045</ele>
        <time>2011-04-16T10:44:28Z</time>
      </trkpt>
      <trkpt lat="45.95338" lon="6.2967">
        <ele>1045</ele>
        <time>2011-04-16T10:44:32Z</time>
      </trkpt>
      <trkpt lat="45.95329" lon="6.29677">
        <ele>1052</ele>
        <time>2011-04-16T10:44:35Z</time>
      </trkpt>
      <trkpt lat="45.95322" lon="6.29686">
        <ele>1052</ele>
        <time>2011-04-16T10:44:37Z</time>
      </trkpt>
      <trkpt lat="45.95313" lon="6.29695">
        <ele>1052</ele>
        <time>2011-04-16T10:44:39Z</time>
      </trkpt>
      <trkpt lat="45.95304" lon="6.29704">
        <ele>1052</ele>
        <time>2011-04-16T10:44:41Z</time>
      </trkpt>
      <trkpt lat="45.95295" lon="6.29709">
        <ele>1058</ele>
        <time>2011-04-16T10:44:43Z</time>
      </trkpt>
      <trkpt lat="45.95285" lon="6.29714">
        <ele>1058</ele>
        <time>2011-04-16T10:44:45Z</time>
      </trkpt>
      <trkpt lat="45.95276" lon="6.29718">
        <ele>1058</ele>
        <time>2011-04-16T10:44:47Z</time>
      </trkpt>
      <trkpt lat="45.95265" lon="6.29724">
        <ele>1058</ele>
        <time>2011-04-16T10:44:49Z</time>
      </trkpt>
      <trkpt lat="45.95254" lon="6.29731">
        <ele>1064</ele>
        <time>2011-04-16T10:44:51Z</time>
      </trkpt>
      <trkpt lat="45.95243" lon="6.29738">
        <ele>1064</ele>
        <time>2011-04-16T10:44:53Z</time>
      </trkpt>
      <trkpt lat="45.95235" lon="6.29743">
        <ele>1064</ele>
        <time>2011-04-16T10:44:55Z</time>
      </trkpt>
      <trkpt lat="45.95225" lon="6.29751">
        <ele>1070</ele>
        <time>2011-04-16T10:44:57Z</time>
      </trkpt>
      <trkpt lat="45.95215" lon="6.29763">
        <ele>1070</ele>
        <time>2011-04-16T10:45:00Z</time>
      </trkpt>
      <trkpt lat="45.95204" lon="6.29773">
        <ele>1070</ele>
        <time>2011-04-16T10:45:02Z</time>
      </trkpt>
      <trkpt lat="45.95195" lon="6.29785">
        <ele>1070</ele>
        <time>2011-04-16T10:45:04Z</time>
      </trkpt>
      <trkpt lat="45.95187" lon="6.29795">
        <ele>1076</ele>
        <time>2011-04-16T10:45:06Z</time>
      </trkpt>
      <trkpt lat="45.95181" lon="6.29805">
        <ele>1076</ele>
        <time>2011-04-16T10:45:09Z</time>
      </trkpt>
      <trkpt lat="45.95174" lon="6.29821">
        <ele>1076</ele>
        <time>2011-04-16T10:45:12Z</time>
      </trkpt>
      <trkpt lat="45.95169" lon="6.29836">
        <ele>1081</ele>
        <time>2011-04-16T10:45:15Z</time>
      </trkpt>
      <trkpt lat="45.95163" lon="6.29852">
        <ele>1081</ele>
        <time>2011-04-16T10:45:18Z</time>
      </trkpt>
      <trkpt lat="45.9516" lon="6.29869">
        <ele>1081</ele>
        <time>2011-04-16T10:45:21Z</time>
      </trkpt>
      <trkpt lat="45.95161" lon="6.29885">
        <ele>1088</ele>
        <time>2011-04-16T10:45:24Z</time>
      </trkpt>
      <trkpt lat="45.95166" lon="6.29897">
        <ele>1088</ele>
        <time>2011-04-16T10:45:28Z</time>
      </trkpt>
      <trkpt lat="45.95177" lon="6.29901">
        <ele>1088</ele>
        <time>2011-04-16T10:45:30Z</time>
      </trkpt>
      <trkpt lat="45.95176" lon="6.29915">
        <ele>1088</ele>
        <time>2011-04-16T10:45:34Z</time>
      </trkpt>
      <trkpt lat="45.95171" lon="6.29926">
        <ele>1088</ele>
        <time>2011-04-16T10:45:37Z</time>
      </trkpt>
      <trkpt lat="45.95174" lon="6.29938">
        <ele>1094</ele>
        <time>2011-04-16T10:45:40Z</time>
      </trkpt>
      <trkpt lat="45.95168" lon="6.29951">
        <ele>1094</ele>
        <time>2011-04-16T10:45:43Z</time>
      </trkpt>
      <trkpt lat="45.95164" lon="6.29965">
        <ele>1100</ele>
        <time>2011-04-16T10:45:46Z</time>
      </trkpt>
      <trkpt lat="45.95158" lon="6.29977">
        <ele>1100</ele>
        <time>2011-04-16T10:45:49Z</time>
      </trkpt>
      <trkpt lat="45.95165" lon="6.29968">
        <ele>1114</ele>
        <time>2011-04-16T10:45:58Z</time>
      </trkpt>
      <trkpt lat="45.95165" lon="6.29951">
        <ele>1120</ele>
        <time>2011-04-16T10:46:02Z</time>
      </trkpt>
      <trkpt lat="45.95164" lon="6.29929">
        <ele>1126</ele>
        <time>2011-04-16T10:46:05Z</time>
      </trkpt>
      <trkpt lat="45.95161" lon="6.29915">
        <ele>1133</ele>
        <time>2011-04-16T10:46:08Z</time>
      </trkpt>
      <trkpt lat="45.95159" lon="6.29901">
        <ele>1133</ele>
        <time>2011-04-16T10:46:11Z</time>
      </trkpt>
      <trkpt lat="45.9515" lon="6.29892">
        <ele>1133</ele>
        <time>2011-04-16T10:46:24Z</time>
      </trkpt>
      <trkpt lat="45.95139" lon="6.29892">
        <ele>1126</ele>
        <time>2011-04-16T10:46:38Z</time>
      </trkpt>
      <trkpt lat="45.95148" lon="6.29888">
        <ele>1126</ele>
        <time>2011-04-16T10:47:16Z</time>
      </trkpt>
      <trkpt lat="45.95141" lon="6.29898">
        <ele>1126</ele>
        <time>2011-04-16T10:47:42Z</time>
      </trkpt>
      <trkpt lat="45.95131" lon="6.29905">
        <ele>1121</ele>
        <time>2011-04-16T10:47:47Z</time>
      </trkpt>
      <trkpt lat="45.95121" lon="6.29904">
        <ele>1108</ele>
        <time>2011-04-16T10:47:55Z</time>
      </trkpt>
      <trkpt lat="45.95111" lon="6.29902">
        <ele>1094</ele>
        <time>2011-04-16T10:48:00Z</time>
      </trkpt>
      <trkpt lat="45.95101" lon="6.29899">
        <ele>1079</ele>
        <time>2011-04-16T10:48:05Z</time>
      </trkpt>
      <trkpt lat="45.95101" lon="6.29912">
        <ele>1089</ele>
        <time>2011-04-16T10:48:20Z</time>
      </trkpt>
      <trkpt lat="45.95099" lon="6.29927">
        <ele>1097</ele>
        <time>2011-04-16T10:48:23Z</time>
      </trkpt>
      <trkpt lat="45.95095" lon="6.29941">
        <ele>1108</ele>
        <time>2011-04-16T10:48:27Z</time>
      </trkpt>
      <trkpt lat="45.95099" lon="6.29954">
        <ele>1124</ele>
        <time>2011-04-16T10:48:32Z</time>
      </trkpt>
      <trkpt lat="45.95103" lon="6.29967">
        <ele>1136</ele>
        <time>2011-04-16T10:48:37Z</time>
      </trkpt>
      <trkpt lat="45.95106" lon="6.29982">
        <ele>1141</ele>
        <time>2011-04-16T10:48:41Z</time>
      </trkpt>
      <trkpt lat="45.9511" lon="6.29998">
        <ele>1141</ele>
        <time>2011-04-16T10:48:44Z</time>
      </trkpt>
      <trkpt lat="45.95119" lon="6.30007">
        <ele>1155</ele>
        <time>2011-04-16T10:48:46Z</time>
      </trkpt>
      <trkpt lat="45.95122" lon="6.30021">
        <ele>1160</ele>
        <time>2011-04-16T10:48:49Z</time>
      </trkpt>
      <trkpt lat="45.9512" lon="6.30035">
        <ele>1160</ele>
        <time>2011-04-16T10:48:53Z</time>
      </trkpt>
      <trkpt lat="45.95114" lon="6.30047">
        <ele>1153</ele>
        <time>2011-04-16T10:49:40Z</time>
      </trkpt>
      <trkpt lat="45.95111" lon="6.30033">
        <ele>1166</ele>
        <time>2011-04-16T10:50:07Z</time>
      </trkpt>
      <trkpt lat="45.95105" lon="6.30043">
        <ele>1173</ele>
        <time>2011-04-16T10:50:22Z</time>
      </trkpt>
      <trkpt lat="45.95097" lon="6.30051">
        <ele>1173</ele>
        <time>2011-04-16T10:50:47Z</time>
      </trkpt>
      <trkpt lat="45.95106" lon="6.30051">
        <ele>1173</ele>
        <time>2011-04-16T10:51:33Z</time>
      </trkpt>
      <trkpt lat="45.95097" lon="6.3005">
        <ele>1165</ele>
        <time>2011-04-16T10:52:43Z</time>
      </trkpt>
      <trkpt lat="45.95106" lon="6.30052">
        <ele>1179</ele>
        <time>2011-04-16T10:53:11Z</time>
      </trkpt>
      <trkpt lat="45.95116" lon="6.30056">
        <ele>1186</ele>
        <time>2011-04-16T10:53:32Z</time>
      </trkpt>
      <trkpt lat="45.95125" lon="6.3006">
        <ele>1196</ele>
        <time>2011-04-16T10:54:04Z</time>
      </trkpt>
      <trkpt lat="45.95116" lon="6.30057">
        <ele>1185</ele>
        <time>2011-04-16T10:54:17Z</time>
      </trkpt>
      <trkpt lat="45.95106" lon="6.30055">
        <ele>1175</ele>
        <time>2011-04-16T10:54:29Z</time>
      </trkpt>
      <trkpt lat="45.95097" lon="6.30054">
        <ele>1166</ele>
        <time>2011-04-16T10:54:43Z</time>
      </trkpt>
      <trkpt lat="45.95101" lon="6.30042">
        <ele>1180</ele>
        <time>2011-04-16T10:55:23Z</time>
      </trkpt>
      <trkpt lat="45.95091" lon="6.30051">
        <ele>1188</ele>
        <time>2011-04-16T10:55:47Z</time>
      </trkpt>
      <trkpt lat="45.95099" lon="6.3006">
        <ele>1182</ele>
        <time>2011-04-16T10:55:59Z</time>
      </trkpt>
      <trkpt lat="45.95092" lon="6.30051">
        <ele>1182</ele>
        <time>2011-04-16T10:56:35Z</time>
      </trkpt>
      <trkpt lat="45.95096" lon="6.30063">
        <ele>1170</ele>
        <time>2011-04-16T10:57:06Z</time>
      </trkpt>
      <trkpt lat="45.95099" lon="6.3005">
        <ele>1187</ele>
        <time>2011-04-16T10:57:32Z</time>
      </trkpt>
      <trkpt lat="45.9509" lon="6.30052">
        <ele>1187</ele>
        <time>2011-04-16T10:57:38Z</time>
      </trkpt>
      <trkpt lat="45.95077" lon="6.30038">
        <ele>1187</ele>
        <time>2011-04-16T10:57:40Z</time>
      </trkpt>
      <trkpt lat="45.9509" lon="6.3003">
        <ele>1204</ele>
        <time>2011-04-16T10:57:44Z</time>
      </trkpt>
      <trkpt lat="45.95082" lon="6.30022">
        <ele>1204</ele>
        <time>2011-04-16T10:57:46Z</time>
      </trkpt>
      <trkpt lat="45.95107" lon="6.30057">
        <ele>1223</ele>
        <time>2011-04-16T11:22:04Z</time>
      </trkpt>
      <trkpt lat="45.95098" lon="6.30064">
        <ele>1223</ele>
        <time>2011-04-16T11:22:15Z</time>
      </trkpt>
      <trkpt lat="45.95088" lon="6.30067">
        <ele>1217</ele>
        <time>2011-04-16T11:22:24Z</time>
      </trkpt>
      <trkpt lat="45.95082" lon="6.30077">
        <ele>1188</ele>
        <time>2011-04-16T11:22:34Z</time>
      </trkpt>
      <trkpt lat="45.95091" lon="6.30089">
        <ele>1175</ele>
        <time>2011-04-16T11:22:46Z</time>
      </trkpt>
      <trkpt lat="45.95094" lon="6.30103">
        <ele>1175</ele>
        <time>2011-04-16T11:22:49Z</time>
      </trkpt>
      <trkpt lat="45.95094" lon="6.30119">
        <ele>1175</ele>
        <time>2011-04-16T11:22:54Z</time>
      </trkpt>
      <trkpt lat="45.95095" lon="6.30135">
        <ele>1170</ele>
        <time>2011-04-16T11:22:58Z</time>
      </trkpt>
      <trkpt lat="45.95096" lon="6.3015">
        <ele>1170</ele>
        <time>2011-04-16T11:23:02Z</time>
      </trkpt>
      <trkpt lat="45.9509" lon="6.30166">
        <ele>1170</ele>
        <time>2011-04-16T11:23:05Z</time>
      </trkpt>
      <trkpt lat="45.95081" lon="6.30176">
        <ele>1176</ele>
        <time>2011-04-16T11:23:08Z</time>
      </trkpt>
      <trkpt lat="45.95075" lon="6.30187">
        <ele>1176</ele>
        <time>2011-04-16T11:23:10Z</time>
      </trkpt>
      <trkpt lat="45.95071" lon="6.30203">
        <ele>1176</ele>
        <time>2011-04-16T11:23:13Z</time>
      </trkpt>
      <trkpt lat="45.95067" lon="6.30218">
        <ele>1176</ele>
        <time>2011-04-16T11:23:16Z</time>
      </trkpt>
      <trkpt lat="45.95065" lon="6.30231">
        <ele>1176</ele>
        <time>2011-04-16T11:23:19Z</time>
      </trkpt>
      <trkpt lat="45.95061" lon="6.30246">
        <ele>1176</ele>
        <time>2011-04-16T11:23:22Z</time>
      </trkpt>
      <trkpt lat="45.95058" lon="6.30263">
        <ele>1176</ele>
        <time>2011-04-16T11:23:25Z</time>
      </trkpt>
      <trkpt lat="45.95055" lon="6.3028">
        <ele>1176</ele>
        <time>2011-04-16T11:23:28Z</time>
      </trkpt>
      <trkpt lat="45.95056" lon="6.30295">
        <ele>1176</ele>
        <time>2011-04-16T11:23:30Z</time>
      </trkpt>
      <trkpt lat="45.95057" lon="6.30308">
        <ele>1176</ele>
        <time>2011-04-16T11:23:32Z</time>
      </trkpt>
      <trkpt lat="45.95059" lon="6.30325">
        <ele>1176</ele>
        <time>2011-04-16T11:23:34Z</time>
      </trkpt>
      <trkpt lat="45.95062" lon="6.30337">
        <ele>1176</ele>
        <time>2011-04-16T11:23:36Z</time>
      </trkpt>
      <trkpt lat="45.95067" lon="6.30354">
        <ele>1181</ele>
        <time>2011-04-16T11:23:39Z</time>
      </trkpt>
      <trkpt lat="45.95072" lon="6.30367">
        <ele>1181</ele>
        <time>2011-04-16T11:23:41Z</time>
      </trkpt>
      <trkpt lat="45.95074" lon="6.3038">
        <ele>1181</ele>
        <time>2011-04-16T11:23:44Z</time>
      </trkpt>
      <trkpt lat="45.95083" lon="6.30372">
        <ele>1200</ele>
        <time>2011-04-16T11:23:51Z</time>
      </trkpt>
      <trkpt lat="45.95086" lon="6.30358">
        <ele>1228</ele>
        <time>2011-04-16T11:24:01Z</time>
      </trkpt>
      <trkpt lat="45.95092" lon="6.30349">
        <ele>1244</ele>
        <time>2011-04-16T11:24:06Z</time>
      </trkpt>
      <trkpt lat="45.95099" lon="6.3034">
        <ele>1268</ele>
        <time>2011-04-16T11:24:12Z</time>
      </trkpt>
      <trkpt lat="45.95092" lon="6.30351">
        <ele>1268</ele>
        <time>2011-04-16T11:24:20Z</time>
      </trkpt>
      <trkpt lat="45.95096" lon="6.30366">
        <ele>1257</ele>
        <time>2011-04-16T11:24:22Z</time>
      </trkpt>
      <trkpt lat="45.95104" lon="6.30382">
        <ele>1252</ele>
        <time>2011-04-16T11:24:24Z</time>
      </trkpt>
      <trkpt lat="45.95112" lon="6.30395">
        <ele>1246</ele>
        <time>2011-04-16T11:24:26Z</time>
      </trkpt>
      <trkpt lat="45.95121" lon="6.30412">
        <ele>1246</ele>
        <time>2011-04-16T11:24:28Z</time>
      </trkpt>
      <trkpt lat="45.95131" lon="6.30431">
        <ele>1234</ele>
        <time>2011-04-16T11:24:30Z</time>
      </trkpt>
      <trkpt lat="45.95142" lon="6.30448">
        <ele>1234</ele>
        <time>2011-04-16T11:24:32Z</time>
      </trkpt>
      <trkpt lat="45.95153" lon="6.30467">
        <ele>1223</ele>
        <time>2011-04-16T11:24:34Z</time>
      </trkpt>
      <trkpt lat="45.95164" lon="6.30484">
        <ele>1215</ele>
        <time>2011-04-16T11:24:36Z</time>
      </trkpt>
      <trkpt lat="45.95175" lon="6.30498">
        <ele>1215</ele>
        <time>2011-04-16T11:24:38Z</time>
      </trkpt>
      <trkpt lat="45.95185" lon="6.3051">
        <ele>1215</ele>
        <time>2011-04-16T11:24:40Z</time>
      </trkpt>
      <trkpt lat="45.95198" lon="6.30524">
        <ele>1215</ele>
        <time>2011-04-16T11:24:42Z</time>
      </trkpt>
      <trkpt lat="45.9521" lon="6.30539">
        <ele>1215</ele>
        <time>2011-04-16T11:24:44Z</time>
      </trkpt>
      <trkpt lat="45.95222" lon="6.30551">
        <ele>1215</ele>
        <time>2011-04-16T11:24:46Z</time>
      </trkpt>
      <trkpt lat="45.95234" lon="6.30567">
        <ele>1215</ele>
        <time>2011-04-16T11:24:48Z</time>
      </trkpt>
      <trkpt lat="45.95242" lon="6.30588">
        <ele>1215</ele>
        <time>2011-04-16T11:24:50Z</time>
      </trkpt>
      <trkpt lat="45.95248" lon="6.30598">
        <ele>1215</ele>
        <time>2011-04-16T11:24:51Z</time>
      </trkpt>
      <trkpt lat="45.95255" lon="6.30608">
        <ele>1215</ele>
        <time>2011-04-16T11:24:52Z</time>
      </trkpt>
      <trkpt lat="45.95268" lon="6.30626">
        <ele>1215</ele>
        <time>2011-04-16T11:24:54Z</time>
      </trkpt>
      <trkpt lat="45.95281" lon="6.30643">
        <ele>1223</ele>
        <time>2011-04-16T11:24:56Z</time>
      </trkpt>
      <trkpt lat="45.95295" lon="6.30657">
        <ele>1223</ele>
        <time>2011-04-16T11:24:58Z</time>
      </trkpt>
      <trkpt lat="45.95305" lon="6.30668">
        <ele>1231</ele>
        <time>2011-04-16T11:25:00Z</time>
      </trkpt>
      <trkpt lat="45.95315" lon="6.30676">
        <ele>1231</ele>
        <time>2011-04-16T11:25:02Z</time>
      </trkpt>
      <trkpt lat="45.95324" lon="6.30686">
        <ele>1238</ele>
        <time>2011-04-16T11:25:04Z</time>
      </trkpt>
      <trkpt lat="45.95332" lon="6.30696">
        <ele>1244</ele>
        <time>2011-04-16T11:25:06Z</time>
      </trkpt>
      <trkpt lat="45.95341" lon="6.3071">
        <ele>1250</ele>
        <time>2011-04-16T11:25:08Z</time>
      </trkpt>
      <trkpt lat="45.95352" lon="6.30723">
        <ele>1250</ele>
        <time>2011-04-16T11:25:10Z</time>
      </trkpt>
      <trkpt lat="45.95364" lon="6.30737">
        <ele>1256</ele>
        <time>2011-04-16T11:25:12Z</time>
      </trkpt>
      <trkpt lat="45.95376" lon="6.3075">
        <ele>1256</ele>
        <time>2011-04-16T11:25:14Z</time>
      </trkpt>
      <trkpt lat="45.95389" lon="6.30758">
        <ele>1256</ele>
        <time>2011-04-16T11:25:16Z</time>
      </trkpt>
      <trkpt lat="45.95398" lon="6.30758">
        <ele>1256</ele>
        <time>2011-04-16T11:25:17Z</time>
      </trkpt>
      <trkpt lat="45.95415" lon="6.30754">
        <ele>1256</ele>
        <time>2011-04-16T11:25:19Z</time>
      </trkpt>
      <trkpt lat="45.9543" lon="6.30755">
        <ele>1256</ele>
        <time>2011-04-16T11:25:21Z</time>
      </trkpt>
      <trkpt lat="45.95446" lon="6.30751">
        <ele>1256</ele>
        <time>2011-04-16T11:25:23Z</time>
      </trkpt>
      <trkpt lat="45.95459" lon="6.30746">
        <ele>1256</ele>
        <time>2011-04-16T11:25:25Z</time>
      </trkpt>
      <trkpt lat="45.9547" lon="6.30746">
        <ele>1256</ele>
        <time>2011-04-16T11:25:27Z</time>
      </trkpt>
      <trkpt lat="45.95476" lon="6.30759">
        <ele>1261</ele>
        <time>2011-04-16T11:25:29Z</time>
      </trkpt>
      <trkpt lat="45.95473" lon="6.30772">
        <ele>1278</ele>
        <time>2011-04-16T11:25:53Z</time>
      </trkpt>
      <trkpt lat="45.95462" lon="6.30777">
        <ele>1278</ele>
        <time>2011-04-16T11:26:03Z</time>
      </trkpt>
      <trkpt lat="45.95451" lon="6.30781">
        <ele>1272</ele>
        <time>2011-04-16T11:26:05Z</time>
      </trkpt>
      <trkpt lat="45.95436" lon="6.30783">
        <ele>1272</ele>
        <time>2011-04-16T11:26:07Z</time>
      </trkpt>
      <trkpt lat="45.9542" lon="6.30785">
        <ele>1272</ele>
        <time>2011-04-16T11:26:09Z</time>
      </trkpt>
      <trkpt lat="45.95406" lon="6.30786">
        <ele>1272</ele>
        <time>2011-04-16T11:26:11Z</time>
      </trkpt>
      <trkpt lat="45.95391" lon="6.30793">
        <ele>1272</ele>
        <time>2011-04-16T11:26:13Z</time>
      </trkpt>
      <trkpt lat="45.95381" lon="6.30797">
        <ele>1272</ele>
        <time>2011-04-16T11:26:14Z</time>
      </trkpt>
      <trkpt lat="45.95372" lon="6.30801">
        <ele>1277</ele>
        <time>2011-04-16T11:26:15Z</time>
      </trkpt>
      <trkpt lat="45.95356" lon="6.30806">
        <ele>1277</ele>
        <time>2011-04-16T11:26:17Z</time>
      </trkpt>
      <trkpt lat="45.95342" lon="6.30809">
        <ele>1277</ele>
        <time>2011-04-16T11:26:19Z</time>
      </trkpt>
      <trkpt lat="45.95333" lon="6.30816">
        <ele>1286</ele>
        <time>2011-04-16T11:26:21Z</time>
      </trkpt>
      <trkpt lat="45.95322" lon="6.30828">
        <ele>1286</ele>
        <time>2011-04-16T11:26:23Z</time>
      </trkpt>
      <trkpt lat="45.95308" lon="6.30838">
        <ele>1291</ele>
        <time>2011-04-16T11:26:25Z</time>
      </trkpt>
      <trkpt lat="45.95299" lon="6.30842">
        <ele>1291</ele>
        <time>2011-04-16T11:26:26Z</time>
      </trkpt>
      <trkpt lat="45.9529" lon="6.30846">
        <ele>1291</ele>
        <time>2011-04-16T11:26:27Z</time>
      </trkpt>
      <trkpt lat="45.95275" lon="6.30854">
        <ele>1291</ele>
        <time>2011-04-16T11:26:29Z</time>
      </trkpt>
      <trkpt lat="45.95265" lon="6.30866">
        <ele>1297</ele>
        <time>2011-04-16T11:26:31Z</time>
      </trkpt>
      <trkpt lat="45.95253" lon="6.30882">
        <ele>1297</ele>
        <time>2011-04-16T11:26:33Z</time>
      </trkpt>
      <trkpt lat="45.95243" lon="6.30899">
        <ele>1297</ele>
        <time>2011-04-16T11:26:35Z</time>
      </trkpt>
      <trkpt lat="45.95237" lon="6.3091">
        <ele>1306</ele>
        <time>2011-04-16T11:26:37Z</time>
      </trkpt>
      <trkpt lat="45.95223" lon="6.3092">
        <ele>1306</ele>
        <time>2011-04-16T11:26:40Z</time>
      </trkpt>
      <trkpt lat="45.95208" lon="6.30922">
        <ele>1314</ele>
        <time>2011-04-16T11:26:42Z</time>
      </trkpt>
      <trkpt lat="45.95197" lon="6.30917">
        <ele>1314</ele>
        <time>2011-04-16T11:26:45Z</time>
      </trkpt>
      <trkpt lat="45.95188" lon="6.30911">
        <ele>1321</ele>
        <time>2011-04-16T11:26:50Z</time>
      </trkpt>
      <trkpt lat="45.95176" lon="6.30913">
        <ele>1321</ele>
        <time>2011-04-16T11:26:54Z</time>
      </trkpt>
      <trkpt lat="45.95165" lon="6.30917">
        <ele>1321</ele>
        <time>2011-04-16T11:26:57Z</time>
      </trkpt>
      <trkpt lat="45.95157" lon="6.30924">
        <ele>1321</ele>
        <time>2011-04-16T11:26:59Z</time>
      </trkpt>
      <trkpt lat="45.95149" lon="6.30934">
        <ele>1321</ele>
        <time>2011-04-16T11:27:01Z</time>
      </trkpt>
      <trkpt lat="45.95142" lon="6.30943">
        <ele>1321</ele>
        <time>2011-04-16T11:27:03Z</time>
      </trkpt>
      <trkpt lat="45.95139" lon="6.30961">
        <ele>1321</ele>
        <time>2011-04-16T11:27:12Z</time>
      </trkpt>
      <trkpt lat="45.95137" lon="6.30976">
        <ele>1321</ele>
        <time>2011-04-16T11:27:15Z</time>
      </trkpt>
      <trkpt lat="45.9513" lon="6.30985">
        <ele>1335</ele>
        <time>2011-04-16T11:27:55Z</time>
      </trkpt>
      <trkpt lat="45.95133" lon="6.3097">
        <ele>1335</ele>
        <time>2011-04-16T11:29:25Z</time>
      </trkpt>
      <trkpt lat="45.95136" lon="6.30955">
        <ele>1330</ele>
        <time>2011-04-16T11:29:28Z</time>
      </trkpt>
      <trkpt lat="45.95144" lon="6.30943">
        <ele>1322</ele>
        <time>2011-04-16T11:29:46Z</time>
      </trkpt>
      <trkpt lat="45.95141" lon="6.30929">
        <ele>1322</ele>
        <time>2011-04-16T11:29:48Z</time>
      </trkpt>
      <trkpt lat="45.95138" lon="6.30912">
        <ele>1322</ele>
        <time>2011-04-16T11:29:50Z</time>
      </trkpt>
      <trkpt lat="45.95131" lon="6.30899">
        <ele>1315</ele>
        <time>2011-04-16T11:29:52Z</time>
      </trkpt>
      <trkpt lat="45.95128" lon="6.30885">
        <ele>1315</ele>
        <time>2011-04-16T11:29:54Z</time>
      </trkpt>
      <trkpt lat="45.95124" lon="6.30873">
        <ele>1315</ele>
        <time>2011-04-16T11:29:56Z</time>
      </trkpt>
      <trkpt lat="45.95116" lon="6.30859">
        <ele>1315</ele>
        <time>2011-04-16T11:29:58Z</time>
      </trkpt>
      <trkpt lat="45.95106" lon="6.30846">
        <ele>1315</ele>
        <time>2011-04-16T11:30:00Z</time>
      </trkpt>
      <trkpt lat="45.95094" lon="6.30832">
        <ele>1315</ele>
        <time>2011-04-16T11:30:02Z</time>
      </trkpt>
      <trkpt lat="45.95084" lon="6.30822">
        <ele>1315</ele>
        <time>2011-04-16T11:30:04Z</time>
      </trkpt>
      <trkpt lat="45.95074" lon="6.30814">
        <ele>1315</ele>
        <time>2011-04-16T11:30:06Z</time>
      </trkpt>
      <trkpt lat="45.95065" lon="6.30807">
        <ele>1315</ele>
        <time>2011-04-16T11:30:08Z</time>
      </trkpt>
      <trkpt lat="45.95057" lon="6.30799">
        <ele>1315</ele>
        <time>2011-04-16T11:30:11Z</time>
      </trkpt>
      <trkpt lat="45.95048" lon="6.30791">
        <ele>1315</ele>
        <time>2011-04-16T11:30:13Z</time>
      </trkpt>
      <trkpt lat="45.95041" lon="6.3078">
        <ele>1321</ele>
        <time>2011-04-16T11:30:15Z</time>
      </trkpt>
      <trkpt lat="45.95035" lon="6.30766">
        <ele>1321</ele>
        <time>2011-04-16T11:30:17Z</time>
      </trkpt>
      <trkpt lat="45.95027" lon="6.30752">
        <ele>1321</ele>
        <time>2011-04-16T11:30:20Z</time>
      </trkpt>
      <trkpt lat="45.95017" lon="6.3074">
        <ele>1328</ele>
        <time>2011-04-16T11:30:23Z</time>
      </trkpt>
      <trkpt lat="45.95008" lon="6.30732">
        <ele>1328</ele>
        <time>2011-04-16T11:30:25Z</time>
      </trkpt>
      <trkpt lat="45.94998" lon="6.30725">
        <ele>1328</ele>
        <time>2011-04-16T11:30:27Z</time>
      </trkpt>
      <trkpt lat="45.94985" lon="6.30721">
        <ele>1328</ele>
        <time>2011-04-16T11:30:30Z</time>
      </trkpt>
      <trkpt lat="45.94973" lon="6.30717">
        <ele>1336</ele>
        <time>2011-04-16T11:30:33Z</time>
      </trkpt>
      <trkpt lat="45.94965" lon="6.30711">
        <ele>1336</ele>
        <time>2011-04-16T11:30:37Z</time>
      </trkpt>
      <trkpt lat="45.94954" lon="6.30699">
        <ele>1342</ele>
        <time>2011-04-16T11:30:42Z</time>
      </trkpt>
      <trkpt lat="45.94943" lon="6.30696">
        <ele>1342</ele>
        <time>2011-04-16T11:30:44Z</time>
      </trkpt>
      <trkpt lat="45.94933" lon="6.30695">
        <ele>1342</ele>
        <time>2011-04-16T11:30:46Z</time>
      </trkpt>
      <trkpt lat="45.94921" lon="6.30689">
        <ele>1342</ele>
        <time>2011-04-16T11:30:48Z</time>
      </trkpt>
      <trkpt lat="45.94911" lon="6.30685">
        <ele>1348</ele>
        <time>2011-04-16T11:30:50Z</time>
      </trkpt>
      <trkpt lat="45.94899" lon="6.30679">
        <ele>1348</ele>
        <time>2011-04-16T11:30:53Z</time>
      </trkpt>
      <trkpt lat="45.94894" lon="6.30668">
        <ele>1348</ele>
        <time>2011-04-16T11:30:56Z</time>
      </trkpt>
      <trkpt lat="45.94892" lon="6.30654">
        <ele>1348</ele>
        <time>2011-04-16T11:31:13Z</time>
      </trkpt>
      <trkpt lat="45.94889" lon="6.30641">
        <ele>1348</ele>
        <time>2011-04-16T11:31:15Z</time>
      </trkpt>
      <trkpt lat="45.94884" lon="6.30625">
        <ele>1348</ele>
        <time>2011-04-16T11:31:17Z</time>
      </trkpt>
      <trkpt lat="45.94877" lon="6.30616">
        <ele>1357</ele>
        <time>2011-04-16T11:31:33Z</time>
      </trkpt>
      <trkpt lat="45.94872" lon="6.30604">
        <ele>1364</ele>
        <time>2011-04-16T11:31:39Z</time>
      </trkpt>
      <trkpt lat="45.94864" lon="6.30596">
        <ele>1364</ele>
        <time>2011-04-16T11:31:51Z</time>
      </trkpt>
      <trkpt lat="45.94856" lon="6.3059">
        <ele>1364</ele>
        <time>2011-04-16T11:31:56Z</time>
      </trkpt>
      <trkpt lat="45.94842" lon="6.30586">
        <ele>1364</ele>
        <time>2011-04-16T11:31:59Z</time>
      </trkpt>
      <trkpt lat="45.94833" lon="6.30585">
        <ele>1364</ele>
        <time>2011-04-16T11:32:03Z</time>
      </trkpt>
      <trkpt lat="45.94824" lon="6.30584">
        <ele>1364</ele>
        <time>2011-04-16T11:32:26Z</time>
      </trkpt>
      <trkpt lat="45.9482" lon="6.30564">
        <ele>1364</ele>
        <time>2011-04-16T11:33:19Z</time>
      </trkpt>
      <trkpt lat="45.94814" lon="6.30544">
        <ele>1364</ele>
        <time>2011-04-16T11:33:21Z</time>
      </trkpt>
      <trkpt lat="45.9481" lon="6.30532">
        <ele>1364</ele>
        <time>2011-04-16T11:33:22Z</time>
      </trkpt>
      <trkpt lat="45.94804" lon="6.3052">
        <ele>1364</ele>
        <time>2011-04-16T11:33:23Z</time>
      </trkpt>
      <trkpt lat="45.94795" lon="6.3051">
        <ele>1364</ele>
        <time>2011-04-16T11:33:24Z</time>
      </trkpt>
      <trkpt lat="45.94785" lon="6.30502">
        <ele>1364</ele>
        <time>2011-04-16T11:33:25Z</time>
      </trkpt>
      <trkpt lat="45.94775" lon="6.30495">
        <ele>1364</ele>
        <time>2011-04-16T11:33:26Z</time>
      </trkpt>
      <trkpt lat="45.94765" lon="6.30487">
        <ele>1364</ele>
        <time>2011-04-16T11:33:27Z</time>
      </trkpt>
      <trkpt lat="45.94754" lon="6.30481">
        <ele>1364</ele>
        <time>2011-04-16T11:33:28Z</time>
      </trkpt>
      <trkpt lat="45.94742" lon="6.30478">
        <ele>1364</ele>
        <time>2011-04-16T11:33:29Z</time>
      </trkpt>
      <trkpt lat="45.94733" lon="6.30475">
        <ele>1364</ele>
        <time>2011-04-16T11:33:30Z</time>
      </trkpt>
      <trkpt lat="45.9472" lon="6.30464">
        <ele>1364</ele>
        <time>2011-04-16T11:33:32Z</time>
      </trkpt>
      <trkpt lat="45.94712" lon="6.30448">
        <ele>1364</ele>
        <time>2011-04-16T11:33:34Z</time>
      </trkpt>
      <trkpt lat="45.94709" lon="6.30435">
        <ele>1364</ele>
        <time>2011-04-16T11:33:35Z</time>
      </trkpt>
      <trkpt lat="45.94702" lon="6.30425">
        <ele>1364</ele>
        <time>2011-04-16T11:33:36Z</time>
      </trkpt>
      <trkpt lat="45.94694" lon="6.30415">
        <ele>1364</ele>
        <time>2011-04-16T11:33:37Z</time>
      </trkpt>
      <trkpt lat="45.94685" lon="6.30408">
        <ele>1364</ele>
        <time>2011-04-16T11:33:38Z</time>
      </trkpt>
      <trkpt lat="45.94677" lon="6.30401">
        <ele>1364</ele>
        <time>2011-04-16T11:33:39Z</time>
      </trkpt>
      <trkpt lat="45.94666" lon="6.30388">
        <ele>1364</ele>
        <time>2011-04-16T11:33:41Z</time>
      </trkpt>
      <trkpt lat="45.94658" lon="6.30372">
        <ele>1364</ele>
        <time>2011-04-16T11:33:43Z</time>
      </trkpt>
      <trkpt lat="45.94649" lon="6.30352">
        <ele>1364</ele>
        <time>2011-04-16T11:33:45Z</time>
      </trkpt>
      <trkpt lat="45.94643" lon="6.30337">
        <ele>1364</ele>
        <time>2011-04-16T11:33:47Z</time>
      </trkpt>
      <trkpt lat="45.94637" lon="6.3032">
        <ele>1364</ele>
        <time>2011-04-16T11:33:49Z</time>
      </trkpt>
      <trkpt lat="45.94629" lon="6.303">
        <ele>1371</ele>
        <time>2011-04-16T11:33:51Z</time>
      </trkpt>
      <trkpt lat="45.94624" lon="6.30289">
        <ele>1371</ele>
        <time>2011-04-16T11:33:52Z</time>
      </trkpt>
      <trkpt lat="45.94621" lon="6.30275">
        <ele>1371</ele>
        <time>2011-04-16T11:33:53Z</time>
      </trkpt>
      <trkpt lat="45.94616" lon="6.30261">
        <ele>1371</ele>
        <time>2011-04-16T11:33:54Z</time>
      </trkpt>
      <trkpt lat="45.94609" lon="6.30247">
        <ele>1371</ele>
        <time>2011-04-16T11:33:55Z</time>
      </trkpt>
      <trkpt lat="45.94602" lon="6.30234">
        <ele>1371</ele>
        <time>2011-04-16T11:33:56Z</time>
      </trkpt>
      <trkpt lat="45.94596" lon="6.3022">
        <ele>1371</ele>
        <time>2011-04-16T11:33:57Z</time>
      </trkpt>
      <trkpt lat="45.9459" lon="6.30209">
        <ele>1371</ele>
        <time>2011-04-16T11:33:58Z</time>
      </trkpt>
      <trkpt lat="45.94584" lon="6.30196">
        <ele>1371</ele>
        <time>2011-04-16T11:33:59Z</time>
      </trkpt>
      <trkpt lat="45.94577" lon="6.30183">
        <ele>1371</ele>
        <time>2011-04-16T11:34:00Z</time>
      </trkpt>
      <trkpt lat="45.9457" lon="6.30171">
        <ele>1371</ele>
        <time>2011-04-16T11:34:01Z</time>
      </trkpt>
      <trkpt lat="45.94564" lon="6.3016">
        <ele>1371</ele>
        <time>2011-04-16T11:34:02Z</time>
      </trkpt>
      <trkpt lat="45.94555" lon="6.30153">
        <ele>1371</ele>
        <time>2011-04-16T11:34:03Z</time>
      </trkpt>
      <trkpt lat="45.94542" lon="6.30139">
        <ele>1371</ele>
        <time>2011-04-16T11:34:05Z</time>
      </trkpt>
      <trkpt lat="45.94533" lon="6.30122">
        <ele>1371</ele>
        <time>2011-04-16T11:34:07Z</time>
      </trkpt>
      <trkpt lat="45.9453" lon="6.30104">
        <ele>1371</ele>
        <time>2011-04-16T11:34:09Z</time>
      </trkpt>
      <trkpt lat="45.94531" lon="6.3009">
        <ele>1371</ele>
        <time>2011-04-16T11:34:10Z</time>
      </trkpt>
      <trkpt lat="45.94533" lon="6.30076">
        <ele>1371</ele>
        <time>2011-04-16T11:34:11Z</time>
      </trkpt>
      <trkpt lat="45.94538" lon="6.30062">
        <ele>1371</ele>
        <time>2011-04-16T11:34:12Z</time>
      </trkpt>
      <trkpt lat="45.94542" lon="6.30048">
        <ele>1371</ele>
        <time>2011-04-16T11:34:13Z</time>
      </trkpt>
      <trkpt lat="45.94548" lon="6.30036">
        <ele>1371</ele>
        <time>2011-04-16T11:34:14Z</time>
      </trkpt>
      <trkpt lat="45.94557" lon="6.30018">
        <ele>1365</ele>
        <time>2011-04-16T11:34:16Z</time>
      </trkpt>
      <trkpt lat="45.9456" lon="6.30002">
        <ele>1365</ele>
        <time>2011-04-16T11:34:37Z</time>
      </trkpt>
      <trkpt lat="45.94565" lon="6.29987">
        <ele>1365</ele>
        <time>2011-04-16T11:34:40Z</time>
      </trkpt>
      <trkpt lat="45.94569" lon="6.29969">
        <ele>1365</ele>
        <time>2011-04-16T11:34:43Z</time>
      </trkpt>
      <trkpt lat="45.94574" lon="6.29955">
        <ele>1365</ele>
        <time>2011-04-16T11:34:45Z</time>
      </trkpt>
      <trkpt lat="45.94582" lon="6.29944">
        <ele>1365</ele>
        <time>2011-04-16T11:34:47Z</time>
      </trkpt>
      <trkpt lat="45.94592" lon="6.29939">
        <ele>1359</ele>
        <time>2011-04-16T11:34:49Z</time>
      </trkpt>
      <trkpt lat="45.94604" lon="6.29944">
        <ele>1359</ele>
        <time>2011-04-16T11:34:51Z</time>
      </trkpt>
      <trkpt lat="45.94617" lon="6.29953">
        <ele>1359</ele>
        <time>2011-04-16T11:34:53Z</time>
      </trkpt>
      <trkpt lat="45.94627" lon="6.29964">
        <ele>1359</ele>
        <time>2011-04-16T11:34:55Z</time>
      </trkpt>
      <trkpt lat="45.94636" lon="6.29979">
        <ele>1359</ele>
        <time>2011-04-16T11:34:57Z</time>
      </trkpt>
      <trkpt lat="45.94643" lon="6.29993">
        <ele>1359</ele>
        <time>2011-04-16T11:34:59Z</time>
      </trkpt>
      <trkpt lat="45.94649" lon="6.30005">
        <ele>1359</ele>
        <time>2011-04-16T11:35:01Z</time>
      </trkpt>
      <trkpt lat="45.94658" lon="6.29998">
        <ele>1353</ele>
        <time>2011-04-16T11:35:04Z</time>
      </trkpt>
      <trkpt lat="45.94655" lon="6.29985">
        <ele>1353</ele>
        <time>2011-04-16T11:35:06Z</time>
      </trkpt>
      <trkpt lat="45.94646" lon="6.29969">
        <ele>1353</ele>
        <time>2011-04-16T11:35:08Z</time>
      </trkpt>
      <trkpt lat="45.94634" lon="6.2995">
        <ele>1353</ele>
        <time>2011-04-16T11:35:10Z</time>
      </trkpt>
      <trkpt lat="45.94629" lon="6.29938">
        <ele>1347</ele>
        <time>2011-04-16T11:35:11Z</time>
      </trkpt>
      <trkpt lat="45.94623" lon="6.29927">
        <ele>1347</ele>
        <time>2011-04-16T11:35:12Z</time>
      </trkpt>
      <trkpt lat="45.94617" lon="6.29917">
        <ele>1347</ele>
        <time>2011-04-16T11:35:13Z</time>
      </trkpt>
      <trkpt lat="45.94612" lon="6.29906">
        <ele>1347</ele>
        <time>2011-04-16T11:35:14Z</time>
      </trkpt>
      <trkpt lat="45.94606" lon="6.29895">
        <ele>1342</ele>
        <time>2011-04-16T11:35:15Z</time>
      </trkpt>
      <trkpt lat="45.94593" lon="6.29877">
        <ele>1342</ele>
        <time>2011-04-16T11:35:17Z</time>
      </trkpt>
      <trkpt lat="45.9458" lon="6.2986">
        <ele>1342</ele>
        <time>2011-04-16T11:35:19Z</time>
      </trkpt>
      <trkpt lat="45.94569" lon="6.29845">
        <ele>1335</ele>
        <time>2011-04-16T11:35:21Z</time>
      </trkpt>
      <trkpt lat="45.94559" lon="6.29831">
        <ele>1335</ele>
        <time>2011-04-16T11:35:23Z</time>
      </trkpt>
      <trkpt lat="45.94545" lon="6.29823">
        <ele>1335</ele>
        <time>2011-04-16T11:35:25Z</time>
      </trkpt>
      <trkpt lat="45.94531" lon="6.29816">
        <ele>1329</ele>
        <time>2011-04-16T11:35:27Z</time>
      </trkpt>
      <trkpt lat="45.94518" lon="6.29802">
        <ele>1329</ele>
        <time>2011-04-16T11:35:29Z</time>
      </trkpt>
      <trkpt lat="45.94508" lon="6.29783">
        <ele>1324</ele>
        <time>2011-04-16T11:35:31Z</time>
      </trkpt>
      <trkpt lat="45.94497" lon="6.29763">
        <ele>1324</ele>
        <time>2011-04-16T11:35:33Z</time>
      </trkpt>
      <trkpt lat="45.94488" lon="6.29744">
        <ele>1318</ele>
        <time>2011-04-16T11:35:35Z</time>
      </trkpt>
      <trkpt lat="45.94479" lon="6.29727">
        <ele>1318</ele>
        <time>2011-04-16T11:35:37Z</time>
      </trkpt>
      <trkpt lat="45.94466" lon="6.29712">
        <ele>1318</ele>
        <time>2011-04-16T11:35:39Z</time>
      </trkpt>
      <trkpt lat="45.94459" lon="6.29703">
        <ele>1313</ele>
        <time>2011-04-16T11:35:40Z</time>
      </trkpt>
      <trkpt lat="45.94451" lon="6.29694">
        <ele>1313</ele>
        <time>2011-04-16T11:35:41Z</time>
      </trkpt>
      <trkpt lat="45.94443" lon="6.29686">
        <ele>1313</ele>
        <time>2011-04-16T11:35:42Z</time>
      </trkpt>
      <trkpt lat="45.94434" lon="6.29677">
        <ele>1313</ele>
        <time>2011-04-16T11:35:43Z</time>
      </trkpt>
      <trkpt lat="45.94426" lon="6.29668">
        <ele>1308</ele>
        <time>2011-04-16T11:35:44Z</time>
      </trkpt>
      <trkpt lat="45.94418" lon="6.29658">
        <ele>1308</ele>
        <time>2011-04-16T11:35:45Z</time>
      </trkpt>
      <trkpt lat="45.94411" lon="6.29649">
        <ele>1308</ele>
        <time>2011-04-16T11:35:46Z</time>
      </trkpt>
      <trkpt lat="45.94403" lon="6.2964">
        <ele>1308</ele>
        <time>2011-04-16T11:35:47Z</time>
      </trkpt>
      <trkpt lat="45.94396" lon="6.29631">
        <ele>1302</ele>
        <time>2011-04-16T11:35:48Z</time>
      </trkpt>
      <trkpt lat="45.94384" lon="6.29613">
        <ele>1302</ele>
        <time>2011-04-16T11:35:50Z</time>
      </trkpt>
      <trkpt lat="45.94371" lon="6.29596">
        <ele>1302</ele>
        <time>2011-04-16T11:35:52Z</time>
      </trkpt>
      <trkpt lat="45.94364" lon="6.29588">
        <ele>1296</ele>
        <time>2011-04-16T11:35:53Z</time>
      </trkpt>
      <trkpt lat="45.9435" lon="6.29572">
        <ele>1296</ele>
        <time>2011-04-16T11:35:55Z</time>
      </trkpt>
      <trkpt lat="45.94342" lon="6.29563">
        <ele>1296</ele>
        <time>2011-04-16T11:35:56Z</time>
      </trkpt>
      <trkpt lat="45.94327" lon="6.29547">
        <ele>1296</ele>
        <time>2011-04-16T11:35:58Z</time>
      </trkpt>
      <trkpt lat="45.94313" lon="6.2953">
        <ele>1290</ele>
        <time>2011-04-16T11:36:00Z</time>
      </trkpt>
      <trkpt lat="45.943" lon="6.29512">
        <ele>1290</ele>
        <time>2011-04-16T11:36:02Z</time>
      </trkpt>
      <trkpt lat="45.94287" lon="6.29499">
        <ele>1290</ele>
        <time>2011-04-16T11:36:04Z</time>
      </trkpt>
      <trkpt lat="45.94273" lon="6.29486">
        <ele>1284</ele>
        <time>2011-04-16T11:36:06Z</time>
      </trkpt>
      <trkpt lat="45.9426" lon="6.29469">
        <ele>1284</ele>
        <time>2011-04-16T11:36:08Z</time>
      </trkpt>
      <trkpt lat="45.9425" lon="6.2945">
        <ele>1284</ele>
        <time>2011-04-16T11:36:10Z</time>
      </trkpt>
      <trkpt lat="45.94245" lon="6.2943">
        <ele>1284</ele>
        <time>2011-04-16T11:36:12Z</time>
      </trkpt>
      <trkpt lat="45.94245" lon="6.29409">
        <ele>1284</ele>
        <time>2011-04-16T11:36:14Z</time>
      </trkpt>
      <trkpt lat="45.94246" lon="6.29396">
        <ele>1284</ele>
        <time>2011-04-16T11:36:15Z</time>
      </trkpt>
      <trkpt lat="45.94248" lon="6.29371">
        <ele>1276</ele>
        <time>2011-04-16T11:36:17Z</time>
      </trkpt>
      <trkpt lat="45.94244" lon="6.29345">
        <ele>1276</ele>
        <time>2011-04-16T11:36:19Z</time>
      </trkpt>
      <trkpt lat="45.9424" lon="6.29331">
        <ele>1276</ele>
        <time>2011-04-16T11:36:20Z</time>
      </trkpt>
      <trkpt lat="45.94235" lon="6.29318">
        <ele>1276</ele>
        <time>2011-04-16T11:36:21Z</time>
      </trkpt>
      <trkpt lat="45.94229" lon="6.29305">
        <ele>1271</ele>
        <time>2011-04-16T11:36:22Z</time>
      </trkpt>
      <trkpt lat="45.94223" lon="6.29293">
        <ele>1271</ele>
        <time>2011-04-16T11:36:23Z</time>
      </trkpt>
      <trkpt lat="45.94215" lon="6.29282">
        <ele>1271</ele>
        <time>2011-04-16T11:36:24Z</time>
      </trkpt>
      <trkpt lat="45.94206" lon="6.2927">
        <ele>1271</ele>
        <time>2011-04-16T11:36:25Z</time>
      </trkpt>
      <trkpt lat="45.94195" lon="6.29259">
        <ele>1271</ele>
        <time>2011-04-16T11:36:26Z</time>
      </trkpt>
      <trkpt lat="45.94184" lon="6.29248">
        <ele>1271</ele>
        <time>2011-04-16T11:36:27Z</time>
      </trkpt>
      <trkpt lat="45.94174" lon="6.29238">
        <ele>1271</ele>
        <time>2011-04-16T11:36:28Z</time>
      </trkpt>
      <trkpt lat="45.94163" lon="6.29228">
        <ele>1276</ele>
        <time>2011-04-16T11:36:29Z</time>
      </trkpt>
      <trkpt lat="45.94152" lon="6.29219">
        <ele>1276</ele>
        <time>2011-04-16T11:36:30Z</time>
      </trkpt>
      <trkpt lat="45.94141" lon="6.29208">
        <ele>1276</ele>
        <time>2011-04-16T11:36:31Z</time>
      </trkpt>
      <trkpt lat="45.94131" lon="6.29195">
        <ele>1282</ele>
        <time>2011-04-16T11:36:32Z</time>
      </trkpt>
      <trkpt lat="45.94121" lon="6.2918">
        <ele>1282</ele>
        <time>2011-04-16T11:36:33Z</time>
      </trkpt>
      <trkpt lat="45.9411" lon="6.29165">
        <ele>1282</ele>
        <time>2011-04-16T11:36:34Z</time>
      </trkpt>
      <trkpt lat="45.94097" lon="6.29149">
        <ele>1282</ele>
        <time>2011-04-16T11:36:35Z</time>
      </trkpt>
      <trkpt lat="45.94084" lon="6.29134">
        <ele>1282</ele>
        <time>2011-04-16T11:36:36Z</time>
      </trkpt>
      <trkpt lat="45.94072" lon="6.29121">
        <ele>1288</ele>
        <time>2011-04-16T11:36:37Z</time>
      </trkpt>
      <trkpt lat="45.9406" lon="6.29109">
        <ele>1288</ele>
        <time>2011-04-16T11:36:38Z</time>
      </trkpt>
      <trkpt lat="45.94048" lon="6.29098">
        <ele>1288</ele>
        <time>2011-04-16T11:36:39Z</time>
      </trkpt>
      <trkpt lat="45.94038" lon="6.29088">
        <ele>1288</ele>
        <time>2011-04-16T11:36:40Z</time>
      </trkpt>
      <trkpt lat="45.94028" lon="6.29077">
        <ele>1295</ele>
        <time>2011-04-16T11:36:41Z</time>
      </trkpt>
      <trkpt lat="45.94018" lon="6.29066">
        <ele>1295</ele>
        <time>2011-04-16T11:36:42Z</time>
      </trkpt>
      <trkpt lat="45.9401" lon="6.29054">
        <ele>1301</ele>
        <time>2011-04-16T11:36:43Z</time>
      </trkpt>
      <trkpt lat="45.94001" lon="6.29043">
        <ele>1301</ele>
        <time>2011-04-16T11:36:44Z</time>
      </trkpt>
      <trkpt lat="45.93994" lon="6.29034">
        <ele>1301</ele>
        <time>2011-04-16T11:36:45Z</time>
      </trkpt>
      <trkpt lat="45.93978" lon="6.29024">
        <ele>1310</ele>
        <time>2011-04-16T11:36:47Z</time>
      </trkpt>
      <trkpt lat="45.93969" lon="6.29019">
        <ele>1310</ele>
        <time>2011-04-16T11:36:48Z</time>
      </trkpt>
      <trkpt lat="45.9396" lon="6.29016">
        <ele>1310</ele>
        <time>2011-04-16T11:36:49Z</time>
      </trkpt>
      <trkpt lat="45.93942" lon="6.29007">
        <ele>1318</ele>
        <time>2011-04-16T11:36:51Z</time>
      </trkpt>
      <trkpt lat="45.93933" lon="6.28999">
        <ele>1318</ele>
        <time>2011-04-16T11:36:52Z</time>
      </trkpt>
      <trkpt lat="45.93924" lon="6.28991">
        <ele>1318</ele>
        <time>2011-04-16T11:36:53Z</time>
      </trkpt>
      <trkpt lat="45.93913" lon="6.28981">
        <ele>1318</ele>
        <time>2011-04-16T11:36:54Z</time>
      </trkpt>
      <trkpt lat="45.93902" lon="6.28971">
        <ele>1324</ele>
        <time>2011-04-16T11:36:55Z</time>
      </trkpt>
      <trkpt lat="45.93893" lon="6.2896">
        <ele>1324</ele>
        <time>2011-04-16T11:36:56Z</time>
      </trkpt>
      <trkpt lat="45.93884" lon="6.2895">
        <ele>1324</ele>
        <time>2011-04-16T11:36:57Z</time>
      </trkpt>
      <trkpt lat="45.93874" lon="6.28939">
        <ele>1324</ele>
        <time>2011-04-16T11:36:58Z</time>
      </trkpt>
      <trkpt lat="45.93863" lon="6.28929">
        <ele>1330</ele>
        <time>2011-04-16T11:36:59Z</time>
      </trkpt>
      <trkpt lat="45.93853" lon="6.28919">
        <ele>1330</ele>
        <time>2011-04-16T11:37:00Z</time>
      </trkpt>
      <trkpt lat="45.93842" lon="6.28911">
        <ele>1330</ele>
        <time>2011-04-16T11:37:01Z</time>
      </trkpt>
      <trkpt lat="45.93832" lon="6.28903">
        <ele>1330</ele>
        <time>2011-04-16T11:37:02Z</time>
      </trkpt>
      <trkpt lat="45.93822" lon="6.28895">
        <ele>1330</ele>
        <time>2011-04-16T11:37:03Z</time>
      </trkpt>
      <trkpt lat="45.93813" lon="6.28888">
        <ele>1335</ele>
        <time>2011-04-16T11:37:04Z</time>
      </trkpt>
      <trkpt lat="45.93804" lon="6.28879">
        <ele>1335</ele>
        <time>2011-04-16T11:37:05Z</time>
      </trkpt>
      <trkpt lat="45.93798" lon="6.28866">
        <ele>1335</ele>
        <time>2011-04-16T11:37:06Z</time>
      </trkpt>
      <trkpt lat="45.9379" lon="6.28849">
        <ele>1335</ele>
        <time>2011-04-16T11:37:07Z</time>
      </trkpt>
      <trkpt lat="45.93782" lon="6.28831">
        <ele>1335</ele>
        <time>2011-04-16T11:37:08Z</time>
      </trkpt>
      <trkpt lat="45.93774" lon="6.28814">
        <ele>1335</ele>
        <time>2011-04-16T11:37:09Z</time>
      </trkpt>
      <trkpt lat="45.93764" lon="6.288">
        <ele>1335</ele>
        <time>2011-04-16T11:37:10Z</time>
      </trkpt>
      <trkpt lat="45.93754" lon="6.28787">
        <ele>1342</ele>
        <time>2011-04-16T11:37:11Z</time>
      </trkpt>
      <trkpt lat="45.93744" lon="6.28774">
        <ele>1342</ele>
        <time>2011-04-16T11:37:12Z</time>
      </trkpt>
      <trkpt lat="45.93736" lon="6.28762">
        <ele>1342</ele>
        <time>2011-04-16T11:37:13Z</time>
      </trkpt>
      <trkpt lat="45.93726" lon="6.28752">
        <ele>1342</ele>
        <time>2011-04-16T11:37:14Z</time>
      </trkpt>
      <trkpt lat="45.93718" lon="6.28741">
        <ele>1342</ele>
        <time>2011-04-16T11:37:15Z</time>
      </trkpt>
      <trkpt lat="45.9371" lon="6.28728">
        <ele>1342</ele>
        <time>2011-04-16T11:37:16Z</time>
      </trkpt>
      <trkpt lat="45.93704" lon="6.28713">
        <ele>1342</ele>
        <time>2011-04-16T11:37:17Z</time>
      </trkpt>
      <trkpt lat="45.93697" lon="6.28699">
        <ele>1342</ele>
        <time>2011-04-16T11:37:18Z</time>
      </trkpt>
      <trkpt lat="45.9369" lon="6.28684">
        <ele>1342</ele>
        <time>2011-04-16T11:37:19Z</time>
      </trkpt>
      <trkpt lat="45.93684" lon="6.28671">
        <ele>1342</ele>
        <time>2011-04-16T11:37:20Z</time>
      </trkpt>
      <trkpt lat="45.93678" lon="6.28656">
        <ele>1342</ele>
        <time>2011-04-16T11:37:21Z</time>
      </trkpt>
      <trkpt lat="45.93672" lon="6.28643">
        <ele>1342</ele>
        <time>2011-04-16T11:37:22Z</time>
      </trkpt>
      <trkpt lat="45.93667" lon="6.28629">
        <ele>1342</ele>
        <time>2011-04-16T11:37:23Z</time>
      </trkpt>
      <trkpt lat="45.9366" lon="6.28619">
        <ele>1342</ele>
        <time>2011-04-16T11:37:24Z</time>
      </trkpt>
      <trkpt lat="45.93646" lon="6.28602">
        <ele>1347</ele>
        <time>2011-04-16T11:37:26Z</time>
      </trkpt>
      <trkpt lat="45.93637" lon="6.28593">
        <ele>1347</ele>
        <time>2011-04-16T11:37:27Z</time>
      </trkpt>
      <trkpt lat="45.93628" lon="6.28584">
        <ele>1347</ele>
        <time>2011-04-16T11:37:28Z</time>
      </trkpt>
      <trkpt lat="45.93618" lon="6.28575">
        <ele>1347</ele>
        <time>2011-04-16T11:37:29Z</time>
      </trkpt>
      <trkpt lat="45.93608" lon="6.28563">
        <ele>1347</ele>
        <time>2011-04-16T11:37:30Z</time>
      </trkpt>
      <trkpt lat="45.93597" lon="6.28552">
        <ele>1347</ele>
        <time>2011-04-16T11:37:31Z</time>
      </trkpt>
      <trkpt lat="45.93585" lon="6.28541">
        <ele>1352</ele>
        <time>2011-04-16T11:37:32Z</time>
      </trkpt>
      <trkpt lat="45.93573" lon="6.28531">
        <ele>1352</ele>
        <time>2011-04-16T11:37:33Z</time>
      </trkpt>
      <trkpt lat="45.93561" lon="6.28523">
        <ele>1352</ele>
        <time>2011-04-16T11:37:34Z</time>
      </trkpt>
      <trkpt lat="45.93549" lon="6.28513">
        <ele>1352</ele>
        <time>2011-04-16T11:37:35Z</time>
      </trkpt>
      <trkpt lat="45.93537" lon="6.28504">
        <ele>1352</ele>
        <time>2011-04-16T11:37:36Z</time>
      </trkpt>
      <trkpt lat="45.93526" lon="6.28494">
        <ele>1358</ele>
        <time>2011-04-16T11:37:37Z</time>
      </trkpt>
      <trkpt lat="45.93516" lon="6.28484">
        <ele>1358</ele>
        <time>2011-04-16T11:37:38Z</time>
      </trkpt>
      <trkpt lat="45.93505" lon="6.28474">
        <ele>1358</ele>
        <time>2011-04-16T11:37:39Z</time>
      </trkpt>
      <trkpt lat="45.93494" lon="6.28464">
        <ele>1358</ele>
        <time>2011-04-16T11:37:40Z</time>
      </trkpt>
      <trkpt lat="45.93482" lon="6.28454">
        <ele>1364</ele>
        <time>2011-04-16T11:37:41Z</time>
      </trkpt>
      <trkpt lat="45.93472" lon="6.28443">
        <ele>1364</ele>
        <time>2011-04-16T11:37:42Z</time>
      </trkpt>
      <trkpt lat="45.93462" lon="6.28431">
        <ele>1364</ele>
        <time>2011-04-16T11:37:43Z</time>
      </trkpt>
      <trkpt lat="45.93453" lon="6.28421">
        <ele>1370</ele>
        <time>2011-04-16T11:37:44Z</time>
      </trkpt>
      <trkpt lat="45.9344" lon="6.28408">
        <ele>1370</ele>
        <time>2011-04-16T11:37:46Z</time>
      </trkpt>
      <trkpt lat="45.9343" lon="6.28395">
        <ele>1370</ele>
        <time>2011-04-16T11:38:15Z</time>
      </trkpt>
      <trkpt lat="45.9342" lon="6.28383">
        <ele>1370</ele>
        <time>2011-04-16T11:38:17Z</time>
      </trkpt>
      <trkpt lat="45.9341" lon="6.28372">
        <ele>1370</ele>
        <time>2011-04-16T11:38:19Z</time>
      </trkpt>
      <trkpt lat="45.93403" lon="6.28358">
        <ele>1370</ele>
        <time>2011-04-16T11:38:21Z</time>
      </trkpt>
      <trkpt lat="45.93397" lon="6.28346">
        <ele>1370</ele>
        <time>2011-04-16T11:38:24Z</time>
      </trkpt>
      <trkpt lat="45.93392" lon="6.28358">
        <ele>1370</ele>
        <time>2011-04-16T11:38:27Z</time>
      </trkpt>
      <trkpt lat="45.93397" lon="6.28376">
        <ele>1375</ele>
        <time>2011-04-16T11:38:29Z</time>
      </trkpt>
      <trkpt lat="45.93402" lon="6.28394">
        <ele>1375</ele>
        <time>2011-04-16T11:38:31Z</time>
      </trkpt>
      <trkpt lat="45.9339" lon="6.28388">
        <ele>1382</ele>
        <time>2011-04-16T11:38:37Z</time>
      </trkpt>
      <trkpt lat="45.93378" lon="6.28371">
        <ele>1382</ele>
        <time>2011-04-16T11:38:39Z</time>
      </trkpt>
      <trkpt lat="45.93361" lon="6.28356">
        <ele>1382</ele>
        <time>2011-04-16T11:38:41Z</time>
      </trkpt>
      <trkpt lat="45.93353" lon="6.28348">
        <ele>1382</ele>
        <time>2011-04-16T11:38:42Z</time>
      </trkpt>
      <trkpt lat="45.93344" lon="6.2834">
        <ele>1382</ele>
        <time>2011-04-16T11:38:43Z</time>
      </trkpt>
      <trkpt lat="45.93335" lon="6.28332">
        <ele>1387</ele>
        <time>2011-04-16T11:38:44Z</time>
      </trkpt>
      <trkpt lat="45.93326" lon="6.28324">
        <ele>1387</ele>
        <time>2011-04-16T11:38:45Z</time>
      </trkpt>
      <trkpt lat="45.93317" lon="6.28317">
        <ele>1387</ele>
        <time>2011-04-16T11:38:46Z</time>
      </trkpt>
      <trkpt lat="45.93308" lon="6.2831">
        <ele>1387</ele>
        <time>2011-04-16T11:38:47Z</time>
      </trkpt>
      <trkpt lat="45.93291" lon="6.28299">
        <ele>1387</ele>
        <time>2011-04-16T11:38:49Z</time>
      </trkpt>
      <trkpt lat="45.93274" lon="6.28289">
        <ele>1387</ele>
        <time>2011-04-16T11:38:51Z</time>
      </trkpt>
      <trkpt lat="45.93257" lon="6.28279">
        <ele>1394</ele>
        <time>2011-04-16T11:38:53Z</time>
      </trkpt>
      <trkpt lat="45.93242" lon="6.2827">
        <ele>1394</ele>
        <time>2011-04-16T11:38:55Z</time>
      </trkpt>
      <trkpt lat="45.93228" lon="6.28264">
        <ele>1394</ele>
        <time>2011-04-16T11:38:57Z</time>
      </trkpt>
      <trkpt lat="45.93218" lon="6.28258">
        <ele>1401</ele>
        <time>2011-04-16T11:39:00Z</time>
      </trkpt>
      <trkpt lat="45.93208" lon="6.2825">
        <ele>1401</ele>
        <time>2011-04-16T11:39:03Z</time>
      </trkpt>
      <trkpt lat="45.932" lon="6.2824">
        <ele>1401</ele>
        <time>2011-04-16T11:39:05Z</time>
      </trkpt>
      <trkpt lat="45.9319" lon="6.28228">
        <ele>1406</ele>
        <time>2011-04-16T11:39:07Z</time>
      </trkpt>
      <trkpt lat="45.93182" lon="6.28218">
        <ele>1406</ele>
        <time>2011-04-16T11:39:09Z</time>
      </trkpt>
      <trkpt lat="45.93176" lon="6.28203">
        <ele>1406</ele>
        <time>2011-04-16T11:39:24Z</time>
      </trkpt>
      <trkpt lat="45.9318" lon="6.2819">
        <ele>1406</ele>
        <time>2011-04-16T11:39:26Z</time>
      </trkpt>
      <trkpt lat="45.93186" lon="6.28176">
        <ele>1406</ele>
        <time>2011-04-16T11:39:29Z</time>
      </trkpt>
      <trkpt lat="45.93181" lon="6.28162">
        <ele>1406</ele>
        <time>2011-04-16T11:40:07Z</time>
      </trkpt>
      <trkpt lat="45.93172" lon="6.28152">
        <ele>1406</ele>
        <time>2011-04-16T11:40:09Z</time>
      </trkpt>
      <trkpt lat="45.93161" lon="6.2814">
        <ele>1406</ele>
        <time>2011-04-16T11:40:11Z</time>
      </trkpt>
      <trkpt lat="45.93151" lon="6.28126">
        <ele>1406</ele>
        <time>2011-04-16T11:40:13Z</time>
      </trkpt>
      <trkpt lat="45.93141" lon="6.28109">
        <ele>1406</ele>
        <time>2011-04-16T11:40:15Z</time>
      </trkpt>
      <trkpt lat="45.93132" lon="6.2809">
        <ele>1411</ele>
        <time>2011-04-16T11:40:17Z</time>
      </trkpt>
      <trkpt lat="45.9312" lon="6.28072">
        <ele>1411</ele>
        <time>2011-04-16T11:40:19Z</time>
      </trkpt>
      <trkpt lat="45.93113" lon="6.28063">
        <ele>1411</ele>
        <time>2011-04-16T11:40:20Z</time>
      </trkpt>
      <trkpt lat="45.931" lon="6.28046">
        <ele>1411</ele>
        <time>2011-04-16T11:40:22Z</time>
      </trkpt>
      <trkpt lat="45.93086" lon="6.28031">
        <ele>1417</ele>
        <time>2011-04-16T11:40:24Z</time>
      </trkpt>
      <trkpt lat="45.93077" lon="6.28025">
        <ele>1417</ele>
        <time>2011-04-16T11:40:25Z</time>
      </trkpt>
      <trkpt lat="45.93069" lon="6.28019">
        <ele>1417</ele>
        <time>2011-04-16T11:40:26Z</time>
      </trkpt>
      <trkpt lat="45.93061" lon="6.28012">
        <ele>1417</ele>
        <time>2011-04-16T11:40:27Z</time>
      </trkpt>
      <trkpt lat="45.93046" lon="6.28">
        <ele>1417</ele>
        <time>2011-04-16T11:40:29Z</time>
      </trkpt>
      <trkpt lat="45.93032" lon="6.27986">
        <ele>1424</ele>
        <time>2011-04-16T11:40:31Z</time>
      </trkpt>
      <trkpt lat="45.93019" lon="6.27972">
        <ele>1424</ele>
        <time>2011-04-16T11:40:33Z</time>
      </trkpt>
      <trkpt lat="45.93009" lon="6.27952">
        <ele>1424</ele>
        <time>2011-04-16T11:40:35Z</time>
      </trkpt>
      <trkpt lat="45.93005" lon="6.2794">
        <ele>1424</ele>
        <time>2011-04-16T11:40:36Z</time>
      </trkpt>
      <trkpt lat="45.93001" lon="6.27928">
        <ele>1424</ele>
        <time>2011-04-16T11:40:37Z</time>
      </trkpt>
      <trkpt lat="45.92995" lon="6.27905">
        <ele>1429</ele>
        <time>2011-04-16T11:40:39Z</time>
      </trkpt>
      <trkpt lat="45.9299" lon="6.27891">
        <ele>1429</ele>
        <time>2011-04-16T11:40:41Z</time>
      </trkpt>
      <trkpt lat="45.92982" lon="6.27887">
        <ele>1429</ele>
        <time>2011-04-16T11:40:57Z</time>
      </trkpt>
      <trkpt lat="45.92973" lon="6.27875">
        <ele>1429</ele>
        <time>2011-04-16T11:40:59Z</time>
      </trkpt>
      <trkpt lat="45.92963" lon="6.27861">
        <ele>1429</ele>
        <time>2011-04-16T11:41:01Z</time>
      </trkpt>
      <trkpt lat="45.9295" lon="6.27851">
        <ele>1429</ele>
        <time>2011-04-16T11:41:03Z</time>
      </trkpt>
      <trkpt lat="45.92933" lon="6.27844">
        <ele>1435</ele>
        <time>2011-04-16T11:41:05Z</time>
      </trkpt>
      <trkpt lat="45.92923" lon="6.27841">
        <ele>1435</ele>
        <time>2011-04-16T11:41:06Z</time>
      </trkpt>
      <trkpt lat="45.92913" lon="6.27837">
        <ele>1435</ele>
        <time>2011-04-16T11:41:07Z</time>
      </trkpt>
      <trkpt lat="45.92898" lon="6.27829">
        <ele>1435</ele>
        <time>2011-04-16T11:41:09Z</time>
      </trkpt>
      <trkpt lat="45.92886" lon="6.27818">
        <ele>1441</ele>
        <time>2011-04-16T11:41:11Z</time>
      </trkpt>
      <trkpt lat="45.9288" lon="6.27805">
        <ele>1441</ele>
        <time>2011-04-16T11:41:13Z</time>
      </trkpt>
      <trkpt lat="45.92873" lon="6.27789">
        <ele>1441</ele>
        <time>2011-04-16T11:41:15Z</time>
      </trkpt>
      <trkpt lat="45.92862" lon="6.27774">
        <ele>1447</ele>
        <time>2011-04-16T11:41:17Z</time>
      </trkpt>
      <trkpt lat="45.92848" lon="6.27759">
        <ele>1447</ele>
        <time>2011-04-16T11:41:19Z</time>
      </trkpt>
      <trkpt lat="45.92842" lon="6.27749">
        <ele>1447</ele>
        <time>2011-04-16T11:41:20Z</time>
      </trkpt>
      <trkpt lat="45.92836" lon="6.27738">
        <ele>1447</ele>
        <time>2011-04-16T11:41:21Z</time>
      </trkpt>
      <trkpt lat="45.92825" lon="6.27718">
        <ele>1454</ele>
        <time>2011-04-16T11:41:23Z</time>
      </trkpt>
      <trkpt lat="45.92815" lon="6.27706">
        <ele>1454</ele>
        <time>2011-04-16T11:41:25Z</time>
      </trkpt>
      <trkpt lat="45.92805" lon="6.27703">
        <ele>1454</ele>
        <time>2011-04-16T11:41:27Z</time>
      </trkpt>
      <trkpt lat="45.92796" lon="6.27708">
        <ele>1454</ele>
        <time>2011-04-16T11:41:29Z</time>
      </trkpt>
      <trkpt lat="45.92789" lon="6.27718">
        <ele>1462</ele>
        <time>2011-04-16T11:41:32Z</time>
      </trkpt>
      <trkpt lat="45.92778" lon="6.27721">
        <ele>1462</ele>
        <time>2011-04-16T11:41:36Z</time>
      </trkpt>
      <trkpt lat="45.92768" lon="6.27714">
        <ele>1462</ele>
        <time>2011-04-16T11:41:38Z</time>
      </trkpt>
      <trkpt lat="45.92756" lon="6.27702">
        <ele>1462</ele>
        <time>2011-04-16T11:41:40Z</time>
      </trkpt>
      <trkpt lat="45.92745" lon="6.27685">
        <ele>1462</ele>
        <time>2011-04-16T11:41:42Z</time>
      </trkpt>
      <trkpt lat="45.92736" lon="6.27673">
        <ele>1462</ele>
        <time>2011-04-16T11:41:44Z</time>
      </trkpt>
      <trkpt lat="45.92727" lon="6.27665">
        <ele>1462</ele>
        <time>2011-04-16T11:41:46Z</time>
      </trkpt>
      <trkpt lat="45.92716" lon="6.27661">
        <ele>1467</ele>
        <time>2011-04-16T11:41:48Z</time>
      </trkpt>
      <trkpt lat="45.92703" lon="6.27656">
        <ele>1467</ele>
        <time>2011-04-16T11:41:51Z</time>
      </trkpt>
      <trkpt lat="45.92694" lon="6.27639">
        <ele>1467</ele>
        <time>2011-04-16T11:41:54Z</time>
      </trkpt>
      <trkpt lat="45.92686" lon="6.27629">
        <ele>1467</ele>
        <time>2011-04-16T11:41:56Z</time>
      </trkpt>
      <trkpt lat="45.92675" lon="6.27623">
        <ele>1467</ele>
        <time>2011-04-16T11:41:58Z</time>
      </trkpt>
      <trkpt lat="45.92663" lon="6.27621">
        <ele>1467</ele>
        <time>2011-04-16T11:42:00Z</time>
      </trkpt>
      <trkpt lat="45.92651" lon="6.27621">
        <ele>1467</ele>
        <time>2011-04-16T11:42:02Z</time>
      </trkpt>
      <trkpt lat="45.92637" lon="6.2762">
        <ele>1467</ele>
        <time>2011-04-16T11:42:04Z</time>
      </trkpt>
      <trkpt lat="45.92624" lon="6.27614">
        <ele>1467</ele>
        <time>2011-04-16T11:42:06Z</time>
      </trkpt>
      <trkpt lat="45.9261" lon="6.27608">
        <ele>1467</ele>
        <time>2011-04-16T11:42:08Z</time>
      </trkpt>
      <trkpt lat="45.92597" lon="6.27599">
        <ele>1467</ele>
        <time>2011-04-16T11:42:10Z</time>
      </trkpt>
      <trkpt lat="45.92583" lon="6.27593">
        <ele>1467</ele>
        <time>2011-04-16T11:42:12Z</time>
      </trkpt>
      <trkpt lat="45.9257" lon="6.27587">
        <ele>1467</ele>
        <time>2011-04-16T11:42:14Z</time>
      </trkpt>
      <trkpt lat="45.92558" lon="6.27579">
        <ele>1467</ele>
        <time>2011-04-16T11:42:16Z</time>
      </trkpt>
      <trkpt lat="45.92545" lon="6.27568">
        <ele>1467</ele>
        <time>2011-04-16T11:42:18Z</time>
      </trkpt>
      <trkpt lat="45.92533" lon="6.27553">
        <ele>1467</ele>
        <time>2011-04-16T11:42:20Z</time>
      </trkpt>
      <trkpt lat="45.92527" lon="6.27542">
        <ele>1473</ele>
        <time>2011-04-16T11:42:21Z</time>
      </trkpt>
      <trkpt lat="45.92516" lon="6.27524">
        <ele>1473</ele>
        <time>2011-04-16T11:42:23Z</time>
      </trkpt>
      <trkpt lat="45.92503" lon="6.27507">
        <ele>1473</ele>
        <time>2011-04-16T11:42:25Z</time>
      </trkpt>
      <trkpt lat="45.92488" lon="6.27493">
        <ele>1473</ele>
        <time>2011-04-16T11:42:27Z</time>
      </trkpt>
      <trkpt lat="45.92479" lon="6.27487">
        <ele>1478</ele>
        <time>2011-04-16T11:42:28Z</time>
      </trkpt>
      <trkpt lat="45.92463" lon="6.27476">
        <ele>1478</ele>
        <time>2011-04-16T11:42:30Z</time>
      </trkpt>
      <trkpt lat="45.92447" lon="6.27467">
        <ele>1478</ele>
        <time>2011-04-16T11:42:32Z</time>
      </trkpt>
      <trkpt lat="45.92432" lon="6.27457">
        <ele>1486</ele>
        <time>2011-04-16T11:42:34Z</time>
      </trkpt>
      <trkpt lat="45.92419" lon="6.27449">
        <ele>1486</ele>
        <time>2011-04-16T11:42:36Z</time>
      </trkpt>
      <trkpt lat="45.92407" lon="6.27441">
        <ele>1486</ele>
        <time>2011-04-16T11:42:38Z</time>
      </trkpt>
      <trkpt lat="45.92399" lon="6.27429">
        <ele>1494</ele>
        <time>2011-04-16T11:42:40Z</time>
      </trkpt>
      <trkpt lat="45.92389" lon="6.27418">
        <ele>1494</ele>
        <time>2011-04-16T11:42:42Z</time>
      </trkpt>
      <trkpt lat="45.92377" lon="6.27409">
        <ele>1494</ele>
        <time>2011-04-16T11:42:44Z</time>
      </trkpt>
      <trkpt lat="45.92363" lon="6.27402">
        <ele>1494</ele>
        <time>2011-04-16T11:42:46Z</time>
      </trkpt>
      <trkpt lat="45.92349" lon="6.27397">
        <ele>1499</ele>
        <time>2011-04-16T11:42:48Z</time>
      </trkpt>
      <trkpt lat="45.92336" lon="6.27391">
        <ele>1499</ele>
        <time>2011-04-16T11:42:50Z</time>
      </trkpt>
      <trkpt lat="45.92323" lon="6.27383">
        <ele>1506</ele>
        <time>2011-04-16T11:42:52Z</time>
      </trkpt>
      <trkpt lat="45.92311" lon="6.27375">
        <ele>1506</ele>
        <time>2011-04-16T11:42:54Z</time>
      </trkpt>
      <trkpt lat="45.92298" lon="6.27368">
        <ele>1511</ele>
        <time>2011-04-16T11:42:56Z</time>
      </trkpt>
      <trkpt lat="45.92285" lon="6.27364">
        <ele>1511</ele>
        <time>2011-04-16T11:42:58Z</time>
      </trkpt>
      <trkpt lat="45.92274" lon="6.27365">
        <ele>1518</ele>
        <time>2011-04-16T11:43:00Z</time>
      </trkpt>
      <trkpt lat="45.92263" lon="6.27372">
        <ele>1518</ele>
        <time>2011-04-16T11:43:02Z</time>
      </trkpt>
      <trkpt lat="45.92251" lon="6.27375">
        <ele>1525</ele>
        <time>2011-04-16T11:43:05Z</time>
      </trkpt>
      <trkpt lat="45.92239" lon="6.27383">
        <ele>1525</ele>
        <time>2011-04-16T11:43:08Z</time>
      </trkpt>
      <trkpt lat="45.92227" lon="6.27389">
        <ele>1531</ele>
        <time>2011-04-16T11:43:11Z</time>
      </trkpt>
      <trkpt lat="45.92237" lon="6.27388">
        <ele>1522</ele>
        <time>2011-04-16T11:43:27Z</time>
      </trkpt>
      <trkpt lat="45.92247" lon="6.27389">
        <ele>1514</ele>
        <time>2011-04-16T11:43:44Z</time>
      </trkpt>
      <trkpt lat="45.92237" lon="6.27388">
        <ele>1528</ele>
        <time>2011-04-16T11:43:56Z</time>
      </trkpt>
      <trkpt lat="45.92246" lon="6.27395">
        <ele>1512</ele>
        <time>2011-04-16T11:48:22Z</time>
      </trkpt>
      <trkpt lat="45.92242" lon="6.27409">
        <ele>1512</ele>
        <time>2011-04-16T11:48:53Z</time>
      </trkpt>
      <trkpt lat="45.92232" lon="6.27409">
        <ele>1512</ele>
        <time>2011-04-16T11:48:56Z</time>
      </trkpt>
      <trkpt lat="45.92221" lon="6.27399">
        <ele>1518</ele>
        <time>2011-04-16T11:48:59Z</time>
      </trkpt>
      <trkpt lat="45.92212" lon="6.27392">
        <ele>1518</ele>
        <time>2011-04-16T11:49:01Z</time>
      </trkpt>
      <trkpt lat="45.92204" lon="6.27383">
        <ele>1518</ele>
        <time>2011-04-16T11:49:03Z</time>
      </trkpt>
      <trkpt lat="45.92195" lon="6.27372">
        <ele>1524</ele>
        <time>2011-04-16T11:49:05Z</time>
      </trkpt>
      <trkpt lat="45.92186" lon="6.27361">
        <ele>1524</ele>
        <time>2011-04-16T11:49:07Z</time>
      </trkpt>
      <trkpt lat="45.92174" lon="6.27356">
        <ele>1524</ele>
        <time>2011-04-16T11:49:09Z</time>
      </trkpt>
      <trkpt lat="45.92162" lon="6.27354">
        <ele>1530</ele>
        <time>2011-04-16T11:49:12Z</time>
      </trkpt>
      <trkpt lat="45.92152" lon="6.2736">
        <ele>1530</ele>
        <time>2011-04-16T11:49:14Z</time>
      </trkpt>
      <trkpt lat="45.92142" lon="6.27364">
        <ele>1530</ele>
        <time>2011-04-16T11:49:17Z</time>
      </trkpt>
      <trkpt lat="45.92133" lon="6.27351">
        <ele>1537</ele>
        <time>2011-04-16T11:49:20Z</time>
      </trkpt>
      <trkpt lat="45.92121" lon="6.27342">
        <ele>1537</ele>
        <time>2011-04-16T11:49:23Z</time>
      </trkpt>
      <trkpt lat="45.92111" lon="6.27339">
        <ele>1537</ele>
        <time>2011-04-16T11:49:25Z</time>
      </trkpt>
      <trkpt lat="45.92097" lon="6.27333">
        <ele>1543</ele>
        <time>2011-04-16T11:49:28Z</time>
      </trkpt>
      <trkpt lat="45.92086" lon="6.27327">
        <ele>1543</ele>
        <time>2011-04-16T11:49:30Z</time>
      </trkpt>
      <trkpt lat="45.92076" lon="6.27319">
        <ele>1543</ele>
        <time>2011-04-16T11:49:32Z</time>
      </trkpt>
      <trkpt lat="45.92064" lon="6.2731">
        <ele>1549</ele>
        <time>2011-04-16T11:49:34Z</time>
      </trkpt>
      <trkpt lat="45.92053" lon="6.27302">
        <ele>1549</ele>
        <time>2011-04-16T11:49:36Z</time>
      </trkpt>
      <trkpt lat="45.92043" lon="6.27294">
        <ele>1549</ele>
        <time>2011-04-16T11:49:38Z</time>
      </trkpt>
      <trkpt lat="45.92034" lon="6.27288">
        <ele>1556</ele>
        <time>2011-04-16T11:49:40Z</time>
      </trkpt>
      <trkpt lat="45.92022" lon="6.27281">
        <ele>1556</ele>
        <time>2011-04-16T11:49:43Z</time>
      </trkpt>
      <trkpt lat="45.92017" lon="6.27267">
        <ele>1556</ele>
        <time>2011-04-16T11:49:46Z</time>
      </trkpt>
      <trkpt lat="45.92013" lon="6.27251">
        <ele>1556</ele>
        <time>2011-04-16T11:49:48Z</time>
      </trkpt>
      <trkpt lat="45.92007" lon="6.27237">
        <ele>1556</ele>
        <time>2011-04-16T11:49:51Z</time>
      </trkpt>
      <trkpt lat="45.91997" lon="6.27228">
        <ele>1563</ele>
        <time>2011-04-16T11:50:27Z</time>
      </trkpt>
      <trkpt lat="45.91987" lon="6.27216">
        <ele>1563</ele>
        <time>2011-04-16T11:50:30Z</time>
      </trkpt>
      <trkpt lat="45.91979" lon="6.27209">
        <ele>1563</ele>
        <time>2011-04-16T11:50:32Z</time>
      </trkpt>
      <trkpt lat="45.9197" lon="6.27198">
        <ele>1568</ele>
        <time>2011-04-16T11:50:34Z</time>
      </trkpt>
      <trkpt lat="45.91963" lon="6.27189">
        <ele>1568</ele>
        <time>2011-04-16T11:50:36Z</time>
      </trkpt>
      <trkpt lat="45.91955" lon="6.2718">
        <ele>1568</ele>
        <time>2011-04-16T11:50:38Z</time>
      </trkpt>
      <trkpt lat="45.91947" lon="6.2717">
        <ele>1568</ele>
        <time>2011-04-16T11:50:40Z</time>
      </trkpt>
      <trkpt lat="45.91937" lon="6.27159">
        <ele>1574</ele>
        <time>2011-04-16T11:50:43Z</time>
      </trkpt>
      <trkpt lat="45.91927" lon="6.27149">
        <ele>1574</ele>
        <time>2011-04-16T11:50:46Z</time>
      </trkpt>
      <trkpt lat="45.91918" lon="6.2714">
        <ele>1574</ele>
        <time>2011-04-16T11:50:48Z</time>
      </trkpt>
      <trkpt lat="45.9191" lon="6.27132">
        <ele>1580</ele>
        <time>2011-04-16T11:50:50Z</time>
      </trkpt>
      <trkpt lat="45.91901" lon="6.27121">
        <ele>1580</ele>
        <time>2011-04-16T11:50:53Z</time>
      </trkpt>
      <trkpt lat="45.91894" lon="6.27112">
        <ele>1580</ele>
        <time>2011-04-16T11:50:55Z</time>
      </trkpt>
      <trkpt lat="45.91885" lon="6.27103">
        <ele>1580</ele>
        <time>2011-04-16T11:50:59Z</time>
      </trkpt>
      <trkpt lat="45.91878" lon="6.27095">
        <ele>1580</ele>
        <time>2011-04-16T11:51:02Z</time>
      </trkpt>
      <trkpt lat="45.9187" lon="6.27086">
        <ele>1587</ele>
        <time>2011-04-16T11:51:12Z</time>
      </trkpt>
      <trkpt lat="45.91863" lon="6.27076">
        <ele>1587</ele>
        <time>2011-04-16T11:54:53Z</time>
      </trkpt>
      <trkpt lat="45.91853" lon="6.27069">
        <ele>1587</ele>
        <time>2011-04-16T11:54:57Z</time>
      </trkpt>
      <trkpt lat="45.91841" lon="6.27058">
        <ele>1587</ele>
        <time>2011-04-16T11:55:00Z</time>
      </trkpt>
      <trkpt lat="45.91832" lon="6.27054">
        <ele>1592</ele>
        <time>2011-04-16T11:55:02Z</time>
      </trkpt>
      <trkpt lat="45.91823" lon="6.2705">
        <ele>1592</ele>
        <time>2011-04-16T11:55:04Z</time>
      </trkpt>
      <trkpt lat="45.9181" lon="6.27047">
        <ele>1592</ele>
        <time>2011-04-16T11:55:07Z</time>
      </trkpt>
      <trkpt lat="45.91802" lon="6.27042">
        <ele>1598</ele>
        <time>2011-04-16T11:55:09Z</time>
      </trkpt>
      <trkpt lat="45.91793" lon="6.27037">
        <ele>1598</ele>
        <time>2011-04-16T11:55:11Z</time>
      </trkpt>
      <trkpt lat="45.91781" lon="6.27028">
        <ele>1598</ele>
        <time>2011-04-16T11:55:14Z</time>
      </trkpt>
      <trkpt lat="45.9177" lon="6.27015">
        <ele>1598</ele>
        <time>2011-04-16T11:55:17Z</time>
      </trkpt>
      <trkpt lat="45.91763" lon="6.27005">
        <ele>1598</ele>
        <time>2011-04-16T11:55:19Z</time>
      </trkpt>
      <trkpt lat="45.91755" lon="6.26998">
        <ele>1598</ele>
        <time>2011-04-16T11:55:21Z</time>
      </trkpt>
      <trkpt lat="45.91744" lon="6.26987">
        <ele>1598</ele>
        <time>2011-04-16T11:55:24Z</time>
      </trkpt>
      <trkpt lat="45.91735" lon="6.26978">
        <ele>1598</ele>
        <time>2011-04-16T11:55:26Z</time>
      </trkpt>
      <trkpt lat="45.91725" lon="6.26972">
        <ele>1598</ele>
        <time>2011-04-16T11:55:28Z</time>
      </trkpt>
      <trkpt lat="45.91713" lon="6.26968">
        <ele>1598</ele>
        <time>2011-04-16T11:55:30Z</time>
      </trkpt>
      <trkpt lat="45.91701" lon="6.26965">
        <ele>1598</ele>
        <time>2011-04-16T11:55:32Z</time>
      </trkpt>
      <trkpt lat="45.91692" lon="6.26959">
        <ele>1598</ele>
        <time>2011-04-16T11:55:34Z</time>
      </trkpt>
      <trkpt lat="45.91681" lon="6.26951">
        <ele>1598</ele>
        <time>2011-04-16T11:55:36Z</time>
      </trkpt>
      <trkpt lat="45.91669" lon="6.26941">
        <ele>1598</ele>
        <time>2011-04-16T11:55:38Z</time>
      </trkpt>
      <trkpt lat="45.91659" lon="6.26931">
        <ele>1598</ele>
        <time>2011-04-16T11:55:40Z</time>
      </trkpt>
      <trkpt lat="45.91647" lon="6.26922">
        <ele>1598</ele>
        <time>2011-04-16T11:55:42Z</time>
      </trkpt>
      <trkpt lat="45.91636" lon="6.26915">
        <ele>1598</ele>
        <time>2011-04-16T11:55:44Z</time>
      </trkpt>
      <trkpt lat="45.91626" lon="6.26907">
        <ele>1598</ele>
        <time>2011-04-16T11:55:46Z</time>
      </trkpt>
      <trkpt lat="45.91616" lon="6.26897">
        <ele>1598</ele>
        <time>2011-04-16T11:55:48Z</time>
      </trkpt>
      <trkpt lat="45.91604" lon="6.26888">
        <ele>1598</ele>
        <time>2011-04-16T11:55:50Z</time>
      </trkpt>
      <trkpt lat="45.91593" lon="6.26882">
        <ele>1598</ele>
        <time>2011-04-16T11:55:52Z</time>
      </trkpt>
      <trkpt lat="45.91584" lon="6.26877">
        <ele>1598</ele>
        <time>2011-04-16T11:55:54Z</time>
      </trkpt>
      <trkpt lat="45.91574" lon="6.26872">
        <ele>1598</ele>
        <time>2011-04-16T11:55:56Z</time>
      </trkpt>
      <trkpt lat="45.91562" lon="6.26865">
        <ele>1592</ele>
        <time>2011-04-16T11:55:59Z</time>
      </trkpt>
      <trkpt lat="45.91553" lon="6.26857">
        <ele>1592</ele>
        <time>2011-04-16T11:56:02Z</time>
      </trkpt>
      <trkpt lat="45.91545" lon="6.26848">
        <ele>1592</ele>
        <time>2011-04-16T11:56:05Z</time>
      </trkpt>
      <trkpt lat="45.91535" lon="6.26851">
        <ele>1587</ele>
        <time>2011-04-16T11:56:09Z</time>
      </trkpt>
      <trkpt lat="45.91531" lon="6.26863">
        <ele>1587</ele>
        <time>2011-04-16T11:56:17Z</time>
      </trkpt>
      <trkpt lat="45.94273" lon="6.29313">
        <ele>1317</ele>
        <time>2011-04-16T12:15:35Z</time>
      </trkpt>
      <trkpt lat="45.94285" lon="6.29311">
        <ele>1339</ele>
        <time>2011-04-16T12:15:45Z</time>
      </trkpt>
      <trkpt lat="45.94293" lon="6.29318">
        <ele>1339</ele>
        <time>2011-04-16T12:16:17Z</time>
      </trkpt>
      <trkpt lat="45.94288" lon="6.29334">
        <ele>1339</ele>
        <time>2011-04-16T12:16:24Z</time>
      </trkpt>
      <trkpt lat="45.94288" lon="6.29349">
        <ele>1339</ele>
        <time>2011-04-16T12:16:26Z</time>
      </trkpt>
      <trkpt lat="45.94293" lon="6.29369">
        <ele>1339</ele>
        <time>2011-04-16T12:16:28Z</time>
      </trkpt>
      <trkpt lat="45.94293" lon="6.29394">
        <ele>1339</ele>
        <time>2011-04-16T12:16:30Z</time>
      </trkpt>
      <trkpt lat="45.94292" lon="6.29408">
        <ele>1339</ele>
        <time>2011-04-16T12:16:31Z</time>
      </trkpt>
      <trkpt lat="45.94291" lon="6.29423">
        <ele>1339</ele>
        <time>2011-04-16T12:16:32Z</time>
      </trkpt>
      <trkpt lat="45.94292" lon="6.2945">
        <ele>1339</ele>
        <time>2011-04-16T12:16:34Z</time>
      </trkpt>
      <trkpt lat="45.94295" lon="6.29464">
        <ele>1339</ele>
        <time>2011-04-16T12:16:35Z</time>
      </trkpt>
      <trkpt lat="45.94298" lon="6.29477">
        <ele>1339</ele>
        <time>2011-04-16T12:16:36Z</time>
      </trkpt>
      <trkpt lat="45.94303" lon="6.2949">
        <ele>1339</ele>
        <time>2011-04-16T12:16:37Z</time>
      </trkpt>
      <trkpt lat="45.9431" lon="6.295">
        <ele>1339</ele>
        <time>2011-04-16T12:16:38Z</time>
      </trkpt>
      <trkpt lat="45.94319" lon="6.29509">
        <ele>1339</ele>
        <time>2011-04-16T12:16:39Z</time>
      </trkpt>
      <trkpt lat="45.94325" lon="6.2952">
        <ele>1339</ele>
        <time>2011-04-16T12:16:40Z</time>
      </trkpt>
      <trkpt lat="45.94336" lon="6.29529">
        <ele>1339</ele>
        <time>2011-04-16T12:16:41Z</time>
      </trkpt>
      <trkpt lat="45.94345" lon="6.2954">
        <ele>1339</ele>
        <time>2011-04-16T12:16:42Z</time>
      </trkpt>
      <trkpt lat="45.94355" lon="6.29552">
        <ele>1339</ele>
        <time>2011-04-16T12:16:43Z</time>
      </trkpt>
      <trkpt lat="45.94362" lon="6.29563">
        <ele>1334</ele>
        <time>2011-04-16T12:16:44Z</time>
      </trkpt>
      <trkpt lat="45.94371" lon="6.29573">
        <ele>1334</ele>
        <time>2011-04-16T12:16:45Z</time>
      </trkpt>
      <trkpt lat="45.9438" lon="6.29583">
        <ele>1334</ele>
        <time>2011-04-16T12:16:46Z</time>
      </trkpt>
      <trkpt lat="45.94389" lon="6.29593">
        <ele>1334</ele>
        <time>2011-04-16T12:16:47Z</time>
      </trkpt>
      <trkpt lat="45.94397" lon="6.29603">
        <ele>1334</ele>
        <time>2011-04-16T12:16:48Z</time>
      </trkpt>
      <trkpt lat="45.94406" lon="6.29615">
        <ele>1334</ele>
        <time>2011-04-16T12:16:49Z</time>
      </trkpt>
      <trkpt lat="45.94414" lon="6.29628">
        <ele>1334</ele>
        <time>2011-04-16T12:16:50Z</time>
      </trkpt>
      <trkpt lat="45.94421" lon="6.29644">
        <ele>1334</ele>
        <time>2011-04-16T12:16:51Z</time>
      </trkpt>
      <trkpt lat="45.9443" lon="6.29656">
        <ele>1334</ele>
        <time>2011-04-16T12:16:52Z</time>
      </trkpt>
      <trkpt lat="45.94441" lon="6.2967">
        <ele>1334</ele>
        <time>2011-04-16T12:16:53Z</time>
      </trkpt>
      <trkpt lat="45.94453" lon="6.29683">
        <ele>1334</ele>
        <time>2011-04-16T12:16:54Z</time>
      </trkpt>
      <trkpt lat="45.94465" lon="6.29696">
        <ele>1334</ele>
        <time>2011-04-16T12:16:55Z</time>
      </trkpt>
      <trkpt lat="45.94475" lon="6.29707">
        <ele>1334</ele>
        <time>2011-04-16T12:16:56Z</time>
      </trkpt>
      <trkpt lat="45.94483" lon="6.29715">
        <ele>1334</ele>
        <time>2011-04-16T12:16:57Z</time>
      </trkpt>
      <trkpt lat="45.94493" lon="6.29732">
        <ele>1334</ele>
        <time>2011-04-16T12:16:59Z</time>
      </trkpt>
      <trkpt lat="45.94502" lon="6.29755">
        <ele>1334</ele>
        <time>2011-04-16T12:17:01Z</time>
      </trkpt>
      <trkpt lat="45.94508" lon="6.29768">
        <ele>1334</ele>
        <time>2011-04-16T12:17:02Z</time>
      </trkpt>
      <trkpt lat="45.94514" lon="6.2978">
        <ele>1334</ele>
        <time>2011-04-16T12:17:03Z</time>
      </trkpt>
      <trkpt lat="45.9452" lon="6.29793">
        <ele>1334</ele>
        <time>2011-04-16T12:17:04Z</time>
      </trkpt>
      <trkpt lat="45.94527" lon="6.29805">
        <ele>1334</ele>
        <time>2011-04-16T12:17:05Z</time>
      </trkpt>
      <trkpt lat="45.94533" lon="6.29815">
        <ele>1334</ele>
        <time>2011-04-16T12:17:06Z</time>
      </trkpt>
      <trkpt lat="45.9454" lon="6.29824">
        <ele>1334</ele>
        <time>2011-04-16T12:17:07Z</time>
      </trkpt>
      <trkpt lat="45.94548" lon="6.2983">
        <ele>1334</ele>
        <time>2011-04-16T12:17:08Z</time>
      </trkpt>
      <trkpt lat="45.94562" lon="6.29839">
        <ele>1334</ele>
        <time>2011-04-16T12:17:10Z</time>
      </trkpt>
      <trkpt lat="45.94574" lon="6.29853">
        <ele>1334</ele>
        <time>2011-04-16T12:17:12Z</time>
      </trkpt>
      <trkpt lat="45.94587" lon="6.29873">
        <ele>1334</ele>
        <time>2011-04-16T12:17:14Z</time>
      </trkpt>
      <trkpt lat="45.94591" lon="6.29885">
        <ele>1334</ele>
        <time>2011-04-16T12:17:15Z</time>
      </trkpt>
      <trkpt lat="45.946" lon="6.29897">
        <ele>1334</ele>
        <time>2011-04-16T12:17:16Z</time>
      </trkpt>
      <trkpt lat="45.94608" lon="6.29909">
        <ele>1334</ele>
        <time>2011-04-16T12:17:17Z</time>
      </trkpt>
      <trkpt lat="45.94615" lon="6.29922">
        <ele>1334</ele>
        <time>2011-04-16T12:17:18Z</time>
      </trkpt>
      <trkpt lat="45.94624" lon="6.29937">
        <ele>1334</ele>
        <time>2011-04-16T12:17:19Z</time>
      </trkpt>
      <trkpt lat="45.94631" lon="6.29954">
        <ele>1334</ele>
        <time>2011-04-16T12:17:20Z</time>
      </trkpt>
      <trkpt lat="45.94638" lon="6.29969">
        <ele>1339</ele>
        <time>2011-04-16T12:17:21Z</time>
      </trkpt>
      <trkpt lat="45.94646" lon="6.29979">
        <ele>1339</ele>
        <time>2011-04-16T12:17:22Z</time>
      </trkpt>
      <trkpt lat="45.94656" lon="6.29993">
        <ele>1339</ele>
        <time>2011-04-16T12:17:24Z</time>
      </trkpt>
      <trkpt lat="45.94661" lon="6.30005">
        <ele>1348</ele>
        <time>2011-04-16T12:17:27Z</time>
      </trkpt>
      <trkpt lat="45.94651" lon="6.30002">
        <ele>1348</ele>
        <time>2011-04-16T12:17:29Z</time>
      </trkpt>
      <trkpt lat="45.94641" lon="6.29985">
        <ele>1348</ele>
        <time>2011-04-16T12:17:31Z</time>
      </trkpt>
      <trkpt lat="45.94634" lon="6.29972">
        <ele>1354</ele>
        <time>2011-04-16T12:17:32Z</time>
      </trkpt>
      <trkpt lat="45.94625" lon="6.29962">
        <ele>1354</ele>
        <time>2011-04-16T12:17:33Z</time>
      </trkpt>
      <trkpt lat="45.94617" lon="6.29953">
        <ele>1354</ele>
        <time>2011-04-16T12:17:34Z</time>
      </trkpt>
      <trkpt lat="45.94601" lon="6.29944">
        <ele>1360</ele>
        <time>2011-04-16T12:17:36Z</time>
      </trkpt>
      <trkpt lat="45.94586" lon="6.29942">
        <ele>1360</ele>
        <time>2011-04-16T12:17:38Z</time>
      </trkpt>
      <trkpt lat="45.94574" lon="6.29952">
        <ele>1360</ele>
        <time>2011-04-16T12:17:40Z</time>
      </trkpt>
      <trkpt lat="45.94569" lon="6.29964">
        <ele>1365</ele>
        <time>2011-04-16T12:17:41Z</time>
      </trkpt>
      <trkpt lat="45.94564" lon="6.2998">
        <ele>1365</ele>
        <time>2011-04-16T12:17:42Z</time>
      </trkpt>
      <trkpt lat="45.94559" lon="6.29995">
        <ele>1365</ele>
        <time>2011-04-16T12:17:43Z</time>
      </trkpt>
      <trkpt lat="45.94555" lon="6.30008">
        <ele>1365</ele>
        <time>2011-04-16T12:17:44Z</time>
      </trkpt>
      <trkpt lat="45.9455" lon="6.30021">
        <ele>1365</ele>
        <time>2011-04-16T12:17:45Z</time>
      </trkpt>
      <trkpt lat="45.94545" lon="6.30033">
        <ele>1365</ele>
        <time>2011-04-16T12:17:46Z</time>
      </trkpt>
      <trkpt lat="45.94541" lon="6.30045">
        <ele>1365</ele>
        <time>2011-04-16T12:17:47Z</time>
      </trkpt>
      <trkpt lat="45.94537" lon="6.30057">
        <ele>1371</ele>
        <time>2011-04-16T12:17:48Z</time>
      </trkpt>
      <trkpt lat="45.94533" lon="6.30069">
        <ele>1371</ele>
        <time>2011-04-16T12:17:49Z</time>
      </trkpt>
      <trkpt lat="45.94531" lon="6.30083">
        <ele>1371</ele>
        <time>2011-04-16T12:17:50Z</time>
      </trkpt>
      <trkpt lat="45.9453" lon="6.30096">
        <ele>1371</ele>
        <time>2011-04-16T12:17:51Z</time>
      </trkpt>
      <trkpt lat="45.9453" lon="6.3012">
        <ele>1371</ele>
        <time>2011-04-16T12:17:53Z</time>
      </trkpt>
      <trkpt lat="45.94534" lon="6.3014">
        <ele>1371</ele>
        <time>2011-04-16T12:17:55Z</time>
      </trkpt>
      <trkpt lat="45.94549" lon="6.30156">
        <ele>1371</ele>
        <time>2011-04-16T12:17:57Z</time>
      </trkpt>
      <trkpt lat="45.94558" lon="6.30165">
        <ele>1371</ele>
        <time>2011-04-16T12:17:58Z</time>
      </trkpt>
      <trkpt lat="45.94567" lon="6.30175">
        <ele>1371</ele>
        <time>2011-04-16T12:17:59Z</time>
      </trkpt>
      <trkpt lat="45.94574" lon="6.3019">
        <ele>1377</ele>
        <time>2011-04-16T12:18:00Z</time>
      </trkpt>
      <trkpt lat="45.94581" lon="6.30202">
        <ele>1377</ele>
        <time>2011-04-16T12:18:01Z</time>
      </trkpt>
      <trkpt lat="45.94588" lon="6.30216">
        <ele>1377</ele>
        <time>2011-04-16T12:18:02Z</time>
      </trkpt>
      <trkpt lat="45.94595" lon="6.30229">
        <ele>1377</ele>
        <time>2011-04-16T12:18:03Z</time>
      </trkpt>
      <trkpt lat="45.94603" lon="6.30241">
        <ele>1377</ele>
        <time>2011-04-16T12:18:04Z</time>
      </trkpt>
      <trkpt lat="45.94611" lon="6.30253">
        <ele>1377</ele>
        <time>2011-04-16T12:18:05Z</time>
      </trkpt>
      <trkpt lat="45.94617" lon="6.30265">
        <ele>1377</ele>
        <time>2011-04-16T12:18:06Z</time>
      </trkpt>
      <trkpt lat="45.94623" lon="6.30279">
        <ele>1377</ele>
        <time>2011-04-16T12:18:07Z</time>
      </trkpt>
      <trkpt lat="45.94629" lon="6.30291">
        <ele>1377</ele>
        <time>2011-04-16T12:18:08Z</time>
      </trkpt>
      <trkpt lat="45.94633" lon="6.30303">
        <ele>1377</ele>
        <time>2011-04-16T12:18:09Z</time>
      </trkpt>
      <trkpt lat="45.94643" lon="6.30321">
        <ele>1369</ele>
        <time>2011-04-16T12:18:11Z</time>
      </trkpt>
      <trkpt lat="45.94649" lon="6.3034">
        <ele>1369</ele>
        <time>2011-04-16T12:18:13Z</time>
      </trkpt>
      <trkpt lat="45.94656" lon="6.30362">
        <ele>1369</ele>
        <time>2011-04-16T12:18:15Z</time>
      </trkpt>
      <trkpt lat="45.94665" lon="6.30383">
        <ele>1369</ele>
        <time>2011-04-16T12:18:17Z</time>
      </trkpt>
      <trkpt lat="45.94673" lon="6.30399">
        <ele>1369</ele>
        <time>2011-04-16T12:18:19Z</time>
      </trkpt>
      <trkpt lat="45.94685" lon="6.30414">
        <ele>1369</ele>
        <time>2011-04-16T12:18:21Z</time>
      </trkpt>
      <trkpt lat="45.94694" lon="6.30422">
        <ele>1369</ele>
        <time>2011-04-16T12:18:22Z</time>
      </trkpt>
      <trkpt lat="45.94703" lon="6.30429">
        <ele>1362</ele>
        <time>2011-04-16T12:18:23Z</time>
      </trkpt>
      <trkpt lat="45.94712" lon="6.30437">
        <ele>1362</ele>
        <time>2011-04-16T12:18:24Z</time>
      </trkpt>
      <trkpt lat="45.94721" lon="6.30459">
        <ele>1362</ele>
        <time>2011-04-16T12:18:26Z</time>
      </trkpt>
      <trkpt lat="45.9473" lon="6.30476">
        <ele>1362</ele>
        <time>2011-04-16T12:18:28Z</time>
      </trkpt>
      <trkpt lat="45.94743" lon="6.30487">
        <ele>1362</ele>
        <time>2011-04-16T12:18:30Z</time>
      </trkpt>
      <trkpt lat="45.94752" lon="6.30492">
        <ele>1362</ele>
        <time>2011-04-16T12:18:31Z</time>
      </trkpt>
      <trkpt lat="45.94762" lon="6.30496">
        <ele>1362</ele>
        <time>2011-04-16T12:18:32Z</time>
      </trkpt>
      <trkpt lat="45.94771" lon="6.30501">
        <ele>1362</ele>
        <time>2011-04-16T12:18:33Z</time>
      </trkpt>
      <trkpt lat="45.94781" lon="6.30508">
        <ele>1356</ele>
        <time>2011-04-16T12:18:34Z</time>
      </trkpt>
      <trkpt lat="45.94791" lon="6.30514">
        <ele>1356</ele>
        <time>2011-04-16T12:18:35Z</time>
      </trkpt>
      <trkpt lat="45.94801" lon="6.30521">
        <ele>1356</ele>
        <time>2011-04-16T12:18:36Z</time>
      </trkpt>
      <trkpt lat="45.9481" lon="6.30528">
        <ele>1356</ele>
        <time>2011-04-16T12:18:37Z</time>
      </trkpt>
      <trkpt lat="45.94824" lon="6.30545">
        <ele>1356</ele>
        <time>2011-04-16T12:18:39Z</time>
      </trkpt>
      <trkpt lat="45.94829" lon="6.30566">
        <ele>1356</ele>
        <time>2011-04-16T12:18:41Z</time>
      </trkpt>
      <trkpt lat="45.94828" lon="6.30585">
        <ele>1356</ele>
        <time>2011-04-16T12:18:43Z</time>
      </trkpt>
      <trkpt lat="45.94834" lon="6.30596">
        <ele>1363</ele>
        <time>2011-04-16T12:19:02Z</time>
      </trkpt>
      <trkpt lat="45.94827" lon="6.30618">
        <ele>1363</ele>
        <time>2011-04-16T12:19:04Z</time>
      </trkpt>
      <trkpt lat="45.9482" lon="6.30632">
        <ele>1363</ele>
        <time>2011-04-16T12:19:05Z</time>
      </trkpt>
      <trkpt lat="45.94813" lon="6.30645">
        <ele>1357</ele>
        <time>2011-04-16T12:19:06Z</time>
      </trkpt>
      <trkpt lat="45.94806" lon="6.30658">
        <ele>1357</ele>
        <time>2011-04-16T12:19:07Z</time>
      </trkpt>
      <trkpt lat="45.94799" lon="6.30669">
        <ele>1357</ele>
        <time>2011-04-16T12:19:08Z</time>
      </trkpt>
      <trkpt lat="45.94792" lon="6.30678">
        <ele>1357</ele>
        <time>2011-04-16T12:19:09Z</time>
      </trkpt>
      <trkpt lat="45.94784" lon="6.30696">
        <ele>1357</ele>
        <time>2011-04-16T12:19:11Z</time>
      </trkpt>
      <trkpt lat="45.94785" lon="6.3072">
        <ele>1357</ele>
        <time>2011-04-16T12:19:13Z</time>
      </trkpt>
      <trkpt lat="45.94789" lon="6.30731">
        <ele>1357</ele>
        <time>2011-04-16T12:19:14Z</time>
      </trkpt>
      <trkpt lat="45.94799" lon="6.30751">
        <ele>1357</ele>
        <time>2011-04-16T12:19:16Z</time>
      </trkpt>
      <trkpt lat="45.94808" lon="6.30758">
        <ele>1357</ele>
        <time>2011-04-16T12:19:17Z</time>
      </trkpt>
      <trkpt lat="45.94819" lon="6.30776">
        <ele>1365</ele>
        <time>2011-04-16T12:19:19Z</time>
      </trkpt>
      <trkpt lat="45.94824" lon="6.30787">
        <ele>1365</ele>
        <time>2011-04-16T12:19:20Z</time>
      </trkpt>
      <trkpt lat="45.94828" lon="6.30802">
        <ele>1365</ele>
        <time>2011-04-16T12:19:21Z</time>
      </trkpt>
      <trkpt lat="45.94832" lon="6.30817">
        <ele>1365</ele>
        <time>2011-04-16T12:19:22Z</time>
      </trkpt>
      <trkpt lat="45.94837" lon="6.3083">
        <ele>1371</ele>
        <time>2011-04-16T12:19:23Z</time>
      </trkpt>
      <trkpt lat="45.94844" lon="6.30848">
        <ele>1371</ele>
        <time>2011-04-16T12:19:25Z</time>
      </trkpt>
      <trkpt lat="45.94851" lon="6.30859">
        <ele>1377</ele>
        <time>2011-04-16T12:19:27Z</time>
      </trkpt>
      <trkpt lat="45.94857" lon="6.30872">
        <ele>1377</ele>
        <time>2011-04-16T12:19:29Z</time>
      </trkpt>
      <trkpt lat="45.94865" lon="6.30887">
        <ele>1383</ele>
        <time>2011-04-16T12:19:31Z</time>
      </trkpt>
      <trkpt lat="45.94872" lon="6.30906">
        <ele>1383</ele>
        <time>2011-04-16T12:19:33Z</time>
      </trkpt>
      <trkpt lat="45.94881" lon="6.30928">
        <ele>1383</ele>
        <time>2011-04-16T12:19:35Z</time>
      </trkpt>
      <trkpt lat="45.94886" lon="6.3094">
        <ele>1389</ele>
        <time>2011-04-16T12:19:36Z</time>
      </trkpt>
      <trkpt lat="45.94891" lon="6.30961">
        <ele>1389</ele>
        <time>2011-04-16T12:19:38Z</time>
      </trkpt>
      <trkpt lat="45.9489" lon="6.30985">
        <ele>1396</ele>
        <time>2011-04-16T12:19:40Z</time>
      </trkpt>
      <trkpt lat="45.94889" lon="6.31005">
        <ele>1396</ele>
        <time>2011-04-16T12:19:42Z</time>
      </trkpt>
      <trkpt lat="45.9489" lon="6.31025">
        <ele>1396</ele>
        <time>2011-04-16T12:19:44Z</time>
      </trkpt>
      <trkpt lat="45.94891" lon="6.31039">
        <ele>1396</ele>
        <time>2011-04-16T12:19:45Z</time>
      </trkpt>
      <trkpt lat="45.94894" lon="6.31066">
        <ele>1396</ele>
        <time>2011-04-16T12:19:47Z</time>
      </trkpt>
      <trkpt lat="45.94897" lon="6.31078">
        <ele>1402</ele>
        <time>2011-04-16T12:19:48Z</time>
      </trkpt>
      <trkpt lat="45.94901" lon="6.31091">
        <ele>1402</ele>
        <time>2011-04-16T12:19:49Z</time>
      </trkpt>
      <trkpt lat="45.94906" lon="6.31102">
        <ele>1402</ele>
        <time>2011-04-16T12:19:50Z</time>
      </trkpt>
      <trkpt lat="45.9491" lon="6.31114">
        <ele>1402</ele>
        <time>2011-04-16T12:19:51Z</time>
      </trkpt>
      <trkpt lat="45.94916" lon="6.31136">
        <ele>1402</ele>
        <time>2011-04-16T12:19:53Z</time>
      </trkpt>
      <trkpt lat="45.94919" lon="6.31156">
        <ele>1402</ele>
        <time>2011-04-16T12:19:55Z</time>
      </trkpt>
      <trkpt lat="45.94921" lon="6.31176">
        <ele>1402</ele>
        <time>2011-04-16T12:19:57Z</time>
      </trkpt>
      <trkpt lat="45.94918" lon="6.31197">
        <ele>1402</ele>
        <time>2011-04-16T12:19:59Z</time>
      </trkpt>
      <trkpt lat="45.94912" lon="6.31217">
        <ele>1402</ele>
        <time>2011-04-16T12:20:01Z</time>
      </trkpt>
      <trkpt lat="45.94903" lon="6.31236">
        <ele>1402</ele>
        <time>2011-04-16T12:20:03Z</time>
      </trkpt>
      <trkpt lat="45.94893" lon="6.31258">
        <ele>1402</ele>
        <time>2011-04-16T12:20:05Z</time>
      </trkpt>
      <trkpt lat="45.94883" lon="6.31278">
        <ele>1402</ele>
        <time>2011-04-16T12:20:07Z</time>
      </trkpt>
      <trkpt lat="45.94877" lon="6.31299">
        <ele>1402</ele>
        <time>2011-04-16T12:20:09Z</time>
      </trkpt>
      <trkpt lat="45.94875" lon="6.31327">
        <ele>1402</ele>
        <time>2011-04-16T12:20:11Z</time>
      </trkpt>
      <trkpt lat="45.94875" lon="6.31341">
        <ele>1402</ele>
        <time>2011-04-16T12:20:12Z</time>
      </trkpt>
      <trkpt lat="45.94877" lon="6.31366">
        <ele>1402</ele>
        <time>2011-04-16T12:20:14Z</time>
      </trkpt>
      <trkpt lat="45.9488" lon="6.31382">
        <ele>1402</ele>
        <time>2011-04-16T12:20:16Z</time>
      </trkpt>
      <trkpt lat="45.94887" lon="6.31391">
        <ele>1402</ele>
        <time>2011-04-16T12:20:18Z</time>
      </trkpt>
      <trkpt lat="45.94896" lon="6.31387">
        <ele>1411</ele>
        <time>2011-04-16T12:20:24Z</time>
      </trkpt>
      <trkpt lat="45.94905" lon="6.31375">
        <ele>1426</ele>
        <time>2011-04-16T12:20:45Z</time>
      </trkpt>
      <trkpt lat="45.94918" lon="6.31359">
        <ele>1426</ele>
        <time>2011-04-16T12:20:47Z</time>
      </trkpt>
      <trkpt lat="45.94933" lon="6.31347">
        <ele>1426</ele>
        <time>2011-04-16T12:20:49Z</time>
      </trkpt>
      <trkpt lat="45.9495" lon="6.31339">
        <ele>1418</ele>
        <time>2011-04-16T12:20:51Z</time>
      </trkpt>
      <trkpt lat="45.94968" lon="6.31335">
        <ele>1418</ele>
        <time>2011-04-16T12:20:53Z</time>
      </trkpt>
      <trkpt lat="45.94978" lon="6.31335">
        <ele>1418</ele>
        <time>2011-04-16T12:20:54Z</time>
      </trkpt>
      <trkpt lat="45.94988" lon="6.31333">
        <ele>1411</ele>
        <time>2011-04-16T12:20:55Z</time>
      </trkpt>
      <trkpt lat="45.94998" lon="6.31328">
        <ele>1411</ele>
        <time>2011-04-16T12:20:56Z</time>
      </trkpt>
      <trkpt lat="45.95007" lon="6.31322">
        <ele>1411</ele>
        <time>2011-04-16T12:20:57Z</time>
      </trkpt>
      <trkpt lat="45.95015" lon="6.31314">
        <ele>1404</ele>
        <time>2011-04-16T12:20:58Z</time>
      </trkpt>
      <trkpt lat="45.95023" lon="6.31305">
        <ele>1404</ele>
        <time>2011-04-16T12:20:59Z</time>
      </trkpt>
      <trkpt lat="45.95032" lon="6.31296">
        <ele>1404</ele>
        <time>2011-04-16T12:21:00Z</time>
      </trkpt>
      <trkpt lat="45.9504" lon="6.31288">
        <ele>1396</ele>
        <time>2011-04-16T12:21:01Z</time>
      </trkpt>
      <trkpt lat="45.95054" lon="6.31271">
        <ele>1396</ele>
        <time>2011-04-16T12:21:03Z</time>
      </trkpt>
      <trkpt lat="45.95071" lon="6.3126">
        <ele>1387</ele>
        <time>2011-04-16T12:21:05Z</time>
      </trkpt>
      <trkpt lat="45.95082" lon="6.31256">
        <ele>1387</ele>
        <time>2011-04-16T12:21:06Z</time>
      </trkpt>
      <trkpt lat="45.95092" lon="6.31253">
        <ele>1387</ele>
        <time>2011-04-16T12:21:07Z</time>
      </trkpt>
      <trkpt lat="45.95105" lon="6.3125">
        <ele>1379</ele>
        <time>2011-04-16T12:21:08Z</time>
      </trkpt>
      <trkpt lat="45.95115" lon="6.31248">
        <ele>1379</ele>
        <time>2011-04-16T12:21:09Z</time>
      </trkpt>
      <trkpt lat="45.95124" lon="6.31245">
        <ele>1379</ele>
        <time>2011-04-16T12:21:10Z</time>
      </trkpt>
      <trkpt lat="45.95142" lon="6.31242">
        <ele>1371</ele>
        <time>2011-04-16T12:21:12Z</time>
      </trkpt>
      <trkpt lat="45.95158" lon="6.31238">
        <ele>1371</ele>
        <time>2011-04-16T12:21:14Z</time>
      </trkpt>
      <trkpt lat="45.95173" lon="6.31244">
        <ele>1371</ele>
        <time>2011-04-16T12:21:16Z</time>
      </trkpt>
      <trkpt lat="45.9518" lon="6.31254">
        <ele>1371</ele>
        <time>2011-04-16T12:21:17Z</time>
      </trkpt>
      <trkpt lat="45.95187" lon="6.31265">
        <ele>1371</ele>
        <time>2011-04-16T12:21:18Z</time>
      </trkpt>
      <trkpt lat="45.95193" lon="6.31276">
        <ele>1364</ele>
        <time>2011-04-16T12:21:19Z</time>
      </trkpt>
      <trkpt lat="45.952" lon="6.31285">
        <ele>1364</ele>
        <time>2011-04-16T12:21:20Z</time>
      </trkpt>
      <trkpt lat="45.9521" lon="6.31302">
        <ele>1364</ele>
        <time>2011-04-16T12:21:22Z</time>
      </trkpt>
      <trkpt lat="45.95219" lon="6.31314">
        <ele>1358</ele>
        <time>2011-04-16T12:21:24Z</time>
      </trkpt>
      <trkpt lat="45.95232" lon="6.31319">
        <ele>1358</ele>
        <time>2011-04-16T12:21:26Z</time>
      </trkpt>
      <trkpt lat="45.95242" lon="6.31318">
        <ele>1358</ele>
        <time>2011-04-16T12:21:27Z</time>
      </trkpt>
      <trkpt lat="45.9526" lon="6.3131">
        <ele>1352</ele>
        <time>2011-04-16T12:21:29Z</time>
      </trkpt>
      <trkpt lat="45.95271" lon="6.31305">
        <ele>1352</ele>
        <time>2011-04-16T12:21:30Z</time>
      </trkpt>
      <trkpt lat="45.9528" lon="6.31296">
        <ele>1352</ele>
        <time>2011-04-16T12:21:31Z</time>
      </trkpt>
      <trkpt lat="45.95289" lon="6.31287">
        <ele>1352</ele>
        <time>2011-04-16T12:21:32Z</time>
      </trkpt>
      <trkpt lat="45.95296" lon="6.31278">
        <ele>1352</ele>
        <time>2011-04-16T12:21:33Z</time>
      </trkpt>
      <trkpt lat="45.95307" lon="6.31267">
        <ele>1352</ele>
        <time>2011-04-16T12:21:35Z</time>
      </trkpt>
      <trkpt lat="45.9532" lon="6.31265">
        <ele>1352</ele>
        <time>2011-04-16T12:21:37Z</time>
      </trkpt>
      <trkpt lat="45.95329" lon="6.3127">
        <ele>1352</ele>
        <time>2011-04-16T12:21:38Z</time>
      </trkpt>
      <trkpt lat="45.95338" lon="6.31277">
        <ele>1352</ele>
        <time>2011-04-16T12:21:39Z</time>
      </trkpt>
      <trkpt lat="45.95348" lon="6.31283">
        <ele>1352</ele>
        <time>2011-04-16T12:21:40Z</time>
      </trkpt>
      <trkpt lat="45.95359" lon="6.31291">
        <ele>1352</ele>
        <time>2011-04-16T12:21:41Z</time>
      </trkpt>
      <trkpt lat="45.95371" lon="6.31298">
        <ele>1352</ele>
        <time>2011-04-16T12:21:42Z</time>
      </trkpt>
      <trkpt lat="45.95383" lon="6.31305">
        <ele>1352</ele>
        <time>2011-04-16T12:21:43Z</time>
      </trkpt>
      <trkpt lat="45.95395" lon="6.31313">
        <ele>1352</ele>
        <time>2011-04-16T12:21:44Z</time>
      </trkpt>
      <trkpt lat="45.95406" lon="6.3132">
        <ele>1352</ele>
        <time>2011-04-16T12:21:45Z</time>
      </trkpt>
      <trkpt lat="45.95416" lon="6.31326">
        <ele>1352</ele>
        <time>2011-04-16T12:21:46Z</time>
      </trkpt>
      <trkpt lat="45.95425" lon="6.31333">
        <ele>1352</ele>
        <time>2011-04-16T12:21:47Z</time>
      </trkpt>
      <trkpt lat="45.95433" lon="6.31342">
        <ele>1352</ele>
        <time>2011-04-16T12:21:48Z</time>
      </trkpt>
      <trkpt lat="45.95439" lon="6.31355">
        <ele>1352</ele>
        <time>2011-04-16T12:21:49Z</time>
      </trkpt>
      <trkpt lat="45.95448" lon="6.31366">
        <ele>1352</ele>
        <time>2011-04-16T12:21:50Z</time>
      </trkpt>
      <trkpt lat="45.95455" lon="6.31376">
        <ele>1352</ele>
        <time>2011-04-16T12:21:51Z</time>
      </trkpt>
      <trkpt lat="45.95462" lon="6.31388">
        <ele>1352</ele>
        <time>2011-04-16T12:21:52Z</time>
      </trkpt>
      <trkpt lat="45.95468" lon="6.31399">
        <ele>1352</ele>
        <time>2011-04-16T12:21:53Z</time>
      </trkpt>
      <trkpt lat="45.95471" lon="6.31411">
        <ele>1346</ele>
        <time>2011-04-16T12:21:54Z</time>
      </trkpt>
      <trkpt lat="45.95473" lon="6.31426">
        <ele>1346</ele>
        <time>2011-04-16T12:21:55Z</time>
      </trkpt>
      <trkpt lat="45.95472" lon="6.3144">
        <ele>1346</ele>
        <time>2011-04-16T12:21:56Z</time>
      </trkpt>
      <trkpt lat="45.95473" lon="6.31455">
        <ele>1346</ele>
        <time>2011-04-16T12:21:57Z</time>
      </trkpt>
      <trkpt lat="45.95475" lon="6.31476">
        <ele>1346</ele>
        <time>2011-04-16T12:21:59Z</time>
      </trkpt>
      <trkpt lat="45.9548" lon="6.31491">
        <ele>1340</ele>
        <time>2011-04-16T12:22:01Z</time>
      </trkpt>
      <trkpt lat="45.95486" lon="6.31501">
        <ele>1340</ele>
        <time>2011-04-16T12:22:03Z</time>
      </trkpt>
      <trkpt lat="45.95497" lon="6.31496">
        <ele>1340</ele>
        <time>2011-04-16T12:22:20Z</time>
      </trkpt>
      <trkpt lat="45.9551" lon="6.31483">
        <ele>1340</ele>
        <time>2011-04-16T12:22:22Z</time>
      </trkpt>
      <trkpt lat="45.95524" lon="6.31471">
        <ele>1340</ele>
        <time>2011-04-16T12:22:24Z</time>
      </trkpt>
      <trkpt lat="45.9554" lon="6.31464">
        <ele>1340</ele>
        <time>2011-04-16T12:22:26Z</time>
      </trkpt>
      <trkpt lat="45.9555" lon="6.31466">
        <ele>1340</ele>
        <time>2011-04-16T12:22:27Z</time>
      </trkpt>
      <trkpt lat="45.95559" lon="6.31471">
        <ele>1340</ele>
        <time>2011-04-16T12:22:28Z</time>
      </trkpt>
      <trkpt lat="45.95568" lon="6.31479">
        <ele>1340</ele>
        <time>2011-04-16T12:22:29Z</time>
      </trkpt>
      <trkpt lat="45.95579" lon="6.31488">
        <ele>1340</ele>
        <time>2011-04-16T12:22:30Z</time>
      </trkpt>
      <trkpt lat="45.95588" lon="6.31498">
        <ele>1340</ele>
        <time>2011-04-16T12:22:31Z</time>
      </trkpt>
      <trkpt lat="45.95597" lon="6.31509">
        <ele>1340</ele>
        <time>2011-04-16T12:22:32Z</time>
      </trkpt>
      <trkpt lat="45.95606" lon="6.31519">
        <ele>1340</ele>
        <time>2011-04-16T12:22:33Z</time>
      </trkpt>
      <trkpt lat="45.95614" lon="6.31529">
        <ele>1340</ele>
        <time>2011-04-16T12:22:34Z</time>
      </trkpt>
      <trkpt lat="45.95628" lon="6.31543">
        <ele>1340</ele>
        <time>2011-04-16T12:22:36Z</time>
      </trkpt>
      <trkpt lat="45.95643" lon="6.31547">
        <ele>1340</ele>
        <time>2011-04-16T12:22:38Z</time>
      </trkpt>
      <trkpt lat="45.95655" lon="6.31545">
        <ele>1345</ele>
        <time>2011-04-16T12:22:40Z</time>
      </trkpt>
      <trkpt lat="45.95666" lon="6.31544">
        <ele>1345</ele>
        <time>2011-04-16T12:22:42Z</time>
      </trkpt>
      <trkpt lat="45.95674" lon="6.31557">
        <ele>1345</ele>
        <time>2011-04-16T12:22:45Z</time>
      </trkpt>
      <trkpt lat="45.95674" lon="6.31581">
        <ele>1345</ele>
        <time>2011-04-16T12:22:47Z</time>
      </trkpt>
      <trkpt lat="45.95674" lon="6.31596">
        <ele>1345</ele>
        <time>2011-04-16T12:22:48Z</time>
      </trkpt>
      <trkpt lat="45.95675" lon="6.31612">
        <ele>1345</ele>
        <time>2011-04-16T12:22:49Z</time>
      </trkpt>
      <trkpt lat="45.95676" lon="6.31629">
        <ele>1345</ele>
        <time>2011-04-16T12:22:50Z</time>
      </trkpt>
      <trkpt lat="45.95676" lon="6.31648">
        <ele>1345</ele>
        <time>2011-04-16T12:22:51Z</time>
      </trkpt>
      <trkpt lat="45.95675" lon="6.31667">
        <ele>1345</ele>
        <time>2011-04-16T12:22:52Z</time>
      </trkpt>
      <trkpt lat="45.95673" lon="6.31687">
        <ele>1345</ele>
        <time>2011-04-16T12:22:53Z</time>
      </trkpt>
      <trkpt lat="45.95669" lon="6.31707">
        <ele>1352</ele>
        <time>2011-04-16T12:22:54Z</time>
      </trkpt>
      <trkpt lat="45.95664" lon="6.31728">
        <ele>1352</ele>
        <time>2011-04-16T12:22:55Z</time>
      </trkpt>
      <trkpt lat="45.95661" lon="6.31749">
        <ele>1352</ele>
        <time>2011-04-16T12:22:56Z</time>
      </trkpt>
      <trkpt lat="45.9566" lon="6.3177">
        <ele>1358</ele>
        <time>2011-04-16T12:22:57Z</time>
      </trkpt>
      <trkpt lat="45.95658" lon="6.31791">
        <ele>1358</ele>
        <time>2011-04-16T12:22:58Z</time>
      </trkpt>
      <trkpt lat="45.95656" lon="6.31811">
        <ele>1358</ele>
        <time>2011-04-16T12:22:59Z</time>
      </trkpt>
      <trkpt lat="45.95654" lon="6.31831">
        <ele>1364</ele>
        <time>2011-04-16T12:23:00Z</time>
      </trkpt>
      <trkpt lat="45.95652" lon="6.31853">
        <ele>1364</ele>
        <time>2011-04-16T12:23:01Z</time>
      </trkpt>
      <trkpt lat="45.95651" lon="6.31874">
        <ele>1364</ele>
        <time>2011-04-16T12:23:02Z</time>
      </trkpt>
      <trkpt lat="45.95651" lon="6.31895">
        <ele>1370</ele>
        <time>2011-04-16T12:23:03Z</time>
      </trkpt>
      <trkpt lat="45.95652" lon="6.31916">
        <ele>1370</ele>
        <time>2011-04-16T12:23:04Z</time>
      </trkpt>
      <trkpt lat="45.95654" lon="6.31934">
        <ele>1370</ele>
        <time>2011-04-16T12:23:05Z</time>
      </trkpt>
      <trkpt lat="45.95655" lon="6.3195">
        <ele>1370</ele>
        <time>2011-04-16T12:23:06Z</time>
      </trkpt>
      <trkpt lat="45.95655" lon="6.31965">
        <ele>1376</ele>
        <time>2011-04-16T12:23:07Z</time>
      </trkpt>
      <trkpt lat="45.95655" lon="6.31978">
        <ele>1376</ele>
        <time>2011-04-16T12:23:08Z</time>
      </trkpt>
      <trkpt lat="45.95653" lon="6.31991">
        <ele>1376</ele>
        <time>2011-04-16T12:23:09Z</time>
      </trkpt>
      <trkpt lat="45.95649" lon="6.32003">
        <ele>1376</ele>
        <time>2011-04-16T12:23:10Z</time>
      </trkpt>
      <trkpt lat="45.95643" lon="6.32016">
        <ele>1381</ele>
        <time>2011-04-16T12:23:11Z</time>
      </trkpt>
      <trkpt lat="45.95636" lon="6.32029">
        <ele>1381</ele>
        <time>2011-04-16T12:23:12Z</time>
      </trkpt>
      <trkpt lat="45.9563" lon="6.32044">
        <ele>1381</ele>
        <time>2011-04-16T12:23:13Z</time>
      </trkpt>
      <trkpt lat="45.95624" lon="6.3206">
        <ele>1381</ele>
        <time>2011-04-16T12:23:14Z</time>
      </trkpt>
      <trkpt lat="45.95619" lon="6.32076">
        <ele>1388</ele>
        <time>2011-04-16T12:23:15Z</time>
      </trkpt>
      <trkpt lat="45.95614" lon="6.32092">
        <ele>1388</ele>
        <time>2011-04-16T12:23:16Z</time>
      </trkpt>
      <trkpt lat="45.95607" lon="6.32103">
        <ele>1388</ele>
        <time>2011-04-16T12:23:17Z</time>
      </trkpt>
      <trkpt lat="45.95601" lon="6.32112">
        <ele>1388</ele>
        <time>2011-04-16T12:23:18Z</time>
      </trkpt>
      <trkpt lat="45.95594" lon="6.32122">
        <ele>1394</ele>
        <time>2011-04-16T12:23:19Z</time>
      </trkpt>
      <trkpt lat="45.95587" lon="6.32135">
        <ele>1394</ele>
        <time>2011-04-16T12:23:20Z</time>
      </trkpt>
      <trkpt lat="45.95582" lon="6.3215">
        <ele>1394</ele>
        <time>2011-04-16T12:23:21Z</time>
      </trkpt>
      <trkpt lat="45.95576" lon="6.32165">
        <ele>1394</ele>
        <time>2011-04-16T12:23:22Z</time>
      </trkpt>
      <trkpt lat="45.9557" lon="6.3218">
        <ele>1394</ele>
        <time>2011-04-16T12:23:23Z</time>
      </trkpt>
      <trkpt lat="45.95564" lon="6.32193">
        <ele>1394</ele>
        <time>2011-04-16T12:23:24Z</time>
      </trkpt>
      <trkpt lat="45.95556" lon="6.32204">
        <ele>1394</ele>
        <time>2011-04-16T12:23:25Z</time>
      </trkpt>
      <trkpt lat="45.95547" lon="6.32213">
        <ele>1394</ele>
        <time>2011-04-16T12:23:26Z</time>
      </trkpt>
      <trkpt lat="45.95539" lon="6.32221">
        <ele>1394</ele>
        <time>2011-04-16T12:23:27Z</time>
      </trkpt>
      <trkpt lat="45.95527" lon="6.32232">
        <ele>1399</ele>
        <time>2011-04-16T12:23:29Z</time>
      </trkpt>
      <trkpt lat="45.95518" lon="6.32237">
        <ele>1399</ele>
        <time>2011-04-16T12:23:32Z</time>
      </trkpt>
      <trkpt lat="45.95527" lon="6.32242">
        <ele>1399</ele>
        <time>2011-04-16T12:24:08Z</time>
      </trkpt>
      <trkpt lat="45.95539" lon="6.32233">
        <ele>1399</ele>
        <time>2011-04-16T12:24:10Z</time>
      </trkpt>
      <trkpt lat="45.95554" lon="6.32224">
        <ele>1399</ele>
        <time>2011-04-16T12:24:12Z</time>
      </trkpt>
      <trkpt lat="45.95563" lon="6.32224">
        <ele>1399</ele>
        <time>2011-04-16T12:24:13Z</time>
      </trkpt>
      <trkpt lat="45.95581" lon="6.32218">
        <ele>1399</ele>
        <time>2011-04-16T12:24:15Z</time>
      </trkpt>
      <trkpt lat="45.95591" lon="6.32214">
        <ele>1399</ele>
        <time>2011-04-16T12:24:16Z</time>
      </trkpt>
      <trkpt lat="45.956" lon="6.32206">
        <ele>1399</ele>
        <time>2011-04-16T12:24:17Z</time>
      </trkpt>
      <trkpt lat="45.95609" lon="6.32197">
        <ele>1405</ele>
        <time>2011-04-16T12:24:18Z</time>
      </trkpt>
      <trkpt lat="45.95617" lon="6.32187">
        <ele>1405</ele>
        <time>2011-04-16T12:24:19Z</time>
      </trkpt>
      <trkpt lat="45.95625" lon="6.32178">
        <ele>1405</ele>
        <time>2011-04-16T12:24:20Z</time>
      </trkpt>
      <trkpt lat="45.95639" lon="6.32167">
        <ele>1405</ele>
        <time>2011-04-16T12:24:22Z</time>
      </trkpt>
      <trkpt lat="45.95654" lon="6.32165">
        <ele>1410</ele>
        <time>2011-04-16T12:24:24Z</time>
      </trkpt>
      <trkpt lat="45.95664" lon="6.32171">
        <ele>1410</ele>
        <time>2011-04-16T12:24:26Z</time>
      </trkpt>
      <trkpt lat="45.95671" lon="6.32183">
        <ele>1410</ele>
        <time>2011-04-16T12:24:29Z</time>
      </trkpt>
      <trkpt lat="45.95681" lon="6.32189">
        <ele>1410</ele>
        <time>2011-04-16T12:24:49Z</time>
      </trkpt>
      <trkpt lat="45.95691" lon="6.322">
        <ele>1410</ele>
        <time>2011-04-16T12:24:51Z</time>
      </trkpt>
      <trkpt lat="45.95705" lon="6.32215">
        <ele>1416</ele>
        <time>2011-04-16T12:24:53Z</time>
      </trkpt>
      <trkpt lat="45.95719" lon="6.32233">
        <ele>1416</ele>
        <time>2011-04-16T12:24:55Z</time>
      </trkpt>
      <trkpt lat="45.95726" lon="6.32242">
        <ele>1416</ele>
        <time>2011-04-16T12:24:56Z</time>
      </trkpt>
      <trkpt lat="45.95735" lon="6.32251">
        <ele>1416</ele>
        <time>2011-04-16T12:24:57Z</time>
      </trkpt>
      <trkpt lat="45.95743" lon="6.32261">
        <ele>1416</ele>
        <time>2011-04-16T12:24:58Z</time>
      </trkpt>
      <trkpt lat="45.95752" lon="6.32272">
        <ele>1416</ele>
        <time>2011-04-16T12:24:59Z</time>
      </trkpt>
      <trkpt lat="45.9576" lon="6.32283">
        <ele>1416</ele>
        <time>2011-04-16T12:25:00Z</time>
      </trkpt>
      <trkpt lat="45.95768" lon="6.32292">
        <ele>1416</ele>
        <time>2011-04-16T12:25:01Z</time>
      </trkpt>
      <trkpt lat="45.95777" lon="6.32301">
        <ele>1416</ele>
        <time>2011-04-16T12:25:02Z</time>
      </trkpt>
      <trkpt lat="45.95787" lon="6.32309">
        <ele>1416</ele>
        <time>2011-04-16T12:25:03Z</time>
      </trkpt>
      <trkpt lat="45.95797" lon="6.32316">
        <ele>1416</ele>
        <time>2011-04-16T12:25:04Z</time>
      </trkpt>
      <trkpt lat="45.95807" lon="6.32323">
        <ele>1416</ele>
        <time>2011-04-16T12:25:05Z</time>
      </trkpt>
      <trkpt lat="45.95818" lon="6.3233">
        <ele>1416</ele>
        <time>2011-04-16T12:25:06Z</time>
      </trkpt>
      <trkpt lat="45.95829" lon="6.32339">
        <ele>1416</ele>
        <time>2011-04-16T12:25:07Z</time>
      </trkpt>
      <trkpt lat="45.9584" lon="6.32348">
        <ele>1416</ele>
        <time>2011-04-16T12:25:08Z</time>
      </trkpt>
      <trkpt lat="45.95851" lon="6.32357">
        <ele>1416</ele>
        <time>2011-04-16T12:25:09Z</time>
      </trkpt>
      <trkpt lat="45.95862" lon="6.32366">
        <ele>1410</ele>
        <time>2011-04-16T12:25:10Z</time>
      </trkpt>
      <trkpt lat="45.95872" lon="6.32375">
        <ele>1410</ele>
        <time>2011-04-16T12:25:11Z</time>
      </trkpt>
      <trkpt lat="45.95883" lon="6.32384">
        <ele>1410</ele>
        <time>2011-04-16T12:25:12Z</time>
      </trkpt>
      <trkpt lat="45.95894" lon="6.32395">
        <ele>1410</ele>
        <time>2011-04-16T12:25:13Z</time>
      </trkpt>
      <trkpt lat="45.95904" lon="6.32409">
        <ele>1410</ele>
        <time>2011-04-16T12:25:14Z</time>
      </trkpt>
      <trkpt lat="45.95913" lon="6.32422">
        <ele>1410</ele>
        <time>2011-04-16T12:25:15Z</time>
      </trkpt>
      <trkpt lat="45.95923" lon="6.32435">
        <ele>1410</ele>
        <time>2011-04-16T12:25:16Z</time>
      </trkpt>
      <trkpt lat="45.95932" lon="6.32447">
        <ele>1410</ele>
        <time>2011-04-16T12:25:17Z</time>
      </trkpt>
      <trkpt lat="45.95941" lon="6.3246">
        <ele>1410</ele>
        <time>2011-04-16T12:25:18Z</time>
      </trkpt>
      <trkpt lat="45.95951" lon="6.32471">
        <ele>1410</ele>
        <time>2011-04-16T12:25:19Z</time>
      </trkpt>
      <trkpt lat="45.95961" lon="6.3248">
        <ele>1410</ele>
        <time>2011-04-16T12:25:20Z</time>
      </trkpt>
      <trkpt lat="45.95969" lon="6.32489">
        <ele>1410</ele>
        <time>2011-04-16T12:25:21Z</time>
      </trkpt>
      <trkpt lat="45.9598" lon="6.32508">
        <ele>1410</ele>
        <time>2011-04-16T12:25:23Z</time>
      </trkpt>
      <trkpt lat="45.95988" lon="6.32532">
        <ele>1410</ele>
        <time>2011-04-16T12:25:25Z</time>
      </trkpt>
      <trkpt lat="45.95993" lon="6.32545">
        <ele>1410</ele>
        <time>2011-04-16T12:25:26Z</time>
      </trkpt>
      <trkpt lat="45.95998" lon="6.32558">
        <ele>1410</ele>
        <time>2011-04-16T12:25:27Z</time>
      </trkpt>
      <trkpt lat="45.96008" lon="6.32576">
        <ele>1410</ele>
        <time>2011-04-16T12:25:29Z</time>
      </trkpt>
      <trkpt lat="45.96019" lon="6.32583">
        <ele>1410</ele>
        <time>2011-04-16T12:25:31Z</time>
      </trkpt>
      <trkpt lat="45.96032" lon="6.32584">
        <ele>1410</ele>
        <time>2011-04-16T12:25:33Z</time>
      </trkpt>
      <trkpt lat="45.96042" lon="6.32585">
        <ele>1410</ele>
        <time>2011-04-16T12:25:35Z</time>
      </trkpt>
      <trkpt lat="45.96052" lon="6.32586">
        <ele>1410</ele>
        <time>2011-04-16T12:25:37Z</time>
      </trkpt>
      <trkpt lat="45.96062" lon="6.32588">
        <ele>1410</ele>
        <time>2011-04-16T12:25:39Z</time>
      </trkpt>
      <trkpt lat="45.96072" lon="6.32585">
        <ele>1410</ele>
        <time>2011-04-16T12:25:41Z</time>
      </trkpt>
      <trkpt lat="45.96085" lon="6.32577">
        <ele>1410</ele>
        <time>2011-04-16T12:25:43Z</time>
      </trkpt>
      <trkpt lat="45.96099" lon="6.32566">
        <ele>1410</ele>
        <time>2011-04-16T12:25:45Z</time>
      </trkpt>
      <trkpt lat="45.96112" lon="6.32556">
        <ele>1410</ele>
        <time>2011-04-16T12:25:47Z</time>
      </trkpt>
      <trkpt lat="45.96123" lon="6.32551">
        <ele>1416</ele>
        <time>2011-04-16T12:25:49Z</time>
      </trkpt>
      <trkpt lat="45.96133" lon="6.32553">
        <ele>1416</ele>
        <time>2011-04-16T12:25:51Z</time>
      </trkpt>
      <trkpt lat="45.96143" lon="6.3256">
        <ele>1416</ele>
        <time>2011-04-16T12:25:53Z</time>
      </trkpt>
      <trkpt lat="45.96154" lon="6.32567">
        <ele>1416</ele>
        <time>2011-04-16T12:25:55Z</time>
      </trkpt>
      <trkpt lat="45.96166" lon="6.32575">
        <ele>1416</ele>
        <time>2011-04-16T12:25:57Z</time>
      </trkpt>
      <trkpt lat="45.96176" lon="6.32582">
        <ele>1423</ele>
        <time>2011-04-16T12:25:59Z</time>
      </trkpt>
      <trkpt lat="45.96187" lon="6.32588">
        <ele>1423</ele>
        <time>2011-04-16T12:26:01Z</time>
      </trkpt>
      <trkpt lat="45.962" lon="6.32595">
        <ele>1423</ele>
        <time>2011-04-16T12:26:03Z</time>
      </trkpt>
      <trkpt lat="45.96213" lon="6.32602">
        <ele>1429</ele>
        <time>2011-04-16T12:26:05Z</time>
      </trkpt>
      <trkpt lat="45.96228" lon="6.32609">
        <ele>1429</ele>
        <time>2011-04-16T12:26:07Z</time>
      </trkpt>
      <trkpt lat="45.96241" lon="6.32619">
        <ele>1429</ele>
        <time>2011-04-16T12:26:09Z</time>
      </trkpt>
      <trkpt lat="45.9625" lon="6.32633">
        <ele>1435</ele>
        <time>2011-04-16T12:26:11Z</time>
      </trkpt>
      <trkpt lat="45.96259" lon="6.32648">
        <ele>1435</ele>
        <time>2011-04-16T12:26:13Z</time>
      </trkpt>
      <trkpt lat="45.96272" lon="6.32656">
        <ele>1435</ele>
        <time>2011-04-16T12:26:15Z</time>
      </trkpt>
      <trkpt lat="45.96287" lon="6.32658">
        <ele>1435</ele>
        <time>2011-04-16T12:26:17Z</time>
      </trkpt>
      <trkpt lat="45.96301" lon="6.32657">
        <ele>1435</ele>
        <time>2011-04-16T12:26:19Z</time>
      </trkpt>
      <trkpt lat="45.96311" lon="6.32651">
        <ele>1435</ele>
        <time>2011-04-16T12:26:21Z</time>
      </trkpt>
      <trkpt lat="45.9632" lon="6.32651">
        <ele>1440</ele>
        <time>2011-04-16T12:26:24Z</time>
      </trkpt>
      <trkpt lat="45.96329" lon="6.32663">
        <ele>1440</ele>
        <time>2011-04-16T12:26:26Z</time>
      </trkpt>
      <trkpt lat="45.96341" lon="6.32683">
        <ele>1440</ele>
        <time>2011-04-16T12:26:28Z</time>
      </trkpt>
      <trkpt lat="45.96348" lon="6.32695">
        <ele>1440</ele>
        <time>2011-04-16T12:26:29Z</time>
      </trkpt>
      <trkpt lat="45.96356" lon="6.32709">
        <ele>1440</ele>
        <time>2011-04-16T12:26:30Z</time>
      </trkpt>
      <trkpt lat="45.96364" lon="6.32723">
        <ele>1440</ele>
        <time>2011-04-16T12:26:31Z</time>
      </trkpt>
      <trkpt lat="45.96373" lon="6.32737">
        <ele>1440</ele>
        <time>2011-04-16T12:26:32Z</time>
      </trkpt>
      <trkpt lat="45.96382" lon="6.32753">
        <ele>1440</ele>
        <time>2011-04-16T12:26:33Z</time>
      </trkpt>
      <trkpt lat="45.96392" lon="6.32768">
        <ele>1440</ele>
        <time>2011-04-16T12:26:34Z</time>
      </trkpt>
      <trkpt lat="45.96401" lon="6.32783">
        <ele>1440</ele>
        <time>2011-04-16T12:26:35Z</time>
      </trkpt>
      <trkpt lat="45.96409" lon="6.32798">
        <ele>1440</ele>
        <time>2011-04-16T12:26:36Z</time>
      </trkpt>
      <trkpt lat="45.96418" lon="6.32813">
        <ele>1440</ele>
        <time>2011-04-16T12:26:37Z</time>
      </trkpt>
      <trkpt lat="45.96426" lon="6.32827">
        <ele>1440</ele>
        <time>2011-04-16T12:26:38Z</time>
      </trkpt>
      <trkpt lat="45.96435" lon="6.32842">
        <ele>1440</ele>
        <time>2011-04-16T12:26:39Z</time>
      </trkpt>
      <trkpt lat="45.96445" lon="6.32856">
        <ele>1440</ele>
        <time>2011-04-16T12:26:40Z</time>
      </trkpt>
      <trkpt lat="45.96455" lon="6.32871">
        <ele>1440</ele>
        <time>2011-04-16T12:26:41Z</time>
      </trkpt>
      <trkpt lat="45.96466" lon="6.32887">
        <ele>1446</ele>
        <time>2011-04-16T12:26:42Z</time>
      </trkpt>
      <trkpt lat="45.96478" lon="6.32903">
        <ele>1446</ele>
        <time>2011-04-16T12:26:43Z</time>
      </trkpt>
      <trkpt lat="45.9649" lon="6.3292">
        <ele>1446</ele>
        <time>2011-04-16T12:26:44Z</time>
      </trkpt>
      <trkpt lat="45.96501" lon="6.32938">
        <ele>1446</ele>
        <time>2011-04-16T12:26:45Z</time>
      </trkpt>
      <trkpt lat="45.96512" lon="6.32955">
        <ele>1446</ele>
        <time>2011-04-16T12:26:46Z</time>
      </trkpt>
      <trkpt lat="45.96522" lon="6.32973">
        <ele>1446</ele>
        <time>2011-04-16T12:26:47Z</time>
      </trkpt>
      <trkpt lat="45.96531" lon="6.3299">
        <ele>1446</ele>
        <time>2011-04-16T12:26:48Z</time>
      </trkpt>
      <trkpt lat="45.96539" lon="6.33005">
        <ele>1446</ele>
        <time>2011-04-16T12:26:49Z</time>
      </trkpt>
      <trkpt lat="45.96547" lon="6.33019">
        <ele>1446</ele>
        <time>2011-04-16T12:26:50Z</time>
      </trkpt>
      <trkpt lat="45.96555" lon="6.33035">
        <ele>1446</ele>
        <time>2011-04-16T12:26:51Z</time>
      </trkpt>
      <trkpt lat="45.96564" lon="6.3305">
        <ele>1446</ele>
        <time>2011-04-16T12:26:52Z</time>
      </trkpt>
      <trkpt lat="45.96574" lon="6.33065">
        <ele>1446</ele>
        <time>2011-04-16T12:26:53Z</time>
      </trkpt>
      <trkpt lat="45.96583" lon="6.33081">
        <ele>1446</ele>
        <time>2011-04-16T12:26:54Z</time>
      </trkpt>
      <trkpt lat="45.96593" lon="6.33096">
        <ele>1446</ele>
        <time>2011-04-16T12:26:55Z</time>
      </trkpt>
      <trkpt lat="45.96602" lon="6.3311">
        <ele>1446</ele>
        <time>2011-04-16T12:26:56Z</time>
      </trkpt>
      <trkpt lat="45.96611" lon="6.33124">
        <ele>1451</ele>
        <time>2011-04-16T12:26:57Z</time>
      </trkpt>
      <trkpt lat="45.9662" lon="6.33139">
        <ele>1451</ele>
        <time>2011-04-16T12:26:58Z</time>
      </trkpt>
      <trkpt lat="45.96629" lon="6.33153">
        <ele>1451</ele>
        <time>2011-04-16T12:26:59Z</time>
      </trkpt>
      <trkpt lat="45.96637" lon="6.33169">
        <ele>1451</ele>
        <time>2011-04-16T12:27:00Z</time>
      </trkpt>
      <trkpt lat="45.96645" lon="6.33182">
        <ele>1451</ele>
        <time>2011-04-16T12:27:01Z</time>
      </trkpt>
      <trkpt lat="45.96652" lon="6.33195">
        <ele>1451</ele>
        <time>2011-04-16T12:27:02Z</time>
      </trkpt>
      <trkpt lat="45.96662" lon="6.33213">
        <ele>1451</ele>
        <time>2011-04-16T12:27:04Z</time>
      </trkpt>
      <trkpt lat="45.96671" lon="6.33225">
        <ele>1451</ele>
        <time>2011-04-16T12:27:06Z</time>
      </trkpt>
      <trkpt lat="45.9668" lon="6.33239">
        <ele>1451</ele>
        <time>2011-04-16T12:27:08Z</time>
      </trkpt>
      <trkpt lat="45.96693" lon="6.33256">
        <ele>1451</ele>
        <time>2011-04-16T12:27:10Z</time>
      </trkpt>
      <trkpt lat="45.96701" lon="6.33266">
        <ele>1451</ele>
        <time>2011-04-16T12:27:11Z</time>
      </trkpt>
      <trkpt lat="45.96709" lon="6.33276">
        <ele>1451</ele>
        <time>2011-04-16T12:27:12Z</time>
      </trkpt>
      <trkpt lat="45.96718" lon="6.33287">
        <ele>1451</ele>
        <time>2011-04-16T12:27:13Z</time>
      </trkpt>
      <trkpt lat="45.96726" lon="6.33298">
        <ele>1451</ele>
        <time>2011-04-16T12:27:14Z</time>
      </trkpt>
      <trkpt lat="45.96735" lon="6.33308">
        <ele>1451</ele>
        <time>2011-04-16T12:27:15Z</time>
      </trkpt>
      <trkpt lat="45.96743" lon="6.3332">
        <ele>1451</ele>
        <time>2011-04-16T12:27:16Z</time>
      </trkpt>
      <trkpt lat="45.96752" lon="6.33331">
        <ele>1445</ele>
        <time>2011-04-16T12:27:17Z</time>
      </trkpt>
      <trkpt lat="45.9676" lon="6.33345">
        <ele>1445</ele>
        <time>2011-04-16T12:27:18Z</time>
      </trkpt>
      <trkpt lat="45.96768" lon="6.33356">
        <ele>1445</ele>
        <time>2011-04-16T12:27:19Z</time>
      </trkpt>
      <trkpt lat="45.96776" lon="6.33367">
        <ele>1445</ele>
        <time>2011-04-16T12:27:20Z</time>
      </trkpt>
      <trkpt lat="45.96785" lon="6.33377">
        <ele>1445</ele>
        <time>2011-04-16T12:27:21Z</time>
      </trkpt>
      <trkpt lat="45.96793" lon="6.33387">
        <ele>1445</ele>
        <time>2011-04-16T12:27:22Z</time>
      </trkpt>
      <trkpt lat="45.968" lon="6.33398">
        <ele>1445</ele>
        <time>2011-04-16T12:27:23Z</time>
      </trkpt>
      <trkpt lat="45.96808" lon="6.33408">
        <ele>1439</ele>
        <time>2011-04-16T12:27:24Z</time>
      </trkpt>
      <trkpt lat="45.96817" lon="6.33418">
        <ele>1439</ele>
        <time>2011-04-16T12:27:25Z</time>
      </trkpt>
      <trkpt lat="45.96825" lon="6.3343">
        <ele>1439</ele>
        <time>2011-04-16T12:27:26Z</time>
      </trkpt>
      <trkpt lat="45.96834" lon="6.33442">
        <ele>1439</ele>
        <time>2011-04-16T12:27:27Z</time>
      </trkpt>
      <trkpt lat="45.96844" lon="6.33453">
        <ele>1433</ele>
        <time>2011-04-16T12:27:28Z</time>
      </trkpt>
      <trkpt lat="45.96854" lon="6.33464">
        <ele>1433</ele>
        <time>2011-04-16T12:27:29Z</time>
      </trkpt>
      <trkpt lat="45.96863" lon="6.33476">
        <ele>1433</ele>
        <time>2011-04-16T12:27:30Z</time>
      </trkpt>
      <trkpt lat="45.96872" lon="6.33487">
        <ele>1433</ele>
        <time>2011-04-16T12:27:31Z</time>
      </trkpt>
      <trkpt lat="45.96882" lon="6.335">
        <ele>1433</ele>
        <time>2011-04-16T12:27:32Z</time>
      </trkpt>
      <trkpt lat="45.96892" lon="6.33514">
        <ele>1427</ele>
        <time>2011-04-16T12:27:33Z</time>
      </trkpt>
      <trkpt lat="45.96902" lon="6.33528">
        <ele>1427</ele>
        <time>2011-04-16T12:27:34Z</time>
      </trkpt>
      <trkpt lat="45.96912" lon="6.33543">
        <ele>1427</ele>
        <time>2011-04-16T12:27:35Z</time>
      </trkpt>
      <trkpt lat="45.96921" lon="6.33558">
        <ele>1427</ele>
        <time>2011-04-16T12:27:36Z</time>
      </trkpt>
      <trkpt lat="45.96929" lon="6.33572">
        <ele>1427</ele>
        <time>2011-04-16T12:27:37Z</time>
      </trkpt>
      <trkpt lat="45.96938" lon="6.33585">
        <ele>1427</ele>
        <time>2011-04-16T12:27:38Z</time>
      </trkpt>
      <trkpt lat="45.96947" lon="6.33595">
        <ele>1422</ele>
        <time>2011-04-16T12:27:39Z</time>
      </trkpt>
      <trkpt lat="45.96954" lon="6.33607">
        <ele>1422</ele>
        <time>2011-04-16T12:27:40Z</time>
      </trkpt>
      <trkpt lat="45.96961" lon="6.3362">
        <ele>1422</ele>
        <time>2011-04-16T12:27:41Z</time>
      </trkpt>
      <trkpt lat="45.96966" lon="6.33634">
        <ele>1422</ele>
        <time>2011-04-16T12:27:42Z</time>
      </trkpt>
      <trkpt lat="45.96971" lon="6.33647">
        <ele>1422</ele>
        <time>2011-04-16T12:27:43Z</time>
      </trkpt>
      <trkpt lat="45.96976" lon="6.33659">
        <ele>1422</ele>
        <time>2011-04-16T12:27:44Z</time>
      </trkpt>
      <trkpt lat="45.96983" lon="6.33681">
        <ele>1422</ele>
        <time>2011-04-16T12:27:46Z</time>
      </trkpt>
      <trkpt lat="45.96989" lon="6.33706">
        <ele>1422</ele>
        <time>2011-04-16T12:27:48Z</time>
      </trkpt>
      <trkpt lat="45.96993" lon="6.33719">
        <ele>1422</ele>
        <time>2011-04-16T12:27:49Z</time>
      </trkpt>
      <trkpt lat="45.96997" lon="6.33732">
        <ele>1422</ele>
        <time>2011-04-16T12:27:50Z</time>
      </trkpt>
      <trkpt lat="45.97002" lon="6.33746">
        <ele>1422</ele>
        <time>2011-04-16T12:27:51Z</time>
      </trkpt>
      <trkpt lat="45.97006" lon="6.3376">
        <ele>1422</ele>
        <time>2011-04-16T12:27:52Z</time>
      </trkpt>
      <trkpt lat="45.97011" lon="6.33774">
        <ele>1422</ele>
        <time>2011-04-16T12:27:53Z</time>
      </trkpt>
      <trkpt lat="45.97015" lon="6.33788">
        <ele>1422</ele>
        <time>2011-04-16T12:27:54Z</time>
      </trkpt>
      <trkpt lat="45.9702" lon="6.33803">
        <ele>1417</ele>
        <time>2011-04-16T12:27:55Z</time>
      </trkpt>
      <trkpt lat="45.97024" lon="6.33818">
        <ele>1417</ele>
        <time>2011-04-16T12:27:56Z</time>
      </trkpt>
      <trkpt lat="45.97028" lon="6.33833">
        <ele>1417</ele>
        <time>2011-04-16T12:27:57Z</time>
      </trkpt>
      <trkpt lat="45.97032" lon="6.33848">
        <ele>1417</ele>
        <time>2011-04-16T12:27:58Z</time>
      </trkpt>
      <trkpt lat="45.97036" lon="6.33861">
        <ele>1417</ele>
        <time>2011-04-16T12:27:59Z</time>
      </trkpt>
      <trkpt lat="45.9704" lon="6.33874">
        <ele>1417</ele>
        <time>2011-04-16T12:28:00Z</time>
      </trkpt>
      <trkpt lat="45.97047" lon="6.33897">
        <ele>1410</ele>
        <time>2011-04-16T12:28:02Z</time>
      </trkpt>
      <trkpt lat="45.97053" lon="6.3392">
        <ele>1410</ele>
        <time>2011-04-16T12:28:04Z</time>
      </trkpt>
      <trkpt lat="45.97058" lon="6.33943">
        <ele>1410</ele>
        <time>2011-04-16T12:28:06Z</time>
      </trkpt>
      <trkpt lat="45.97064" lon="6.33965">
        <ele>1410</ele>
        <time>2011-04-16T12:28:08Z</time>
      </trkpt>
      <trkpt lat="45.9707" lon="6.33988">
        <ele>1404</ele>
        <time>2011-04-16T12:28:10Z</time>
      </trkpt>
      <trkpt lat="45.97071" lon="6.34013">
        <ele>1404</ele>
        <time>2011-04-16T12:28:12Z</time>
      </trkpt>
      <trkpt lat="45.9707" lon="6.34027">
        <ele>1404</ele>
        <time>2011-04-16T12:28:13Z</time>
      </trkpt>
      <trkpt lat="45.97068" lon="6.34041">
        <ele>1404</ele>
        <time>2011-04-16T12:28:14Z</time>
      </trkpt>
      <trkpt lat="45.97066" lon="6.34055">
        <ele>1404</ele>
        <time>2011-04-16T12:28:15Z</time>
      </trkpt>
      <trkpt lat="45.97066" lon="6.34069">
        <ele>1404</ele>
        <time>2011-04-16T12:28:16Z</time>
      </trkpt>
      <trkpt lat="45.97069" lon="6.34082">
        <ele>1404</ele>
        <time>2011-04-16T12:28:17Z</time>
      </trkpt>
      <trkpt lat="45.97074" lon="6.34096">
        <ele>1404</ele>
        <time>2011-04-16T12:28:18Z</time>
      </trkpt>
      <trkpt lat="45.97079" lon="6.34109">
        <ele>1404</ele>
        <time>2011-04-16T12:28:19Z</time>
      </trkpt>
      <trkpt lat="45.97085" lon="6.34122">
        <ele>1404</ele>
        <time>2011-04-16T12:28:20Z</time>
      </trkpt>
      <trkpt lat="45.97092" lon="6.34134">
        <ele>1404</ele>
        <time>2011-04-16T12:28:21Z</time>
      </trkpt>
      <trkpt lat="45.97097" lon="6.34148">
        <ele>1404</ele>
        <time>2011-04-16T12:28:22Z</time>
      </trkpt>
      <trkpt lat="45.97102" lon="6.34162">
        <ele>1404</ele>
        <time>2011-04-16T12:28:23Z</time>
      </trkpt>
      <trkpt lat="45.97107" lon="6.34176">
        <ele>1404</ele>
        <time>2011-04-16T12:28:24Z</time>
      </trkpt>
      <trkpt lat="45.97113" lon="6.34198">
        <ele>1404</ele>
        <time>2011-04-16T12:28:26Z</time>
      </trkpt>
      <trkpt lat="45.97119" lon="6.34216">
        <ele>1404</ele>
        <time>2011-04-16T12:28:28Z</time>
      </trkpt>
      <trkpt lat="45.97125" lon="6.34233">
        <ele>1404</ele>
        <time>2011-04-16T12:28:30Z</time>
      </trkpt>
      <trkpt lat="45.97132" lon="6.34248">
        <ele>1404</ele>
        <time>2011-04-16T12:28:32Z</time>
      </trkpt>
      <trkpt lat="45.97137" lon="6.34263">
        <ele>1404</ele>
        <time>2011-04-16T12:28:34Z</time>
      </trkpt>
      <trkpt lat="45.97142" lon="6.34277">
        <ele>1404</ele>
        <time>2011-04-16T12:28:36Z</time>
      </trkpt>
      <trkpt lat="45.97149" lon="6.34293">
        <ele>1404</ele>
        <time>2011-04-16T12:28:38Z</time>
      </trkpt>
      <trkpt lat="45.97155" lon="6.34314">
        <ele>1404</ele>
        <time>2011-04-16T12:28:40Z</time>
      </trkpt>
      <trkpt lat="45.97159" lon="6.34335">
        <ele>1404</ele>
        <time>2011-04-16T12:28:42Z</time>
      </trkpt>
      <trkpt lat="45.97163" lon="6.34353">
        <ele>1399</ele>
        <time>2011-04-16T12:28:44Z</time>
      </trkpt>
      <trkpt lat="45.9717" lon="6.34371">
        <ele>1399</ele>
        <time>2011-04-16T12:28:46Z</time>
      </trkpt>
      <trkpt lat="45.97177" lon="6.34388">
        <ele>1399</ele>
        <time>2011-04-16T12:28:48Z</time>
      </trkpt>
      <trkpt lat="45.97186" lon="6.34403">
        <ele>1399</ele>
        <time>2011-04-16T12:28:50Z</time>
      </trkpt>
      <trkpt lat="45.97192" lon="6.34418">
        <ele>1399</ele>
        <time>2011-04-16T12:28:52Z</time>
      </trkpt>
      <trkpt lat="45.97194" lon="6.34437">
        <ele>1399</ele>
        <time>2011-04-16T12:28:54Z</time>
      </trkpt>
      <trkpt lat="45.97192" lon="6.34459">
        <ele>1399</ele>
        <time>2011-04-16T12:28:56Z</time>
      </trkpt>
      <trkpt lat="45.97187" lon="6.34479">
        <ele>1399</ele>
        <time>2011-04-16T12:28:58Z</time>
      </trkpt>
      <trkpt lat="45.97185" lon="6.345">
        <ele>1399</ele>
        <time>2011-04-16T12:29:00Z</time>
      </trkpt>
      <trkpt lat="45.97184" lon="6.34519">
        <ele>1399</ele>
        <time>2011-04-16T12:29:02Z</time>
      </trkpt>
      <trkpt lat="45.97187" lon="6.34535">
        <ele>1399</ele>
        <time>2011-04-16T12:29:04Z</time>
      </trkpt>
      <trkpt lat="45.97194" lon="6.34552">
        <ele>1399</ele>
        <time>2011-04-16T12:29:06Z</time>
      </trkpt>
      <trkpt lat="45.97202" lon="6.34573">
        <ele>1399</ele>
        <time>2011-04-16T12:29:08Z</time>
      </trkpt>
      <trkpt lat="45.97206" lon="6.34584">
        <ele>1399</ele>
        <time>2011-04-16T12:29:09Z</time>
      </trkpt>
      <trkpt lat="45.97211" lon="6.34596">
        <ele>1399</ele>
        <time>2011-04-16T12:29:10Z</time>
      </trkpt>
      <trkpt lat="45.97214" lon="6.34609">
        <ele>1399</ele>
        <time>2011-04-16T12:29:11Z</time>
      </trkpt>
      <trkpt lat="45.97217" lon="6.34621">
        <ele>1399</ele>
        <time>2011-04-16T12:29:12Z</time>
      </trkpt>
      <trkpt lat="45.97219" lon="6.34634">
        <ele>1399</ele>
        <time>2011-04-16T12:29:13Z</time>
      </trkpt>
      <trkpt lat="45.97222" lon="6.34646">
        <ele>1393</ele>
        <time>2011-04-16T12:29:14Z</time>
      </trkpt>
      <trkpt lat="45.97224" lon="6.34659">
        <ele>1393</ele>
        <time>2011-04-16T12:29:15Z</time>
      </trkpt>
      <trkpt lat="45.97228" lon="6.34671">
        <ele>1393</ele>
        <time>2011-04-16T12:29:16Z</time>
      </trkpt>
      <trkpt lat="45.97232" lon="6.34684">
        <ele>1393</ele>
        <time>2011-04-16T12:29:17Z</time>
      </trkpt>
      <trkpt lat="45.97236" lon="6.34698">
        <ele>1393</ele>
        <time>2011-04-16T12:29:18Z</time>
      </trkpt>
      <trkpt lat="45.97241" lon="6.34711">
        <ele>1393</ele>
        <time>2011-04-16T12:29:19Z</time>
      </trkpt>
      <trkpt lat="45.97244" lon="6.34724">
        <ele>1393</ele>
        <time>2011-04-16T12:29:20Z</time>
      </trkpt>
      <trkpt lat="45.97249" lon="6.34736">
        <ele>1393</ele>
        <time>2011-04-16T12:29:21Z</time>
      </trkpt>
      <trkpt lat="45.97259" lon="6.34757">
        <ele>1393</ele>
        <time>2011-04-16T12:29:23Z</time>
      </trkpt>
      <trkpt lat="45.97271" lon="6.34774">
        <ele>1393</ele>
        <time>2011-04-16T12:29:25Z</time>
      </trkpt>
      <trkpt lat="45.97282" lon="6.34791">
        <ele>1393</ele>
        <time>2011-04-16T12:29:27Z</time>
      </trkpt>
      <trkpt lat="45.97296" lon="6.34808">
        <ele>1393</ele>
        <time>2011-04-16T12:29:29Z</time>
      </trkpt>
      <trkpt lat="45.9731" lon="6.34825">
        <ele>1393</ele>
        <time>2011-04-16T12:29:31Z</time>
      </trkpt>
      <trkpt lat="45.97318" lon="6.34835">
        <ele>1393</ele>
        <time>2011-04-16T12:29:32Z</time>
      </trkpt>
      <trkpt lat="45.97325" lon="6.34845">
        <ele>1393</ele>
        <time>2011-04-16T12:29:33Z</time>
      </trkpt>
      <trkpt lat="45.97331" lon="6.34857">
        <ele>1393</ele>
        <time>2011-04-16T12:29:34Z</time>
      </trkpt>
      <trkpt lat="45.97336" lon="6.3487">
        <ele>1393</ele>
        <time>2011-04-16T12:29:35Z</time>
      </trkpt>
      <trkpt lat="45.97341" lon="6.34883">
        <ele>1393</ele>
        <time>2011-04-16T12:29:36Z</time>
      </trkpt>
      <trkpt lat="45.97344" lon="6.34897">
        <ele>1393</ele>
        <time>2011-04-16T12:29:37Z</time>
      </trkpt>
      <trkpt lat="45.97348" lon="6.34911">
        <ele>1393</ele>
        <time>2011-04-16T12:29:38Z</time>
      </trkpt>
      <trkpt lat="45.97353" lon="6.34925">
        <ele>1393</ele>
        <time>2011-04-16T12:29:39Z</time>
      </trkpt>
      <trkpt lat="45.97359" lon="6.34938">
        <ele>1393</ele>
        <time>2011-04-16T12:29:40Z</time>
      </trkpt>
      <trkpt lat="45.97365" lon="6.34953">
        <ele>1393</ele>
        <time>2011-04-16T12:29:41Z</time>
      </trkpt>
      <trkpt lat="45.97371" lon="6.34965">
        <ele>1393</ele>
        <time>2011-04-16T12:29:42Z</time>
      </trkpt>
      <trkpt lat="45.97377" lon="6.34977">
        <ele>1393</ele>
        <time>2011-04-16T12:29:43Z</time>
      </trkpt>
      <trkpt lat="45.97386" lon="6.34993">
        <ele>1399</ele>
        <time>2011-04-16T12:29:45Z</time>
      </trkpt>
      <trkpt lat="45.97393" lon="6.35005">
        <ele>1399</ele>
        <time>2011-04-16T12:29:48Z</time>
      </trkpt>
      <trkpt lat="45.97403" lon="6.35003">
        <ele>1399</ele>
        <time>2011-04-16T12:30:34Z</time>
      </trkpt>
      <trkpt lat="45.97414" lon="6.35006">
        <ele>1399</ele>
        <time>2011-04-16T12:30:36Z</time>
      </trkpt>
      <trkpt lat="45.97423" lon="6.35019">
        <ele>1399</ele>
        <time>2011-04-16T12:30:38Z</time>
      </trkpt>
      <trkpt lat="45.9743" lon="6.35039">
        <ele>1399</ele>
        <time>2011-04-16T12:30:40Z</time>
      </trkpt>
      <trkpt lat="45.97437" lon="6.35059">
        <ele>1399</ele>
        <time>2011-04-16T12:30:42Z</time>
      </trkpt>
      <trkpt lat="45.97442" lon="6.35075">
        <ele>1399</ele>
        <time>2011-04-16T12:30:44Z</time>
      </trkpt>
      <trkpt lat="45.97452" lon="6.35081">
        <ele>1399</ele>
        <time>2011-04-16T12:30:46Z</time>
      </trkpt>
      <trkpt lat="45.97463" lon="6.35076">
        <ele>1399</ele>
        <time>2011-04-16T12:30:48Z</time>
      </trkpt>
      <trkpt lat="45.97472" lon="6.35062">
        <ele>1399</ele>
        <time>2011-04-16T12:30:50Z</time>
      </trkpt>
      <trkpt lat="45.97484" lon="6.35048">
        <ele>1399</ele>
        <time>2011-04-16T12:30:52Z</time>
      </trkpt>
      <trkpt lat="45.97497" lon="6.35032">
        <ele>1399</ele>
        <time>2011-04-16T12:30:54Z</time>
      </trkpt>
      <trkpt lat="45.97505" lon="6.35023">
        <ele>1399</ele>
        <time>2011-04-16T12:30:55Z</time>
      </trkpt>
      <trkpt lat="45.97512" lon="6.35014">
        <ele>1399</ele>
        <time>2011-04-16T12:30:56Z</time>
      </trkpt>
      <trkpt lat="45.97519" lon="6.35004">
        <ele>1399</ele>
        <time>2011-04-16T12:30:57Z</time>
      </trkpt>
      <trkpt lat="45.97526" lon="6.34994">
        <ele>1399</ele>
        <time>2011-04-16T12:30:58Z</time>
      </trkpt>
      <trkpt lat="45.97534" lon="6.34985">
        <ele>1399</ele>
        <time>2011-04-16T12:30:59Z</time>
      </trkpt>
      <trkpt lat="45.97541" lon="6.34974">
        <ele>1399</ele>
        <time>2011-04-16T12:31:00Z</time>
      </trkpt>
      <trkpt lat="45.97549" lon="6.34965">
        <ele>1399</ele>
        <time>2011-04-16T12:31:01Z</time>
      </trkpt>
      <trkpt lat="45.97556" lon="6.34956">
        <ele>1399</ele>
        <time>2011-04-16T12:31:02Z</time>
      </trkpt>
      <trkpt lat="45.97569" lon="6.3494">
        <ele>1399</ele>
        <time>2011-04-16T12:31:04Z</time>
      </trkpt>
      <trkpt lat="45.9758" lon="6.3493">
        <ele>1399</ele>
        <time>2011-04-16T12:31:06Z</time>
      </trkpt>
      <trkpt lat="45.97591" lon="6.34928">
        <ele>1399</ele>
        <time>2011-04-16T12:31:08Z</time>
      </trkpt>
      <trkpt lat="45.976" lon="6.34938">
        <ele>1399</ele>
        <time>2011-04-16T12:31:10Z</time>
      </trkpt>
      <trkpt lat="45.97608" lon="6.34953">
        <ele>1399</ele>
        <time>2011-04-16T12:31:12Z</time>
      </trkpt>
      <trkpt lat="45.97616" lon="6.34968">
        <ele>1399</ele>
        <time>2011-04-16T12:31:14Z</time>
      </trkpt>
      <trkpt lat="45.97624" lon="6.34986">
        <ele>1399</ele>
        <time>2011-04-16T12:31:16Z</time>
      </trkpt>
      <trkpt lat="45.9763" lon="6.35007">
        <ele>1399</ele>
        <time>2011-04-16T12:31:18Z</time>
      </trkpt>
      <trkpt lat="45.97638" lon="6.35031">
        <ele>1399</ele>
        <time>2011-04-16T12:31:20Z</time>
      </trkpt>
      <trkpt lat="45.97647" lon="6.35053">
        <ele>1399</ele>
        <time>2011-04-16T12:31:22Z</time>
      </trkpt>
      <trkpt lat="45.97655" lon="6.35074">
        <ele>1399</ele>
        <time>2011-04-16T12:31:24Z</time>
      </trkpt>
      <trkpt lat="45.97663" lon="6.35094">
        <ele>1399</ele>
        <time>2011-04-16T12:31:26Z</time>
      </trkpt>
      <trkpt lat="45.97672" lon="6.35115">
        <ele>1399</ele>
        <time>2011-04-16T12:31:28Z</time>
      </trkpt>
      <trkpt lat="45.9768" lon="6.35135">
        <ele>1399</ele>
        <time>2011-04-16T12:31:30Z</time>
      </trkpt>
      <trkpt lat="45.97693" lon="6.35152">
        <ele>1399</ele>
        <time>2011-04-16T12:31:32Z</time>
      </trkpt>
      <trkpt lat="45.97701" lon="6.35161">
        <ele>1393</ele>
        <time>2011-04-16T12:31:33Z</time>
      </trkpt>
      <trkpt lat="45.9771" lon="6.3517">
        <ele>1393</ele>
        <time>2011-04-16T12:31:34Z</time>
      </trkpt>
      <trkpt lat="45.97719" lon="6.35181">
        <ele>1393</ele>
        <time>2011-04-16T12:31:35Z</time>
      </trkpt>
      <trkpt lat="45.97728" lon="6.35191">
        <ele>1393</ele>
        <time>2011-04-16T12:31:36Z</time>
      </trkpt>
      <trkpt lat="45.97738" lon="6.35201">
        <ele>1393</ele>
        <time>2011-04-16T12:31:37Z</time>
      </trkpt>
      <trkpt lat="45.97748" lon="6.35213">
        <ele>1393</ele>
        <time>2011-04-16T12:31:38Z</time>
      </trkpt>
      <trkpt lat="45.97757" lon="6.35227">
        <ele>1393</ele>
        <time>2011-04-16T12:31:39Z</time>
      </trkpt>
      <trkpt lat="45.97766" lon="6.3524">
        <ele>1388</ele>
        <time>2011-04-16T12:31:40Z</time>
      </trkpt>
      <trkpt lat="45.97774" lon="6.35254">
        <ele>1388</ele>
        <time>2011-04-16T12:31:41Z</time>
      </trkpt>
      <trkpt lat="45.97784" lon="6.35268">
        <ele>1388</ele>
        <time>2011-04-16T12:31:42Z</time>
      </trkpt>
      <trkpt lat="45.97794" lon="6.35282">
        <ele>1388</ele>
        <time>2011-04-16T12:31:43Z</time>
      </trkpt>
      <trkpt lat="45.97803" lon="6.35296">
        <ele>1388</ele>
        <time>2011-04-16T12:31:44Z</time>
      </trkpt>
      <trkpt lat="45.97812" lon="6.35309">
        <ele>1388</ele>
        <time>2011-04-16T12:31:45Z</time>
      </trkpt>
      <trkpt lat="45.97821" lon="6.35324">
        <ele>1388</ele>
        <time>2011-04-16T12:31:46Z</time>
      </trkpt>
      <trkpt lat="45.97831" lon="6.35337">
        <ele>1388</ele>
        <time>2011-04-16T12:31:47Z</time>
      </trkpt>
      <trkpt lat="45.97841" lon="6.3535">
        <ele>1388</ele>
        <time>2011-04-16T12:31:48Z</time>
      </trkpt>
      <trkpt lat="45.97851" lon="6.35363">
        <ele>1388</ele>
        <time>2011-04-16T12:31:49Z</time>
      </trkpt>
      <trkpt lat="45.9786" lon="6.35377">
        <ele>1388</ele>
        <time>2011-04-16T12:31:50Z</time>
      </trkpt>
      <trkpt lat="45.97869" lon="6.35391">
        <ele>1388</ele>
        <time>2011-04-16T12:31:51Z</time>
      </trkpt>
      <trkpt lat="45.97877" lon="6.35405">
        <ele>1388</ele>
        <time>2011-04-16T12:31:52Z</time>
      </trkpt>
      <trkpt lat="45.97884" lon="6.35419">
        <ele>1388</ele>
        <time>2011-04-16T12:31:53Z</time>
      </trkpt>
      <trkpt lat="45.97893" lon="6.35432">
        <ele>1388</ele>
        <time>2011-04-16T12:31:54Z</time>
      </trkpt>
      <trkpt lat="45.979" lon="6.35447">
        <ele>1383</ele>
        <time>2011-04-16T12:31:55Z</time>
      </trkpt>
      <trkpt lat="45.97908" lon="6.3546">
        <ele>1383</ele>
        <time>2011-04-16T12:31:56Z</time>
      </trkpt>
      <trkpt lat="45.97915" lon="6.35473">
        <ele>1383</ele>
        <time>2011-04-16T12:31:57Z</time>
      </trkpt>
      <trkpt lat="45.97921" lon="6.35485">
        <ele>1383</ele>
        <time>2011-04-16T12:31:58Z</time>
      </trkpt>
      <trkpt lat="45.97927" lon="6.35497">
        <ele>1383</ele>
        <time>2011-04-16T12:31:59Z</time>
      </trkpt>
      <trkpt lat="45.97933" lon="6.35507">
        <ele>1383</ele>
        <time>2011-04-16T12:32:00Z</time>
      </trkpt>
      <trkpt lat="45.97947" lon="6.3552">
        <ele>1383</ele>
        <time>2011-04-16T12:32:02Z</time>
      </trkpt>
      <trkpt lat="45.97963" lon="6.35526">
        <ele>1377</ele>
        <time>2011-04-16T12:32:04Z</time>
      </trkpt>
      <trkpt lat="45.97973" lon="6.35528">
        <ele>1377</ele>
        <time>2011-04-16T12:32:05Z</time>
      </trkpt>
      <trkpt lat="45.97983" lon="6.35534">
        <ele>1377</ele>
        <time>2011-04-16T12:32:06Z</time>
      </trkpt>
      <trkpt lat="45.97992" lon="6.35543">
        <ele>1377</ele>
        <time>2011-04-16T12:32:07Z</time>
      </trkpt>
      <trkpt lat="45.98002" lon="6.35555">
        <ele>1377</ele>
        <time>2011-04-16T12:32:08Z</time>
      </trkpt>
      <trkpt lat="45.98012" lon="6.35566">
        <ele>1377</ele>
        <time>2011-04-16T12:32:09Z</time>
      </trkpt>
      <trkpt lat="45.98022" lon="6.35579">
        <ele>1377</ele>
        <time>2011-04-16T12:32:10Z</time>
      </trkpt>
      <trkpt lat="45.98032" lon="6.35592">
        <ele>1377</ele>
        <time>2011-04-16T12:32:11Z</time>
      </trkpt>
      <trkpt lat="45.98042" lon="6.35607">
        <ele>1377</ele>
        <time>2011-04-16T12:32:12Z</time>
      </trkpt>
      <trkpt lat="45.98052" lon="6.35624">
        <ele>1377</ele>
        <time>2011-04-16T12:32:13Z</time>
      </trkpt>
      <trkpt lat="45.98062" lon="6.35641">
        <ele>1377</ele>
        <time>2011-04-16T12:32:14Z</time>
      </trkpt>
      <trkpt lat="45.98072" lon="6.3566">
        <ele>1377</ele>
        <time>2011-04-16T12:32:15Z</time>
      </trkpt>
      <trkpt lat="45.98082" lon="6.35678">
        <ele>1377</ele>
        <time>2011-04-16T12:32:16Z</time>
      </trkpt>
      <trkpt lat="45.98092" lon="6.35698">
        <ele>1377</ele>
        <time>2011-04-16T12:32:17Z</time>
      </trkpt>
      <trkpt lat="45.98102" lon="6.35718">
        <ele>1377</ele>
        <time>2011-04-16T12:32:18Z</time>
      </trkpt>
      <trkpt lat="45.98111" lon="6.35738">
        <ele>1377</ele>
        <time>2011-04-16T12:32:19Z</time>
      </trkpt>
      <trkpt lat="45.98119" lon="6.35757">
        <ele>1377</ele>
        <time>2011-04-16T12:32:20Z</time>
      </trkpt>
      <trkpt lat="45.98127" lon="6.35776">
        <ele>1377</ele>
        <time>2011-04-16T12:32:21Z</time>
      </trkpt>
      <trkpt lat="45.98135" lon="6.35793">
        <ele>1377</ele>
        <time>2011-04-16T12:32:22Z</time>
      </trkpt>
      <trkpt lat="45.98143" lon="6.35809">
        <ele>1377</ele>
        <time>2011-04-16T12:32:23Z</time>
      </trkpt>
      <trkpt lat="45.98151" lon="6.35826">
        <ele>1377</ele>
        <time>2011-04-16T12:32:24Z</time>
      </trkpt>
      <trkpt lat="45.98159" lon="6.35843">
        <ele>1377</ele>
        <time>2011-04-16T12:32:25Z</time>
      </trkpt>
      <trkpt lat="45.98169" lon="6.35859">
        <ele>1377</ele>
        <time>2011-04-16T12:32:26Z</time>
      </trkpt>
      <trkpt lat="45.98178" lon="6.35876">
        <ele>1377</ele>
        <time>2011-04-16T12:32:27Z</time>
      </trkpt>
      <trkpt lat="45.98188" lon="6.35892">
        <ele>1377</ele>
        <time>2011-04-16T12:32:28Z</time>
      </trkpt>
      <trkpt lat="45.98196" lon="6.35909">
        <ele>1377</ele>
        <time>2011-04-16T12:32:29Z</time>
      </trkpt>
      <trkpt lat="45.98205" lon="6.35926">
        <ele>1377</ele>
        <time>2011-04-16T12:32:30Z</time>
      </trkpt>
      <trkpt lat="45.98213" lon="6.35943">
        <ele>1377</ele>
        <time>2011-04-16T12:32:31Z</time>
      </trkpt>
      <trkpt lat="45.98221" lon="6.35961">
        <ele>1377</ele>
        <time>2011-04-16T12:32:32Z</time>
      </trkpt>
      <trkpt lat="45.98229" lon="6.35979">
        <ele>1377</ele>
        <time>2011-04-16T12:32:33Z</time>
      </trkpt>
      <trkpt lat="45.98237" lon="6.35997">
        <ele>1377</ele>
        <time>2011-04-16T12:32:34Z</time>
      </trkpt>
      <trkpt lat="45.98245" lon="6.36015">
        <ele>1377</ele>
        <time>2011-04-16T12:32:35Z</time>
      </trkpt>
      <trkpt lat="45.98252" lon="6.36032">
        <ele>1377</ele>
        <time>2011-04-16T12:32:36Z</time>
      </trkpt>
      <trkpt lat="45.98259" lon="6.36049">
        <ele>1377</ele>
        <time>2011-04-16T12:32:37Z</time>
      </trkpt>
      <trkpt lat="45.98267" lon="6.36066">
        <ele>1377</ele>
        <time>2011-04-16T12:32:38Z</time>
      </trkpt>
      <trkpt lat="45.98274" lon="6.36084">
        <ele>1377</ele>
        <time>2011-04-16T12:32:39Z</time>
      </trkpt>
      <trkpt lat="45.98282" lon="6.36102">
        <ele>1377</ele>
        <time>2011-04-16T12:32:40Z</time>
      </trkpt>
      <trkpt lat="45.98291" lon="6.36119">
        <ele>1377</ele>
        <time>2011-04-16T12:32:41Z</time>
      </trkpt>
      <trkpt lat="45.983" lon="6.36136">
        <ele>1377</ele>
        <time>2011-04-16T12:32:42Z</time>
      </trkpt>
      <trkpt lat="45.98308" lon="6.36151">
        <ele>1377</ele>
        <time>2011-04-16T12:32:43Z</time>
      </trkpt>
      <trkpt lat="45.98317" lon="6.36166">
        <ele>1377</ele>
        <time>2011-04-16T12:32:44Z</time>
      </trkpt>
      <trkpt lat="45.98324" lon="6.3618">
        <ele>1377</ele>
        <time>2011-04-16T12:32:45Z</time>
      </trkpt>
      <trkpt lat="45.98332" lon="6.36194">
        <ele>1377</ele>
        <time>2011-04-16T12:32:46Z</time>
      </trkpt>
      <trkpt lat="45.98339" lon="6.36208">
        <ele>1372</ele>
        <time>2011-04-16T12:32:47Z</time>
      </trkpt>
      <trkpt lat="45.98347" lon="6.36223">
        <ele>1372</ele>
        <time>2011-04-16T12:32:48Z</time>
      </trkpt>
      <trkpt lat="45.98353" lon="6.36237">
        <ele>1372</ele>
        <time>2011-04-16T12:32:49Z</time>
      </trkpt>
      <trkpt lat="45.98359" lon="6.36252">
        <ele>1372</ele>
        <time>2011-04-16T12:32:50Z</time>
      </trkpt>
      <trkpt lat="45.98365" lon="6.36267">
        <ele>1372</ele>
        <time>2011-04-16T12:32:51Z</time>
      </trkpt>
      <trkpt lat="45.9837" lon="6.36283">
        <ele>1372</ele>
        <time>2011-04-16T12:32:52Z</time>
      </trkpt>
      <trkpt lat="45.98376" lon="6.36299">
        <ele>1372</ele>
        <time>2011-04-16T12:32:53Z</time>
      </trkpt>
      <trkpt lat="45.98381" lon="6.36317">
        <ele>1372</ele>
        <time>2011-04-16T12:32:54Z</time>
      </trkpt>
      <trkpt lat="45.98386" lon="6.36334">
        <ele>1372</ele>
        <time>2011-04-16T12:32:55Z</time>
      </trkpt>
      <trkpt lat="45.98391" lon="6.3635">
        <ele>1372</ele>
        <time>2011-04-16T12:32:56Z</time>
      </trkpt>
      <trkpt lat="45.98394" lon="6.36365">
        <ele>1366</ele>
        <time>2011-04-16T12:32:57Z</time>
      </trkpt>
      <trkpt lat="45.98402" lon="6.36387">
        <ele>1366</ele>
        <time>2011-04-16T12:32:59Z</time>
      </trkpt>
      <trkpt lat="45.98412" lon="6.36406">
        <ele>1366</ele>
        <time>2011-04-16T12:33:01Z</time>
      </trkpt>
      <trkpt lat="45.98422" lon="6.36422">
        <ele>1366</ele>
        <time>2011-04-16T12:33:03Z</time>
      </trkpt>
      <trkpt lat="45.98431" lon="6.36438">
        <ele>1366</ele>
        <time>2011-04-16T12:33:05Z</time>
      </trkpt>
      <trkpt lat="45.98439" lon="6.36452">
        <ele>1366</ele>
        <time>2011-04-16T12:33:07Z</time>
      </trkpt>
      <trkpt lat="45.98447" lon="6.36465">
        <ele>1366</ele>
        <time>2011-04-16T12:33:09Z</time>
      </trkpt>
      <trkpt lat="45.98453" lon="6.36474">
        <ele>1361</ele>
        <time>2011-04-16T12:33:11Z</time>
      </trkpt>
      <trkpt lat="45.98463" lon="6.36485">
        <ele>1361</ele>
        <time>2011-04-16T12:33:13Z</time>
      </trkpt>
      <trkpt lat="45.98474" lon="6.365">
        <ele>1361</ele>
        <time>2011-04-16T12:33:15Z</time>
      </trkpt>
      <trkpt lat="45.98484" lon="6.36517">
        <ele>1361</ele>
        <time>2011-04-16T12:33:17Z</time>
      </trkpt>
      <trkpt lat="45.98494" lon="6.36535">
        <ele>1361</ele>
        <time>2011-04-16T12:33:19Z</time>
      </trkpt>
      <trkpt lat="45.98504" lon="6.36552">
        <ele>1355</ele>
        <time>2011-04-16T12:33:21Z</time>
      </trkpt>
      <trkpt lat="45.98517" lon="6.36568">
        <ele>1355</ele>
        <time>2011-04-16T12:33:23Z</time>
      </trkpt>
      <trkpt lat="45.98528" lon="6.36585">
        <ele>1355</ele>
        <time>2011-04-16T12:33:25Z</time>
      </trkpt>
      <trkpt lat="45.9854" lon="6.366">
        <ele>1355</ele>
        <time>2011-04-16T12:33:27Z</time>
      </trkpt>
      <trkpt lat="45.9855" lon="6.36618">
        <ele>1355</ele>
        <time>2011-04-16T12:33:29Z</time>
      </trkpt>
      <trkpt lat="45.98555" lon="6.36636">
        <ele>1355</ele>
        <time>2011-04-16T12:33:31Z</time>
      </trkpt>
      <trkpt lat="45.98555" lon="6.36653">
        <ele>1355</ele>
        <time>2011-04-16T12:33:33Z</time>
      </trkpt>
      <trkpt lat="45.98555" lon="6.36669">
        <ele>1349</ele>
        <time>2011-04-16T12:33:35Z</time>
      </trkpt>
      <trkpt lat="45.98558" lon="6.36685">
        <ele>1349</ele>
        <time>2011-04-16T12:33:37Z</time>
      </trkpt>
      <trkpt lat="45.98562" lon="6.367">
        <ele>1349</ele>
        <time>2011-04-16T12:33:39Z</time>
      </trkpt>
      <trkpt lat="45.98566" lon="6.36714">
        <ele>1349</ele>
        <time>2011-04-16T12:33:41Z</time>
      </trkpt>
      <trkpt lat="45.98572" lon="6.36732">
        <ele>1342</ele>
        <time>2011-04-16T12:33:44Z</time>
      </trkpt>
      <trkpt lat="45.98577" lon="6.36749">
        <ele>1342</ele>
        <time>2011-04-16T12:33:46Z</time>
      </trkpt>
      <trkpt lat="45.98582" lon="6.36766">
        <ele>1342</ele>
        <time>2011-04-16T12:33:48Z</time>
      </trkpt>
      <trkpt lat="45.98587" lon="6.3678">
        <ele>1342</ele>
        <time>2011-04-16T12:33:50Z</time>
      </trkpt>
      <trkpt lat="45.98595" lon="6.36795">
        <ele>1335</ele>
        <time>2011-04-16T12:33:53Z</time>
      </trkpt>
      <trkpt lat="45.98601" lon="6.36808">
        <ele>1335</ele>
        <time>2011-04-16T12:33:55Z</time>
      </trkpt>
      <trkpt lat="45.98607" lon="6.36822">
        <ele>1335</ele>
        <time>2011-04-16T12:33:57Z</time>
      </trkpt>
      <trkpt lat="45.98612" lon="6.36838">
        <ele>1329</ele>
        <time>2011-04-16T12:33:59Z</time>
      </trkpt>
      <trkpt lat="45.98615" lon="6.36854">
        <ele>1329</ele>
        <time>2011-04-16T12:34:01Z</time>
      </trkpt>
      <trkpt lat="45.98615" lon="6.36868">
        <ele>1329</ele>
        <time>2011-04-16T12:34:03Z</time>
      </trkpt>
      <trkpt lat="45.98615" lon="6.36881">
        <ele>1329</ele>
        <time>2011-04-16T12:34:05Z</time>
      </trkpt>
      <trkpt lat="45.98617" lon="6.36898">
        <ele>1322</ele>
        <time>2011-04-16T12:34:08Z</time>
      </trkpt>
      <trkpt lat="45.98619" lon="6.36916">
        <ele>1322</ele>
        <time>2011-04-16T12:34:11Z</time>
      </trkpt>
      <trkpt lat="45.9862" lon="6.36935">
        <ele>1322</ele>
        <time>2011-04-16T12:34:14Z</time>
      </trkpt>
      <trkpt lat="45.98618" lon="6.36949">
        <ele>1316</ele>
        <time>2011-04-16T12:34:16Z</time>
      </trkpt>
      <trkpt lat="45.9861" lon="6.3696">
        <ele>1316</ele>
        <time>2011-04-16T12:34:19Z</time>
      </trkpt>
      <trkpt lat="45.986" lon="6.36965">
        <ele>1316</ele>
        <time>2011-04-16T12:34:22Z</time>
      </trkpt>
      <trkpt lat="45.98591" lon="6.3697">
        <ele>1316</ele>
        <time>2011-04-16T12:34:26Z</time>
      </trkpt>
      <trkpt lat="45.98587" lon="6.36956">
        <ele>1316</ele>
        <time>2011-04-16T12:34:31Z</time>
      </trkpt>
      <trkpt lat="45.98582" lon="6.36943">
        <ele>1316</ele>
        <time>2011-04-16T12:34:34Z</time>
      </trkpt>
      <trkpt lat="45.98572" lon="6.36935">
        <ele>1309</ele>
        <time>2011-04-16T12:34:37Z</time>
      </trkpt>
      <trkpt lat="45.98559" lon="6.36932">
        <ele>1309</ele>
        <time>2011-04-16T12:34:40Z</time>
      </trkpt>
      <trkpt lat="45.98549" lon="6.3693">
        <ele>1303</ele>
        <time>2011-04-16T12:34:43Z</time>
      </trkpt>
      <trkpt lat="45.98538" lon="6.36934">
        <ele>1303</ele>
        <time>2011-04-16T12:34:48Z</time>
      </trkpt>
      <trkpt lat="45.98529" lon="6.3694">
        <ele>1297</ele>
        <time>2011-04-16T12:34:52Z</time>
      </trkpt>
      <trkpt lat="45.9852" lon="6.36945">
        <ele>1297</ele>
        <time>2011-04-16T12:34:56Z</time>
      </trkpt>
      <trkpt lat="45.98509" lon="6.36949">
        <ele>1286</ele>
        <time>2011-04-16T12:35:00Z</time>
      </trkpt>
      <trkpt lat="45.985" lon="6.36953">
        <ele>1286</ele>
        <time>2011-04-16T12:35:02Z</time>
      </trkpt>
      <trkpt lat="45.98491" lon="6.36962">
        <ele>1286</ele>
        <time>2011-04-16T12:35:04Z</time>
      </trkpt>
      <trkpt lat="45.98484" lon="6.36973">
        <ele>1286</ele>
        <time>2011-04-16T12:35:06Z</time>
      </trkpt>
      <trkpt lat="45.9848" lon="6.36985">
        <ele>1286</ele>
        <time>2011-04-16T12:35:08Z</time>
      </trkpt>
      <trkpt lat="45.98475" lon="6.36999">
        <ele>1286</ele>
        <time>2011-04-16T12:35:11Z</time>
      </trkpt>
      <trkpt lat="45.9847" lon="6.37013">
        <ele>1279</ele>
        <time>2011-04-16T12:35:14Z</time>
      </trkpt>
      <trkpt lat="45.98466" lon="6.37029">
        <ele>1279</ele>
        <time>2011-04-16T12:35:17Z</time>
      </trkpt>
      <trkpt lat="45.98461" lon="6.37048">
        <ele>1279</ele>
        <time>2011-04-16T12:35:20Z</time>
      </trkpt>
      <trkpt lat="45.98459" lon="6.37062">
        <ele>1279</ele>
        <time>2011-04-16T12:35:22Z</time>
      </trkpt>
      <trkpt lat="45.98458" lon="6.37077">
        <ele>1273</ele>
        <time>2011-04-16T12:35:24Z</time>
      </trkpt>
      <trkpt lat="45.98459" lon="6.37092">
        <ele>1273</ele>
        <time>2011-04-16T12:35:26Z</time>
      </trkpt>
      <trkpt lat="45.98464" lon="6.37104">
        <ele>1273</ele>
        <time>2011-04-16T12:35:28Z</time>
      </trkpt>
      <trkpt lat="45.9847" lon="6.37115">
        <ele>1267</ele>
        <time>2011-04-16T12:35:30Z</time>
      </trkpt>
      <trkpt lat="45.98476" lon="6.37125">
        <ele>1267</ele>
        <time>2011-04-16T12:35:32Z</time>
      </trkpt>
      <trkpt lat="45.98479" lon="6.37138">
        <ele>1267</ele>
        <time>2011-04-16T12:35:34Z</time>
      </trkpt>
      <trkpt lat="45.98476" lon="6.37154">
        <ele>1262</ele>
        <time>2011-04-16T12:35:36Z</time>
      </trkpt>
      <trkpt lat="45.98469" lon="6.3717">
        <ele>1262</ele>
        <time>2011-04-16T12:35:38Z</time>
      </trkpt>
      <trkpt lat="45.98462" lon="6.37187">
        <ele>1256</ele>
        <time>2011-04-16T12:35:40Z</time>
      </trkpt>
      <trkpt lat="45.98455" lon="6.37202">
        <ele>1256</ele>
        <time>2011-04-16T12:35:42Z</time>
      </trkpt>
      <trkpt lat="45.98448" lon="6.37218">
        <ele>1256</ele>
        <time>2011-04-16T12:35:44Z</time>
      </trkpt>
      <trkpt lat="45.98441" lon="6.37233">
        <ele>1248</ele>
        <time>2011-04-16T12:35:46Z</time>
      </trkpt>
      <trkpt lat="45.98434" lon="6.37242">
        <ele>1248</ele>
        <time>2011-04-16T12:35:50Z</time>
      </trkpt>
      <trkpt lat="45.98434" lon="6.37255">
        <ele>1248</ele>
        <time>2011-04-16T12:36:57Z</time>
      </trkpt>
      <trkpt lat="45.98436" lon="6.3727">
        <ele>1248</ele>
        <time>2011-04-16T12:37:02Z</time>
      </trkpt>
      <trkpt lat="45.98439" lon="6.37289">
        <ele>1248</ele>
        <time>2011-04-16T12:37:05Z</time>
      </trkpt>
      <trkpt lat="45.98437" lon="6.37303">
        <ele>1248</ele>
        <time>2011-04-16T12:37:07Z</time>
      </trkpt>
      <trkpt lat="45.98432" lon="6.37316">
        <ele>1243</ele>
        <time>2011-04-16T12:37:09Z</time>
      </trkpt>
      <trkpt lat="45.98427" lon="6.37328">
        <ele>1243</ele>
        <time>2011-04-16T12:37:11Z</time>
      </trkpt>
      <trkpt lat="45.98423" lon="6.37343">
        <ele>1243</ele>
        <time>2011-04-16T12:37:13Z</time>
      </trkpt>
      <trkpt lat="45.98424" lon="6.37357">
        <ele>1237</ele>
        <time>2011-04-16T12:37:15Z</time>
      </trkpt>
      <trkpt lat="45.98427" lon="6.37372">
        <ele>1237</ele>
        <time>2011-04-16T12:37:17Z</time>
      </trkpt>
      <trkpt lat="45.98429" lon="6.37385">
        <ele>1232</ele>
        <time>2011-04-16T12:37:19Z</time>
      </trkpt>
      <trkpt lat="45.9843" lon="6.37399">
        <ele>1232</ele>
        <time>2011-04-16T12:37:21Z</time>
      </trkpt>
      <trkpt lat="45.98421" lon="6.37407">
        <ele>1232</ele>
        <time>2011-04-16T12:37:24Z</time>
      </trkpt>
      <trkpt lat="45.98412" lon="6.37416">
        <ele>1232</ele>
        <time>2011-04-16T12:37:26Z</time>
      </trkpt>
      <trkpt lat="45.98404" lon="6.3742">
        <ele>1232</ele>
        <time>2011-04-16T12:37:30Z</time>
      </trkpt>
      <trkpt lat="45.98412" lon="6.37414">
        <ele>1225</ele>
        <time>2011-04-16T12:37:37Z</time>
      </trkpt>
      <trkpt lat="45.98414" lon="6.37394">
        <ele>1225</ele>
        <time>2011-04-16T12:37:40Z</time>
      </trkpt>
      <trkpt lat="45.98411" lon="6.37378">
        <ele>1225</ele>
        <time>2011-04-16T12:37:42Z</time>
      </trkpt>
      <trkpt lat="45.98407" lon="6.37359">
        <ele>1225</ele>
        <time>2011-04-16T12:37:44Z</time>
      </trkpt>
      <trkpt lat="45.98402" lon="6.37344">
        <ele>1233</ele>
        <time>2011-04-16T12:37:46Z</time>
      </trkpt>
      <trkpt lat="45.98399" lon="6.37329">
        <ele>1233</ele>
        <time>2011-04-16T12:37:48Z</time>
      </trkpt>
      <trkpt lat="45.98395" lon="6.3731">
        <ele>1233</ele>
        <time>2011-04-16T12:37:50Z</time>
      </trkpt>
      <trkpt lat="45.98392" lon="6.37295">
        <ele>1233</ele>
        <time>2011-04-16T12:37:52Z</time>
      </trkpt>
      <trkpt lat="45.98389" lon="6.37282">
        <ele>1233</ele>
        <time>2011-04-16T12:37:54Z</time>
      </trkpt>
      <trkpt lat="45.98384" lon="6.37269">
        <ele>1233</ele>
        <time>2011-04-16T12:37:56Z</time>
      </trkpt>
      <trkpt lat="45.98378" lon="6.37252">
        <ele>1233</ele>
        <time>2011-04-16T12:37:58Z</time>
      </trkpt>
      <trkpt lat="45.98374" lon="6.37241">
        <ele>1223</ele>
        <time>2011-04-16T12:38:00Z</time>
      </trkpt>
      <trkpt lat="45.9837" lon="6.37253">
        <ele>1195</ele>
        <time>2011-04-16T12:38:19Z</time>
      </trkpt>
      <trkpt lat="45.98374" lon="6.37267">
        <ele>1188</ele>
        <time>2011-04-16T12:38:28Z</time>
      </trkpt>
      <trkpt lat="45.9837" lon="6.3728">
        <ele>1188</ele>
        <time>2011-04-16T12:38:32Z</time>
      </trkpt>
      <trkpt lat="45.98368" lon="6.37294">
        <ele>1188</ele>
        <time>2011-04-16T12:38:35Z</time>
      </trkpt>
      <trkpt lat="45.98367" lon="6.37316">
        <ele>1182</ele>
        <time>2011-04-16T12:38:38Z</time>
      </trkpt>
      <trkpt lat="45.98365" lon="6.37339">
        <ele>1182</ele>
        <time>2011-04-16T12:38:40Z</time>
      </trkpt>
      <trkpt lat="45.98359" lon="6.3736">
        <ele>1182</ele>
        <time>2011-04-16T12:38:42Z</time>
      </trkpt>
      <trkpt lat="45.98353" lon="6.37375">
        <ele>1182</ele>
        <time>2011-04-16T12:38:44Z</time>
      </trkpt>
      <trkpt lat="45.98345" lon="6.37394">
        <ele>1182</ele>
        <time>2011-04-16T12:38:46Z</time>
      </trkpt>
      <trkpt lat="45.9834" lon="6.37412">
        <ele>1182</ele>
        <time>2011-04-16T12:38:48Z</time>
      </trkpt>
      <trkpt lat="45.98333" lon="6.37428">
        <ele>1176</ele>
        <time>2011-04-16T12:38:51Z</time>
      </trkpt>
      <trkpt lat="45.98325" lon="6.37444">
        <ele>1176</ele>
        <time>2011-04-16T12:38:54Z</time>
      </trkpt>
      <trkpt lat="45.98319" lon="6.37459">
        <ele>1169</ele>
        <time>2011-04-16T12:38:57Z</time>
      </trkpt>
      <trkpt lat="45.9831" lon="6.37471">
        <ele>1158</ele>
        <time>2011-04-16T12:39:03Z</time>
      </trkpt>
      <trkpt lat="45.98303" lon="6.37483">
        <ele>1158</ele>
        <time>2011-04-16T12:39:07Z</time>
      </trkpt>
      <trkpt lat="45.98301" lon="6.37501">
        <ele>1158</ele>
        <time>2011-04-16T12:39:10Z</time>
      </trkpt>
      <trkpt lat="45.98299" lon="6.37515">
        <ele>1152</ele>
        <time>2011-04-16T12:39:12Z</time>
      </trkpt>
      <trkpt lat="45.98298" lon="6.37529">
        <ele>1152</ele>
        <time>2011-04-16T12:39:14Z</time>
      </trkpt>
      <trkpt lat="45.98295" lon="6.37549">
        <ele>1144</ele>
        <time>2011-04-16T12:39:17Z</time>
      </trkpt>
      <trkpt lat="45.98293" lon="6.37563">
        <ele>1144</ele>
        <time>2011-04-16T12:39:20Z</time>
      </trkpt>
      <trkpt lat="45.9829" lon="6.37578">
        <ele>1136</ele>
        <time>2011-04-16T12:39:23Z</time>
      </trkpt>
      <trkpt lat="45.98288" lon="6.37594">
        <ele>1136</ele>
        <time>2011-04-16T12:39:26Z</time>
      </trkpt>
      <trkpt lat="45.98286" lon="6.3761">
        <ele>1136</ele>
        <time>2011-04-16T12:39:28Z</time>
      </trkpt>
      <trkpt lat="45.98284" lon="6.37627">
        <ele>1136</ele>
        <time>2011-04-16T12:39:30Z</time>
      </trkpt>
      <trkpt lat="45.98282" lon="6.37642">
        <ele>1136</ele>
        <time>2011-04-16T12:39:32Z</time>
      </trkpt>
      <trkpt lat="45.9828" lon="6.37657">
        <ele>1131</ele>
        <time>2011-04-16T12:39:34Z</time>
      </trkpt>
      <trkpt lat="45.98282" lon="6.37671">
        <ele>1131</ele>
        <time>2011-04-16T12:39:36Z</time>
      </trkpt>
      <trkpt lat="45.98285" lon="6.37689">
        <ele>1131</ele>
        <time>2011-04-16T12:39:39Z</time>
      </trkpt>
      <trkpt lat="45.98288" lon="6.37707">
        <ele>1122</ele>
        <time>2011-04-16T12:39:42Z</time>
      </trkpt>
      <trkpt lat="45.98293" lon="6.37723">
        <ele>1117</ele>
        <time>2011-04-16T12:39:45Z</time>
      </trkpt>
      <trkpt lat="45.98297" lon="6.37739">
        <ele>1117</ele>
        <time>2011-04-16T12:39:47Z</time>
      </trkpt>
      <trkpt lat="45.98305" lon="6.3776">
        <ele>1117</ele>
        <time>2011-04-16T12:39:49Z</time>
      </trkpt>
      <trkpt lat="45.98309" lon="6.37772">
        <ele>1110</ele>
        <time>2011-04-16T12:39:50Z</time>
      </trkpt>
      <trkpt lat="45.98319" lon="6.37792">
        <ele>1110</ele>
        <time>2011-04-16T12:39:52Z</time>
      </trkpt>
      <trkpt lat="45.98328" lon="6.37811">
        <ele>1103</ele>
        <time>2011-04-16T12:39:54Z</time>
      </trkpt>
      <trkpt lat="45.98335" lon="6.37827">
        <ele>1103</ele>
        <time>2011-04-16T12:39:56Z</time>
      </trkpt>
      <trkpt lat="45.98342" lon="6.37846">
        <ele>1103</ele>
        <time>2011-04-16T12:39:58Z</time>
      </trkpt>
      <trkpt lat="45.9835" lon="6.37862">
        <ele>1096</ele>
        <time>2011-04-16T12:40:00Z</time>
      </trkpt>
      <trkpt lat="45.98358" lon="6.37877">
        <ele>1096</ele>
        <time>2011-04-16T12:40:02Z</time>
      </trkpt>
      <trkpt lat="45.98367" lon="6.37887">
        <ele>1096</ele>
        <time>2011-04-16T12:40:04Z</time>
      </trkpt>
      <trkpt lat="45.98378" lon="6.37895">
        <ele>1091</ele>
        <time>2011-04-16T12:40:06Z</time>
      </trkpt>
      <trkpt lat="45.98389" lon="6.37901">
        <ele>1091</ele>
        <time>2011-04-16T12:40:08Z</time>
      </trkpt>
      <trkpt lat="45.98399" lon="6.37906">
        <ele>1091</ele>
        <time>2011-04-16T12:40:10Z</time>
      </trkpt>
      <trkpt lat="45.98409" lon="6.37914">
        <ele>1085</ele>
        <time>2011-04-16T12:40:12Z</time>
      </trkpt>
      <trkpt lat="45.98416" lon="6.37924">
        <ele>1085</ele>
        <time>2011-04-16T12:40:14Z</time>
      </trkpt>
      <trkpt lat="45.98424" lon="6.37937">
        <ele>1085</ele>
        <time>2011-04-16T12:40:17Z</time>
      </trkpt>
      <trkpt lat="45.98432" lon="6.37946">
        <ele>1079</ele>
        <time>2011-04-16T12:40:19Z</time>
      </trkpt>
      <trkpt lat="45.98441" lon="6.37958">
        <ele>1079</ele>
        <time>2011-04-16T12:40:21Z</time>
      </trkpt>
      <trkpt lat="45.98449" lon="6.37973">
        <ele>1072</ele>
        <time>2011-04-16T12:40:23Z</time>
      </trkpt>
      <trkpt lat="45.98456" lon="6.37984">
        <ele>1072</ele>
        <time>2011-04-16T12:40:25Z</time>
      </trkpt>
      <trkpt lat="45.98461" lon="6.37999">
        <ele>1065</ele>
        <time>2011-04-16T12:40:27Z</time>
      </trkpt>
      <trkpt lat="45.98466" lon="6.38011">
        <ele>1065</ele>
        <time>2011-04-16T12:40:29Z</time>
      </trkpt>
      <trkpt lat="45.98474" lon="6.38023">
        <ele>1060</ele>
        <time>2011-04-16T12:40:31Z</time>
      </trkpt>
      <trkpt lat="45.98481" lon="6.38035">
        <ele>1060</ele>
        <time>2011-04-16T12:40:33Z</time>
      </trkpt>
      <trkpt lat="45.98487" lon="6.38049">
        <ele>1054</ele>
        <time>2011-04-16T12:40:35Z</time>
      </trkpt>
      <trkpt lat="45.98493" lon="6.38059">
        <ele>1054</ele>
        <time>2011-04-16T12:40:37Z</time>
      </trkpt>
      <trkpt lat="45.98503" lon="6.38067">
        <ele>1054</ele>
        <time>2011-04-16T12:40:39Z</time>
      </trkpt>
      <trkpt lat="45.98513" lon="6.38075">
        <ele>1048</ele>
        <time>2011-04-16T12:40:41Z</time>
      </trkpt>
      <trkpt lat="45.98523" lon="6.38082">
        <ele>1048</ele>
        <time>2011-04-16T12:40:43Z</time>
      </trkpt>
      <trkpt lat="45.98534" lon="6.38089">
        <ele>1048</ele>
        <time>2011-04-16T12:40:46Z</time>
      </trkpt>
      <trkpt lat="45.98544" lon="6.3809">
        <ele>1039</ele>
        <time>2011-04-16T12:40:49Z</time>
      </trkpt>
      <trkpt lat="45.98553" lon="6.38099">
        <ele>1039</ele>
        <time>2011-04-16T12:40:52Z</time>
      </trkpt>
      <trkpt lat="45.9856" lon="6.38113">
        <ele>1033</ele>
        <time>2011-04-16T12:40:54Z</time>
      </trkpt>
      <trkpt lat="45.9857" lon="6.38118">
        <ele>1033</ele>
        <time>2011-04-16T12:40:56Z</time>
      </trkpt>
      <trkpt lat="45.98583" lon="6.38123">
        <ele>1025</ele>
        <time>2011-04-16T12:40:58Z</time>
      </trkpt>
      <trkpt lat="45.98597" lon="6.38128">
        <ele>1025</ele>
        <time>2011-04-16T12:41:00Z</time>
      </trkpt>
      <trkpt lat="45.986" lon="6.38141">
        <ele>1014</ele>
        <time>2011-04-16T12:41:07Z</time>
      </trkpt>
      <trkpt lat="45.98597" lon="6.38153">
        <ele>1021</ele>
        <time>2011-04-16T12:41:39Z</time>
      </trkpt>
      <trkpt lat="45.9859" lon="6.38162">
        <ele>1021</ele>
        <time>2011-04-16T12:42:22Z</time>
      </trkpt>
      <trkpt lat="45.9858" lon="6.38166">
        <ele>1021</ele>
        <time>2011-04-16T12:42:25Z</time>
      </trkpt>
      <trkpt lat="45.9857" lon="6.3817">
        <ele>1013</ele>
        <time>2011-04-16T12:42:28Z</time>
      </trkpt>
      <trkpt lat="45.9856" lon="6.38171">
        <ele>1013</ele>
        <time>2011-04-16T12:42:31Z</time>
      </trkpt>
      <trkpt lat="45.98549" lon="6.38172">
        <ele>1003</ele>
        <time>2011-04-16T12:42:35Z</time>
      </trkpt>
      <trkpt lat="45.98538" lon="6.38169">
        <ele>1003</ele>
        <time>2011-04-16T12:42:39Z</time>
      </trkpt>
      <trkpt lat="45.98538" lon="6.38183">
        <ele>992</ele>
        <time>2011-04-16T12:42:47Z</time>
      </trkpt>
      <trkpt lat="45.9853" lon="6.38189">
        <ele>992</ele>
        <time>2011-04-16T12:42:53Z</time>
      </trkpt>
      <trkpt lat="45.98518" lon="6.38187">
        <ele>987</ele>
        <time>2011-04-16T12:42:57Z</time>
      </trkpt>
      <trkpt lat="45.98506" lon="6.38183">
        <ele>987</ele>
        <time>2011-04-16T12:43:01Z</time>
      </trkpt>
      <trkpt lat="45.98496" lon="6.38187">
        <ele>980</ele>
        <time>2011-04-16T12:43:04Z</time>
      </trkpt>
      <trkpt lat="45.98486" lon="6.38194">
        <ele>980</ele>
        <time>2011-04-16T12:43:07Z</time>
      </trkpt>
      <trkpt lat="45.98474" lon="6.38199">
        <ele>973</ele>
        <time>2011-04-16T12:43:10Z</time>
      </trkpt>
      <trkpt lat="45.98464" lon="6.382">
        <ele>973</ele>
        <time>2011-04-16T12:43:12Z</time>
      </trkpt>
      <trkpt lat="45.98451" lon="6.38202">
        <ele>964</ele>
        <time>2011-04-16T12:43:15Z</time>
      </trkpt>
      <trkpt lat="45.98439" lon="6.38201">
        <ele>964</ele>
        <time>2011-04-16T12:43:18Z</time>
      </trkpt>
      <trkpt lat="45.98429" lon="6.38204">
        <ele>964</ele>
        <time>2011-04-16T12:43:20Z</time>
      </trkpt>
      <trkpt lat="45.9842" lon="6.38205">
        <ele>958</ele>
        <time>2011-04-16T12:43:32Z</time>
      </trkpt>
      <trkpt lat="45.98417" lon="6.38218">
        <ele>958</ele>
        <time>2011-04-16T12:43:48Z</time>
      </trkpt>
      <trkpt lat="45.98427" lon="6.38219">
        <ele>958</ele>
        <time>2011-04-16T12:44:02Z</time>
      </trkpt>
      <trkpt lat="45.98439" lon="6.38227">
        <ele>958</ele>
        <time>2011-04-16T12:44:06Z</time>
      </trkpt>
      <trkpt lat="45.98449" lon="6.38235">
        <ele>958</ele>
        <time>2011-04-16T12:44:09Z</time>
      </trkpt>
      <trkpt lat="45.98439" lon="6.38242">
        <ele>951</ele>
        <time>2011-04-16T12:44:12Z</time>
      </trkpt>
      <trkpt lat="45.98428" lon="6.38239">
        <ele>951</ele>
        <time>2011-04-16T12:44:14Z</time>
      </trkpt>
      <trkpt lat="45.98416" lon="6.38231">
        <ele>951</ele>
        <time>2011-04-16T12:44:16Z</time>
      </trkpt>
      <trkpt lat="45.98404" lon="6.38222">
        <ele>944</ele>
        <time>2011-04-16T12:44:18Z</time>
      </trkpt>
      <trkpt lat="45.98391" lon="6.38215">
        <ele>944</ele>
        <time>2011-04-16T12:44:20Z</time>
      </trkpt>
      <trkpt lat="45.98377" lon="6.38213">
        <ele>939</ele>
        <time>2011-04-16T12:44:22Z</time>
      </trkpt>
      <trkpt lat="45.98365" lon="6.38212">
        <ele>939</ele>
        <time>2011-04-16T12:44:24Z</time>
      </trkpt>
      <trkpt lat="45.98356" lon="6.38213">
        <ele>933</ele>
        <time>2011-04-16T12:45:07Z</time>
      </trkpt>
      <trkpt lat="45.98364" lon="6.38222">
        <ele>933</ele>
        <time>2011-04-16T12:45:21Z</time>
      </trkpt>
      <trkpt lat="45.98373" lon="6.38231">
        <ele>925</ele>
        <time>2011-04-16T12:45:28Z</time>
      </trkpt>
      <trkpt lat="45.9838" lon="6.38242">
        <ele>925</ele>
        <time>2011-04-16T12:45:32Z</time>
      </trkpt>
      <trkpt lat="45.98385" lon="6.38255">
        <ele>925</ele>
        <time>2011-04-16T12:45:35Z</time>
      </trkpt>
      <trkpt lat="45.98393" lon="6.38267">
        <ele>916</ele>
        <time>2011-04-16T12:45:38Z</time>
      </trkpt>
      <trkpt lat="45.98401" lon="6.38278">
        <ele>916</ele>
        <time>2011-04-16T12:45:42Z</time>
      </trkpt>
      <trkpt lat="45.9841" lon="6.38285">
        <ele>910</ele>
        <time>2011-04-16T12:45:45Z</time>
      </trkpt>
      <trkpt lat="45.98422" lon="6.38289">
        <ele>910</ele>
        <time>2011-04-16T12:45:49Z</time>
      </trkpt>
      <trkpt lat="45.98433" lon="6.38297">
        <ele>903</ele>
        <time>2011-04-16T12:45:52Z</time>
      </trkpt>
      <trkpt lat="45.98444" lon="6.38304">
        <ele>903</ele>
        <time>2011-04-16T12:45:55Z</time>
      </trkpt>
      <trkpt lat="45.98455" lon="6.38308">
        <ele>898</ele>
        <time>2011-04-16T12:45:59Z</time>
      </trkpt>
      <trkpt lat="45.98463" lon="6.38317">
        <ele>898</ele>
        <time>2011-04-16T12:46:07Z</time>
      </trkpt>
      <trkpt lat="45.98454" lon="6.38323">
        <ele>911</ele>
        <time>2011-04-16T12:46:48Z</time>
      </trkpt>
      <trkpt lat="45.98444" lon="6.38327">
        <ele>901</ele>
        <time>2011-04-16T12:47:32Z</time>
      </trkpt>
      <trkpt lat="45.98436" lon="6.38333">
        <ele>901</ele>
        <time>2011-04-16T12:47:34Z</time>
      </trkpt>
      <trkpt lat="45.98423" lon="6.38337">
        <ele>901</ele>
        <time>2011-04-16T12:47:37Z</time>
      </trkpt>
      <trkpt lat="45.98428" lon="6.38348">
        <ele>888</ele>
        <time>2011-04-16T12:47:45Z</time>
      </trkpt>
      <trkpt lat="45.98437" lon="6.38355">
        <ele>882</ele>
        <time>2011-04-16T12:47:50Z</time>
      </trkpt>
      <trkpt lat="45.98446" lon="6.38361">
        <ele>882</ele>
        <time>2011-04-16T12:47:56Z</time>
      </trkpt>
      <trkpt lat="45.98442" lon="6.38374">
        <ele>889</ele>
        <time>2011-04-16T12:48:29Z</time>
      </trkpt>
      <trkpt lat="45.98437" lon="6.38362">
        <ele>889</ele>
        <time>2011-04-16T12:48:47Z</time>
      </trkpt>
      <trkpt lat="45.98447" lon="6.38366">
        <ele>881</ele>
        <time>2011-04-16T12:50:23Z</time>
      </trkpt>
      <trkpt lat="45.98456" lon="6.3837">
        <ele>881</ele>
        <time>2011-04-16T12:50:26Z</time>
      </trkpt>
      <trkpt lat="45.98466" lon="6.38379">
        <ele>881</ele>
        <time>2011-04-16T12:50:29Z</time>
      </trkpt>
      <trkpt lat="45.98479" lon="6.38381">
        <ele>881</ele>
        <time>2011-04-16T12:50:32Z</time>
      </trkpt>
      <trkpt lat="45.98491" lon="6.3838">
        <ele>881</ele>
        <time>2011-04-16T12:50:34Z</time>
      </trkpt>
      <trkpt lat="45.98507" lon="6.38382">
        <ele>881</ele>
        <time>2011-04-16T12:50:36Z</time>
      </trkpt>
      <trkpt lat="45.98525" lon="6.38384">
        <ele>876</ele>
        <time>2011-04-16T12:50:38Z</time>
      </trkpt>
      <trkpt lat="45.98535" lon="6.38385">
        <ele>876</ele>
        <time>2011-04-16T12:50:39Z</time>
      </trkpt>
      <trkpt lat="45.98543" lon="6.38391">
        <ele>876</ele>
        <time>2011-04-16T12:50:40Z</time>
      </trkpt>
      <trkpt lat="45.98552" lon="6.38395">
        <ele>876</ele>
        <time>2011-04-16T12:50:41Z</time>
      </trkpt>
      <trkpt lat="45.9856" lon="6.38402">
        <ele>876</ele>
        <time>2011-04-16T12:50:42Z</time>
      </trkpt>
      <trkpt lat="45.9857" lon="6.38408">
        <ele>876</ele>
        <time>2011-04-16T12:50:43Z</time>
      </trkpt>
      <trkpt lat="45.98578" lon="6.38416">
        <ele>876</ele>
        <time>2011-04-16T12:50:44Z</time>
      </trkpt>
      <trkpt lat="45.98587" lon="6.38421">
        <ele>876</ele>
        <time>2011-04-16T12:50:45Z</time>
      </trkpt>
      <trkpt lat="45.98597" lon="6.38425">
        <ele>870</ele>
        <time>2011-04-16T12:50:46Z</time>
      </trkpt>
      <trkpt lat="45.98607" lon="6.38427">
        <ele>870</ele>
        <time>2011-04-16T12:50:47Z</time>
      </trkpt>
      <trkpt lat="45.98618" lon="6.38431">
        <ele>870</ele>
        <time>2011-04-16T12:50:48Z</time>
      </trkpt>
      <trkpt lat="45.98628" lon="6.38435">
        <ele>870</ele>
        <time>2011-04-16T12:50:49Z</time>
      </trkpt>
      <trkpt lat="45.98637" lon="6.3844">
        <ele>863</ele>
        <time>2011-04-16T12:50:50Z</time>
      </trkpt>
      <trkpt lat="45.98645" lon="6.38447">
        <ele>863</ele>
        <time>2011-04-16T12:50:51Z</time>
      </trkpt>
      <trkpt lat="45.98652" lon="6.38457">
        <ele>863</ele>
        <time>2011-04-16T12:50:52Z</time>
      </trkpt>
      <trkpt lat="45.98659" lon="6.38466">
        <ele>856</ele>
        <time>2011-04-16T12:50:53Z</time>
      </trkpt>
      <trkpt lat="45.98667" lon="6.38476">
        <ele>856</ele>
        <time>2011-04-16T12:50:54Z</time>
      </trkpt>
      <trkpt lat="45.98672" lon="6.38488">
        <ele>856</ele>
        <time>2011-04-16T12:50:55Z</time>
      </trkpt>
      <trkpt lat="45.98678" lon="6.385">
        <ele>856</ele>
        <time>2011-04-16T12:50:56Z</time>
      </trkpt>
      <trkpt lat="45.98684" lon="6.38512">
        <ele>850</ele>
        <time>2011-04-16T12:50:57Z</time>
      </trkpt>
      <trkpt lat="45.9869" lon="6.38524">
        <ele>850</ele>
        <time>2011-04-16T12:50:58Z</time>
      </trkpt>
      <trkpt lat="45.98696" lon="6.38537">
        <ele>850</ele>
        <time>2011-04-16T12:50:59Z</time>
      </trkpt>
      <trkpt lat="45.98702" lon="6.3855">
        <ele>850</ele>
        <time>2011-04-16T12:51:00Z</time>
      </trkpt>
      <trkpt lat="45.98708" lon="6.38563">
        <ele>850</ele>
        <time>2011-04-16T12:51:01Z</time>
      </trkpt>
      <trkpt lat="45.98713" lon="6.38577">
        <ele>844</ele>
        <time>2011-04-16T12:51:02Z</time>
      </trkpt>
      <trkpt lat="45.98719" lon="6.38591">
        <ele>844</ele>
        <time>2011-04-16T12:51:03Z</time>
      </trkpt>
      <trkpt lat="45.98726" lon="6.38603">
        <ele>844</ele>
        <time>2011-04-16T12:51:04Z</time>
      </trkpt>
      <trkpt lat="45.98733" lon="6.38614">
        <ele>839</ele>
        <time>2011-04-16T12:51:05Z</time>
      </trkpt>
      <trkpt lat="45.98741" lon="6.38626">
        <ele>839</ele>
        <time>2011-04-16T12:51:06Z</time>
      </trkpt>
      <trkpt lat="45.98749" lon="6.38637">
        <ele>839</ele>
        <time>2011-04-16T12:51:07Z</time>
      </trkpt>
      <trkpt lat="45.98756" lon="6.38647">
        <ele>832</ele>
        <time>2011-04-16T12:51:08Z</time>
      </trkpt>
      <trkpt lat="45.98763" lon="6.3866">
        <ele>832</ele>
        <time>2011-04-16T12:51:09Z</time>
      </trkpt>
      <trkpt lat="45.98771" lon="6.38671">
        <ele>832</ele>
        <time>2011-04-16T12:51:10Z</time>
      </trkpt>
      <trkpt lat="45.98779" lon="6.38682">
        <ele>832</ele>
        <time>2011-04-16T12:51:11Z</time>
      </trkpt>
      <trkpt lat="45.98787" lon="6.38694">
        <ele>832</ele>
        <time>2011-04-16T12:51:12Z</time>
      </trkpt>
      <trkpt lat="45.98794" lon="6.38706">
        <ele>827</ele>
        <time>2011-04-16T12:51:13Z</time>
      </trkpt>
      <trkpt lat="45.98801" lon="6.38718">
        <ele>827</ele>
        <time>2011-04-16T12:51:14Z</time>
      </trkpt>
      <trkpt lat="45.98809" lon="6.3873">
        <ele>827</ele>
        <time>2011-04-16T12:51:15Z</time>
      </trkpt>
      <trkpt lat="45.98816" lon="6.38742">
        <ele>827</ele>
        <time>2011-04-16T12:51:16Z</time>
      </trkpt>
      <trkpt lat="45.98824" lon="6.38753">
        <ele>827</ele>
        <time>2011-04-16T12:51:17Z</time>
      </trkpt>
      <trkpt lat="45.98831" lon="6.38763">
        <ele>821</ele>
        <time>2011-04-16T12:51:18Z</time>
      </trkpt>
      <trkpt lat="45.98839" lon="6.38773">
        <ele>821</ele>
        <time>2011-04-16T12:51:19Z</time>
      </trkpt>
      <trkpt lat="45.98846" lon="6.38783">
        <ele>821</ele>
        <time>2011-04-16T12:51:20Z</time>
      </trkpt>
      <trkpt lat="45.98853" lon="6.38795">
        <ele>821</ele>
        <time>2011-04-16T12:51:21Z</time>
      </trkpt>
      <trkpt lat="45.98861" lon="6.38805">
        <ele>816</ele>
        <time>2011-04-16T12:51:22Z</time>
      </trkpt>
      <trkpt lat="45.98869" lon="6.38815">
        <ele>816</ele>
        <time>2011-04-16T12:51:23Z</time>
      </trkpt>
      <trkpt lat="45.98877" lon="6.38825">
        <ele>816</ele>
        <time>2011-04-16T12:51:24Z</time>
      </trkpt>
      <trkpt lat="45.98886" lon="6.38835">
        <ele>816</ele>
        <time>2011-04-16T12:51:25Z</time>
      </trkpt>
      <trkpt lat="45.98895" lon="6.38847">
        <ele>816</ele>
        <time>2011-04-16T12:51:26Z</time>
      </trkpt>
      <trkpt lat="45.98904" lon="6.38856">
        <ele>811</ele>
        <time>2011-04-16T12:51:27Z</time>
      </trkpt>
      <trkpt lat="45.98913" lon="6.38865">
        <ele>811</ele>
        <time>2011-04-16T12:51:28Z</time>
      </trkpt>
      <trkpt lat="45.98923" lon="6.38874">
        <ele>811</ele>
        <time>2011-04-16T12:51:29Z</time>
      </trkpt>
      <trkpt lat="45.98932" lon="6.38883">
        <ele>811</ele>
        <time>2011-04-16T12:51:30Z</time>
      </trkpt>
      <trkpt lat="45.9894" lon="6.38893">
        <ele>805</ele>
        <time>2011-04-16T12:51:31Z</time>
      </trkpt>
      <trkpt lat="45.98948" lon="6.38903">
        <ele>805</ele>
        <time>2011-04-16T12:51:32Z</time>
      </trkpt>
      <trkpt lat="45.98956" lon="6.38912">
        <ele>805</ele>
        <time>2011-04-16T12:51:33Z</time>
      </trkpt>
      <trkpt lat="45.98963" lon="6.38921">
        <ele>805</ele>
        <time>2011-04-16T12:51:34Z</time>
      </trkpt>
      <trkpt lat="45.9897" lon="6.3893">
        <ele>805</ele>
        <time>2011-04-16T12:51:35Z</time>
      </trkpt>
      <trkpt lat="45.98981" lon="6.38947">
        <ele>805</ele>
        <time>2011-04-16T12:51:37Z</time>
      </trkpt>
      <trkpt lat="45.98982" lon="6.38965">
        <ele>805</ele>
        <time>2011-04-16T12:51:39Z</time>
      </trkpt>
      <trkpt lat="45.98972" lon="6.3898">
        <ele>805</ele>
        <time>2011-04-16T12:51:41Z</time>
      </trkpt>
      <trkpt lat="45.98957" lon="6.38982">
        <ele>805</ele>
        <time>2011-04-16T12:51:43Z</time>
      </trkpt>
      <trkpt lat="45.98942" lon="6.38974">
        <ele>805</ele>
        <time>2011-04-16T12:51:45Z</time>
      </trkpt>
      <trkpt lat="45.98928" lon="6.38959">
        <ele>805</ele>
        <time>2011-04-16T12:51:47Z</time>
      </trkpt>
      <trkpt lat="45.98922" lon="6.38949">
        <ele>805</ele>
        <time>2011-04-16T12:51:48Z</time>
      </trkpt>
      <trkpt lat="45.98917" lon="6.38938">
        <ele>800</ele>
        <time>2011-04-16T12:51:49Z</time>
      </trkpt>
      <trkpt lat="45.9891" lon="6.38927">
        <ele>800</ele>
        <time>2011-04-16T12:51:50Z</time>
      </trkpt>
      <trkpt lat="45.98902" lon="6.38918">
        <ele>800</ele>
        <time>2011-04-16T12:51:51Z</time>
      </trkpt>
      <trkpt lat="45.98893" lon="6.3891">
        <ele>800</ele>
        <time>2011-04-16T12:51:52Z</time>
      </trkpt>
      <trkpt lat="45.98884" lon="6.38901">
        <ele>800</ele>
        <time>2011-04-16T12:51:53Z</time>
      </trkpt>
      <trkpt lat="45.98875" lon="6.38892">
        <ele>800</ele>
        <time>2011-04-16T12:51:54Z</time>
      </trkpt>
      <trkpt lat="45.98866" lon="6.38883">
        <ele>800</ele>
        <time>2011-04-16T12:51:55Z</time>
      </trkpt>
      <trkpt lat="45.98855" lon="6.38876">
        <ele>800</ele>
        <time>2011-04-16T12:51:56Z</time>
      </trkpt>
      <trkpt lat="45.98845" lon="6.38868">
        <ele>800</ele>
        <time>2011-04-16T12:51:57Z</time>
      </trkpt>
      <trkpt lat="45.98835" lon="6.38859">
        <ele>800</ele>
        <time>2011-04-16T12:51:58Z</time>
      </trkpt>
      <trkpt lat="45.98825" lon="6.38852">
        <ele>793</ele>
        <time>2011-04-16T12:51:59Z</time>
      </trkpt>
      <trkpt lat="45.98817" lon="6.38846">
        <ele>793</ele>
        <time>2011-04-16T12:52:00Z</time>
      </trkpt>
      <trkpt lat="45.98804" lon="6.38836">
        <ele>793</ele>
        <time>2011-04-16T12:52:02Z</time>
      </trkpt>
      <trkpt lat="45.98794" lon="6.38835">
        <ele>788</ele>
        <time>2011-04-16T12:52:04Z</time>
      </trkpt>
      <trkpt lat="45.98786" lon="6.38843">
        <ele>788</ele>
        <time>2011-04-16T12:52:06Z</time>
      </trkpt>
      <trkpt lat="45.98786" lon="6.38857">
        <ele>782</ele>
        <time>2011-04-16T12:52:08Z</time>
      </trkpt>
      <trkpt lat="45.98793" lon="6.38868">
        <ele>782</ele>
        <time>2011-04-16T12:52:10Z</time>
      </trkpt>
      <trkpt lat="45.98805" lon="6.38876">
        <ele>777</ele>
        <time>2011-04-16T12:52:12Z</time>
      </trkpt>
      <trkpt lat="45.98818" lon="6.38884">
        <ele>777</ele>
        <time>2011-04-16T12:52:14Z</time>
      </trkpt>
      <trkpt lat="45.98828" lon="6.38898">
        <ele>777</ele>
        <time>2011-04-16T12:52:16Z</time>
      </trkpt>
      <trkpt lat="45.98835" lon="6.38915">
        <ele>777</ele>
        <time>2011-04-16T12:52:18Z</time>
      </trkpt>
      <trkpt lat="45.98842" lon="6.3893">
        <ele>771</ele>
        <time>2011-04-16T12:52:20Z</time>
      </trkpt>
      <trkpt lat="45.9885" lon="6.38946">
        <ele>771</ele>
        <time>2011-04-16T12:52:22Z</time>
      </trkpt>
      <trkpt lat="45.98857" lon="6.38961">
        <ele>771</ele>
        <time>2011-04-16T12:52:24Z</time>
      </trkpt>
      <trkpt lat="45.98864" lon="6.38975">
        <ele>771</ele>
        <time>2011-04-16T12:52:26Z</time>
      </trkpt>
      <trkpt lat="45.98873" lon="6.38987">
        <ele>771</ele>
        <time>2011-04-16T12:52:28Z</time>
      </trkpt>
      <trkpt lat="45.98883" lon="6.38998">
        <ele>771</ele>
        <time>2011-04-16T12:52:30Z</time>
      </trkpt>
      <trkpt lat="45.98894" lon="6.39009">
        <ele>771</ele>
        <time>2011-04-16T12:52:32Z</time>
      </trkpt>
      <trkpt lat="45.98905" lon="6.39022">
        <ele>766</ele>
        <time>2011-04-16T12:52:34Z</time>
      </trkpt>
      <trkpt lat="45.98916" lon="6.39037">
        <ele>766</ele>
        <time>2011-04-16T12:52:36Z</time>
      </trkpt>
      <trkpt lat="45.98928" lon="6.39053">
        <ele>766</ele>
        <time>2011-04-16T12:52:38Z</time>
      </trkpt>
      <trkpt lat="45.9894" lon="6.39072">
        <ele>766</ele>
        <time>2011-04-16T12:52:40Z</time>
      </trkpt>
      <trkpt lat="45.98953" lon="6.39088">
        <ele>760</ele>
        <time>2011-04-16T12:52:42Z</time>
      </trkpt>
      <trkpt lat="45.98969" lon="6.39098">
        <ele>760</ele>
        <time>2011-04-16T12:52:44Z</time>
      </trkpt>
      <trkpt lat="45.98985" lon="6.39106">
        <ele>760</ele>
        <time>2011-04-16T12:52:46Z</time>
      </trkpt>
      <trkpt lat="45.98998" lon="6.39111">
        <ele>760</ele>
        <time>2011-04-16T12:52:48Z</time>
      </trkpt>
      <trkpt lat="45.99005" lon="6.3912">
        <ele>760</ele>
        <time>2011-04-16T12:52:50Z</time>
      </trkpt>
      <trkpt lat="45.98997" lon="6.39136">
        <ele>753</ele>
        <time>2011-04-16T12:52:53Z</time>
      </trkpt>
      <trkpt lat="45.98984" lon="6.39141">
        <ele>753</ele>
        <time>2011-04-16T12:52:55Z</time>
      </trkpt>
      <trkpt lat="45.98969" lon="6.39141">
        <ele>753</ele>
        <time>2011-04-16T12:52:57Z</time>
      </trkpt>
      <trkpt lat="45.98954" lon="6.39137">
        <ele>746</ele>
        <time>2011-04-16T12:52:59Z</time>
      </trkpt>
      <trkpt lat="45.98938" lon="6.39138">
        <ele>746</ele>
        <time>2011-04-16T12:53:01Z</time>
      </trkpt>
      <trkpt lat="45.9892" lon="6.39144">
        <ele>746</ele>
        <time>2011-04-16T12:53:03Z</time>
      </trkpt>
      <trkpt lat="45.98903" lon="6.3915">
        <ele>746</ele>
        <time>2011-04-16T12:53:05Z</time>
      </trkpt>
      <trkpt lat="45.98893" lon="6.39151">
        <ele>746</ele>
        <time>2011-04-16T12:53:06Z</time>
      </trkpt>
      <trkpt lat="45.98884" lon="6.3915">
        <ele>741</ele>
        <time>2011-04-16T12:53:07Z</time>
      </trkpt>
      <trkpt lat="45.98868" lon="6.39141">
        <ele>741</ele>
        <time>2011-04-16T12:53:09Z</time>
      </trkpt>
      <trkpt lat="45.98861" lon="6.3913">
        <ele>741</ele>
        <time>2011-04-16T12:53:10Z</time>
      </trkpt>
      <trkpt lat="45.98858" lon="6.39115">
        <ele>735</ele>
        <time>2011-04-16T12:53:11Z</time>
      </trkpt>
      <trkpt lat="45.98848" lon="6.39092">
        <ele>735</ele>
        <time>2011-04-16T12:53:13Z</time>
      </trkpt>
      <trkpt lat="45.98841" lon="6.39082">
        <ele>735</ele>
        <time>2011-04-16T12:53:14Z</time>
      </trkpt>
      <trkpt lat="45.98833" lon="6.39073">
        <ele>735</ele>
        <time>2011-04-16T12:53:15Z</time>
      </trkpt>
      <trkpt lat="45.98824" lon="6.39066">
        <ele>735</ele>
        <time>2011-04-16T12:53:16Z</time>
      </trkpt>
      <trkpt lat="45.98815" lon="6.39059">
        <ele>730</ele>
        <time>2011-04-16T12:53:17Z</time>
      </trkpt>
      <trkpt lat="45.98805" lon="6.39054">
        <ele>730</ele>
        <time>2011-04-16T12:53:18Z</time>
      </trkpt>
      <trkpt lat="45.98795" lon="6.39051">
        <ele>730</ele>
        <time>2011-04-16T12:53:19Z</time>
      </trkpt>
      <trkpt lat="45.98785" lon="6.39047">
        <ele>730</ele>
        <time>2011-04-16T12:53:20Z</time>
      </trkpt>
      <trkpt lat="45.98775" lon="6.39044">
        <ele>730</ele>
        <time>2011-04-16T12:53:21Z</time>
      </trkpt>
      <trkpt lat="45.98765" lon="6.39042">
        <ele>730</ele>
        <time>2011-04-16T12:53:22Z</time>
      </trkpt>
      <trkpt lat="45.98756" lon="6.39037">
        <ele>730</ele>
        <time>2011-04-16T12:53:23Z</time>
      </trkpt>
      <trkpt lat="45.9874" lon="6.39027">
        <ele>725</ele>
        <time>2011-04-16T12:53:25Z</time>
      </trkpt>
      <trkpt lat="45.98724" lon="6.39014">
        <ele>725</ele>
        <time>2011-04-16T12:53:27Z</time>
      </trkpt>
      <trkpt lat="45.98716" lon="6.39005">
        <ele>725</ele>
        <time>2011-04-16T12:53:28Z</time>
      </trkpt>
      <trkpt lat="45.98706" lon="6.38996">
        <ele>725</ele>
        <time>2011-04-16T12:53:29Z</time>
      </trkpt>
      <trkpt lat="45.98695" lon="6.38986">
        <ele>725</ele>
        <time>2011-04-16T12:53:30Z</time>
      </trkpt>
      <trkpt lat="45.98684" lon="6.38975">
        <ele>725</ele>
        <time>2011-04-16T12:53:31Z</time>
      </trkpt>
      <trkpt lat="45.98672" lon="6.38965">
        <ele>725</ele>
        <time>2011-04-16T12:53:32Z</time>
      </trkpt>
      <trkpt lat="45.9866" lon="6.38953">
        <ele>725</ele>
        <time>2011-04-16T12:53:33Z</time>
      </trkpt>
      <trkpt lat="45.9865" lon="6.38939">
        <ele>725</ele>
        <time>2011-04-16T12:53:34Z</time>
      </trkpt>
      <trkpt lat="45.98639" lon="6.38924">
        <ele>725</ele>
        <time>2011-04-16T12:53:35Z</time>
      </trkpt>
      <trkpt lat="45.9863" lon="6.38907">
        <ele>725</ele>
        <time>2011-04-16T12:53:36Z</time>
      </trkpt>
      <trkpt lat="45.9862" lon="6.3889">
        <ele>725</ele>
        <time>2011-04-16T12:53:37Z</time>
      </trkpt>
      <trkpt lat="45.9861" lon="6.38873">
        <ele>725</ele>
        <time>2011-04-16T12:53:38Z</time>
      </trkpt>
      <trkpt lat="45.98602" lon="6.38856">
        <ele>725</ele>
        <time>2011-04-16T12:53:39Z</time>
      </trkpt>
      <trkpt lat="45.98593" lon="6.38839">
        <ele>725</ele>
        <time>2011-04-16T12:53:40Z</time>
      </trkpt>
      <trkpt lat="45.98585" lon="6.38822">
        <ele>725</ele>
        <time>2011-04-16T12:53:41Z</time>
      </trkpt>
      <trkpt lat="45.98577" lon="6.38805">
        <ele>725</ele>
        <time>2011-04-16T12:53:42Z</time>
      </trkpt>
      <trkpt lat="45.98568" lon="6.38788">
        <ele>725</ele>
        <time>2011-04-16T12:53:43Z</time>
      </trkpt>
      <trkpt lat="45.98558" lon="6.38773">
        <ele>725</ele>
        <time>2011-04-16T12:53:44Z</time>
      </trkpt>
      <trkpt lat="45.98548" lon="6.38758">
        <ele>725</ele>
        <time>2011-04-16T12:53:45Z</time>
      </trkpt>
      <trkpt lat="45.98536" lon="6.38744">
        <ele>725</ele>
        <time>2011-04-16T12:53:46Z</time>
      </trkpt>
      <trkpt lat="45.98524" lon="6.38732">
        <ele>725</ele>
        <time>2011-04-16T12:53:47Z</time>
      </trkpt>
      <trkpt lat="45.9851" lon="6.38722">
        <ele>725</ele>
        <time>2011-04-16T12:53:48Z</time>
      </trkpt>
      <trkpt lat="45.98496" lon="6.38713">
        <ele>725</ele>
        <time>2011-04-16T12:53:49Z</time>
      </trkpt>
      <trkpt lat="45.98483" lon="6.38705">
        <ele>725</ele>
        <time>2011-04-16T12:53:50Z</time>
      </trkpt>
      <trkpt lat="45.9847" lon="6.38697">
        <ele>725</ele>
        <time>2011-04-16T12:53:51Z</time>
      </trkpt>
      <trkpt lat="45.98458" lon="6.3869">
        <ele>725</ele>
        <time>2011-04-16T12:53:52Z</time>
      </trkpt>
      <trkpt lat="45.98446" lon="6.38684">
        <ele>725</ele>
        <time>2011-04-16T12:53:53Z</time>
      </trkpt>
      <trkpt lat="45.98436" lon="6.3868">
        <ele>725</ele>
        <time>2011-04-16T12:53:54Z</time>
      </trkpt>
      <trkpt lat="45.98427" lon="6.38676">
        <ele>725</ele>
        <time>2011-04-16T12:53:55Z</time>
      </trkpt>
      <trkpt lat="45.98412" lon="6.38676">
        <ele>731</ele>
        <time>2011-04-16T12:53:57Z</time>
      </trkpt>
      <trkpt lat="45.98401" lon="6.38684">
        <ele>749</ele>
        <time>2011-04-16T12:54:35Z</time>
      </trkpt>
      <trkpt lat="45.98396" lon="6.38702">
        <ele>749</ele>
        <time>2011-04-16T12:54:37Z</time>
      </trkpt>
      <trkpt lat="45.98397" lon="6.38727">
        <ele>749</ele>
        <time>2011-04-16T12:54:39Z</time>
      </trkpt>
      <trkpt lat="45.98398" lon="6.38746">
        <ele>749</ele>
        <time>2011-04-16T12:54:41Z</time>
      </trkpt>
      <trkpt lat="45.98402" lon="6.38763">
        <ele>749</ele>
        <time>2011-04-16T12:54:44Z</time>
      </trkpt>
      <trkpt lat="45.98414" lon="6.38775">
        <ele>749</ele>
        <time>2011-04-16T12:54:46Z</time>
      </trkpt>
      <trkpt lat="45.98424" lon="6.38782">
        <ele>749</ele>
        <time>2011-04-16T12:54:47Z</time>
      </trkpt>
      <trkpt lat="45.98434" lon="6.3879">
        <ele>749</ele>
        <time>2011-04-16T12:54:48Z</time>
      </trkpt>
      <trkpt lat="45.98446" lon="6.38801">
        <ele>749</ele>
        <time>2011-04-16T12:54:49Z</time>
      </trkpt>
      <trkpt lat="45.98458" lon="6.38816">
        <ele>743</ele>
        <time>2011-04-16T12:54:50Z</time>
      </trkpt>
      <trkpt lat="45.98469" lon="6.38834">
        <ele>743</ele>
        <time>2011-04-16T12:54:51Z</time>
      </trkpt>
      <trkpt lat="45.9848" lon="6.38853">
        <ele>743</ele>
        <time>2011-04-16T12:54:52Z</time>
      </trkpt>
      <trkpt lat="45.98493" lon="6.38872">
        <ele>736</ele>
        <time>2011-04-16T12:54:53Z</time>
      </trkpt>
      <trkpt lat="45.98505" lon="6.38892">
        <ele>736</ele>
        <time>2011-04-16T12:54:54Z</time>
      </trkpt>
      <trkpt lat="45.9852" lon="6.38912">
        <ele>736</ele>
        <time>2011-04-16T12:54:55Z</time>
      </trkpt>
      <trkpt lat="45.98534" lon="6.38934">
        <ele>736</ele>
        <time>2011-04-16T12:54:56Z</time>
      </trkpt>
      <trkpt lat="45.98551" lon="6.38956">
        <ele>736</ele>
        <time>2011-04-16T12:54:57Z</time>
      </trkpt>
      <trkpt lat="45.98568" lon="6.3898">
        <ele>736</ele>
        <time>2011-04-16T12:54:58Z</time>
      </trkpt>
      <trkpt lat="45.98586" lon="6.39003">
        <ele>736</ele>
        <time>2011-04-16T12:54:59Z</time>
      </trkpt>
      <trkpt lat="45.98603" lon="6.39027">
        <ele>736</ele>
        <time>2011-04-16T12:55:00Z</time>
      </trkpt>
      <trkpt lat="45.98622" lon="6.39048">
        <ele>736</ele>
        <time>2011-04-16T12:55:01Z</time>
      </trkpt>
      <trkpt lat="45.98639" lon="6.39068">
        <ele>736</ele>
        <time>2011-04-16T12:55:02Z</time>
      </trkpt>
      <trkpt lat="45.98656" lon="6.39084">
        <ele>736</ele>
        <time>2011-04-16T12:55:03Z</time>
      </trkpt>
      <trkpt lat="45.98672" lon="6.39098">
        <ele>736</ele>
        <time>2011-04-16T12:55:04Z</time>
      </trkpt>
      <trkpt lat="45.98689" lon="6.3911">
        <ele>736</ele>
        <time>2011-04-16T12:55:05Z</time>
      </trkpt>
      <trkpt lat="45.98702" lon="6.39123">
        <ele>736</ele>
        <time>2011-04-16T12:55:06Z</time>
      </trkpt>
      <trkpt lat="45.98716" lon="6.39133">
        <ele>736</ele>
        <time>2011-04-16T12:55:07Z</time>
      </trkpt>
      <trkpt lat="45.98729" lon="6.39141">
        <ele>736</ele>
        <time>2011-04-16T12:55:08Z</time>
      </trkpt>
      <trkpt lat="45.98742" lon="6.39151">
        <ele>736</ele>
        <time>2011-04-16T12:55:09Z</time>
      </trkpt>
      <trkpt lat="45.98754" lon="6.39164">
        <ele>736</ele>
        <time>2011-04-16T12:55:10Z</time>
      </trkpt>
      <trkpt lat="45.98766" lon="6.39179">
        <ele>736</ele>
        <time>2011-04-16T12:55:11Z</time>
      </trkpt>
      <trkpt lat="45.98779" lon="6.39196">
        <ele>736</ele>
        <time>2011-04-16T12:55:12Z</time>
      </trkpt>
      <trkpt lat="45.98791" lon="6.39216">
        <ele>736</ele>
        <time>2011-04-16T12:55:13Z</time>
      </trkpt>
      <trkpt lat="45.98804" lon="6.39236">
        <ele>736</ele>
        <time>2011-04-16T12:55:14Z</time>
      </trkpt>
      <trkpt lat="45.98818" lon="6.39256">
        <ele>736</ele>
        <time>2011-04-16T12:55:15Z</time>
      </trkpt>
      <trkpt lat="45.98834" lon="6.39274">
        <ele>736</ele>
        <time>2011-04-16T12:55:16Z</time>
      </trkpt>
      <trkpt lat="45.9885" lon="6.39291">
        <ele>736</ele>
        <time>2011-04-16T12:55:17Z</time>
      </trkpt>
      <trkpt lat="45.98864" lon="6.39309">
        <ele>736</ele>
        <time>2011-04-16T12:55:18Z</time>
      </trkpt>
      <trkpt lat="45.98878" lon="6.39323">
        <ele>736</ele>
        <time>2011-04-16T12:55:19Z</time>
      </trkpt>
      <trkpt lat="45.98891" lon="6.39336">
        <ele>736</ele>
        <time>2011-04-16T12:55:20Z</time>
      </trkpt>
      <trkpt lat="45.98905" lon="6.39346">
        <ele>742</ele>
        <time>2011-04-16T12:55:21Z</time>
      </trkpt>
      <trkpt lat="45.98918" lon="6.39354">
        <ele>742</ele>
        <time>2011-04-16T12:55:22Z</time>
      </trkpt>
      <trkpt lat="45.98933" lon="6.39358">
        <ele>742</ele>
        <time>2011-04-16T12:55:23Z</time>
      </trkpt>
      <trkpt lat="45.98947" lon="6.39358">
        <ele>742</ele>
        <time>2011-04-16T12:55:24Z</time>
      </trkpt>
      <trkpt lat="45.98961" lon="6.39355">
        <ele>742</ele>
        <time>2011-04-16T12:55:25Z</time>
      </trkpt>
      <trkpt lat="45.98974" lon="6.39353">
        <ele>742</ele>
        <time>2011-04-16T12:55:26Z</time>
      </trkpt>
      <trkpt lat="45.98987" lon="6.39353">
        <ele>742</ele>
        <time>2011-04-16T12:55:27Z</time>
      </trkpt>
      <trkpt lat="45.98999" lon="6.39357">
        <ele>742</ele>
        <time>2011-04-16T12:55:28Z</time>
      </trkpt>
      <trkpt lat="45.9901" lon="6.39367">
        <ele>742</ele>
        <time>2011-04-16T12:55:29Z</time>
      </trkpt>
      <trkpt lat="45.9902" lon="6.39377">
        <ele>742</ele>
        <time>2011-04-16T12:55:30Z</time>
      </trkpt>
      <trkpt lat="45.99031" lon="6.39384">
        <ele>742</ele>
        <time>2011-04-16T12:55:31Z</time>
      </trkpt>
      <trkpt lat="45.99042" lon="6.39389">
        <ele>742</ele>
        <time>2011-04-16T12:55:32Z</time>
      </trkpt>
      <trkpt lat="45.99055" lon="6.39388">
        <ele>742</ele>
        <time>2011-04-16T12:55:33Z</time>
      </trkpt>
      <trkpt lat="45.99068" lon="6.39383">
        <ele>742</ele>
        <time>2011-04-16T12:55:34Z</time>
      </trkpt>
      <trkpt lat="45.99082" lon="6.39381">
        <ele>742</ele>
        <time>2011-04-16T12:55:35Z</time>
      </trkpt>
      <trkpt lat="45.99096" lon="6.39383">
        <ele>742</ele>
        <time>2011-04-16T12:55:36Z</time>
      </trkpt>
      <trkpt lat="45.99109" lon="6.39386">
        <ele>749</ele>
        <time>2011-04-16T12:55:37Z</time>
      </trkpt>
      <trkpt lat="45.99121" lon="6.39389">
        <ele>749</ele>
        <time>2011-04-16T12:55:38Z</time>
      </trkpt>
      <trkpt lat="45.99133" lon="6.3939">
        <ele>749</ele>
        <time>2011-04-16T12:55:39Z</time>
      </trkpt>
      <trkpt lat="45.99143" lon="6.39389">
        <ele>749</ele>
        <time>2011-04-16T12:55:40Z</time>
      </trkpt>
      <trkpt lat="45.99153" lon="6.39384">
        <ele>749</ele>
        <time>2011-04-16T12:55:41Z</time>
      </trkpt>
      <trkpt lat="45.99162" lon="6.39374">
        <ele>749</ele>
        <time>2011-04-16T12:55:42Z</time>
      </trkpt>
      <trkpt lat="45.9917" lon="6.3936">
        <ele>755</ele>
        <time>2011-04-16T12:55:43Z</time>
      </trkpt>
      <trkpt lat="45.99177" lon="6.39347">
        <ele>755</ele>
        <time>2011-04-16T12:55:44Z</time>
      </trkpt>
      <trkpt lat="45.99186" lon="6.39336">
        <ele>755</ele>
        <time>2011-04-16T12:55:45Z</time>
      </trkpt>
      <trkpt lat="45.99195" lon="6.39327">
        <ele>755</ele>
        <time>2011-04-16T12:55:46Z</time>
      </trkpt>
      <trkpt lat="45.99205" lon="6.39324">
        <ele>755</ele>
        <time>2011-04-16T12:55:47Z</time>
      </trkpt>
      <trkpt lat="45.99216" lon="6.39327">
        <ele>755</ele>
        <time>2011-04-16T12:55:48Z</time>
      </trkpt>
      <trkpt lat="45.99229" lon="6.39334">
        <ele>755</ele>
        <time>2011-04-16T12:55:49Z</time>
      </trkpt>
      <trkpt lat="45.99244" lon="6.39342">
        <ele>755</ele>
        <time>2011-04-16T12:55:50Z</time>
      </trkpt>
      <trkpt lat="45.99259" lon="6.3935">
        <ele>755</ele>
        <time>2011-04-16T12:55:51Z</time>
      </trkpt>
      <trkpt lat="45.99275" lon="6.39358">
        <ele>755</ele>
        <time>2011-04-16T12:55:52Z</time>
      </trkpt>
      <trkpt lat="45.99293" lon="6.39368">
        <ele>755</ele>
        <time>2011-04-16T12:55:53Z</time>
      </trkpt>
      <trkpt lat="45.9931" lon="6.39379">
        <ele>755</ele>
        <time>2011-04-16T12:55:54Z</time>
      </trkpt>
      <trkpt lat="45.99329" lon="6.39389">
        <ele>755</ele>
        <time>2011-04-16T12:55:55Z</time>
      </trkpt>
      <trkpt lat="45.99346" lon="6.39401">
        <ele>755</ele>
        <time>2011-04-16T12:55:56Z</time>
      </trkpt>
      <trkpt lat="45.99364" lon="6.39412">
        <ele>755</ele>
        <time>2011-04-16T12:55:57Z</time>
      </trkpt>
      <trkpt lat="45.99381" lon="6.39422">
        <ele>755</ele>
        <time>2011-04-16T12:55:58Z</time>
      </trkpt>
      <trkpt lat="45.99397" lon="6.39431">
        <ele>755</ele>
        <time>2011-04-16T12:55:59Z</time>
      </trkpt>
      <trkpt lat="45.99414" lon="6.39438">
        <ele>755</ele>
        <time>2011-04-16T12:56:00Z</time>
      </trkpt>
      <trkpt lat="45.9943" lon="6.39444">
        <ele>755</ele>
        <time>2011-04-16T12:56:01Z</time>
      </trkpt>
      <trkpt lat="45.99446" lon="6.3945">
        <ele>755</ele>
        <time>2011-04-16T12:56:02Z</time>
      </trkpt>
      <trkpt lat="45.99463" lon="6.39452">
        <ele>755</ele>
        <time>2011-04-16T12:56:03Z</time>
      </trkpt>
      <trkpt lat="45.99479" lon="6.39455">
        <ele>755</ele>
        <time>2011-04-16T12:56:04Z</time>
      </trkpt>
      <trkpt lat="45.99497" lon="6.39456">
        <ele>755</ele>
        <time>2011-04-16T12:56:05Z</time>
      </trkpt>
      <trkpt lat="45.99515" lon="6.39454">
        <ele>755</ele>
        <time>2011-04-16T12:56:06Z</time>
      </trkpt>
      <trkpt lat="45.99533" lon="6.39451">
        <ele>755</ele>
        <time>2011-04-16T12:56:07Z</time>
      </trkpt>
      <trkpt lat="45.99551" lon="6.39448">
        <ele>755</ele>
        <time>2011-04-16T12:56:08Z</time>
      </trkpt>
      <trkpt lat="45.99568" lon="6.39444">
        <ele>755</ele>
        <time>2011-04-16T12:56:09Z</time>
      </trkpt>
      <trkpt lat="45.99583" lon="6.39442">
        <ele>755</ele>
        <time>2011-04-16T12:56:10Z</time>
      </trkpt>
      <trkpt lat="45.99598" lon="6.3944">
        <ele>755</ele>
        <time>2011-04-16T12:56:11Z</time>
      </trkpt>
      <trkpt lat="45.99612" lon="6.3944">
        <ele>755</ele>
        <time>2011-04-16T12:56:12Z</time>
      </trkpt>
      <trkpt lat="45.99625" lon="6.3944">
        <ele>755</ele>
        <time>2011-04-16T12:56:13Z</time>
      </trkpt>
      <trkpt lat="45.99638" lon="6.39441">
        <ele>755</ele>
        <time>2011-04-16T12:56:14Z</time>
      </trkpt>
      <trkpt lat="45.99652" lon="6.39443">
        <ele>755</ele>
        <time>2011-04-16T12:56:15Z</time>
      </trkpt>
      <trkpt lat="45.99665" lon="6.39445">
        <ele>755</ele>
        <time>2011-04-16T12:56:16Z</time>
      </trkpt>
      <trkpt lat="45.99678" lon="6.39447">
        <ele>755</ele>
        <time>2011-04-16T12:56:17Z</time>
      </trkpt>
      <trkpt lat="45.99692" lon="6.3945">
        <ele>755</ele>
        <time>2011-04-16T12:56:18Z</time>
      </trkpt>
      <trkpt lat="45.99705" lon="6.39451">
        <ele>755</ele>
        <time>2011-04-16T12:56:19Z</time>
      </trkpt>
      <trkpt lat="45.99718" lon="6.39453">
        <ele>755</ele>
        <time>2011-04-16T12:56:20Z</time>
      </trkpt>
      <trkpt lat="45.99731" lon="6.39455">
        <ele>755</ele>
        <time>2011-04-16T12:56:21Z</time>
      </trkpt>
      <trkpt lat="45.99744" lon="6.39457">
        <ele>755</ele>
        <time>2011-04-16T12:56:22Z</time>
      </trkpt>
      <trkpt lat="45.99757" lon="6.39459">
        <ele>755</ele>
        <time>2011-04-16T12:56:23Z</time>
      </trkpt>
      <trkpt lat="45.99769" lon="6.39459">
        <ele>755</ele>
        <time>2011-04-16T12:56:24Z</time>
      </trkpt>
      <trkpt lat="45.99782" lon="6.3946">
        <ele>755</ele>
        <time>2011-04-16T12:56:25Z</time>
      </trkpt>
      <trkpt lat="45.99796" lon="6.3946">
        <ele>755</ele>
        <time>2011-04-16T12:56:26Z</time>
      </trkpt>
      <trkpt lat="45.99809" lon="6.3946">
        <ele>755</ele>
        <time>2011-04-16T12:56:27Z</time>
      </trkpt>
      <trkpt lat="45.99823" lon="6.3946">
        <ele>755</ele>
        <time>2011-04-16T12:56:28Z</time>
      </trkpt>
      <trkpt lat="45.99837" lon="6.39459">
        <ele>755</ele>
        <time>2011-04-16T12:56:29Z</time>
      </trkpt>
      <trkpt lat="45.99851" lon="6.39459">
        <ele>755</ele>
        <time>2011-04-16T12:56:30Z</time>
      </trkpt>
      <trkpt lat="45.99864" lon="6.39459">
        <ele>755</ele>
        <time>2011-04-16T12:56:31Z</time>
      </trkpt>
      <trkpt lat="45.99878" lon="6.39458">
        <ele>755</ele>
        <time>2011-04-16T12:56:32Z</time>
      </trkpt>
      <trkpt lat="45.99891" lon="6.39457">
        <ele>755</ele>
        <time>2011-04-16T12:56:33Z</time>
      </trkpt>
      <trkpt lat="45.99905" lon="6.39456">
        <ele>755</ele>
        <time>2011-04-16T12:56:34Z</time>
      </trkpt>
      <trkpt lat="45.99918" lon="6.39457">
        <ele>755</ele>
        <time>2011-04-16T12:56:35Z</time>
      </trkpt>
      <trkpt lat="45.99931" lon="6.3946">
        <ele>755</ele>
        <time>2011-04-16T12:56:36Z</time>
      </trkpt>
      <trkpt lat="45.99945" lon="6.39466">
        <ele>749</ele>
        <time>2011-04-16T12:56:37Z</time>
      </trkpt>
      <trkpt lat="45.99958" lon="6.39475">
        <ele>749</ele>
        <time>2011-04-16T12:56:38Z</time>
      </trkpt>
      <trkpt lat="45.99971" lon="6.39486">
        <ele>749</ele>
        <time>2011-04-16T12:56:39Z</time>
      </trkpt>
      <trkpt lat="45.99983" lon="6.395">
        <ele>749</ele>
        <time>2011-04-16T12:56:40Z</time>
      </trkpt>
      <trkpt lat="45.99996" lon="6.39515">
        <ele>749</ele>
        <time>2011-04-16T12:56:41Z</time>
      </trkpt>
      <trkpt lat="46.00006" lon="6.39533">
        <ele>749</ele>
        <time>2011-04-16T12:56:42Z</time>
      </trkpt>
      <trkpt lat="46.00017" lon="6.3955">
        <ele>743</ele>
        <time>2011-04-16T12:56:43Z</time>
      </trkpt>
      <trkpt lat="46.00027" lon="6.39565">
        <ele>743</ele>
        <time>2011-04-16T12:56:44Z</time>
      </trkpt>
      <trkpt lat="46.00037" lon="6.3958">
        <ele>743</ele>
        <time>2011-04-16T12:56:45Z</time>
      </trkpt>
      <trkpt lat="46.00049" lon="6.39592">
        <ele>743</ele>
        <time>2011-04-16T12:56:46Z</time>
      </trkpt>
      <trkpt lat="46.0006" lon="6.39603">
        <ele>743</ele>
        <time>2011-04-16T12:56:47Z</time>
      </trkpt>
      <trkpt lat="46.00073" lon="6.39613">
        <ele>743</ele>
        <time>2011-04-16T12:56:48Z</time>
      </trkpt>
      <trkpt lat="46.00085" lon="6.3962">
        <ele>743</ele>
        <time>2011-04-16T12:56:49Z</time>
      </trkpt>
      <trkpt lat="46.00099" lon="6.39626">
        <ele>743</ele>
        <time>2011-04-16T12:56:50Z</time>
      </trkpt>
      <trkpt lat="46.00113" lon="6.39628">
        <ele>738</ele>
        <time>2011-04-16T12:56:51Z</time>
      </trkpt>
      <trkpt lat="46.00127" lon="6.39629">
        <ele>738</ele>
        <time>2011-04-16T12:56:52Z</time>
      </trkpt>
      <trkpt lat="46.00143" lon="6.39629">
        <ele>738</ele>
        <time>2011-04-16T12:56:53Z</time>
      </trkpt>
      <trkpt lat="46.00159" lon="6.39629">
        <ele>738</ele>
        <time>2011-04-16T12:56:54Z</time>
      </trkpt>
      <trkpt lat="46.00174" lon="6.39629">
        <ele>738</ele>
        <time>2011-04-16T12:56:55Z</time>
      </trkpt>
      <trkpt lat="46.00189" lon="6.39628">
        <ele>738</ele>
        <time>2011-04-16T12:56:56Z</time>
      </trkpt>
      <trkpt lat="46.00204" lon="6.3963">
        <ele>738</ele>
        <time>2011-04-16T12:56:57Z</time>
      </trkpt>
      <trkpt lat="46.00219" lon="6.39634">
        <ele>738</ele>
        <time>2011-04-16T12:56:58Z</time>
      </trkpt>
      <trkpt lat="46.00234" lon="6.39639">
        <ele>738</ele>
        <time>2011-04-16T12:56:59Z</time>
      </trkpt>
      <trkpt lat="46.00248" lon="6.39645">
        <ele>733</ele>
        <time>2011-04-16T12:57:00Z</time>
      </trkpt>
      <trkpt lat="46.00263" lon="6.39653">
        <ele>733</ele>
        <time>2011-04-16T12:57:01Z</time>
      </trkpt>
      <trkpt lat="46.00276" lon="6.3966">
        <ele>733</ele>
        <time>2011-04-16T12:57:02Z</time>
      </trkpt>
      <trkpt lat="46.0029" lon="6.39669">
        <ele>733</ele>
        <time>2011-04-16T12:57:03Z</time>
      </trkpt>
      <trkpt lat="46.00304" lon="6.39679">
        <ele>733</ele>
        <time>2011-04-16T12:57:04Z</time>
      </trkpt>
      <trkpt lat="46.00318" lon="6.39688">
        <ele>733</ele>
        <time>2011-04-16T12:57:05Z</time>
      </trkpt>
      <trkpt lat="46.00331" lon="6.39697">
        <ele>733</ele>
        <time>2011-04-16T12:57:06Z</time>
      </trkpt>
      <trkpt lat="46.00345" lon="6.39705">
        <ele>733</ele>
        <time>2011-04-16T12:57:07Z</time>
      </trkpt>
      <trkpt lat="46.00358" lon="6.39712">
        <ele>733</ele>
        <time>2011-04-16T12:57:08Z</time>
      </trkpt>
      <trkpt lat="46.00373" lon="6.39719">
        <ele>733</ele>
        <time>2011-04-16T12:57:09Z</time>
      </trkpt>
      <trkpt lat="46.00388" lon="6.39726">
        <ele>733</ele>
        <time>2011-04-16T12:57:10Z</time>
      </trkpt>
      <trkpt lat="46.00403" lon="6.39735">
        <ele>733</ele>
        <time>2011-04-16T12:57:11Z</time>
      </trkpt>
      <trkpt lat="46.00419" lon="6.39743">
        <ele>733</ele>
        <time>2011-04-16T12:57:12Z</time>
      </trkpt>
      <trkpt lat="46.00432" lon="6.39751">
        <ele>727</ele>
        <time>2011-04-16T12:57:13Z</time>
      </trkpt>
      <trkpt lat="46.00445" lon="6.39757">
        <ele>727</ele>
        <time>2011-04-16T12:57:14Z</time>
      </trkpt>
      <trkpt lat="46.00458" lon="6.39761">
        <ele>727</ele>
        <time>2011-04-16T12:57:15Z</time>
      </trkpt>
      <trkpt lat="46.0047" lon="6.39764">
        <ele>727</ele>
        <time>2011-04-16T12:57:16Z</time>
      </trkpt>
      <trkpt lat="46.00483" lon="6.39765">
        <ele>727</ele>
        <time>2011-04-16T12:57:17Z</time>
      </trkpt>
      <trkpt lat="46.00496" lon="6.39761">
        <ele>727</ele>
        <time>2011-04-16T12:57:18Z</time>
      </trkpt>
      <trkpt lat="46.00507" lon="6.39754">
        <ele>727</ele>
        <time>2011-04-16T12:57:19Z</time>
      </trkpt>
      <trkpt lat="46.00519" lon="6.39742">
        <ele>727</ele>
        <time>2011-04-16T12:57:20Z</time>
      </trkpt>
      <trkpt lat="46.0053" lon="6.3973">
        <ele>727</ele>
        <time>2011-04-16T12:57:21Z</time>
      </trkpt>
      <trkpt lat="46.00542" lon="6.39719">
        <ele>727</ele>
        <time>2011-04-16T12:57:22Z</time>
      </trkpt>
      <trkpt lat="46.00555" lon="6.39711">
        <ele>727</ele>
        <time>2011-04-16T12:57:23Z</time>
      </trkpt>
      <trkpt lat="46.00569" lon="6.39705">
        <ele>727</ele>
        <time>2011-04-16T12:57:24Z</time>
      </trkpt>
      <trkpt lat="46.00586" lon="6.39701">
        <ele>727</ele>
        <time>2011-04-16T12:57:25Z</time>
      </trkpt>
      <trkpt lat="46.00603" lon="6.39698">
        <ele>727</ele>
        <time>2011-04-16T12:57:26Z</time>
      </trkpt>
      <trkpt lat="46.00623" lon="6.39695">
        <ele>727</ele>
        <time>2011-04-16T12:57:27Z</time>
      </trkpt>
      <trkpt lat="46.00643" lon="6.39693">
        <ele>727</ele>
        <time>2011-04-16T12:57:28Z</time>
      </trkpt>
      <trkpt lat="46.00663" lon="6.39691">
        <ele>727</ele>
        <time>2011-04-16T12:57:29Z</time>
      </trkpt>
      <trkpt lat="46.00684" lon="6.39689">
        <ele>727</ele>
        <time>2011-04-16T12:57:30Z</time>
      </trkpt>
      <trkpt lat="46.00705" lon="6.39687">
        <ele>727</ele>
        <time>2011-04-16T12:57:31Z</time>
      </trkpt>
      <trkpt lat="46.00724" lon="6.39685">
        <ele>727</ele>
        <time>2011-04-16T12:57:32Z</time>
      </trkpt>
      <trkpt lat="46.00743" lon="6.39683">
        <ele>727</ele>
        <time>2011-04-16T12:57:33Z</time>
      </trkpt>
      <trkpt lat="46.0076" lon="6.39682">
        <ele>727</ele>
        <time>2011-04-16T12:57:34Z</time>
      </trkpt>
      <trkpt lat="46.00777" lon="6.3968">
        <ele>727</ele>
        <time>2011-04-16T12:57:35Z</time>
      </trkpt>
      <trkpt lat="46.00792" lon="6.3968">
        <ele>727</ele>
        <time>2011-04-16T12:57:36Z</time>
      </trkpt>
      <trkpt lat="46.00807" lon="6.3968">
        <ele>732</ele>
        <time>2011-04-16T12:57:37Z</time>
      </trkpt>
      <trkpt lat="46.00822" lon="6.3968">
        <ele>732</ele>
        <time>2011-04-16T12:57:38Z</time>
      </trkpt>
      <trkpt lat="46.00837" lon="6.39682">
        <ele>732</ele>
        <time>2011-04-16T12:57:39Z</time>
      </trkpt>
      <trkpt lat="46.00855" lon="6.39684">
        <ele>732</ele>
        <time>2011-04-16T12:57:40Z</time>
      </trkpt>
      <trkpt lat="46.00873" lon="6.39686">
        <ele>732</ele>
        <time>2011-04-16T12:57:41Z</time>
      </trkpt>
      <trkpt lat="46.00891" lon="6.39688">
        <ele>732</ele>
        <time>2011-04-16T12:57:42Z</time>
      </trkpt>
      <trkpt lat="46.00909" lon="6.39689">
        <ele>732</ele>
        <time>2011-04-16T12:57:43Z</time>
      </trkpt>
      <trkpt lat="46.00926" lon="6.39691">
        <ele>732</ele>
        <time>2011-04-16T12:57:44Z</time>
      </trkpt>
      <trkpt lat="46.00944" lon="6.39692">
        <ele>732</ele>
        <time>2011-04-16T12:57:45Z</time>
      </trkpt>
      <trkpt lat="46.00963" lon="6.39694">
        <ele>732</ele>
        <time>2011-04-16T12:57:46Z</time>
      </trkpt>
      <trkpt lat="46.00982" lon="6.39695">
        <ele>732</ele>
        <time>2011-04-16T12:57:47Z</time>
      </trkpt>
      <trkpt lat="46.01" lon="6.39696">
        <ele>732</ele>
        <time>2011-04-16T12:57:48Z</time>
      </trkpt>
      <trkpt lat="46.01018" lon="6.39694">
        <ele>732</ele>
        <time>2011-04-16T12:57:49Z</time>
      </trkpt>
      <trkpt lat="46.01035" lon="6.39691">
        <ele>732</ele>
        <time>2011-04-16T12:57:50Z</time>
      </trkpt>
      <trkpt lat="46.01051" lon="6.39685">
        <ele>727</ele>
        <time>2011-04-16T12:57:51Z</time>
      </trkpt>
      <trkpt lat="46.01067" lon="6.39678">
        <ele>727</ele>
        <time>2011-04-16T12:57:52Z</time>
      </trkpt>
      <trkpt lat="46.01083" lon="6.39666">
        <ele>727</ele>
        <time>2011-04-16T12:57:53Z</time>
      </trkpt>
      <trkpt lat="46.01098" lon="6.39651">
        <ele>727</ele>
        <time>2011-04-16T12:57:54Z</time>
      </trkpt>
      <trkpt lat="46.01111" lon="6.39636">
        <ele>727</ele>
        <time>2011-04-16T12:57:55Z</time>
      </trkpt>
      <trkpt lat="46.01123" lon="6.39621">
        <ele>727</ele>
        <time>2011-04-16T12:57:56Z</time>
      </trkpt>
      <trkpt lat="46.01135" lon="6.39609">
        <ele>727</ele>
        <time>2011-04-16T12:57:57Z</time>
      </trkpt>
      <trkpt lat="46.01147" lon="6.39598">
        <ele>727</ele>
        <time>2011-04-16T12:57:58Z</time>
      </trkpt>
      <trkpt lat="46.01159" lon="6.3959">
        <ele>727</ele>
        <time>2011-04-16T12:57:59Z</time>
      </trkpt>
      <trkpt lat="46.01172" lon="6.39585">
        <ele>727</ele>
        <time>2011-04-16T12:58:00Z</time>
      </trkpt>
      <trkpt lat="46.01185" lon="6.39584">
        <ele>727</ele>
        <time>2011-04-16T12:58:01Z</time>
      </trkpt>
      <trkpt lat="46.01199" lon="6.39588">
        <ele>727</ele>
        <time>2011-04-16T12:58:02Z</time>
      </trkpt>
      <trkpt lat="46.01215" lon="6.39595">
        <ele>727</ele>
        <time>2011-04-16T12:58:03Z</time>
      </trkpt>
      <trkpt lat="46.01232" lon="6.39604">
        <ele>727</ele>
        <time>2011-04-16T12:58:04Z</time>
      </trkpt>
      <trkpt lat="46.01251" lon="6.39614">
        <ele>727</ele>
        <time>2011-04-16T12:58:05Z</time>
      </trkpt>
      <trkpt lat="46.01269" lon="6.39624">
        <ele>727</ele>
        <time>2011-04-16T12:58:06Z</time>
      </trkpt>
      <trkpt lat="46.01286" lon="6.39633">
        <ele>727</ele>
        <time>2011-04-16T12:58:07Z</time>
      </trkpt>
      <trkpt lat="46.01302" lon="6.39641">
        <ele>727</ele>
        <time>2011-04-16T12:58:08Z</time>
      </trkpt>
      <trkpt lat="46.01318" lon="6.39648">
        <ele>727</ele>
        <time>2011-04-16T12:58:09Z</time>
      </trkpt>
      <trkpt lat="46.01334" lon="6.39655">
        <ele>727</ele>
        <time>2011-04-16T12:58:10Z</time>
      </trkpt>
      <trkpt lat="46.01351" lon="6.39658">
        <ele>727</ele>
        <time>2011-04-16T12:58:11Z</time>
      </trkpt>
      <trkpt lat="46.01369" lon="6.39658">
        <ele>727</ele>
        <time>2011-04-16T12:58:12Z</time>
      </trkpt>
      <trkpt lat="46.01386" lon="6.39656">
        <ele>727</ele>
        <time>2011-04-16T12:58:13Z</time>
      </trkpt>
      <trkpt lat="46.01404" lon="6.39653">
        <ele>727</ele>
        <time>2011-04-16T12:58:14Z</time>
      </trkpt>
      <trkpt lat="46.01421" lon="6.39647">
        <ele>727</ele>
        <time>2011-04-16T12:58:15Z</time>
      </trkpt>
      <trkpt lat="46.01439" lon="6.39643">
        <ele>727</ele>
        <time>2011-04-16T12:58:16Z</time>
      </trkpt>
      <trkpt lat="46.01457" lon="6.39637">
        <ele>732</ele>
        <time>2011-04-16T12:58:17Z</time>
      </trkpt>
      <trkpt lat="46.01475" lon="6.39633">
        <ele>732</ele>
        <time>2011-04-16T12:58:18Z</time>
      </trkpt>
      <trkpt lat="46.01493" lon="6.39628">
        <ele>732</ele>
        <time>2011-04-16T12:58:19Z</time>
      </trkpt>
      <trkpt lat="46.0151" lon="6.39623">
        <ele>739</ele>
        <time>2011-04-16T12:58:20Z</time>
      </trkpt>
      <trkpt lat="46.01526" lon="6.39618">
        <ele>739</ele>
        <time>2011-04-16T12:58:21Z</time>
      </trkpt>
      <trkpt lat="46.01541" lon="6.39612">
        <ele>739</ele>
        <time>2011-04-16T12:58:22Z</time>
      </trkpt>
      <trkpt lat="46.01555" lon="6.39608">
        <ele>739</ele>
        <time>2011-04-16T12:58:23Z</time>
      </trkpt>
      <trkpt lat="46.01567" lon="6.39604">
        <ele>739</ele>
        <time>2011-04-16T12:58:24Z</time>
      </trkpt>
      <trkpt lat="46.01578" lon="6.39601">
        <ele>739</ele>
        <time>2011-04-16T12:58:25Z</time>
      </trkpt>
      <trkpt lat="46.01589" lon="6.39601">
        <ele>739</ele>
        <time>2011-04-16T12:58:26Z</time>
      </trkpt>
      <trkpt lat="46.016" lon="6.39601">
        <ele>739</ele>
        <time>2011-04-16T12:58:27Z</time>
      </trkpt>
      <trkpt lat="46.01613" lon="6.39601">
        <ele>734</ele>
        <time>2011-04-16T12:58:28Z</time>
      </trkpt>
      <trkpt lat="46.01626" lon="6.39605">
        <ele>734</ele>
        <time>2011-04-16T12:58:29Z</time>
      </trkpt>
      <trkpt lat="46.0164" lon="6.3961">
        <ele>734</ele>
        <time>2011-04-16T12:58:30Z</time>
      </trkpt>
      <trkpt lat="46.01654" lon="6.39617">
        <ele>734</ele>
        <time>2011-04-16T12:58:31Z</time>
      </trkpt>
      <trkpt lat="46.01669" lon="6.39624">
        <ele>734</ele>
        <time>2011-04-16T12:58:32Z</time>
      </trkpt>
      <trkpt lat="46.01685" lon="6.39632">
        <ele>734</ele>
        <time>2011-04-16T12:58:33Z</time>
      </trkpt>
      <trkpt lat="46.017" lon="6.39638">
        <ele>734</ele>
        <time>2011-04-16T12:58:34Z</time>
      </trkpt>
      <trkpt lat="46.01717" lon="6.39644">
        <ele>734</ele>
        <time>2011-04-16T12:58:35Z</time>
      </trkpt>
      <trkpt lat="46.01733" lon="6.39648">
        <ele>734</ele>
        <time>2011-04-16T12:58:36Z</time>
      </trkpt>
      <trkpt lat="46.01749" lon="6.39651">
        <ele>734</ele>
        <time>2011-04-16T12:58:37Z</time>
      </trkpt>
      <trkpt lat="46.01764" lon="6.39654">
        <ele>728</ele>
        <time>2011-04-16T12:58:38Z</time>
      </trkpt>
      <trkpt lat="46.01777" lon="6.39656">
        <ele>728</ele>
        <time>2011-04-16T12:58:39Z</time>
      </trkpt>
      <trkpt lat="46.0179" lon="6.39659">
        <ele>728</ele>
        <time>2011-04-16T12:58:40Z</time>
      </trkpt>
      <trkpt lat="46.01803" lon="6.39663">
        <ele>728</ele>
        <time>2011-04-16T12:58:41Z</time>
      </trkpt>
      <trkpt lat="46.01817" lon="6.39668">
        <ele>728</ele>
        <time>2011-04-16T12:58:42Z</time>
      </trkpt>
      <trkpt lat="46.01831" lon="6.39674">
        <ele>728</ele>
        <time>2011-04-16T12:58:43Z</time>
      </trkpt>
      <trkpt lat="46.01844" lon="6.39681">
        <ele>728</ele>
        <time>2011-04-16T12:58:44Z</time>
      </trkpt>
      <trkpt lat="46.01856" lon="6.39689">
        <ele>728</ele>
        <time>2011-04-16T12:58:45Z</time>
      </trkpt>
      <trkpt lat="46.01867" lon="6.39696">
        <ele>722</ele>
        <time>2011-04-16T12:58:46Z</time>
      </trkpt>
      <trkpt lat="46.01877" lon="6.39703">
        <ele>722</ele>
        <time>2011-04-16T12:58:47Z</time>
      </trkpt>
      <trkpt lat="46.01886" lon="6.39708">
        <ele>722</ele>
        <time>2011-04-16T12:58:48Z</time>
      </trkpt>
      <trkpt lat="46.01897" lon="6.39711">
        <ele>722</ele>
        <time>2011-04-16T12:58:49Z</time>
      </trkpt>
      <trkpt lat="46.01908" lon="6.3971">
        <ele>722</ele>
        <time>2011-04-16T12:58:50Z</time>
      </trkpt>
      <trkpt lat="46.01918" lon="6.39704">
        <ele>722</ele>
        <time>2011-04-16T12:58:51Z</time>
      </trkpt>
      <trkpt lat="46.01926" lon="6.39693">
        <ele>722</ele>
        <time>2011-04-16T12:58:52Z</time>
      </trkpt>
      <trkpt lat="46.01932" lon="6.39675">
        <ele>722</ele>
        <time>2011-04-16T12:58:53Z</time>
      </trkpt>
      <trkpt lat="46.01937" lon="6.3966">
        <ele>722</ele>
        <time>2011-04-16T12:58:54Z</time>
      </trkpt>
      <trkpt lat="46.01943" lon="6.39646">
        <ele>722</ele>
        <time>2011-04-16T12:58:55Z</time>
      </trkpt>
      <trkpt lat="46.01952" lon="6.39636">
        <ele>722</ele>
        <time>2011-04-16T12:58:56Z</time>
      </trkpt>
      <trkpt lat="46.01961" lon="6.39628">
        <ele>722</ele>
        <time>2011-04-16T12:58:57Z</time>
      </trkpt>
      <trkpt lat="46.01973" lon="6.39623">
        <ele>722</ele>
        <time>2011-04-16T12:58:58Z</time>
      </trkpt>
      <trkpt lat="46.01986" lon="6.39621">
        <ele>722</ele>
        <time>2011-04-16T12:58:59Z</time>
      </trkpt>
      <trkpt lat="46.01999" lon="6.39624">
        <ele>722</ele>
        <time>2011-04-16T12:59:00Z</time>
      </trkpt>
      <trkpt lat="46.02014" lon="6.39631">
        <ele>722</ele>
        <time>2011-04-16T12:59:01Z</time>
      </trkpt>
      <trkpt lat="46.02028" lon="6.39639">
        <ele>722</ele>
        <time>2011-04-16T12:59:02Z</time>
      </trkpt>
      <trkpt lat="46.02043" lon="6.3965">
        <ele>722</ele>
        <time>2011-04-16T12:59:03Z</time>
      </trkpt>
      <trkpt lat="46.02057" lon="6.3966">
        <ele>722</ele>
        <time>2011-04-16T12:59:04Z</time>
      </trkpt>
      <trkpt lat="46.0207" lon="6.39671">
        <ele>722</ele>
        <time>2011-04-16T12:59:05Z</time>
      </trkpt>
      <trkpt lat="46.02082" lon="6.3968">
        <ele>722</ele>
        <time>2011-04-16T12:59:06Z</time>
      </trkpt>
      <trkpt lat="46.02092" lon="6.3969">
        <ele>722</ele>
        <time>2011-04-16T12:59:07Z</time>
      </trkpt>
      <trkpt lat="46.02102" lon="6.397">
        <ele>722</ele>
        <time>2011-04-16T12:59:08Z</time>
      </trkpt>
      <trkpt lat="46.02112" lon="6.39709">
        <ele>722</ele>
        <time>2011-04-16T12:59:09Z</time>
      </trkpt>
      <trkpt lat="46.02123" lon="6.39716">
        <ele>722</ele>
        <time>2011-04-16T12:59:10Z</time>
      </trkpt>
      <trkpt lat="46.02134" lon="6.39719">
        <ele>717</ele>
        <time>2011-04-16T12:59:11Z</time>
      </trkpt>
      <trkpt lat="46.02147" lon="6.39718">
        <ele>717</ele>
        <time>2011-04-16T12:59:12Z</time>
      </trkpt>
      <trkpt lat="46.0216" lon="6.39713">
        <ele>717</ele>
        <time>2011-04-16T12:59:13Z</time>
      </trkpt>
      <trkpt lat="46.02172" lon="6.39702">
        <ele>717</ele>
        <time>2011-04-16T12:59:14Z</time>
      </trkpt>
      <trkpt lat="46.02185" lon="6.39687">
        <ele>717</ele>
        <time>2011-04-16T12:59:15Z</time>
      </trkpt>
      <trkpt lat="46.02198" lon="6.39671">
        <ele>711</ele>
        <time>2011-04-16T12:59:16Z</time>
      </trkpt>
      <trkpt lat="46.02211" lon="6.39653">
        <ele>711</ele>
        <time>2011-04-16T12:59:17Z</time>
      </trkpt>
      <trkpt lat="46.02223" lon="6.39636">
        <ele>711</ele>
        <time>2011-04-16T12:59:18Z</time>
      </trkpt>
      <trkpt lat="46.02234" lon="6.39617">
        <ele>711</ele>
        <time>2011-04-16T12:59:19Z</time>
      </trkpt>
      <trkpt lat="46.02244" lon="6.39598">
        <ele>706</ele>
        <time>2011-04-16T12:59:20Z</time>
      </trkpt>
      <trkpt lat="46.02252" lon="6.39579">
        <ele>706</ele>
        <time>2011-04-16T12:59:21Z</time>
      </trkpt>
      <trkpt lat="46.02261" lon="6.39563">
        <ele>706</ele>
        <time>2011-04-16T12:59:22Z</time>
      </trkpt>
      <trkpt lat="46.0227" lon="6.39548">
        <ele>706</ele>
        <time>2011-04-16T12:59:23Z</time>
      </trkpt>
      <trkpt lat="46.02281" lon="6.39535">
        <ele>706</ele>
        <time>2011-04-16T12:59:24Z</time>
      </trkpt>
      <trkpt lat="46.02292" lon="6.39527">
        <ele>701</ele>
        <time>2011-04-16T12:59:25Z</time>
      </trkpt>
      <trkpt lat="46.02303" lon="6.39522">
        <ele>701</ele>
        <time>2011-04-16T12:59:26Z</time>
      </trkpt>
      <trkpt lat="46.02315" lon="6.39526">
        <ele>701</ele>
        <time>2011-04-16T12:59:27Z</time>
      </trkpt>
      <trkpt lat="46.02326" lon="6.3953">
        <ele>701</ele>
        <time>2011-04-16T12:59:28Z</time>
      </trkpt>
      <trkpt lat="46.02336" lon="6.3953">
        <ele>701</ele>
        <time>2011-04-16T12:59:29Z</time>
      </trkpt>
      <trkpt lat="46.02346" lon="6.39526">
        <ele>701</ele>
        <time>2011-04-16T12:59:30Z</time>
      </trkpt>
      <trkpt lat="46.02358" lon="6.39518">
        <ele>701</ele>
        <time>2011-04-16T12:59:31Z</time>
      </trkpt>
      <trkpt lat="46.02369" lon="6.3951">
        <ele>695</ele>
        <time>2011-04-16T12:59:32Z</time>
      </trkpt>
      <trkpt lat="46.02381" lon="6.39502">
        <ele>695</ele>
        <time>2011-04-16T12:59:33Z</time>
      </trkpt>
      <trkpt lat="46.02394" lon="6.39496">
        <ele>695</ele>
        <time>2011-04-16T12:59:34Z</time>
      </trkpt>
      <trkpt lat="46.02408" lon="6.39494">
        <ele>695</ele>
        <time>2011-04-16T12:59:35Z</time>
      </trkpt>
      <trkpt lat="46.02419" lon="6.39495">
        <ele>695</ele>
        <time>2011-04-16T12:59:36Z</time>
      </trkpt>
      <trkpt lat="46.0243" lon="6.39496">
        <ele>695</ele>
        <time>2011-04-16T12:59:37Z</time>
      </trkpt>
      <trkpt lat="46.02441" lon="6.39495">
        <ele>690</ele>
        <time>2011-04-16T12:59:38Z</time>
      </trkpt>
      <trkpt lat="46.02451" lon="6.3949">
        <ele>690</ele>
        <time>2011-04-16T12:59:39Z</time>
      </trkpt>
      <trkpt lat="46.0246" lon="6.39481">
        <ele>690</ele>
        <time>2011-04-16T12:59:40Z</time>
      </trkpt>
      <trkpt lat="46.02466" lon="6.39467">
        <ele>690</ele>
        <time>2011-04-16T12:59:41Z</time>
      </trkpt>
      <trkpt lat="46.02471" lon="6.39451">
        <ele>684</ele>
        <time>2011-04-16T12:59:42Z</time>
      </trkpt>
      <trkpt lat="46.02473" lon="6.39428">
        <ele>690</ele>
        <time>2011-04-16T12:59:43Z</time>
      </trkpt>
      <trkpt lat="46.02476" lon="6.39413">
        <ele>690</ele>
        <time>2011-04-16T12:59:44Z</time>
      </trkpt>
      <trkpt lat="46.0248" lon="6.39397">
        <ele>690</ele>
        <time>2011-04-16T12:59:45Z</time>
      </trkpt>
      <trkpt lat="46.02486" lon="6.39383">
        <ele>690</ele>
        <time>2011-04-16T12:59:46Z</time>
      </trkpt>
      <trkpt lat="46.02497" lon="6.3937">
        <ele>690</ele>
        <time>2011-04-16T12:59:47Z</time>
      </trkpt>
      <trkpt lat="46.02511" lon="6.39355">
        <ele>690</ele>
        <time>2011-04-16T12:59:48Z</time>
      </trkpt>
      <trkpt lat="46.02524" lon="6.39339">
        <ele>690</ele>
        <time>2011-04-16T12:59:49Z</time>
      </trkpt>
      <trkpt lat="46.02535" lon="6.39322">
        <ele>690</ele>
        <time>2011-04-16T12:59:50Z</time>
      </trkpt>
      <trkpt lat="46.02548" lon="6.39306">
        <ele>684</ele>
        <time>2011-04-16T12:59:51Z</time>
      </trkpt>
      <trkpt lat="46.02562" lon="6.39292">
        <ele>684</ele>
        <time>2011-04-16T12:59:52Z</time>
      </trkpt>
      <trkpt lat="46.02576" lon="6.39279">
        <ele>684</ele>
        <time>2011-04-16T12:59:53Z</time>
      </trkpt>
      <trkpt lat="46.0259" lon="6.39266">
        <ele>684</ele>
        <time>2011-04-16T12:59:54Z</time>
      </trkpt>
      <trkpt lat="46.02604" lon="6.39255">
        <ele>684</ele>
        <time>2011-04-16T12:59:55Z</time>
      </trkpt>
      <trkpt lat="46.02618" lon="6.39242">
        <ele>684</ele>
        <time>2011-04-16T12:59:56Z</time>
      </trkpt>
      <trkpt lat="46.0263" lon="6.3923">
        <ele>679</ele>
        <time>2011-04-16T12:59:57Z</time>
      </trkpt>
      <trkpt lat="46.02642" lon="6.39219">
        <ele>679</ele>
        <time>2011-04-16T12:59:58Z</time>
      </trkpt>
      <trkpt lat="46.02655" lon="6.39207">
        <ele>679</ele>
        <time>2011-04-16T12:59:59Z</time>
      </trkpt>
      <trkpt lat="46.02669" lon="6.39197">
        <ele>679</ele>
        <time>2011-04-16T13:00:00Z</time>
      </trkpt>
      <trkpt lat="46.02683" lon="6.39189">
        <ele>679</ele>
        <time>2011-04-16T13:00:01Z</time>
      </trkpt>
      <trkpt lat="46.02697" lon="6.39183">
        <ele>679</ele>
        <time>2011-04-16T13:00:02Z</time>
      </trkpt>
      <trkpt lat="46.0271" lon="6.39178">
        <ele>679</ele>
        <time>2011-04-16T13:00:03Z</time>
      </trkpt>
      <trkpt lat="46.02722" lon="6.39174">
        <ele>679</ele>
        <time>2011-04-16T13:00:04Z</time>
      </trkpt>
      <trkpt lat="46.02732" lon="6.3917">
        <ele>674</ele>
        <time>2011-04-16T13:00:05Z</time>
      </trkpt>
      <trkpt lat="46.02742" lon="6.3917">
        <ele>674</ele>
        <time>2011-04-16T13:00:06Z</time>
      </trkpt>
      <trkpt lat="46.02752" lon="6.39177">
        <ele>674</ele>
        <time>2011-04-16T13:00:07Z</time>
      </trkpt>
      <trkpt lat="46.02761" lon="6.39194">
        <ele>674</ele>
        <time>2011-04-16T13:00:08Z</time>
      </trkpt>
      <trkpt lat="46.0277" lon="6.39217">
        <ele>674</ele>
        <time>2011-04-16T13:00:09Z</time>
      </trkpt>
      <trkpt lat="46.02779" lon="6.39236">
        <ele>674</ele>
        <time>2011-04-16T13:00:10Z</time>
      </trkpt>
      <trkpt lat="46.02786" lon="6.39255">
        <ele>674</ele>
        <time>2011-04-16T13:00:11Z</time>
      </trkpt>
      <trkpt lat="46.02792" lon="6.39274">
        <ele>669</ele>
        <time>2011-04-16T13:00:12Z</time>
      </trkpt>
      <trkpt lat="46.028" lon="6.39291">
        <ele>669</ele>
        <time>2011-04-16T13:00:13Z</time>
      </trkpt>
      <trkpt lat="46.02809" lon="6.39302">
        <ele>669</ele>
        <time>2011-04-16T13:00:14Z</time>
      </trkpt>
      <trkpt lat="46.02819" lon="6.39313">
        <ele>669</ele>
        <time>2011-04-16T13:00:15Z</time>
      </trkpt>
      <trkpt lat="46.02829" lon="6.39321">
        <ele>669</ele>
        <time>2011-04-16T13:00:16Z</time>
      </trkpt>
      <trkpt lat="46.0284" lon="6.39326">
        <ele>669</ele>
        <time>2011-04-16T13:00:17Z</time>
      </trkpt>
      <trkpt lat="46.02851" lon="6.39327">
        <ele>669</ele>
        <time>2011-04-16T13:00:18Z</time>
      </trkpt>
      <trkpt lat="46.02863" lon="6.39324">
        <ele>663</ele>
        <time>2011-04-16T13:00:19Z</time>
      </trkpt>
      <trkpt lat="46.02873" lon="6.39317">
        <ele>663</ele>
        <time>2011-04-16T13:00:20Z</time>
      </trkpt>
      <trkpt lat="46.02882" lon="6.39307">
        <ele>654</ele>
        <time>2011-04-16T13:00:21Z</time>
      </trkpt>
      <trkpt lat="46.02889" lon="6.39294">
        <ele>654</ele>
        <time>2011-04-16T13:00:22Z</time>
      </trkpt>
      <trkpt lat="46.02894" lon="6.39279">
        <ele>654</ele>
        <time>2011-04-16T13:00:23Z</time>
      </trkpt>
      <trkpt lat="46.02894" lon="6.39258">
        <ele>647</ele>
        <time>2011-04-16T13:00:24Z</time>
      </trkpt>
      <trkpt lat="46.02893" lon="6.39236">
        <ele>647</ele>
        <time>2011-04-16T13:00:25Z</time>
      </trkpt>
      <trkpt lat="46.02891" lon="6.39211">
        <ele>647</ele>
        <time>2011-04-16T13:00:26Z</time>
      </trkpt>
      <trkpt lat="46.02891" lon="6.3919">
        <ele>647</ele>
        <time>2011-04-16T13:00:27Z</time>
      </trkpt>
      <trkpt lat="46.02891" lon="6.39172">
        <ele>647</ele>
        <time>2011-04-16T13:00:28Z</time>
      </trkpt>
      <trkpt lat="46.02889" lon="6.39151">
        <ele>641</ele>
        <time>2011-04-16T13:00:29Z</time>
      </trkpt>
      <trkpt lat="46.02889" lon="6.39133">
        <ele>641</ele>
        <time>2011-04-16T13:00:30Z</time>
      </trkpt>
      <trkpt lat="46.02891" lon="6.39115">
        <ele>641</ele>
        <time>2011-04-16T13:00:31Z</time>
      </trkpt>
      <trkpt lat="46.02895" lon="6.391">
        <ele>641</ele>
        <time>2011-04-16T13:00:32Z</time>
      </trkpt>
      <trkpt lat="46.02903" lon="6.39093">
        <ele>635</ele>
        <time>2011-04-16T13:00:33Z</time>
      </trkpt>
      <trkpt lat="46.02914" lon="6.39094">
        <ele>635</ele>
        <time>2011-04-16T13:00:34Z</time>
      </trkpt>
      <trkpt lat="46.02928" lon="6.391">
        <ele>635</ele>
        <time>2011-04-16T13:00:35Z</time>
      </trkpt>
      <trkpt lat="46.02944" lon="6.39106">
        <ele>635</ele>
        <time>2011-04-16T13:00:36Z</time>
      </trkpt>
      <trkpt lat="46.02962" lon="6.39111">
        <ele>630</ele>
        <time>2011-04-16T13:00:37Z</time>
      </trkpt>
      <trkpt lat="46.02979" lon="6.39111">
        <ele>630</ele>
        <time>2011-04-16T13:00:38Z</time>
      </trkpt>
      <trkpt lat="46.02997" lon="6.39109">
        <ele>630</ele>
        <time>2011-04-16T13:00:39Z</time>
      </trkpt>
      <trkpt lat="46.03015" lon="6.39104">
        <ele>630</ele>
        <time>2011-04-16T13:00:40Z</time>
      </trkpt>
      <trkpt lat="46.03033" lon="6.39094">
        <ele>630</ele>
        <time>2011-04-16T13:00:41Z</time>
      </trkpt>
      <trkpt lat="46.0305" lon="6.39082">
        <ele>630</ele>
        <time>2011-04-16T13:00:42Z</time>
      </trkpt>
      <trkpt lat="46.03067" lon="6.39067">
        <ele>630</ele>
        <time>2011-04-16T13:00:43Z</time>
      </trkpt>
      <trkpt lat="46.03083" lon="6.3905">
        <ele>630</ele>
        <time>2011-04-16T13:00:44Z</time>
      </trkpt>
      <trkpt lat="46.031" lon="6.39031">
        <ele>635</ele>
        <time>2011-04-16T13:00:45Z</time>
      </trkpt>
      <trkpt lat="46.03119" lon="6.39012">
        <ele>635</ele>
        <time>2011-04-16T13:00:46Z</time>
      </trkpt>
      <trkpt lat="46.03139" lon="6.38991">
        <ele>635</ele>
        <time>2011-04-16T13:00:47Z</time>
      </trkpt>
      <trkpt lat="46.03162" lon="6.38973">
        <ele>635</ele>
        <time>2011-04-16T13:00:48Z</time>
      </trkpt>
      <trkpt lat="46.03184" lon="6.38953">
        <ele>641</ele>
        <time>2011-04-16T13:00:49Z</time>
      </trkpt>
      <trkpt lat="46.03205" lon="6.38936">
        <ele>641</ele>
        <time>2011-04-16T13:00:50Z</time>
      </trkpt>
      <trkpt lat="46.03225" lon="6.38921">
        <ele>641</ele>
        <time>2011-04-16T13:00:51Z</time>
      </trkpt>
      <trkpt lat="46.03242" lon="6.38905">
        <ele>641</ele>
        <time>2011-04-16T13:00:52Z</time>
      </trkpt>
      <trkpt lat="46.03259" lon="6.3889">
        <ele>641</ele>
        <time>2011-04-16T13:00:53Z</time>
      </trkpt>
      <trkpt lat="46.03274" lon="6.38872">
        <ele>641</ele>
        <time>2011-04-16T13:00:54Z</time>
      </trkpt>
      <trkpt lat="46.03289" lon="6.38853">
        <ele>641</ele>
        <time>2011-04-16T13:00:55Z</time>
      </trkpt>
      <trkpt lat="46.03303" lon="6.38832">
        <ele>636</ele>
        <time>2011-04-16T13:00:56Z</time>
      </trkpt>
      <trkpt lat="46.03316" lon="6.38813">
        <ele>636</ele>
        <time>2011-04-16T13:00:57Z</time>
      </trkpt>
      <trkpt lat="46.0333" lon="6.38792">
        <ele>636</ele>
        <time>2011-04-16T13:00:58Z</time>
      </trkpt>
      <trkpt lat="46.03342" lon="6.3877">
        <ele>636</ele>
        <time>2011-04-16T13:00:59Z</time>
      </trkpt>
      <trkpt lat="46.03354" lon="6.3875">
        <ele>636</ele>
        <time>2011-04-16T13:01:00Z</time>
      </trkpt>
      <trkpt lat="46.03366" lon="6.38728">
        <ele>636</ele>
        <time>2011-04-16T13:01:01Z</time>
      </trkpt>
      <trkpt lat="46.03376" lon="6.38708">
        <ele>629</ele>
        <time>2011-04-16T13:01:02Z</time>
      </trkpt>
      <trkpt lat="46.03385" lon="6.38688">
        <ele>629</ele>
        <time>2011-04-16T13:01:03Z</time>
      </trkpt>
      <trkpt lat="46.03393" lon="6.38668">
        <ele>629</ele>
        <time>2011-04-16T13:01:04Z</time>
      </trkpt>
      <trkpt lat="46.03403" lon="6.38652">
        <ele>624</ele>
        <time>2011-04-16T13:01:05Z</time>
      </trkpt>
      <trkpt lat="46.03412" lon="6.38638">
        <ele>624</ele>
        <time>2011-04-16T13:01:06Z</time>
      </trkpt>
      <trkpt lat="46.0342" lon="6.38624">
        <ele>624</ele>
        <time>2011-04-16T13:01:07Z</time>
      </trkpt>
      <trkpt lat="46.03425" lon="6.38611">
        <ele>624</ele>
        <time>2011-04-16T13:01:08Z</time>
      </trkpt>
      <trkpt lat="46.03427" lon="6.38597">
        <ele>624</ele>
        <time>2011-04-16T13:01:09Z</time>
      </trkpt>
      <trkpt lat="46.03425" lon="6.38584">
        <ele>624</ele>
        <time>2011-04-16T13:01:10Z</time>
      </trkpt>
      <trkpt lat="46.03426" lon="6.38568">
        <ele>624</ele>
        <time>2011-04-16T13:01:11Z</time>
      </trkpt>
      <trkpt lat="46.03426" lon="6.38551">
        <ele>617</ele>
        <time>2011-04-16T13:01:12Z</time>
      </trkpt>
      <trkpt lat="46.03428" lon="6.38533">
        <ele>617</ele>
        <time>2011-04-16T13:01:13Z</time>
      </trkpt>
      <trkpt lat="46.03431" lon="6.38517">
        <ele>617</ele>
        <time>2011-04-16T13:01:14Z</time>
      </trkpt>
      <trkpt lat="46.03438" lon="6.385">
        <ele>617</ele>
        <time>2011-04-16T13:01:15Z</time>
      </trkpt>
      <trkpt lat="46.03446" lon="6.38482">
        <ele>617</ele>
        <time>2011-04-16T13:01:16Z</time>
      </trkpt>
      <trkpt lat="46.03454" lon="6.38461">
        <ele>617</ele>
        <time>2011-04-16T13:01:17Z</time>
      </trkpt>
      <trkpt lat="46.03467" lon="6.38444">
        <ele>611</ele>
        <time>2011-04-16T13:01:18Z</time>
      </trkpt>
      <trkpt lat="46.03478" lon="6.38426">
        <ele>611</ele>
        <time>2011-04-16T13:01:19Z</time>
      </trkpt>
      <trkpt lat="46.03489" lon="6.38408">
        <ele>611</ele>
        <time>2011-04-16T13:01:20Z</time>
      </trkpt>
      <trkpt lat="46.03498" lon="6.38391">
        <ele>611</ele>
        <time>2011-04-16T13:01:21Z</time>
      </trkpt>
      <trkpt lat="46.03507" lon="6.38375">
        <ele>611</ele>
        <time>2011-04-16T13:01:22Z</time>
      </trkpt>
      <trkpt lat="46.03517" lon="6.38364">
        <ele>611</ele>
        <time>2011-04-16T13:01:23Z</time>
      </trkpt>
      <trkpt lat="46.03525" lon="6.3835">
        <ele>604</ele>
        <time>2011-04-16T13:01:24Z</time>
      </trkpt>
      <trkpt lat="46.03533" lon="6.38336">
        <ele>604</ele>
        <time>2011-04-16T13:01:25Z</time>
      </trkpt>
      <trkpt lat="46.03543" lon="6.38331">
        <ele>604</ele>
        <time>2011-04-16T13:01:26Z</time>
      </trkpt>
      <trkpt lat="46.03556" lon="6.38321">
        <ele>610</ele>
        <time>2011-04-16T13:01:27Z</time>
      </trkpt>
      <trkpt lat="46.03571" lon="6.38314">
        <ele>610</ele>
        <time>2011-04-16T13:01:28Z</time>
      </trkpt>
      <trkpt lat="46.03587" lon="6.38314">
        <ele>615</ele>
        <time>2011-04-16T13:01:29Z</time>
      </trkpt>
      <trkpt lat="46.03604" lon="6.38312">
        <ele>615</ele>
        <time>2011-04-16T13:01:30Z</time>
      </trkpt>
      <trkpt lat="46.03621" lon="6.38308">
        <ele>615</ele>
        <time>2011-04-16T13:01:31Z</time>
      </trkpt>
      <trkpt lat="46.03639" lon="6.38302">
        <ele>615</ele>
        <time>2011-04-16T13:01:32Z</time>
      </trkpt>
      <trkpt lat="46.03655" lon="6.38296">
        <ele>615</ele>
        <time>2011-04-16T13:01:33Z</time>
      </trkpt>
      <trkpt lat="46.03671" lon="6.38291">
        <ele>607</ele>
        <time>2011-04-16T13:01:34Z</time>
      </trkpt>
      <trkpt lat="46.03687" lon="6.38285">
        <ele>607</ele>
        <time>2011-04-16T13:01:35Z</time>
      </trkpt>
      <trkpt lat="46.03701" lon="6.3828">
        <ele>607</ele>
        <time>2011-04-16T13:01:36Z</time>
      </trkpt>
      <trkpt lat="46.03716" lon="6.38279">
        <ele>607</ele>
        <time>2011-04-16T13:01:37Z</time>
      </trkpt>
      <trkpt lat="46.03729" lon="6.38279">
        <ele>607</ele>
        <time>2011-04-16T13:01:38Z</time>
      </trkpt>
      <trkpt lat="46.03743" lon="6.38284">
        <ele>602</ele>
        <time>2011-04-16T13:01:39Z</time>
      </trkpt>
      <trkpt lat="46.03759" lon="6.38287">
        <ele>602</ele>
        <time>2011-04-16T13:01:40Z</time>
      </trkpt>
      <trkpt lat="46.03775" lon="6.38286">
        <ele>602</ele>
        <time>2011-04-16T13:01:41Z</time>
      </trkpt>
      <trkpt lat="46.03791" lon="6.38285">
        <ele>602</ele>
        <time>2011-04-16T13:01:42Z</time>
      </trkpt>
      <trkpt lat="46.03807" lon="6.38277">
        <ele>602</ele>
        <time>2011-04-16T13:01:43Z</time>
      </trkpt>
      <trkpt lat="46.03825" lon="6.38271">
        <ele>602</ele>
        <time>2011-04-16T13:01:44Z</time>
      </trkpt>
      <trkpt lat="46.0384" lon="6.38261">
        <ele>597</ele>
        <time>2011-04-16T13:01:45Z</time>
      </trkpt>
      <trkpt lat="46.03856" lon="6.3825">
        <ele>597</ele>
        <time>2011-04-16T13:01:46Z</time>
      </trkpt>
      <trkpt lat="46.03872" lon="6.3824">
        <ele>597</ele>
        <time>2011-04-16T13:01:47Z</time>
      </trkpt>
      <trkpt lat="46.03887" lon="6.38229">
        <ele>597</ele>
        <time>2011-04-16T13:01:48Z</time>
      </trkpt>
      <trkpt lat="46.039" lon="6.38217">
        <ele>597</ele>
        <time>2011-04-16T13:01:49Z</time>
      </trkpt>
      <trkpt lat="46.03912" lon="6.38205">
        <ele>591</ele>
        <time>2011-04-16T13:01:50Z</time>
      </trkpt>
      <trkpt lat="46.03922" lon="6.3819">
        <ele>591</ele>
        <time>2011-04-16T13:01:51Z</time>
      </trkpt>
      <trkpt lat="46.03931" lon="6.38173">
        <ele>591</ele>
        <time>2011-04-16T13:01:52Z</time>
      </trkpt>
      <trkpt lat="46.03939" lon="6.38155">
        <ele>591</ele>
        <time>2011-04-16T13:01:53Z</time>
      </trkpt>
      <trkpt lat="46.03947" lon="6.38137">
        <ele>585</ele>
        <time>2011-04-16T13:01:54Z</time>
      </trkpt>
      <trkpt lat="46.03956" lon="6.38121">
        <ele>585</ele>
        <time>2011-04-16T13:01:55Z</time>
      </trkpt>
      <trkpt lat="46.03963" lon="6.38105">
        <ele>580</ele>
        <time>2011-04-16T13:01:56Z</time>
      </trkpt>
      <trkpt lat="46.03973" lon="6.38092">
        <ele>580</ele>
        <time>2011-04-16T13:01:57Z</time>
      </trkpt>
      <trkpt lat="46.03986" lon="6.38082">
        <ele>580</ele>
        <time>2011-04-16T13:01:58Z</time>
      </trkpt>
      <trkpt lat="46.04002" lon="6.38073">
        <ele>575</ele>
        <time>2011-04-16T13:01:59Z</time>
      </trkpt>
      <trkpt lat="46.04019" lon="6.38064">
        <ele>575</ele>
        <time>2011-04-16T13:02:00Z</time>
      </trkpt>
      <trkpt lat="46.04036" lon="6.38055">
        <ele>575</ele>
        <time>2011-04-16T13:02:01Z</time>
      </trkpt>
      <trkpt lat="46.04049" lon="6.38047">
        <ele>575</ele>
        <time>2011-04-16T13:02:02Z</time>
      </trkpt>
      <trkpt lat="46.04063" lon="6.38039">
        <ele>575</ele>
        <time>2011-04-16T13:02:03Z</time>
      </trkpt>
      <trkpt lat="46.04074" lon="6.38031">
        <ele>575</ele>
        <time>2011-04-16T13:02:04Z</time>
      </trkpt>
      <trkpt lat="46.04086" lon="6.38027">
        <ele>575</ele>
        <time>2011-04-16T13:02:05Z</time>
      </trkpt>
      <trkpt lat="46.04097" lon="6.3802">
        <ele>575</ele>
        <time>2011-04-16T13:02:06Z</time>
      </trkpt>
      <trkpt lat="46.0411" lon="6.38017">
        <ele>575</ele>
        <time>2011-04-16T13:02:07Z</time>
      </trkpt>
      <trkpt lat="46.04125" lon="6.38016">
        <ele>575</ele>
        <time>2011-04-16T13:02:08Z</time>
      </trkpt>
      <trkpt lat="46.04143" lon="6.38014">
        <ele>575</ele>
        <time>2011-04-16T13:02:09Z</time>
      </trkpt>
      <trkpt lat="46.04159" lon="6.38011">
        <ele>575</ele>
        <time>2011-04-16T13:02:10Z</time>
      </trkpt>
      <trkpt lat="46.04175" lon="6.38006">
        <ele>575</ele>
        <time>2011-04-16T13:02:11Z</time>
      </trkpt>
      <trkpt lat="46.0419" lon="6.38002">
        <ele>575</ele>
        <time>2011-04-16T13:02:12Z</time>
      </trkpt>
      <trkpt lat="46.04203" lon="6.37994">
        <ele>575</ele>
        <time>2011-04-16T13:02:13Z</time>
      </trkpt>
      <trkpt lat="46.04215" lon="6.37985">
        <ele>575</ele>
        <time>2011-04-16T13:02:14Z</time>
      </trkpt>
      <trkpt lat="46.04226" lon="6.37975">
        <ele>575</ele>
        <time>2011-04-16T13:02:15Z</time>
      </trkpt>
      <trkpt lat="46.04235" lon="6.37964">
        <ele>568</ele>
        <time>2011-04-16T13:02:16Z</time>
      </trkpt>
      <trkpt lat="46.04243" lon="6.37953">
        <ele>568</ele>
        <time>2011-04-16T13:02:17Z</time>
      </trkpt>
      <trkpt lat="46.04253" lon="6.37945">
        <ele>568</ele>
        <time>2011-04-16T13:02:18Z</time>
      </trkpt>
      <trkpt lat="46.04263" lon="6.37938">
        <ele>568</ele>
        <time>2011-04-16T13:02:19Z</time>
      </trkpt>
      <trkpt lat="46.04273" lon="6.3793">
        <ele>568</ele>
        <time>2011-04-16T13:02:20Z</time>
      </trkpt>
      <trkpt lat="46.04285" lon="6.37929">
        <ele>568</ele>
        <time>2011-04-16T13:02:21Z</time>
      </trkpt>
      <trkpt lat="46.04299" lon="6.37939">
        <ele>568</ele>
        <time>2011-04-16T13:02:22Z</time>
      </trkpt>
      <trkpt lat="46.04313" lon="6.37943">
        <ele>568</ele>
        <time>2011-04-16T13:02:23Z</time>
      </trkpt>
      <trkpt lat="46.04327" lon="6.37945">
        <ele>568</ele>
        <time>2011-04-16T13:02:24Z</time>
      </trkpt>
      <trkpt lat="46.0434" lon="6.37945">
        <ele>573</ele>
        <time>2011-04-16T13:02:25Z</time>
      </trkpt>
      <trkpt lat="46.04353" lon="6.3794">
        <ele>573</ele>
        <time>2011-04-16T13:02:26Z</time>
      </trkpt>
      <trkpt lat="46.04366" lon="6.37933">
        <ele>573</ele>
        <time>2011-04-16T13:02:27Z</time>
      </trkpt>
      <trkpt lat="46.04378" lon="6.37922">
        <ele>573</ele>
        <time>2011-04-16T13:02:28Z</time>
      </trkpt>
      <trkpt lat="46.04389" lon="6.37903">
        <ele>573</ele>
        <time>2011-04-16T13:02:29Z</time>
      </trkpt>
      <trkpt lat="46.044" lon="6.37888">
        <ele>573</ele>
        <time>2011-04-16T13:02:30Z</time>
      </trkpt>
      <trkpt lat="46.0441" lon="6.37873">
        <ele>573</ele>
        <time>2011-04-16T13:02:31Z</time>
      </trkpt>
      <trkpt lat="46.04419" lon="6.37858">
        <ele>573</ele>
        <time>2011-04-16T13:02:32Z</time>
      </trkpt>
      <trkpt lat="46.04429" lon="6.37845">
        <ele>573</ele>
        <time>2011-04-16T13:02:33Z</time>
      </trkpt>
      <trkpt lat="46.04438" lon="6.37831">
        <ele>573</ele>
        <time>2011-04-16T13:02:34Z</time>
      </trkpt>
      <trkpt lat="46.04449" lon="6.37819">
        <ele>573</ele>
        <time>2011-04-16T13:02:35Z</time>
      </trkpt>
      <trkpt lat="46.04459" lon="6.37807">
        <ele>573</ele>
        <time>2011-04-16T13:02:36Z</time>
      </trkpt>
      <trkpt lat="46.04471" lon="6.37799">
        <ele>573</ele>
        <time>2011-04-16T13:02:37Z</time>
      </trkpt>
      <trkpt lat="46.04486" lon="6.37795">
        <ele>573</ele>
        <time>2011-04-16T13:02:38Z</time>
      </trkpt>
      <trkpt lat="46.04501" lon="6.37795">
        <ele>573</ele>
        <time>2011-04-16T13:02:39Z</time>
      </trkpt>
      <trkpt lat="46.04517" lon="6.37799">
        <ele>573</ele>
        <time>2011-04-16T13:02:40Z</time>
      </trkpt>
      <trkpt lat="46.04531" lon="6.37807">
        <ele>573</ele>
        <time>2011-04-16T13:02:41Z</time>
      </trkpt>
      <trkpt lat="46.04543" lon="6.37807">
        <ele>573</ele>
        <time>2011-04-16T13:02:42Z</time>
      </trkpt>
      <trkpt lat="46.04552" lon="6.37799">
        <ele>573</ele>
        <time>2011-04-16T13:02:43Z</time>
      </trkpt>
      <trkpt lat="46.04559" lon="6.37788">
        <ele>573</ele>
        <time>2011-04-16T13:02:44Z</time>
      </trkpt>
      <trkpt lat="46.04561" lon="6.37772">
        <ele>573</ele>
        <time>2011-04-16T13:02:45Z</time>
      </trkpt>
      <trkpt lat="46.04564" lon="6.37742">
        <ele>559</ele>
        <time>2011-04-16T13:02:47Z</time>
      </trkpt>
      <trkpt lat="46.04564" lon="6.37719">
        <ele>559</ele>
        <time>2011-04-16T13:02:48Z</time>
      </trkpt>
      <trkpt lat="46.04566" lon="6.37701">
        <ele>559</ele>
        <time>2011-04-16T13:02:49Z</time>
      </trkpt>
      <trkpt lat="46.0457" lon="6.37686">
        <ele>559</ele>
        <time>2011-04-16T13:02:50Z</time>
      </trkpt>
      <trkpt lat="46.04574" lon="6.37674">
        <ele>552</ele>
        <time>2011-04-16T13:02:51Z</time>
      </trkpt>
      <trkpt lat="46.04588" lon="6.3766">
        <ele>552</ele>
        <time>2011-04-16T13:02:53Z</time>
      </trkpt>
      <trkpt lat="46.04598" lon="6.37657">
        <ele>552</ele>
        <time>2011-04-16T13:02:54Z</time>
      </trkpt>
      <trkpt lat="46.04611" lon="6.37657">
        <ele>552</ele>
        <time>2011-04-16T13:02:55Z</time>
      </trkpt>
      <trkpt lat="46.04621" lon="6.37655">
        <ele>552</ele>
        <time>2011-04-16T13:02:56Z</time>
      </trkpt>
      <trkpt lat="46.04631" lon="6.37651">
        <ele>552</ele>
        <time>2011-04-16T13:02:57Z</time>
      </trkpt>
      <trkpt lat="46.0464" lon="6.37645">
        <ele>552</ele>
        <time>2011-04-16T13:02:58Z</time>
      </trkpt>
      <trkpt lat="46.04647" lon="6.37635">
        <ele>552</ele>
        <time>2011-04-16T13:02:59Z</time>
      </trkpt>
      <trkpt lat="46.04652" lon="6.37622">
        <ele>552</ele>
        <time>2011-04-16T13:03:00Z</time>
      </trkpt>
      <trkpt lat="46.04657" lon="6.3761">
        <ele>552</ele>
        <time>2011-04-16T13:03:01Z</time>
      </trkpt>
      <trkpt lat="46.0466" lon="6.37597">
        <ele>552</ele>
        <time>2011-04-16T13:03:02Z</time>
      </trkpt>
      <trkpt lat="46.04667" lon="6.37578">
        <ele>552</ele>
        <time>2011-04-16T13:03:04Z</time>
      </trkpt>
      <trkpt lat="46.04677" lon="6.37567">
        <ele>552</ele>
        <time>2011-04-16T13:03:06Z</time>
      </trkpt>
      <trkpt lat="46.047" lon="6.37568">
        <ele>552</ele>
        <time>2011-04-16T13:03:08Z</time>
      </trkpt>
      <trkpt lat="46.04714" lon="6.37568">
        <ele>552</ele>
        <time>2011-04-16T13:03:09Z</time>
      </trkpt>
      <trkpt lat="46.04727" lon="6.37569">
        <ele>552</ele>
        <time>2011-04-16T13:03:10Z</time>
      </trkpt>
      <trkpt lat="46.04738" lon="6.37567">
        <ele>552</ele>
        <time>2011-04-16T13:03:11Z</time>
      </trkpt>
      <trkpt lat="46.04749" lon="6.37569">
        <ele>552</ele>
        <time>2011-04-16T13:03:12Z</time>
      </trkpt>
      <trkpt lat="46.0476" lon="6.37576">
        <ele>552</ele>
        <time>2011-04-16T13:03:13Z</time>
      </trkpt>
      <trkpt lat="46.04773" lon="6.37583">
        <ele>552</ele>
        <time>2011-04-16T13:03:14Z</time>
      </trkpt>
      <trkpt lat="46.04784" lon="6.37588">
        <ele>552</ele>
        <time>2011-04-16T13:03:15Z</time>
      </trkpt>
      <trkpt lat="46.04796" lon="6.37598">
        <ele>552</ele>
        <time>2011-04-16T13:03:16Z</time>
      </trkpt>
      <trkpt lat="46.04803" lon="6.37608">
        <ele>552</ele>
        <time>2011-04-16T13:03:17Z</time>
      </trkpt>
      <trkpt lat="46.04811" lon="6.37615">
        <ele>552</ele>
        <time>2011-04-16T13:03:18Z</time>
      </trkpt>
      <trkpt lat="46.04827" lon="6.37622">
        <ele>544</ele>
        <time>2011-04-16T13:03:20Z</time>
      </trkpt>
      <trkpt lat="46.04836" lon="6.37617">
        <ele>544</ele>
        <time>2011-04-16T13:03:21Z</time>
      </trkpt>
      <trkpt lat="46.04843" lon="6.37607">
        <ele>544</ele>
        <time>2011-04-16T13:03:22Z</time>
      </trkpt>
      <trkpt lat="46.04854" lon="6.3759">
        <ele>537</ele>
        <time>2011-04-16T13:03:24Z</time>
      </trkpt>
      <trkpt lat="46.04869" lon="6.37582">
        <ele>537</ele>
        <time>2011-04-16T13:03:26Z</time>
      </trkpt>
      <trkpt lat="46.04885" lon="6.37587">
        <ele>537</ele>
        <time>2011-04-16T13:03:28Z</time>
      </trkpt>
      <trkpt lat="46.04895" lon="6.37591">
        <ele>537</ele>
        <time>2011-04-16T13:03:29Z</time>
      </trkpt>
      <trkpt lat="46.04905" lon="6.37595">
        <ele>537</ele>
        <time>2011-04-16T13:03:30Z</time>
      </trkpt>
      <trkpt lat="46.04916" lon="6.37598">
        <ele>537</ele>
        <time>2011-04-16T13:03:31Z</time>
      </trkpt>
      <trkpt lat="46.04927" lon="6.37602">
        <ele>537</ele>
        <time>2011-04-16T13:03:32Z</time>
      </trkpt>
      <trkpt lat="46.0494" lon="6.37606">
        <ele>537</ele>
        <time>2011-04-16T13:03:33Z</time>
      </trkpt>
      <trkpt lat="46.04953" lon="6.3762">
        <ele>544</ele>
        <time>2011-04-16T13:03:34Z</time>
      </trkpt>
      <trkpt lat="46.04962" lon="6.37628">
        <ele>549</ele>
        <time>2011-04-16T13:03:35Z</time>
      </trkpt>
      <trkpt lat="46.04974" lon="6.37632">
        <ele>549</ele>
        <time>2011-04-16T13:03:36Z</time>
      </trkpt>
      <trkpt lat="46.04985" lon="6.37633">
        <ele>549</ele>
        <time>2011-04-16T13:03:37Z</time>
      </trkpt>
      <trkpt lat="46.04996" lon="6.37632">
        <ele>549</ele>
        <time>2011-04-16T13:03:38Z</time>
      </trkpt>
      <trkpt lat="46.05006" lon="6.3763">
        <ele>549</ele>
        <time>2011-04-16T13:03:39Z</time>
      </trkpt>
      <trkpt lat="46.05016" lon="6.37629">
        <ele>549</ele>
        <time>2011-04-16T13:03:40Z</time>
      </trkpt>
      <trkpt lat="46.05026" lon="6.37629">
        <ele>549</ele>
        <time>2011-04-16T13:03:41Z</time>
      </trkpt>
      <trkpt lat="46.05037" lon="6.37634">
        <ele>549</ele>
        <time>2011-04-16T13:03:42Z</time>
      </trkpt>
      <trkpt lat="46.05049" lon="6.37642">
        <ele>549</ele>
        <time>2011-04-16T13:03:43Z</time>
      </trkpt>
      <trkpt lat="46.05059" lon="6.37655">
        <ele>549</ele>
        <time>2011-04-16T13:03:44Z</time>
      </trkpt>
      <trkpt lat="46.0507" lon="6.37664">
        <ele>549</ele>
        <time>2011-04-16T13:03:45Z</time>
      </trkpt>
      <trkpt lat="46.0508" lon="6.3767">
        <ele>549</ele>
        <time>2011-04-16T13:03:46Z</time>
      </trkpt>
      <trkpt lat="46.0509" lon="6.37675">
        <ele>549</ele>
        <time>2011-04-16T13:03:47Z</time>
      </trkpt>
      <trkpt lat="46.05102" lon="6.37676">
        <ele>549</ele>
        <time>2011-04-16T13:03:48Z</time>
      </trkpt>
      <trkpt lat="46.05113" lon="6.37675">
        <ele>549</ele>
        <time>2011-04-16T13:03:49Z</time>
      </trkpt>
      <trkpt lat="46.05123" lon="6.37664">
        <ele>549</ele>
        <time>2011-04-16T13:03:50Z</time>
      </trkpt>
      <trkpt lat="46.05134" lon="6.37648">
        <ele>543</ele>
        <time>2011-04-16T13:03:51Z</time>
      </trkpt>
      <trkpt lat="46.05143" lon="6.3763">
        <ele>543</ele>
        <time>2011-04-16T13:03:52Z</time>
      </trkpt>
      <trkpt lat="46.05155" lon="6.37616">
        <ele>543</ele>
        <time>2011-04-16T13:03:53Z</time>
      </trkpt>
      <trkpt lat="46.05167" lon="6.37604">
        <ele>543</ele>
        <time>2011-04-16T13:03:54Z</time>
      </trkpt>
      <trkpt lat="46.05177" lon="6.37591">
        <ele>538</ele>
        <time>2011-04-16T13:03:55Z</time>
      </trkpt>
      <trkpt lat="46.05186" lon="6.37578">
        <ele>538</ele>
        <time>2011-04-16T13:03:56Z</time>
      </trkpt>
      <trkpt lat="46.05193" lon="6.37563">
        <ele>538</ele>
        <time>2011-04-16T13:03:57Z</time>
      </trkpt>
      <trkpt lat="46.05201" lon="6.37547">
        <ele>531</ele>
        <time>2011-04-16T13:03:58Z</time>
      </trkpt>
      <trkpt lat="46.05207" lon="6.3753">
        <ele>531</ele>
        <time>2011-04-16T13:03:59Z</time>
      </trkpt>
      <trkpt lat="46.05211" lon="6.37513">
        <ele>531</ele>
        <time>2011-04-16T13:04:00Z</time>
      </trkpt>
      <trkpt lat="46.05213" lon="6.37497">
        <ele>531</ele>
        <time>2011-04-16T13:04:01Z</time>
      </trkpt>
      <trkpt lat="46.05217" lon="6.37481">
        <ele>531</ele>
        <time>2011-04-16T13:04:02Z</time>
      </trkpt>
      <trkpt lat="46.05224" lon="6.37466">
        <ele>531</ele>
        <time>2011-04-16T13:04:03Z</time>
      </trkpt>
      <trkpt lat="46.0523" lon="6.37449">
        <ele>526</ele>
        <time>2011-04-16T13:04:04Z</time>
      </trkpt>
      <trkpt lat="46.05237" lon="6.37432">
        <ele>526</ele>
        <time>2011-04-16T13:04:05Z</time>
      </trkpt>
      <trkpt lat="46.05244" lon="6.37417">
        <ele>526</ele>
        <time>2011-04-16T13:04:06Z</time>
      </trkpt>
      <trkpt lat="46.05249" lon="6.37401">
        <ele>526</ele>
        <time>2011-04-16T13:04:07Z</time>
      </trkpt>
      <trkpt lat="46.05254" lon="6.37386">
        <ele>526</ele>
        <time>2011-04-16T13:04:08Z</time>
      </trkpt>
      <trkpt lat="46.05259" lon="6.37374">
        <ele>526</ele>
        <time>2011-04-16T13:04:09Z</time>
      </trkpt>
      <trkpt lat="46.05276" lon="6.37366">
        <ele>533</ele>
        <time>2011-04-16T13:04:11Z</time>
      </trkpt>
      <trkpt lat="46.05293" lon="6.37373">
        <ele>533</ele>
        <time>2011-04-16T13:04:12Z</time>
      </trkpt>
      <trkpt lat="46.05312" lon="6.37383">
        <ele>533</ele>
        <time>2011-04-16T13:04:13Z</time>
      </trkpt>
      <trkpt lat="46.05331" lon="6.37396">
        <ele>533</ele>
        <time>2011-04-16T13:04:14Z</time>
      </trkpt>
      <trkpt lat="46.05349" lon="6.37402">
        <ele>533</ele>
        <time>2011-04-16T13:04:15Z</time>
      </trkpt>
      <trkpt lat="46.05364" lon="6.37408">
        <ele>533</ele>
        <time>2011-04-16T13:04:16Z</time>
      </trkpt>
      <trkpt lat="46.05377" lon="6.37408">
        <ele>533</ele>
        <time>2011-04-16T13:04:17Z</time>
      </trkpt>
      <trkpt lat="46.05388" lon="6.37402">
        <ele>533</ele>
        <time>2011-04-16T13:04:18Z</time>
      </trkpt>
      <trkpt lat="46.05396" lon="6.37393">
        <ele>533</ele>
        <time>2011-04-16T13:04:19Z</time>
      </trkpt>
      <trkpt lat="46.05399" lon="6.37381">
        <ele>533</ele>
        <time>2011-04-16T13:04:20Z</time>
      </trkpt>
      <trkpt lat="46.05399" lon="6.37366">
        <ele>533</ele>
        <time>2011-04-16T13:04:21Z</time>
      </trkpt>
      <trkpt lat="46.05394" lon="6.37352">
        <ele>527</ele>
        <time>2011-04-16T13:04:22Z</time>
      </trkpt>
      <trkpt lat="46.05384" lon="6.37341">
        <ele>527</ele>
        <time>2011-04-16T13:04:23Z</time>
      </trkpt>
      <trkpt lat="46.05374" lon="6.37333">
        <ele>527</ele>
        <time>2011-04-16T13:04:24Z</time>
      </trkpt>
      <trkpt lat="46.05367" lon="6.37325">
        <ele>521</ele>
        <time>2011-04-16T13:04:25Z</time>
      </trkpt>
      <trkpt lat="46.05359" lon="6.37304">
        <ele>521</ele>
        <time>2011-04-16T13:04:27Z</time>
      </trkpt>
      <trkpt lat="46.05366" lon="6.37282">
        <ele>513</ele>
        <time>2011-04-16T13:04:29Z</time>
      </trkpt>
      <trkpt lat="46.05375" lon="6.37271">
        <ele>513</ele>
        <time>2011-04-16T13:04:30Z</time>
      </trkpt>
      <trkpt lat="46.05386" lon="6.3726">
        <ele>513</ele>
        <time>2011-04-16T13:04:31Z</time>
      </trkpt>
      <trkpt lat="46.05399" lon="6.37247">
        <ele>513</ele>
        <time>2011-04-16T13:04:32Z</time>
      </trkpt>
      <trkpt lat="46.05413" lon="6.37235">
        <ele>513</ele>
        <time>2011-04-16T13:04:33Z</time>
      </trkpt>
      <trkpt lat="46.05427" lon="6.37224">
        <ele>507</ele>
        <time>2011-04-16T13:04:34Z</time>
      </trkpt>
      <trkpt lat="46.05442" lon="6.37214">
        <ele>507</ele>
        <time>2011-04-16T13:04:35Z</time>
      </trkpt>
      <trkpt lat="46.05454" lon="6.37205">
        <ele>507</ele>
        <time>2011-04-16T13:04:36Z</time>
      </trkpt>
      <trkpt lat="46.05467" lon="6.37196">
        <ele>507</ele>
        <time>2011-04-16T13:04:37Z</time>
      </trkpt>
      <trkpt lat="46.05479" lon="6.37189">
        <ele>507</ele>
        <time>2011-04-16T13:04:38Z</time>
      </trkpt>
      <trkpt lat="46.05491" lon="6.37184">
        <ele>507</ele>
        <time>2011-04-16T13:04:39Z</time>
      </trkpt>
      <trkpt lat="46.05502" lon="6.37181">
        <ele>507</ele>
        <time>2011-04-16T13:04:40Z</time>
      </trkpt>
      <trkpt lat="46.05513" lon="6.37188">
        <ele>507</ele>
        <time>2011-04-16T13:04:41Z</time>
      </trkpt>
      <trkpt lat="46.05524" lon="6.37198">
        <ele>502</ele>
        <time>2011-04-16T13:04:42Z</time>
      </trkpt>
      <trkpt lat="46.05536" lon="6.37213">
        <ele>502</ele>
        <time>2011-04-16T13:04:43Z</time>
      </trkpt>
      <trkpt lat="46.05549" lon="6.37228">
        <ele>502</ele>
        <time>2011-04-16T13:04:44Z</time>
      </trkpt>
      <trkpt lat="46.05562" lon="6.37243">
        <ele>502</ele>
        <time>2011-04-16T13:04:45Z</time>
      </trkpt>
      <trkpt lat="46.05577" lon="6.3726">
        <ele>502</ele>
        <time>2011-04-16T13:04:46Z</time>
      </trkpt>
      <trkpt lat="46.05591" lon="6.37277">
        <ele>496</ele>
        <time>2011-04-16T13:04:47Z</time>
      </trkpt>
      <trkpt lat="46.05605" lon="6.37292">
        <ele>496</ele>
        <time>2011-04-16T13:04:48Z</time>
      </trkpt>
      <trkpt lat="46.05617" lon="6.37306">
        <ele>496</ele>
        <time>2011-04-16T13:04:49Z</time>
      </trkpt>
      <trkpt lat="46.05628" lon="6.37319">
        <ele>496</ele>
        <time>2011-04-16T13:04:50Z</time>
      </trkpt>
      <trkpt lat="46.05639" lon="6.37331">
        <ele>496</ele>
        <time>2011-04-16T13:04:51Z</time>
      </trkpt>
      <trkpt lat="46.05649" lon="6.37342">
        <ele>496</ele>
        <time>2011-04-16T13:04:52Z</time>
      </trkpt>
      <trkpt lat="46.05658" lon="6.37353">
        <ele>496</ele>
        <time>2011-04-16T13:04:53Z</time>
      </trkpt>
      <trkpt lat="46.05666" lon="6.37364">
        <ele>496</ele>
        <time>2011-04-16T13:04:54Z</time>
      </trkpt>
      <trkpt lat="46.05674" lon="6.37376">
        <ele>491</ele>
        <time>2011-04-16T13:04:55Z</time>
      </trkpt>
      <trkpt lat="46.05681" lon="6.37392">
        <ele>491</ele>
        <time>2011-04-16T13:04:56Z</time>
      </trkpt>
      <trkpt lat="46.05686" lon="6.37409">
        <ele>491</ele>
        <time>2011-04-16T13:04:57Z</time>
      </trkpt>
      <trkpt lat="46.05692" lon="6.37427">
        <ele>491</ele>
        <time>2011-04-16T13:04:58Z</time>
      </trkpt>
      <trkpt lat="46.05698" lon="6.37443">
        <ele>491</ele>
        <time>2011-04-16T13:04:59Z</time>
      </trkpt>
      <trkpt lat="46.05704" lon="6.37458">
        <ele>491</ele>
        <time>2011-04-16T13:05:00Z</time>
      </trkpt>
      <trkpt lat="46.05709" lon="6.37472">
        <ele>491</ele>
        <time>2011-04-16T13:05:01Z</time>
      </trkpt>
      <trkpt lat="46.05714" lon="6.37485">
        <ele>491</ele>
        <time>2011-04-16T13:05:02Z</time>
      </trkpt>
      <trkpt lat="46.05719" lon="6.37507">
        <ele>491</ele>
        <time>2011-04-16T13:05:04Z</time>
      </trkpt>
      <trkpt lat="46.05723" lon="6.37523">
        <ele>491</ele>
        <time>2011-04-16T13:05:06Z</time>
      </trkpt>
      <trkpt lat="46.05734" lon="6.37529">
        <ele>491</ele>
        <time>2011-04-16T13:05:09Z</time>
      </trkpt>
      <trkpt lat="46.05744" lon="6.37516">
        <ele>491</ele>
        <time>2011-04-16T13:05:11Z</time>
      </trkpt>
      <trkpt lat="46.05758" lon="6.37508">
        <ele>491</ele>
        <time>2011-04-16T13:05:13Z</time>
      </trkpt>
      <trkpt lat="46.05775" lon="6.37503">
        <ele>491</ele>
        <time>2011-04-16T13:05:15Z</time>
      </trkpt>
      <trkpt lat="46.0579" lon="6.37498">
        <ele>491</ele>
        <time>2011-04-16T13:05:17Z</time>
      </trkpt>
      <trkpt lat="46.05802" lon="6.3749">
        <ele>491</ele>
        <time>2011-04-16T13:05:19Z</time>
      </trkpt>
      <trkpt lat="46.0581" lon="6.37481">
        <ele>491</ele>
        <time>2011-04-16T13:05:21Z</time>
      </trkpt>
      <trkpt lat="46.05808" lon="6.37468">
        <ele>485</ele>
        <time>2011-04-16T13:07:18Z</time>
      </trkpt>
      <trkpt lat="46.05815" lon="6.37478">
        <ele>490</ele>
        <time>2011-04-16T13:08:39Z</time>
      </trkpt>
    </trkseg>
  </trk>
</gpx>